
Distance (Route):
Temperature : 21.0°C
Humidity : 51.5%
Pressure : 992.6hPa| Receiver | Frames | First received | Last received |
|---|---|---|---|
| BIOWL1-15 | 734 | 2026-09-01 11:00:18 | 2026-09-01 13:17:57 |
| DM0DOS-11 | 348 | 2026-09-01 10:59:51 | 2026-09-01 13:19:58 |
| DL1XH-west | 254 | 2026-09-01 11:40:45 | 2026-09-01 12:54:33 |
| DL1XH1-15 | 147 | 2026-09-01 11:41:18 | 2026-09-01 12:54:36 |
| AA1-15 | 118 | 2026-09-01 12:10:26 | 2026-09-01 12:43:51 |
| DB0UT-9 | 117 | 2026-09-01 10:44:40 | 2026-09-01 13:31:39 |
| DB0UT-7 | 111 | 2026-09-01 10:45:57 | 2026-09-01 13:32:11 |
| DL1ZP-14 | 89 | 2026-09-01 10:51:57 | 2026-09-01 13:31:58 |
| DK5PH-5 | 82 | 2026-09-01 10:55:39 | 2026-09-01 13:28:36 |
| DB0ND-19 | 78 | 2026-09-01 10:49:37 | 2026-09-01 13:32:33 |
| CB1BUN | 64 | 2026-09-01 10:50:47 | 2026-09-01 13:05:10 |
| DJ2DS-15 | 61 | 2026-09-01 11:24:18 | 2026-09-01 13:01:46 |
| HEMX73-11 | 60 | 2026-09-01 10:51:31 | 2026-09-01 13:07:25 |
| BIOWL9-15 | 60 | 2026-09-01 11:04:44 | 2026-09-01 13:17:44 |
| DL9PN | 58 | 2026-09-01 10:50:11 | 2026-09-01 12:34:47 |
| DL9SK-14 | 53 | 2026-09-01 11:44:45 | 2026-09-01 13:29:51 |
| DL3AQ-11 | 47 | 2026-09-01 11:37:48 | 2026-09-01 12:54:51 |
| DL8DAS-14 | 39 | 2026-09-01 11:14:58 | 2026-09-01 13:05:08 |
| DF3TZ-5 | 32 | 2026-09-01 11:21:44 | 2026-09-01 13:14:02 |
| DO1YAY-16 | 30 | 2026-09-01 11:06:16 | 2026-09-01 12:59:06 |
| GOEST3-10 | 30 | 2026-09-01 12:15:39 | 2026-09-01 12:40:11 |
| BEGRI65-1 | 30 | 2026-09-01 12:53:39 | 2026-09-01 13:28:43 |
| AU51GT2 | 27 | 2026-09-01 11:24:06 | 2026-09-01 12:59:48 |
| DM3KS-11 | 26 | 2026-09-01 10:54:47 | 2026-09-01 12:01:02 |
| DJ2KF-10 | 26 | 2026-09-01 11:22:36 | 2026-09-01 12:39:08 |
| DF7PN | 26 | 2026-09-01 13:15:07 | 2026-09-01 13:31:41 |
| DB0NH | 24 | 2026-09-01 13:18:27 | 2026-09-01 13:28:40 |
| DD1CC8 | 23 | 2026-09-01 11:49:08 | 2026-09-01 13:13:29 |
| DL0LBS | 23 | 2026-09-01 13:08:26 | 2026-09-01 13:25:16 |
| HSKMA3-T | 21 | 2026-09-01 12:29:54 | 2026-09-01 13:06:11 |
| DL8DAS-15 | 20 | 2026-09-01 11:15:19 | 2026-09-01 13:03:16 |
| SFWM-10 | 19 | 2026-09-01 12:55:12 | 2026-09-01 13:20:14 |
| DH7VM-15 | 16 | 2026-09-01 10:59:19 | 2026-09-01 13:07:23 |
| DF2AP-13 | 12 | 2026-09-01 13:00:58 | 2026-09-01 13:14:13 |
| NBG1-10 | 10 | 2026-09-01 13:19:21 | 2026-09-01 13:25:33 |
| DO9LL-15 | 9 | 2026-09-01 11:31:41 | 2026-09-01 13:06:50 |
| DL4BBY-15 | 8 | 2026-09-01 11:55:55 | 2026-09-01 12:55:32 |
| DF1GD-15 | 8 | 2026-09-01 13:05:20 | 2026-09-01 13:14:10 |
| BIOWL7-15 | 6 | 2026-09-01 11:12:03 | 2026-09-01 13:17:39 |
| SSTOLZ84 | 6 | 2026-09-01 11:56:12 | 2026-09-01 12:48:28 |
| HEMX73-6 | 3 | 2026-09-01 10:59:23 | 2026-09-01 13:02:40 |
| DL2OL | 3 | 2026-09-01 11:47:13 | 2026-09-01 12:50:04 |
| DL8OAI-8 | 3 | 2026-09-01 12:18:23 | 2026-09-01 12:34:16 |
| HTAHTA | 2 | 2026-09-01 11:56:15 | 2026-09-01 11:56:46 |
| IW2NTF | 2 | 2026-09-01 12:13:29 | 2026-09-01 12:39:37 |
| KANTATE | 2 | 2026-09-01 12:34:37 | 2026-09-01 12:49:29 |
| DJTTGO | 2 | 2026-09-01 12:50:37 | 2026-09-01 12:56:04 |
| DM7RM-13 | 1 | 2026-09-01 12:18:21 | 2026-09-01 12:18:21 |
| DG1MJG | 1 | 2026-09-01 12:37:51 | 2026-09-01 12:37:51 |
| DJ3KS | 1 | 2026-09-01 12:51:17 | 2026-09-01 12:51:17 |
| Receiver | Date | Latitude | Longitude | Direction | Speed | Altitude | Climb | Temperature | Humidity | Pressure | Voltage | Killtimer | Uptime | BKT | XDATA |
|---|---|---|---|---|---|---|---|---|---|---|---|---|---|---|---|
| DB0ND-19 | 2026-09-01 13:32:33 | 49.86321 | 8.90007 | 51° | 18km/h | 273m | -5.0m/s | 21.0°C | 51.5% | 992.6hPa | 2.7V | 00:00:00 | 00:00:00 | 00:00:00 | |
| DB0UT-7 | 2026-09-01 13:32:11 | 49.86281 | 8.89945 | 38° | 22km/h | 327m | -5.0m/s | 20.4°C | 52.1% | 986.3hPa | 2.7V | 00:00:00 | 02:54:56 | 00:00:00 | |
| DB0UT-7 | 2026-09-01 13:32:05 | 49.86256 | 8.89908 | 56° | 22km/h | 355m | -5.0m/s | 20.1°C | 52.9% | 982.9hPa | 2.7V | 02:18:00 | 00:00:00 | 00:00:00 | |
| DB0ND-19 | 2026-09-01 13:32:02 | 49.86247 | 8.89886 | 57° | 20km/h | 370m | -5.2m/s | 20.0°C | 53.7% | 981.4hPa | 2.8V | 00:00:00 | 00:00:00 | 00:00:00 | |
| DL1ZP-14 | 2026-09-01 13:31:58 | 49.86232 | 8.89858 | 41° | 13km/h | 401m | -5.2m/s | 19.7°C | 54.3% | 977.8hPa | 2.8V | 00:00:00 | 00:00:00 | 00:00:00 | |
| DB0UT-7 | 2026-09-01 13:31:55 | 49.86230 | 8.89854 | 43° | 16km/h | 406m | -5.2m/s | 19.6°C | 54.0% | 977.1hPa | 2.7V | 00:00:00 | 00:00:00 | 00:00:00 | |
| DB0UT-7 | 2026-09-01 13:31:50 | 49.86214 | 8.89832 | 43° | 16km/h | 429m | -3.9m/s | 19.4°C | 54.8% | 974.4hPa | 2.7V | 02:18:00 | 02:54:35 | 00:00:00 | |
| DB0UT-7 | 2026-09-01 13:31:45 | 49.86199 | 8.89810 | 56° | 16km/h | 451m | -5.1m/s | 19.2°C | 55.1% | 972.3hPa | 2.7V | 00:00:00 | 00:00:00 | 00:00:00 | |
| DF7PN | 2026-09-01 13:31:41 | 49.86190 | 8.89790 | 51° | 15km/h | 471m | -4.5m/s | 19.1°C | 56.1% | 970.2hPa | 2.7V | 00:00:00 | 00:00:00 | 00:00:00 | |
| DB0UT-7 | 2026-09-01 13:31:40 | 49.86188 | 8.89785 | 63° | 16km/h | 476m | -3.9m/s | 19.0°C | 56.0% | 969.5hPa | 2.7V | 00:00:00 | 02:54:25 | 00:00:00 | |
| DB0UT-9 | 2026-09-01 13:31:39 | 49.86188 | 8.89785 | 63° | 16km/h | 476m | -3.9m/s | 19.1°C | 56.4% | 969.5hPa | 2.7V | 02:19:00 | 00:00:00 | 00:00:00 | |
| DB0UT-7 | 2026-09-01 13:31:35 | 49.86178 | 8.89757 | 61° | 16km/h | 499m | -4.6m/s | 18.9°C | 56.6% | 967.1hPa | 2.7V | 02:19:00 | 00:00:00 | 00:00:00 | |
| DB0ND-19 | 2026-09-01 13:31:31 | 49.86169 | 8.89737 | 45° | 15km/h | 517m | -4.8m/s | 18.7°C | 57.5% | 965.1hPa | 2.8V | 00:00:00 | 00:00:00 | 00:00:00 | |
| DL1ZP-14 | 2026-09-01 13:31:26 | 49.86155 | 8.89718 | 38° | 13km/h | 540m | -4.7m/s | 18.5°C | 57.9% | 962.4hPa | 2.8V | 00:00:00 | 00:00:00 | 00:00:00 | |
| DB0UT-7 | 2026-09-01 13:31:21 | 49.86145 | 8.89701 | 57° | 13km/h | 561m | -4.4m/s | 18.2°C | 58.3% | 959.9hPa | 2.7V | 00:00:00 | 00:00:00 | 00:00:00 | |
| DB0UT-9 | 2026-09-01 13:31:19 | 49.86143 | 8.89697 | 60° | 13km/h | 565m | -4.3m/s | 18.2°C | 58.7% | 959.5hPa | 2.7V | 02:20:00 | 00:00:00 | 00:00:00 | |
| DB0UT-7 | 2026-09-01 13:31:16 | 49.86136 | 8.89679 | 60° | 13km/h | 581m | -3.7m/s | 18.0°C | 58.9% | 957.7hPa | 2.7V | 02:19:00 | 02:54:01 | 00:00:00 | |
| DB0UT-7 | 2026-09-01 13:31:11 | 49.86128 | 8.89660 | 48° | 13km/h | 602m | -4.3m/s | 17.8°C | 59.6% | 955.5hPa | 2.7V | 00:00:00 | 00:00:00 | 00:00:00 | |
| DF7PN | 2026-09-01 13:31:10 | 49.86126 | 8.89656 | 42° | 9km/h | 606m | -4.7m/s | 17.8°C | 59.9% | 955.1hPa | 2.7V | 00:00:00 | 00:00:00 | 00:00:00 | |
| DB0UT-7 | 2026-09-01 13:31:06 | 49.86115 | 8.89644 | 32° | 16km/h | 626m | -5.2m/s | 17.6°C | 60.0% | 952.9hPa | 2.7V | 00:00:00 | 02:53:51 | 00:00:00 | |
| DB0ND-19 | 2026-09-01 13:31:00 | 49.86096 | 8.89622 | 44° | 15km/h | 658m | -4.6m/s | 17.3°C | 61.2% | 949.5hPa | 2.7V | 00:00:00 | 00:00:00 | 00:00:00 | |
| DL1ZP-14 | 2026-09-01 13:30:55 | 49.86081 | 8.89595 | 56° | 15km/h | 687m | -4.4m/s | 17.0°C | 61.9% | 946.1hPa | 2.7V | 00:00:00 | 00:00:00 | 00:00:00 | |
| DB0UT-7 | 2026-09-01 13:30:51 | 49.86074 | 8.89579 | 55° | 16km/h | 701m | -4.7m/s | 16.8°C | 62.7% | 944.7hPa | 2.7V | 00:00:00 | 00:00:00 | 00:00:00 | |
| DB0UT-7 | 2026-09-01 13:30:46 | 49.86062 | 8.89553 | 56° | 16km/h | 725m | -4.7m/s | 16.5°C | 63.7% | 942.1hPa | 2.7V | 02:19:00 | 02:53:31 | 00:00:00 | |
| DB0UT-7 | 2026-09-01 13:30:40 | 49.86050 | 8.89519 | 67° | 16km/h | 755m | -4.9m/s | 16.3°C | 64.3% | 938.7hPa | 2.7V | 00:00:00 | 00:00:00 | 00:00:00 | |
| DF7PN | 2026-09-01 13:30:40 | 49.86048 | 8.89513 | 68° | 15km/h | 759m | -5.0m/s | 16.3°C | 64.7% | 938.0hPa | 2.7V | 00:00:00 | 00:00:00 | 00:00:00 | |
| DB0UT-9 | 2026-09-01 13:30:38 | 49.86048 | 8.89513 | 70° | 16km/h | 760m | -5.0m/s | 16.3°C | 64.7% | 938.0hPa | 2.7V | 02:20:00 | 00:00:00 | 00:00:00 | |
| DB0UT-7 | 2026-09-01 13:30:35 | 49.86042 | 8.89492 | 56° | 15km/h | 779m | -5.1m/s | 16.1°C | 63.5% | 935.8hPa | 2.7V | 00:00:00 | 02:53:20 | 00:00:00 | |
| DB0UT-7 | 2026-09-01 13:30:30 | 49.86030 | 8.89468 | 54° | 16km/h | 804m | -5.5m/s | 16.0°C | 63.1% | 933.1hPa | 2.7V | 02:20:00 | 00:00:00 | 00:00:00 | |
| DB0ND-19 | 2026-09-01 13:30:29 | 49.86028 | 8.89463 | 53° | 16km/h | 809m | -5.1m/s | 16.0°C | 63.8% | 932.6hPa | 2.8V | 00:00:00 | 00:00:00 | 00:00:00 | |
| DB0UT-7 | 2026-09-01 13:30:25 | 49.86018 | 8.89442 | 59° | 15km/h | 829m | -4.7m/s | 15.8°C | 63.2% | 930.5hPa | 2.8V | 00:00:00 | 02:53:10 | 00:00:00 | |
| DL1ZP-14 | 2026-09-01 13:30:24 | 49.86016 | 8.89437 | 58° | 15km/h | 834m | -4.8m/s | 15.8°C | 64.1% | 929.8hPa | 2.8V | 00:00:00 | 00:00:00 | 00:00:00 | |
| DB0UT-7 | 2026-09-01 13:30:20 | 49.86009 | 8.89417 | 62° | 15km/h | 852m | -4.5m/s | 15.5°C | 65.6% | 927.7hPa | 2.7V | 00:00:00 | 00:00:00 | 00:00:00 | |
| DB0UT-9 | 2026-09-01 13:30:17 | 49.86006 | 8.89408 | 63° | 15km/h | 861m | -4.3m/s | 15.4°C | 66.6% | 927.0hPa | 2.7V | 02:20:00 | 00:00:00 | 00:00:00 | |
| DB0UT-7 | 2026-09-01 13:30:15 | 49.86001 | 8.89393 | 64° | 15km/h | 873m | -3.6m/s | 15.2°C | 67.0% | 925.5hPa | 2.7V | 02:20:00 | 02:53:00 | 00:00:00 | |
| DB0UT-7 | 2026-09-01 13:30:10 | 49.85993 | 8.89368 | 69° | 15km/h | 891m | -3.5m/s | 15.1°C | 67.5% | 923.6hPa | 2.7V | 00:00:00 | 00:00:00 | 00:00:00 | |
| DF7PN | 2026-09-01 13:30:08 | 49.85991 | 8.89357 | 70° | 15km/h | 898m | -3.4m/s | 15.1°C | 67.6% | 922.7hPa | 2.7V | 00:00:00 | 00:00:00 | 00:00:00 | |
| DB0UT-7 | 2026-09-01 13:30:05 | 49.85986 | 8.89340 | 68° | 16km/h | 908m | -3.2m/s | 15.0°C | 66.3% | 921.7hPa | 2.7V | 00:00:00 | 02:52:50 | 00:00:00 | |
| DB0ND-19 | 2026-09-01 13:29:58 | 49.85974 | 8.89294 | 67° | 16km/h | 933m | -3.4m/s | 14.8°C | 66.7% | 919.1hPa | 2.7V | 00:00:00 | 00:00:00 | 00:00:00 | |
| DL1ZP-14 | 2026-09-01 13:29:53 | 49.85968 | 8.89271 | 68° | 15km/h | 946m | -3.4m/s | 14.8°C | 66.1% | 917.4hPa | 2.7V | 00:00:00 | 00:00:00 | 00:00:00 | |
| DL9SK-14 | 2026-09-01 13:29:51 | 49.85965 | 8.89256 | 70° | 11km/h | 957m | -4.0m/s | 14.7°C | 66.1% | 916.3hPa | 2.7V | 00:00:00 | 00:00:00 | 00:00:00 | |
| DB0UT-7 | 2026-09-01 13:29:50 | 49.85964 | 8.89256 | 71° | 13km/h | 957m | -3.9m/s | 14.6°C | 65.8% | 916.3hPa | 2.7V | 00:00:00 | 00:00:00 | 00:00:00 | |
| DB0UT-7 | 2026-09-01 13:29:45 | 49.85961 | 8.89231 | 81° | 13km/h | 978m | -4.3m/s | 14.4°C | 67.9% | 914.0hPa | 2.7V | 02:20:00 | 02:52:30 | 00:00:00 | |
| DB0UT-7 | 2026-09-01 13:29:40 | 49.85957 | 8.89206 | 71° | 15km/h | 998m | -4.1m/s | 14.4°C | 65.3% | 912.0hPa | 2.7V | 00:00:00 | 00:00:00 | 00:00:00 | |
| DF7PN | 2026-09-01 13:29:37 | 49.85954 | 8.89190 | 73° | 15km/h | 1010m | -4.1m/s | 14.3°C | 66.5% | 910.8hPa | 2.7V | 00:00:00 | 00:00:00 | 00:00:00 | |
| DB0UT-9 | 2026-09-01 13:29:36 | 49.85954 | 8.89190 | 74° | 15km/h | 1011m | -4.1m/s | 14.3°C | 66.5% | 910.8hPa | 2.7V | 02:21:00 | 00:00:00 | 00:00:00 | |
| DB0ND-19 | 2026-09-01 13:29:27 | 49.85949 | 8.89140 | 89° | 13km/h | 1053m | -3.9m/s | 13.9°C | 67.4% | 906.1hPa | 2.7V | 00:00:00 | 00:00:00 | 00:00:00 | |
| DL1ZP-14 | 2026-09-01 13:29:22 | 49.85949 | 8.89111 | 87° | 15km/h | 1072m | -3.7m/s | 13.7°C | 67.8% | 904.0hPa | 2.7V | 00:00:00 | 00:00:00 | 00:00:00 | |
| DL9SK-14 | 2026-09-01 13:29:20 | 49.85949 | 8.89093 | 87° | 15km/h | 1083m | -3.6m/s | 13.7°C | 68.0% | 902.9hPa | 2.7V | 00:00:00 | 00:00:00 | 00:00:00 | |
| DF7PN | 2026-09-01 13:29:06 | 49.85942 | 8.89023 | 78° | 13km/h | 1127m | -3.1m/s | 13.2°C | 69.6% | 898.1hPa | 2.7V | 00:00:00 | 00:00:00 | 00:00:00 | |
| DB0ND-19 | 2026-09-01 13:28:56 | 49.85932 | 8.88955 | 73° | 16km/h | 1162m | -3.4m/s | 12.9°C | 70.8% | 894.2hPa | 2.7V | 00:00:00 | 00:00:00 | 00:00:00 | |
| DL1ZP-14 | 2026-09-01 13:28:51 | 49.85927 | 8.88931 | 73° | 15km/h | 1177m | -4.0m/s | 12.7°C | 71.2% | 892.7hPa | 2.7V | 00:00:00 | 00:00:00 | 00:00:00 | |
| DL9SK-14 | 2026-09-01 13:28:49 | 49.85924 | 8.88911 | 77° | 18km/h | 1189m | -4.0m/s | 12.6°C | 71.6% | 891.4hPa | 2.7V | 00:00:00 | 00:00:00 | 00:00:00 | |
| DB0UT-7 | 2026-09-01 13:28:49 | 49.85925 | 8.88918 | 77° | 20km/h | 1185m | -3.9m/s | 12.6°C | 71.2% | 891.8hPa | 2.7V | 02:21:00 | 00:00:00 | 00:00:00 | |
| BEGRI65-1 | 2026-09-01 13:28:43 | 49.85919 | 8.88880 | 79° | 20km/h | 1205m | -3.7m/s | 12.5°C | 72.1% | 889.8hPa | 2.7V | 00:00:00 | 00:00:00 | 00:00:00 | |
| DB0UT-9 | 2026-09-01 13:28:42 | 49.85918 | 8.88872 | 80° | 22km/h | 1208m | -3.0m/s | 12.4°C | 72.3% | 889.2hPa | 2.7V | 02:22:00 | 00:00:00 | 00:00:00 | |
| DB0NH | 2026-09-01 13:28:40 | 49.85915 | 8.88847 | 73° | 18km/h | 1218m | -3.6m/s | 12.3°C | 71.8% | 888.2hPa | 2.7V | 00:00:00 | 02:51:25 | 00:00:00 | |
| DB0UT-7 | 2026-09-01 13:28:39 | 49.85913 | 8.88840 | 72° | 18km/h | 1221m | -3.5m/s | 12.3°C | 72.0% | 887.9hPa | 2.7V | 00:00:00 | 02:51:24 | 00:00:00 | |
| DK5PH-5 | 2026-09-01 13:28:36 | 49.85909 | 8.88820 | 71° | 20km/h | 1233m | -3.9m/s | 12.2°C | 72.7% | 886.7hPa | 2.7V | 02:22:00 | 02:51:21 | 00:00:00 | |
| DF7PN | 2026-09-01 13:28:35 | 49.85906 | 8.88808 | 74° | 16km/h | 1241m | -4.7m/s | 12.1°C | 72.9% | 885.7hPa | 2.7V | 00:00:00 | 00:00:00 | 00:00:00 | |
| DB0NH | 2026-09-01 13:28:30 | 49.85901 | 8.88783 | 70° | 20km/h | 1261m | -5.5m/s | 11.9°C | 73.7% | 883.8hPa | 2.7V | 02:22:00 | 02:51:15 | 00:00:00 | |
| DB0UT-7 | 2026-09-01 13:28:29 | 49.85899 | 8.88776 | 69° | 20km/h | 1266m | -5.8m/s | 11.8°C | 73.9% | 883.2hPa | 2.7V | 00:00:00 | 00:00:00 | 00:00:00 | |
| DK5PH-5 | 2026-09-01 13:28:25 | 49.85892 | 8.88746 | 72° | 22km/h | 1286m | -4.6m/s | 11.7°C | 74.4% | 881.1hPa | 2.7V | 00:00:00 | 02:51:10 | 00:00:00 | |
| BEGRI65-1 | 2026-09-01 13:28:23 | 49.85889 | 8.88730 | 72° | 22km/h | 1295m | -4.1m/s | 11.6°C | 75.2% | 880.3hPa | 2.7V | 00:00:00 | 00:00:00 | 00:00:00 | |
| DB0UT-9 | 2026-09-01 13:28:21 | 49.85887 | 8.88722 | 74° | 22km/h | 1299m | -5.0m/s | 11.6°C | 75.0% | 879.9hPa | 2.7V | 02:22:00 | 00:00:00 | 00:00:00 | |
| DL1ZP-14 | 2026-09-01 13:28:20 | 49.85885 | 8.88706 | 76° | 18km/h | 1309m | -5.1m/s | 11.5°C | 75.2% | 878.9hPa | 2.7V | 00:00:00 | 00:00:00 | 00:00:00 | |
| DB0NH | 2026-09-01 13:28:20 | 49.85884 | 8.88706 | 77° | 20km/h | 1309m | -5.0m/s | 11.5°C | 75.0% | 878.9hPa | 2.7V | 00:00:00 | 02:51:05 | 00:00:00 | |
| DB0UT-7 | 2026-09-01 13:28:19 | 49.85883 | 8.88699 | 81° | 20km/h | 1314m | -4.9m/s | 11.4°C | 75.2% | 878.2hPa | 2.7V | 02:22:00 | 02:51:04 | 00:00:00 | |
| DL9SK-14 | 2026-09-01 13:28:18 | 49.85882 | 8.88683 | 83° | 20km/h | 1324m | -5.3m/s | 11.3°C | 75.7% | 877.3hPa | 2.7V | 00:00:00 | 00:00:00 | 00:00:00 | |
| DK5PH-5 | 2026-09-01 13:28:15 | 49.85881 | 8.88667 | 88° | 22km/h | 1333m | -4.1m/s | 11.2°C | 75.9% | 876.1hPa | 2.7V | 00:00:00 | 02:51:00 | 00:00:00 | |
| DB0NH | 2026-09-01 13:28:10 | 49.85878 | 8.88627 | 81° | 26km/h | 1355m | -4.7m/s | 11.0°C | 76.7% | 873.9hPa | 2.7V | 00:00:00 | 02:50:55 | 00:00:00 | |
| DB0UT-7 | 2026-09-01 13:28:09 | 49.85877 | 8.88619 | 83° | 26km/h | 1360m | -4.4m/s | 11.0°C | 76.5% | 873.4hPa | 2.7V | 00:00:00 | 00:00:00 | 00:00:00 | |
| DK5PH-5 | 2026-09-01 13:28:05 | 49.85875 | 8.88581 | 86° | 27km/h | 1378m | -4.7m/s | 10.7°C | 79.6% | 871.6hPa | 2.7V | 02:22:00 | 02:50:50 | 00:00:00 | |
| DF7PN | 2026-09-01 13:28:04 | 49.85874 | 8.88560 | 87° | 26km/h | 1388m | -5.3m/s | 10.8°C | 78.2% | 870.6hPa | 2.7V | 00:00:00 | 00:00:00 | 00:00:00 | |
| BEGRI65-1 | 2026-09-01 13:28:02 | 49.85874 | 8.88549 | 89° | 27km/h | 1393m | -5.3m/s | 10.6°C | 80.1% | 870.0hPa | 2.7V | 02:23:00 | 00:00:00 | 00:00:00 | |
| DB0UT-9 | 2026-09-01 13:28:01 | 49.85874 | 8.88549 | 89° | 27km/h | 1393m | -5.3m/s | 10.6°C | 80.1% | 870.0hPa | 2.7V | 02:23:00 | 00:00:00 | 00:00:00 | |
| DB0ND-19 | 2026-09-01 13:27:54 | 49.85870 | 8.88453 | 88° | 27km/h | 1432m | -3.4m/s | 10.3°C | 82.1% | 866.1hPa | 2.7V | 00:00:00 | 00:00:00 | 00:00:00 | |
| DL1ZP-14 | 2026-09-01 13:27:49 | 49.85869 | 8.88406 | 87° | 31km/h | 1445m | -3.3m/s | 10.2°C | 81.1% | 864.7hPa | 2.7V | 00:00:00 | 00:00:00 | 00:00:00 | |
| DL9SK-14 | 2026-09-01 13:27:47 | 49.85868 | 8.88369 | 91° | 31km/h | 1457m | -4.2m/s | 10.4°C | 77.8% | 863.5hPa | 2.7V | 00:00:00 | 00:00:00 | 00:00:00 | |
| DK5PH-5 | 2026-09-01 13:27:45 | 49.85868 | 8.88356 | 91° | 33km/h | 1462m | -4.5m/s | 10.5°C | 73.6% | 863.1hPa | 2.7V | 00:00:00 | 02:50:30 | 00:00:00 | |
| DB0UT-9 | 2026-09-01 13:27:40 | 49.85868 | 8.88303 | 90° | 33km/h | 1481m | -5.2m/s | 10.6°C | 72.7% | 861.2hPa | 2.7V | 02:23:00 | 00:00:00 | 00:00:00 | |
| DB0NH | 2026-09-01 13:27:40 | 49.85868 | 8.88290 | 93° | 31km/h | 1486m | -5.3m/s | 10.8°C | 66.7% | 860.6hPa | 2.7V | 00:00:00 | 02:50:25 | 00:00:00 | |
| BEGRI65-1 | 2026-09-01 13:27:39 | 49.85868 | 8.88290 | 93° | 35km/h | 1486m | -5.4m/s | 10.8°C | 66.8% | 860.6hPa | 2.7V | 02:23:00 | 00:00:00 | 00:00:00 | |
| DB0UT-7 | 2026-09-01 13:27:39 | 49.85868 | 8.88277 | 91° | 31km/h | 1491m | -5.2m/s | 10.8°C | 66.4% | 860.2hPa | 2.7V | 00:00:00 | 02:50:24 | 00:00:00 | |
| DK5PH-5 | 2026-09-01 13:27:35 | 49.85869 | 8.88226 | 91° | 31km/h | 1512m | -5.1m/s | 10.5°C | 67.9% | 858.1hPa | 2.7V | 02:23:00 | 02:50:20 | 00:00:00 | |
| DF7PN | 2026-09-01 13:27:33 | 49.85869 | 8.88190 | 90° | 29km/h | 1527m | -4.9m/s | 10.3°C | 70.2% | 856.4hPa | 2.7V | 00:00:00 | 00:00:00 | 00:00:00 | |
| DB0NH | 2026-09-01 13:27:30 | 49.85869 | 8.88166 | 91° | 33km/h | 1536m | -4.4m/s | 10.4°C | 67.8% | 855.5hPa | 2.7V | 02:23:00 | 02:50:15 | 00:00:00 | |
| DB0UT-7 | 2026-09-01 13:27:28 | 49.85870 | 8.88141 | 93° | 33km/h | 1546m | -4.9m/s | 10.1°C | 70.0% | 854.7hPa | 2.7V | 00:00:00 | 00:00:00 | 00:00:00 | |
| DK5PH-5 | 2026-09-01 13:27:25 | 49.85871 | 8.88101 | 96° | 31km/h | 1560m | -4.6m/s | 9.9°C | 70.8% | 853.1hPa | 2.7V | 00:00:00 | 02:50:10 | 00:00:00 | |
| DB0ND-19 | 2026-09-01 13:27:23 | 49.85874 | 8.88064 | 93° | 31km/h | 1574m | -5.0m/s | 9.9°C | 70.8% | 851.9hPa | 2.7V | 00:00:00 | 00:00:00 | 00:00:00 | |
| DB0UT-9 | 2026-09-01 13:27:20 | 49.85874 | 8.88051 | 93° | 31km/h | 1579m | -4.8m/s | 10.0°C | 70.1% | 851.2hPa | 2.7V | 02:23:00 | 00:00:00 | 00:00:00 | |
| DB0NH | 2026-09-01 13:27:20 | 49.85874 | 8.88040 | 92° | 31km/h | 1584m | -4.7m/s | 9.8°C | 70.3% | 850.7hPa | 2.7V | 00:00:00 | 02:50:05 | 00:00:00 | |
| BEGRI65-1 | 2026-09-01 13:27:19 | 49.85874 | 8.88040 | 93° | 31km/h | 1584m | -4.8m/s | 9.9°C | 70.5% | 850.7hPa | 2.7V | 02:23:00 | 00:00:00 | 00:00:00 | |
| DL1ZP-14 | 2026-09-01 13:27:18 | 49.85874 | 8.88016 | 90° | 29km/h | 1593m | -4.8m/s | 9.7°C | 71.3% | 849.8hPa | 2.7V | 00:00:00 | 00:00:00 | 00:00:00 | |
| DB0UT-7 | 2026-09-01 13:27:18 | 49.85874 | 8.88016 | 91° | 33km/h | 1593m | -4.7m/s | 9.7°C | 71.1% | 849.8hPa | 2.7V | 02:23:00 | 02:50:03 | 00:00:00 | |
| DL9SK-14 | 2026-09-01 13:27:16 | 49.85875 | 8.87979 | 92° | 31km/h | 1608m | -4.5m/s | 9.6°C | 72.2% | 848.4hPa | 2.7V | 00:00:00 | 00:00:00 | 00:00:00 | |
| DK5PH-5 | 2026-09-01 13:27:15 | 49.85875 | 8.87979 | 93° | 33km/h | 1608m | -4.5m/s | 9.5°C | 72.1% | 848.3hPa | 2.7V | 00:00:00 | 02:50:00 | 00:00:00 | |
| DB0NH | 2026-09-01 13:27:10 | 49.85878 | 8.87914 | 96° | 33km/h | 1631m | -4.8m/s | 9.3°C | 72.3% | 845.9hPa | 2.7V | 00:00:00 | 02:49:55 | 00:00:00 | |
| DB0UT-7 | 2026-09-01 13:27:08 | 49.85880 | 8.87887 | 95° | 33km/h | 1641m | -4.6m/s | 9.3°C | 71.2% | 845.1hPa | 2.7V | 00:00:00 | 00:00:00 | 00:00:00 | |
| DK5PH-5 | 2026-09-01 13:27:05 | 49.85882 | 8.87847 | 94° | 31km/h | 1654m | -4.3m/s | 9.2°C | 71.8% | 843.6hPa | 2.7V | 02:23:00 | 02:49:50 | 00:00:00 | |
| DF7PN | 2026-09-01 13:27:02 | 49.85884 | 8.87797 | 94° | 29km/h | 1672m | -4.3m/s | 9.1°C | 72.1% | 841.8hPa | 2.7V | 00:00:00 | 00:00:00 | 00:00:00 | |
| DB0ND-19 | 2026-09-01 13:26:52 | 49.85882 | 8.87679 | 85° | 31km/h | 1714m | -4.1m/s | 8.7°C | 73.7% | 837.3hPa | 2.7V | 00:00:00 | 00:00:00 | 00:00:00 | |
| DL1ZP-14 | 2026-09-01 13:26:47 | 49.85879 | 8.87627 | 86° | 35km/h | 1732m | -4.8m/s | 8.6°C | 72.6% | 835.6hPa | 2.7V | 00:00:00 | 00:00:00 | 00:00:00 | |
| DL9SK-14 | 2026-09-01 13:26:45 | 49.85878 | 8.87583 | 89° | 37km/h | 1745m | -4.5m/s | 8.4°C | 74.4% | 834.4hPa | 2.7V | 00:00:00 | 00:00:00 | 00:00:00 | |
| DB0NH | 2026-09-01 13:26:40 | 49.85878 | 8.87523 | 91° | 35km/h | 1764m | -5.4m/s | 8.2°C | 74.9% | 832.3hPa | 2.7V | 00:00:00 | 02:49:25 | 00:00:00 | |
| DB0UT-9 | 2026-09-01 13:26:39 | 49.85878 | 8.87523 | 92° | 38km/h | 1764m | -5.4m/s | 8.2°C | 74.9% | 832.3hPa | 2.7V | 02:24:00 | 00:00:00 | 00:00:00 | |
| BEGRI65-1 | 2026-09-01 13:26:38 | 49.85878 | 8.87508 | 93° | 37km/h | 1769m | -5.3m/s | 8.2°C | 74.0% | 831.7hPa | 2.7V | 02:24:00 | 00:00:00 | 00:00:00 | |
| DB0UT-7 | 2026-09-01 13:26:38 | 49.85879 | 8.87494 | 94° | 37km/h | 1775m | -5.4m/s | 8.2°C | 72.0% | 831.3hPa | 2.7V | 00:00:00 | 02:49:23 | 00:00:00 | |
| DK5PH-5 | 2026-09-01 13:26:35 | 49.85882 | 8.87453 | 99° | 37km/h | 1790m | -5.3m/s | 8.0°C | 74.6% | 829.7hPa | 2.7V | 02:24:00 | 02:49:20 | 00:00:00 | |
| DF7PN | 2026-09-01 13:26:30 | 49.85889 | 8.87385 | 102° | 37km/h | 1817m | -5.5m/s | 8.0°C | 71.9% | 827.0hPa | 2.7V | 00:00:00 | 00:00:00 | 00:00:00 | |
| DB0NH | 2026-09-01 13:26:30 | 49.85889 | 8.87385 | 103° | 37km/h | 1817m | -5.4m/s | 7.9°C | 71.8% | 827.0hPa | 2.7V | 02:24:00 | 02:49:15 | 00:00:00 | |
| DB0UT-7 | 2026-09-01 13:26:28 | 49.85893 | 8.87356 | 104° | 35km/h | 1828m | -4.3m/s | 7.7°C | 73.3% | 825.9hPa | 2.7V | 00:00:00 | 00:00:00 | 00:00:00 | |
| DK5PH-5 | 2026-09-01 13:26:25 | 49.85897 | 8.87312 | 95° | 35km/h | 1843m | -4.7m/s | 7.6°C | 72.6% | 824.5hPa | 2.7V | 00:00:00 | 02:49:10 | 00:00:00 | |
| DB0ND-19 | 2026-09-01 13:26:21 | 49.85900 | 8.87244 | 91° | 31km/h | 1865m | -5.1m/s | 7.4°C | 74.4% | 822.2hPa | 2.7V | 00:00:00 | 00:00:00 | 00:00:00 | |
| DB0NH | 2026-09-01 13:26:20 | 49.85900 | 8.87244 | 92° | 35km/h | 1865m | -5.1m/s | 7.4°C | 74.3% | 822.2hPa | 2.7V | 00:00:00 | 02:49:05 | 00:00:00 | |
| DB0UT-9 | 2026-09-01 13:26:19 | 49.85900 | 8.87244 | 93° | 33km/h | 1865m | -5.1m/s | 7.4°C | 74.4% | 822.2hPa | 2.7V | 02:25:00 | 00:00:00 | 00:00:00 | |
| BEGRI65-1 | 2026-09-01 13:26:18 | 49.85900 | 8.87231 | 92° | 33km/h | 1870m | -4.7m/s | 7.3°C | 75.3% | 821.8hPa | 2.7V | 02:25:00 | 00:00:00 | 00:00:00 | |
| DB0UT-7 | 2026-09-01 13:26:18 | 49.85901 | 8.87219 | 91° | 37km/h | 1875m | -4.3m/s | 7.2°C | 75.1% | 821.3hPa | 2.7V | 02:24:00 | 02:49:03 | 00:00:00 | |
| DL1ZP-14 | 2026-09-01 13:26:16 | 49.85900 | 8.87192 | 89° | 33km/h | 1884m | -5.0m/s | 7.1°C | 77.1% | 820.4hPa | 2.7V | 00:00:00 | 00:00:00 | 00:00:00 | |
| DK5PH-5 | 2026-09-01 13:26:15 | 49.85900 | 8.87179 | 90° | 38km/h | 1889m | -4.3m/s | 7.0°C | 78.1% | 820.0hPa | 2.7V | 00:00:00 | 02:49:00 | 00:00:00 | |
| DL9SK-14 | 2026-09-01 13:26:14 | 49.85901 | 8.87150 | 90° | 37km/h | 1899m | -5.8m/s | 7.0°C | 78.0% | 819.0hPa | 2.7V | 00:00:00 | 00:00:00 | 00:00:00 | |
| DB0UT-7 | 2026-09-01 13:26:08 | 49.85901 | 8.87073 | 93° | 38km/h | 1926m | -6.1m/s | 6.6°C | 79.6% | 816.3hPa | 2.7V | 00:00:00 | 00:00:00 | 00:00:00 | |
| DK5PH-5 | 2026-09-01 13:26:05 | 49.85903 | 8.87027 | 95° | 35km/h | 1943m | -5.0m/s | 6.6°C | 75.2% | 814.5hPa | 2.7V | 02:24:00 | 02:48:50 | 00:00:00 | |
| DF7PN | 2026-09-01 13:25:59 | 49.85908 | 8.86941 | 95° | 33km/h | 1978m | -6.1m/s | 6.1°C | 76.3% | 811.2hPa | 2.7V | 00:00:00 | 00:00:00 | 00:00:00 | |
| DB0ND-19 | 2026-09-01 13:25:50 | 49.85920 | 8.86823 | 98° | 29km/h | 2037m | -5.6m/s | 5.4°C | 81.4% | 805.3hPa | 2.7V | 00:00:00 | 00:00:00 | 00:00:00 | |
| DL1ZP-14 | 2026-09-01 13:25:45 | 49.85924 | 8.86761 | 97° | 35km/h | 2066m | -5.3m/s | 5.0°C | 81.1% | 802.6hPa | 2.7V | 00:00:00 | 00:00:00 | 00:00:00 | |
| DL9SK-14 | 2026-09-01 13:25:43 | 49.85927 | 8.86734 | 101° | 33km/h | 2077m | -4.8m/s | 4.9°C | 80.1% | 801.3hPa | 2.7V | 00:00:00 | 00:00:00 | 00:00:00 | |
| DK5PH-5 | 2026-09-01 13:25:42 | 49.85927 | 8.86734 | 102° | 29km/h | 2077m | -4.8m/s | 4.8°C | 80.2% | 801.3hPa | 2.7V | 00:00:00 | 02:48:27 | 00:00:00 | |
| DB0UT-7 | 2026-09-01 13:25:39 | 49.85933 | 8.86695 | 101° | 27km/h | 2093m | -5.1m/s | 4.7°C | 82.0% | 800.0hPa | 2.7V | 02:25:00 | 00:00:00 | 00:00:00 | |
| BEGRI65-1 | 2026-09-01 13:25:36 | 49.85935 | 8.86672 | 99° | 29km/h | 2104m | -6.3m/s | 4.6°C | 83.1% | 799.1hPa | 2.7V | 02:25:00 | 00:00:00 | 00:00:00 | |
| NBG1-10 | 2026-09-01 13:25:33 | 49.85938 | 8.86629 | 95° | 27km/h | 2126m | -5.9m/s | 4.3°C | 83.3% | 796.7hPa | 2.7V | 00:00:00 | 02:48:18 | 00:00:00 | |
| DB0UT-9 | 2026-09-01 13:25:31 | 49.85939 | 8.86619 | 95° | 27km/h | 2132m | -5.4m/s | 4.3°C | 83.3% | 796.2hPa | 2.7V | 02:26:00 | 00:00:00 | 00:00:00 | |
| DB0NH | 2026-09-01 13:25:30 | 49.85940 | 8.86597 | 94° | 26km/h | 2142m | -4.6m/s | 4.1°C | 84.0% | 795.1hPa | 2.7V | 00:00:00 | 02:48:15 | 00:00:00 | |
| DF7PN | 2026-09-01 13:25:28 | 49.85941 | 8.86575 | 92° | 27km/h | 2153m | -5.7m/s | 4.1°C | 85.2% | 794.1hPa | 2.7V | 00:00:00 | 00:00:00 | 00:00:00 | |
| DK5PH-5 | 2026-09-01 13:25:22 | 49.85943 | 8.86508 | 99° | 27km/h | 2181m | -3.7m/s | 3.7°C | 87.1% | 791.3hPa | 2.7V | 02:25:00 | 02:48:07 | 00:00:00 | |
| DB0UT-7 | 2026-09-01 13:25:19 | 49.85945 | 8.86479 | 93° | 27km/h | 2196m | -4.8m/s | 3.6°C | 86.9% | 789.9hPa | 2.7V | 00:00:00 | 02:48:04 | 00:00:00 | |
| DB0ND-19 | 2026-09-01 13:25:18 | 49.85946 | 8.86470 | 93° | 22km/h | 2201m | -4.7m/s | 3.6°C | 86.7% | 789.4hPa | 2.7V | 00:00:00 | 00:00:00 | 00:00:00 | |
| DL0LBS | 2026-09-01 13:25:16 | 49.85947 | 8.86452 | 101° | 24km/h | 2211m | -4.9m/s | 3.5°C | 86.2% | 788.5hPa | 2.7V | 02:26:00 | 00:00:00 | 00:00:00 | |
| DL1ZP-14 | 2026-09-01 13:25:14 | 49.85950 | 8.86424 | 99° | 26km/h | 2225m | -5.0m/s | 3.4°C | 89.8% | 787.1hPa | 2.7V | 00:00:00 | 00:00:00 | 00:00:00 | |
| DL9SK-14 | 2026-09-01 13:25:11 | 49.85952 | 8.86404 | 94° | 27km/h | 2236m | -5.6m/s | 3.2°C | 86.8% | 786.1hPa | 2.7V | 00:00:00 | 00:00:00 | 00:00:00 | |
| DB0NH | 2026-09-01 13:25:10 | 49.85952 | 8.86392 | 93° | 31km/h | 2242m | -5.6m/s | 3.2°C | 87.7% | 785.5hPa | 2.7V | 02:25:00 | 02:47:55 | 00:00:00 | |
| DK5PH-5 | 2026-09-01 13:25:02 | 49.85955 | 8.86295 | 93° | 33km/h | 2285m | -5.0m/s | 3.1°C | 97.2% | 781.5hPa | 2.7V | 00:00:00 | 02:47:47 | 00:00:00 | |
| DF7PN | 2026-09-01 13:24:57 | 49.85957 | 8.86232 | 94° | 31km/h | 2309m | -5.7m/s | 3.0°C | 97.2% | 779.1hPa | 2.7V | 00:00:00 | 00:00:00 | 00:00:00 | |
| DB0ND-19 | 2026-09-01 13:24:48 | 49.85962 | 8.86105 | 91° | 31km/h | 2362m | -5.1m/s | 2.7°C | 98.9% | 773.9hPa | 2.7V | 00:00:00 | 00:00:00 | 00:00:00 | |
| NBG1-10 | 2026-09-01 13:24:47 | 49.85962 | 8.86105 | 92° | 31km/h | 2362m | -5.0m/s | 2.6°C | 0% | 773.9hPa | 2.7V | 00:00:00 | 02:47:32 | 00:00:00 | |
| DL1ZP-14 | 2026-09-01 13:24:43 | 49.85968 | 8.86044 | 103° | 29km/h | 2388m | -4.9m/s | 2.4°C | 98.1% | 771.4hPa | 2.7V | 00:00:00 | 00:00:00 | 00:00:00 | |
| DK5PH-5 | 2026-09-01 13:24:42 | 49.85968 | 8.86044 | 104° | 31km/h | 2388m | -4.8m/s | 2.4°C | 98.3% | 771.3hPa | 2.7V | 00:00:00 | 02:47:27 | 00:00:00 | |
| DL9SK-14 | 2026-09-01 13:24:40 | 49.85971 | 8.86022 | 97° | 27km/h | 2398m | -4.9m/s | 2.4°C | 97.3% | 770.5hPa | 2.7V | 00:00:00 | 00:00:00 | 00:00:00 | |
| DB0UT-7 | 2026-09-01 13:24:39 | 49.85972 | 8.86011 | 94° | 31km/h | 2402m | -4.4m/s | 2.3°C | 97.3% | 770.0hPa | 2.7V | 02:26:00 | 02:47:24 | 00:00:00 | |
| DL0LBS | 2026-09-01 13:24:34 | 49.85971 | 8.85952 | 90° | 33km/h | 2432m | -6.0m/s | 2.0°C | 94.1% | 767.4hPa | 2.7V | 02:26:00 | 00:00:00 | 00:00:00 | |
| BEGRI65-1 | 2026-09-01 13:24:33 | 49.85971 | 8.85952 | 90° | 33km/h | 2432m | -6.0m/s | 2.0°C | 94.1% | 767.4hPa | 2.7V | 02:26:00 | 00:00:00 | 00:00:00 | |
| DB0NH | 2026-09-01 13:24:30 | 49.85972 | 8.85898 | 95° | 31km/h | 2455m | -5.6m/s | 1.8°C | 0% | 764.9hPa | 2.7V | 00:00:00 | 02:47:15 | 00:00:00 | |
| DB0UT-9 | 2026-09-01 13:24:29 | 49.85972 | 8.85898 | 95° | 35km/h | 2455m | -5.6m/s | 1.9°C | 95.5% | 765.0hPa | 2.7V | 02:26:00 | 00:00:00 | 00:00:00 | |
| DF7PN | 2026-09-01 13:24:26 | 49.85973 | 8.85849 | 87° | 29km/h | 2478m | -5.4m/s | 1.9°C | 100.0% | 762.9hPa | 2.7V | 00:00:00 | 00:00:00 | 00:00:00 | |
| DK5PH-5 | 2026-09-01 13:24:22 | 49.85972 | 8.85806 | 86° | 31km/h | 2500m | -6.8m/s | 1.8°C | 0% | 760.8hPa | 2.7V | 02:26:00 | 02:47:07 | 00:00:00 | |
| DB0UT-7 | 2026-09-01 13:24:19 | 49.85969 | 8.85773 | 81° | 31km/h | 2518m | -6.2m/s | 1.5°C | 0% | 759.0hPa | 2.6V | 00:00:00 | 00:00:00 | 00:00:00 | |
| DB0ND-19 | 2026-09-01 13:24:16 | 49.85966 | 8.85737 | 83° | 31km/h | 2537m | -6.1m/s | 1.4°C | 100.0% | 757.4hPa | 2.6V | 00:00:00 | 00:00:00 | 00:00:00 | |
| DL0LBS | 2026-09-01 13:24:13 | 49.85964 | 8.85712 | 87° | 33km/h | 2548m | -6.3m/s | 1.5°C | 101.2% | 756.1hPa | 2.6V | 02:26:00 | 00:00:00 | 00:00:00 | |
| DL1ZP-14 | 2026-09-01 13:24:12 | 49.85964 | 8.85673 | 91° | 29km/h | 2566m | -5.2m/s | 1.4°C | 100.0% | 754.8hPa | 2.6V | 00:00:00 | 00:00:00 | 00:00:00 | |
| DB0NH | 2026-09-01 13:24:10 | 49.85964 | 8.85662 | 94° | 33km/h | 2570m | -4.8m/s | 1.2°C | 0% | 754.1hPa | 2.7V | 02:26:00 | 02:46:55 | 00:00:00 | |
| DL9SK-14 | 2026-09-01 13:24:09 | 49.85965 | 8.85650 | 92° | 27km/h | 2575m | -5.3m/s | 1.1°C | 98.4% | 753.6hPa | 2.7V | 00:00:00 | 00:00:00 | 00:00:00 | |
| NBG1-10 | 2026-09-01 13:24:03 | 49.85962 | 8.85580 | 85° | 35km/h | 2606m | -6.0m/s | 0.9°C | 0% | 750.8hPa | 2.7V | 02:26:00 | 02:46:48 | 00:00:00 | |
| DK5PH-5 | 2026-09-01 13:24:02 | 49.85962 | 8.85568 | 87° | 35km/h | 2611m | -4.8m/s | 0.9°C | 0% | 750.2hPa | 2.6V | 00:00:00 | 02:46:47 | 00:00:00 | |
| DF7PN | 2026-09-01 13:23:55 | 49.85958 | 8.85477 | 85° | 33km/h | 2648m | -5.9m/s | 1.0°C | 100.0% | 746.7hPa | 2.6V | 00:00:00 | 00:00:00 | 00:00:00 | |
| DB0ND-19 | 2026-09-01 13:23:46 | 49.85946 | 8.85343 | 79° | 35km/h | 2700m | -4.1m/s | 0.7°C | 100.0% | 742.0hPa | 2.6V | 00:00:00 | 00:00:00 | 00:00:00 | |
| DK5PH-5 | 2026-09-01 13:23:42 | 49.85942 | 8.85302 | 87° | 38km/h | 2714m | -5.1m/s | 0.6°C | 0% | 740.4hPa | 2.6V | 00:00:00 | 02:46:27 | 00:00:00 | |
| NBG1-10 | 2026-09-01 13:23:41 | 49.85942 | 8.85288 | 88° | 38km/h | 2719m | -4.7m/s | 0°C | 0% | 0hPa | 2.6V | 00:00:00 | 02:46:26 | 00:00:00 | |
| DL1ZP-14 | 2026-09-01 13:23:40 | 49.85942 | 8.85275 | 86° | 33km/h | 2724m | -5.0m/s | 0.1°C | 100.0% | 739.7hPa | 2.6V | 00:00:00 | 00:00:00 | 00:00:00 | |
| DB0UT-7 | 2026-09-01 13:23:39 | 49.85941 | 8.85262 | 88° | 38km/h | 2728m | -4.2m/s | -0.0°C | 0% | 739.1hPa | 2.6V | 02:27:00 | 00:00:00 | 00:00:00 | |
| DL9SK-14 | 2026-09-01 13:23:38 | 49.85941 | 8.85248 | 85° | 35km/h | 2733m | -4.9m/s | 0.2°C | 100.0% | 738.8hPa | 2.7V | 00:00:00 | 00:00:00 | 00:00:00 | |
| BEGRI65-1 | 2026-09-01 13:23:32 | 49.85929 | 8.85157 | 77° | 42km/h | 2759m | -4.5m/s | -0.3°C | 95.9% | 736.4hPa | 2.7V | 02:27:00 | 00:00:00 | 00:00:00 | |
| DL0LBS | 2026-09-01 13:23:31 | 49.85929 | 8.85157 | 77° | 42km/h | 2759m | -4.5m/s | -0.3°C | 95.9% | 736.4hPa | 2.7V | 02:27:00 | 00:00:00 | 00:00:00 | |
| DB0NH | 2026-09-01 13:23:30 | 49.85924 | 8.85126 | 76° | 40km/h | 2767m | -4.4m/s | 0.1°C | 0% | 735.4hPa | 2.7V | 00:00:00 | 02:46:15 | 00:00:00 | |
| DB0UT-9 | 2026-09-01 13:23:28 | 49.85921 | 8.85112 | 76° | 38km/h | 2771m | -3.7m/s | 0.3°C | 101.6% | 735.2hPa | 2.7V | 02:27:00 | 00:00:00 | 00:00:00 | |
| DF7PN | 2026-09-01 13:23:24 | 49.85910 | 8.85040 | 76° | 37km/h | 2793m | -4.8m/s | -0.3°C | 100.0% | 733.4hPa | 2.7V | 00:00:00 | 00:00:00 | 00:00:00 | |
| DK5PH-5 | 2026-09-01 13:23:22 | 49.85906 | 8.85011 | 78° | 38km/h | 2802m | -4.1m/s | -0.5°C | 97.5% | 732.4hPa | 2.7V | 02:27:00 | 02:46:07 | 00:00:00 | |
| DB0UT-7 | 2026-09-01 13:23:19 | 49.85900 | 8.84969 | 79° | 40km/h | 2815m | -5.0m/s | -0.7°C | 97.8% | 731.0hPa | 2.7V | 00:00:00 | 02:46:04 | 00:00:00 | |
| DB0ND-19 | 2026-09-01 13:23:15 | 49.85892 | 8.84896 | 78° | 40km/h | 2837m | -4.2m/s | -0.9°C | 97.4% | 729.2hPa | 2.7V | 00:00:00 | 00:00:00 | 00:00:00 | |
| BEGRI65-1 | 2026-09-01 13:23:12 | 49.85887 | 8.84864 | 77° | 44km/h | 2847m | -4.9m/s | -1.1°C | 94.3% | 728.4hPa | 2.7V | 02:27:00 | 00:00:00 | 00:00:00 | |
| DL0LBS | 2026-09-01 13:23:11 | 49.85884 | 8.84848 | 75° | 42km/h | 2852m | -5.4m/s | -1.1°C | 94.3% | 728.0hPa | 2.7V | 02:27:00 | 00:00:00 | 00:00:00 | |
| DB0NH | 2026-09-01 13:23:10 | 49.85882 | 8.84832 | 76° | 38km/h | 2857m | -4.7m/s | -1.1°C | 95.4% | 727.5hPa | 2.7V | 02:27:00 | 02:45:55 | 00:00:00 | |
| DL1ZP-14 | 2026-09-01 13:23:09 | 49.85879 | 8.84817 | 74° | 40km/h | 2861m | -4.7m/s | -1.2°C | 94.8% | 727.1hPa | 2.6V | 00:00:00 | 00:00:00 | 00:00:00 | |
| DB0UT-9 | 2026-09-01 13:23:08 | 49.85879 | 8.84817 | 76° | 42km/h | 2861m | -4.7m/s | -1.2°C | 94.8% | 727.1hPa | 2.7V | 02:27:00 | 00:00:00 | 00:00:00 | |
| DL9SK-14 | 2026-09-01 13:23:07 | 49.85874 | 8.84787 | 75° | 38km/h | 2871m | -5.4m/s | -1.3°C | 94.8% | 726.3hPa | 2.7V | 00:00:00 | 00:00:00 | 00:00:00 | |
| DK5PH-5 | 2026-09-01 13:23:02 | 49.85862 | 8.84713 | 75° | 37km/h | 2902m | -5.8m/s | -1.5°C | 0% | 723.7hPa | 2.7V | 00:00:00 | 02:45:47 | 00:00:00 | |
| DF7PN | 2026-09-01 13:22:53 | 49.85852 | 8.84580 | 83° | 35km/h | 2954m | -5.6m/s | -1.6°C | 100.0% | 718.7hPa | 2.7V | 00:00:00 | 00:00:00 | 00:00:00 | |
| DB0NH | 2026-09-01 13:22:50 | 49.85847 | 8.84541 | 79° | 37km/h | 2971m | -4.8m/s | -1.7°C | 0% | 717.5hPa | 2.7V | 00:00:00 | 02:45:35 | 00:00:00 | |
| DL0LBS | 2026-09-01 13:22:49 | 49.85847 | 8.84541 | 79° | 33km/h | 2971m | -4.9m/s | -1.7°C | 101.3% | 717.5hPa | 2.7V | 02:28:00 | 00:00:00 | 00:00:00 | |
| DB0UT-9 | 2026-09-01 13:22:47 | 49.85844 | 8.84516 | 78° | 33km/h | 2980m | -4.1m/s | -1.1°C | 102.0% | 716.7hPa | 2.7V | 02:28:00 | 00:00:00 | 00:00:00 | |
| DB0ND-19 | 2026-09-01 13:22:43 | 49.85832 | 8.84450 | 73° | 35km/h | 2999m | -3.9m/s | -1.3°C | 100.0% | 715.0hPa | 2.7V | 00:00:00 | 00:00:00 | 00:00:00 | |
| DK5PH-5 | 2026-09-01 13:22:42 | 49.85830 | 8.84436 | 75° | 40km/h | 3003m | -2.9m/s | -0.8°C | 0% | 714.6hPa | 2.7V | 00:00:00 | 02:45:27 | 00:00:00 | |
| DL1ZP-14 | 2026-09-01 13:22:38 | 49.85821 | 8.84379 | 78° | 35km/h | 3020m | -4.9m/s | -0.9°C | 100.0% | 713.2hPa | 2.7V | 00:00:00 | 00:00:00 | 00:00:00 | |
| NBG1-10 | 2026-09-01 13:22:33 | 49.85812 | 8.84310 | 82° | 42km/h | 3039m | -3.8m/s | 0°C | 0% | 0hPa | 2.7V | 00:00:00 | 02:45:18 | 00:00:00 | |
| DB0NH | 2026-09-01 13:22:30 | 49.85808 | 8.84267 | 81° | 42km/h | 3050m | -2.9m/s | -1.0°C | 0% | 710.4hPa | 2.7V | 00:00:00 | 02:45:15 | 00:00:00 | |
| DB0UT-7 | 2026-09-01 13:22:28 | 49.85804 | 8.84237 | 80° | 44km/h | 3057m | -3.6m/s | -0.8°C | 96.9% | 709.8hPa | 2.7V | 02:28:00 | 02:45:13 | 00:00:00 | |
| DB0UT-9 | 2026-09-01 13:22:27 | 49.85804 | 8.84237 | 81° | 40km/h | 3057m | -3.7m/s | -0.9°C | 96.5% | 709.8hPa | 2.7V | 02:28:00 | 00:00:00 | 00:00:00 | |
| DF7PN | 2026-09-01 13:22:22 | 49.85793 | 8.84142 | 80° | 40km/h | 3077m | -3.4m/s | 0.2°C | 47.0% | 708.1hPa | 2.7V | 00:00:00 | 00:00:00 | 00:00:00 | |
| DB0ND-19 | 2026-09-01 13:22:13 | 49.85780 | 8.83977 | 85° | 42km/h | 3112m | -3.4m/s | 0.9°C | 36.6% | 704.8hPa | 2.7V | 00:00:00 | 00:00:00 | 00:00:00 | |
| DK5PH-5 | 2026-09-01 13:22:12 | 49.85780 | 8.83977 | 86° | 44km/h | 3113m | -3.4m/s | 0.9°C | 36.7% | 704.8hPa | 2.7V | 02:28:00 | 02:44:57 | 00:00:00 | |
| DL0LBS | 2026-09-01 13:22:09 | 49.85777 | 8.83926 | 85° | 44km/h | 3123m | -3.7m/s | 0.8°C | 36.6% | 703.9hPa | 2.7V | 02:28:00 | 00:00:00 | 00:00:00 | |
| DL1ZP-14 | 2026-09-01 13:22:07 | 49.85774 | 8.83893 | 84° | 42km/h | 3130m | -3.7m/s | 0.8°C | 36.5% | 703.4hPa | 2.7V | 00:00:00 | 00:00:00 | 00:00:00 | |
| DL9SK-14 | 2026-09-01 13:22:05 | 49.85771 | 8.83842 | 83° | 42km/h | 3141m | -3.6m/s | 0.7°C | 35.0% | 702.2hPa | 2.7V | 00:00:00 | 00:00:00 | 00:00:00 | |
| DB0UT-9 | 2026-09-01 13:22:01 | 49.85769 | 8.83808 | 86° | 44km/h | 3149m | -4.0m/s | 1.0°C | 29.5% | 701.7hPa | 2.7V | 00:00:00 | 00:00:00 | 00:00:00 | |
| DF7PN | 2026-09-01 13:21:51 | 49.85763 | 8.83617 | 89° | 44km/h | 3190m | -3.6m/s | 1.9°C | 22.2% | 698.0hPa | 2.7V | 00:00:00 | 00:00:00 | 00:00:00 | |
| NBG1-10 | 2026-09-01 13:21:49 | 49.85763 | 8.83581 | 90° | 49km/h | 3198m | -3.6m/s | 0°C | 0% | 0hPa | 2.7V | 00:00:00 | 02:44:34 | 00:00:00 | |
| DL0LBS | 2026-09-01 13:21:48 | 49.85763 | 8.83563 | 91° | 46km/h | 3202m | -3.7m/s | 1.9°C | 21.6% | 697.0hPa | 2.7V | 02:29:00 | 00:00:00 | 00:00:00 | |
| DB0ND-19 | 2026-09-01 13:21:42 | 49.85763 | 8.83435 | 90° | 47km/h | 3228m | -3.9m/s | 2.0°C | 19.5% | 694.8hPa | 2.7V | 00:00:00 | 00:00:00 | 00:00:00 | |
| DB0UT-9 | 2026-09-01 13:21:40 | 49.85762 | 8.83435 | 91° | 47km/h | 3229m | -3.9m/s | 2.0°C | 19.5% | 694.8hPa | 2.7V | 00:00:00 | 00:00:00 | 00:00:00 | |
| DL1ZP-14 | 2026-09-01 13:21:36 | 49.85762 | 8.83341 | 88° | 47km/h | 3248m | -4.1m/s | 1.8°C | 19.6% | 693.2hPa | 2.7V | 00:00:00 | 00:00:00 | 00:00:00 | |
| DL9SK-14 | 2026-09-01 13:21:34 | 49.85761 | 8.83284 | 89° | 47km/h | 3260m | -3.9m/s | 1.8°C | 19.7% | 692.1hPa | 2.6V | 00:00:00 | 00:00:00 | 00:00:00 | |
| DB0NH | 2026-09-01 13:21:30 | 49.85761 | 8.83226 | 91° | 49km/h | 3273m | -4.1m/s | 1.7°C | 19.8% | 690.9hPa | 2.6V | 00:00:00 | 02:44:15 | 00:00:00 | |
| BEGRI65-1 | 2026-09-01 13:21:29 | 49.85761 | 8.83226 | 91° | 49km/h | 3273m | -4.1m/s | 1.8°C | 19.8% | 691.0hPa | 2.6V | 02:29:00 | 00:00:00 | 00:00:00 | |
| DL0LBS | 2026-09-01 13:21:27 | 49.85761 | 8.83187 | 91° | 51km/h | 3281m | -4.2m/s | 1.8°C | 19.8% | 690.4hPa | 2.6V | 02:29:00 | 00:00:00 | 00:00:00 | |
| DB0UT-7 | 2026-09-01 13:21:22 | 49.85762 | 8.83065 | 90° | 42km/h | 3305m | -4.0m/s | 1.6°C | 20.8% | 688.1hPa | 2.6V | 00:00:00 | 02:44:07 | 00:00:00 | |
| DB0UT-9 | 2026-09-01 13:21:19 | 49.85761 | 8.83024 | 89° | 51km/h | 3314m | -4.3m/s | 1.6°C | 21.0% | 687.4hPa | 2.6V | 00:00:00 | 00:00:00 | 00:00:00 | |
| NBG1-10 | 2026-09-01 13:21:17 | 49.85760 | 8.82966 | 89° | 46km/h | 3327m | -4.2m/s | 0°C | 0% | 0hPa | 2.6V | 00:00:00 | 02:44:02 | 00:00:00 | |
| DK5PH-5 | 2026-09-01 13:21:12 | 49.85759 | 8.82869 | 90° | 46km/h | 3348m | -4.5m/s | 1.5°C | 23.0% | 684.5hPa | 2.6V | 00:00:00 | 02:43:57 | 00:00:00 | |
| DB0ND-19 | 2026-09-01 13:21:10 | 49.85759 | 8.82831 | 89° | 47km/h | 3357m | -4.8m/s | 1.7°C | 25.0% | 683.6hPa | 2.6V | 00:00:00 | 00:00:00 | 00:00:00 | |
| BEGRI65-1 | 2026-09-01 13:21:08 | 49.85758 | 8.82812 | 90° | 49km/h | 3362m | -4.4m/s | 1.7°C | 24.9% | 683.3hPa | 2.6V | 02:30:00 | 00:00:00 | 00:00:00 | |
| DL0LBS | 2026-09-01 13:21:06 | 49.85758 | 8.82774 | 90° | 47km/h | 3371m | -4.7m/s | 1.7°C | 25.3% | 682.6hPa | 2.6V | 02:30:00 | 00:00:00 | 00:00:00 | |
| DL1ZP-14 | 2026-09-01 13:21:05 | 49.85757 | 8.82737 | 88° | 46km/h | 3381m | -4.7m/s | 1.6°C | 25.7% | 681.7hPa | 2.6V | 00:00:00 | 00:00:00 | 00:00:00 | |
| DL9SK-14 | 2026-09-01 13:21:03 | 49.85757 | 8.82683 | 89° | 46km/h | 3394m | -4.6m/s | 1.6°C | 27.8% | 680.5hPa | 2.6V | 00:00:00 | 00:00:00 | 00:00:00 | |
| DF7PN | 2026-09-01 13:20:49 | 49.85757 | 8.82435 | 85° | 44km/h | 3456m | -4.3m/s | 1.0°C | 32.3% | 675.3hPa | 2.6V | 00:00:00 | 00:00:00 | 00:00:00 | |
| BEGRI65-1 | 2026-09-01 13:20:47 | 49.85757 | 8.82434 | 86° | 46km/h | 3457m | -4.3m/s | 1.0°C | 32.3% | 675.3hPa | 2.6V | 02:30:00 | 00:00:00 | 00:00:00 | |
| DL0LBS | 2026-09-01 13:20:46 | 49.85756 | 8.82417 | 86° | 46km/h | 3461m | -4.7m/s | 1.0°C | 32.4% | 675.0hPa | 2.6V | 02:30:00 | 00:00:00 | 00:00:00 | |
| NBG1-10 | 2026-09-01 13:20:43 | 49.85754 | 8.82343 | 92° | 44km/h | 3480m | -4.9m/s | 0°C | 0% | 0hPa | 2.6V | 00:00:00 | 02:43:28 | 00:00:00 | |
| DK5PH-5 | 2026-09-01 13:20:42 | 49.85754 | 8.82325 | 93° | 42km/h | 3484m | -5.0m/s | 0.8°C | 32.7% | 673.0hPa | 2.6V | 02:30:00 | 02:43:27 | 00:00:00 | |
| DB0ND-19 | 2026-09-01 13:20:39 | 49.85756 | 8.82276 | 93° | 38km/h | 3498m | -4.4m/s | 0.7°C | 32.9% | 672.0hPa | 2.7V | 00:00:00 | 00:00:00 | 00:00:00 | |
| DL1ZP-14 | 2026-09-01 13:20:34 | 49.85755 | 8.82200 | 84° | 40km/h | 3524m | -4.8m/s | 0.5°C | 33.4% | 669.9hPa | 2.7V | 00:00:00 | 00:00:00 | 00:00:00 | |
| DL9SK-14 | 2026-09-01 13:20:32 | 49.85752 | 8.82148 | 86° | 47km/h | 3538m | -4.0m/s | 0.3°C | 35.7% | 668.6hPa | 2.7V | 00:00:00 | 00:00:00 | 00:00:00 | |
| DB0NH | 2026-09-01 13:20:30 | 49.85752 | 8.82129 | 89° | 44km/h | 3543m | -4.9m/s | 0.3°C | 36.0% | 668.1hPa | 2.7V | 02:30:00 | 02:43:15 | 00:00:00 | |
| BEGRI65-1 | 2026-09-01 13:20:27 | 49.85752 | 8.82092 | 92° | 44km/h | 3554m | -5.4m/s | 0.4°C | 36.1% | 667.2hPa | 2.7V | 02:30:00 | 00:00:00 | 00:00:00 | |
| DB0UT-9 | 2026-09-01 13:20:23 | 49.85752 | 8.82029 | 91° | 38km/h | 3573m | -5.1m/s | 0.3°C | 38.0% | 665.6hPa | 2.7V | 02:31:00 | 00:00:00 | 00:00:00 | |
| DF7PN | 2026-09-01 13:20:18 | 49.85753 | 8.81922 | 89° | 44km/h | 3609m | -4.8m/s | 0.2°C | 37.4% | 662.6hPa | 2.7V | 00:00:00 | 00:00:00 | 00:00:00 | |
| DB0UT-7 | 2026-09-01 13:20:16 | 49.85753 | 8.81904 | 91° | 44km/h | 3613m | -5.0m/s | 0.0°C | 37.7% | 662.1hPa | 2.7V | 02:30:00 | 00:00:00 | 00:00:00 | |
| SFWM-10 | 2026-09-01 13:20:14 | 49.85753 | 8.81886 | 91° | 47km/h | 3619m | -5.4m/s | 0.1°C | 37.4% | 661.8hPa | 2.7V | 00:00:00 | 00:00:00 | 00:00:00 | |
| DK5PH-5 | 2026-09-01 13:20:12 | 49.85753 | 8.81831 | 90° | 44km/h | 3636m | -5.0m/s | -0.0°C | 37.8% | 660.3hPa | 2.7V | 00:00:00 | 02:42:57 | 00:00:00 | |
| DB0ND-19 | 2026-09-01 13:20:08 | 49.85751 | 8.81757 | 84° | 46km/h | 3658m | -6.6m/s | -0.2°C | 36.1% | 658.5hPa | 2.7V | 00:00:00 | 00:00:00 | 00:00:00 | |
| BEGRI65-1 | 2026-09-01 13:20:06 | 49.85749 | 8.81739 | 85° | 47km/h | 3664m | -5.0m/s | -0.2°C | 35.4% | 658.0hPa | 2.7V | 02:31:00 | 00:00:00 | 00:00:00 | |
| DL1ZP-14 | 2026-09-01 13:20:03 | 49.85743 | 8.81670 | 80° | 42km/h | 3685m | -4.1m/s | -0.3°C | 34.7% | 656.4hPa | 2.7V | 00:00:00 | 00:00:00 | 00:00:00 | |
| DB0UT-9 | 2026-09-01 13:20:02 | 49.85743 | 8.81670 | 82° | 42km/h | 3685m | -4.1m/s | -0.3°C | 34.7% | 656.4hPa | 2.6V | 02:31:00 | 00:00:00 | 00:00:00 | |
| DL9SK-14 | 2026-09-01 13:20:01 | 49.85739 | 8.81622 | 80° | 40km/h | 3700m | -5.7m/s | -0.4°C | 34.4% | 655.2hPa | 2.6V | 00:00:00 | 00:00:00 | 00:00:00 | |
| DB0NH | 2026-09-01 13:20:00 | 49.85738 | 8.81622 | 81° | 40km/h | 3700m | -5.6m/s | -0.4°C | 34.6% | 655.2hPa | 2.6V | 00:00:00 | 02:42:45 | 00:00:00 | |
| DM0DOS-11 | 2026-09-01 13:19:58 | 49.85727 | 8.81506 | 81° | 44km/h | 3738m | -5.4m/s | -0.7°C | 33.6% | 652.1hPa | 2.6V | 02:30:49 | 02:42:38 | 00:00:00 | |
| NBG1-10 | 2026-09-01 13:19:54 | 49.85729 | 8.81523 | 82° | 44km/h | 3733m | -5.1m/s | 0°C | 0% | 0hPa | 2.6V | 00:00:00 | 02:42:39 | 00:00:00 | |
| DM0DOS-11 | 2026-09-01 13:19:53 | 49.85720 | 8.81421 | 84° | 44km/h | 3765m | -5.4m/s | -0.9°C | 33.8% | 650hPa | 2.6V | 02:30:54 | 02:42:33 | 00:00:00 | |
| DM0DOS-11 | 2026-09-01 13:19:48 | 49.85716 | 8.81338 | 88° | 40km/h | 3791m | -4.7m/s | -1.1°C | 33.3% | 647.7hPa | 2.7V | 02:30:59 | 02:42:28 | 00:00:00 | |
| DF7PN | 2026-09-01 13:19:47 | 49.85718 | 8.81387 | 85° | 42km/h | 3776m | -5.5m/s | -1.0°C | 33.5% | 649.0hPa | 2.7V | 00:00:00 | 00:00:00 | 00:00:00 | |
| DB0UT-7 | 2026-09-01 13:19:46 | 49.85718 | 8.81387 | 86° | 38km/h | 3776m | -5.4m/s | -1.0°C | 33.8% | 648.9hPa | 2.7V | 00:00:00 | 02:42:31 | 00:00:00 | |
| BEGRI65-1 | 2026-09-01 13:19:45 | 49.85718 | 8.81386 | 87° | 42km/h | 3776m | -5.5m/s | -1.0°C | 33.5% | 649.0hPa | 2.7V | 02:31:00 | 00:00:00 | 00:00:00 | |
| DL0LBS | 2026-09-01 13:19:44 | 49.85717 | 8.81370 | 87° | 42km/h | 3781m | -5.1m/s | -1.0°C | 33.5% | 648.6hPa | 2.7V | 02:31:00 | 00:00:00 | 00:00:00 | |
| DK5PH-5 | 2026-09-01 13:19:42 | 49.85716 | 8.81323 | 89° | 38km/h | 3797m | -5.6m/s | -1.0°C | 33.5% | 647.1hPa | 2.7V | 00:00:00 | 02:42:27 | 00:00:00 | |
| DB0UT-9 | 2026-09-01 13:19:41 | 49.85716 | 8.81323 | 90° | 38km/h | 3797m | -5.7m/s | -1.1°C | 33.3% | 647.2hPa | 2.7V | 02:31:00 | 00:00:00 | 00:00:00 | |
| DM0DOS-11 | 2026-09-01 13:19:38 | 49.85716 | 8.81262 | 90° | 38km/h | 3820m | -5.9m/s | -1.2°C | 33% | 645.4hPa | 2.7V | 02:31:04 | 02:42:23 | 00:00:00 | |
| DM0DOS-11 | 2026-09-01 13:19:38 | 49.85717 | 8.81188 | 92° | 38km/h | 3848m | -5.9m/s | -1.4°C | 32.3% | 643hPa | 2.6V | 02:31:09 | 02:42:18 | 00:00:00 | |
| DB0ND-19 | 2026-09-01 13:19:37 | 49.85716 | 8.81247 | 91° | 37km/h | 3825m | -5.7m/s | -1.2°C | 32.1% | 644.9hPa | 2.6V | 00:00:00 | 00:00:00 | 00:00:00 | |
| DM0DOS-11 | 2026-09-01 13:19:33 | 49.85720 | 8.81114 | 91° | 37km/h | 3878m | -6m/s | -1.5°C | 31.3% | 640.7hPa | 2.6V | 02:31:14 | 02:42:13 | 00:00:00 | |
| DL1ZP-14 | 2026-09-01 13:19:32 | 49.85718 | 8.81173 | 92° | 37km/h | 3855m | -5.7m/s | -1.4°C | 32.1% | 642.5hPa | 2.7V | 00:00:00 | 00:00:00 | 00:00:00 | |
| DL9SK-14 | 2026-09-01 13:19:30 | 49.85719 | 8.81128 | 91° | 37km/h | 3872m | -5.9m/s | -1.5°C | 31.3% | 641.1hPa | 2.7V | 00:00:00 | 00:00:00 | 00:00:00 | |
| DM0DOS-11 | 2026-09-01 13:19:28 | 49.85719 | 8.81039 | 89° | 38km/h | 3908m | -6m/s | -1.8°C | 30.9% | 638.3hPa | 2.7V | 02:31:19 | 02:42:08 | 00:00:00 | |
| BEGRI65-1 | 2026-09-01 13:19:24 | 49.85719 | 8.81069 | 89° | 38km/h | 3896m | -5.9m/s | -1.7°C | 30.3% | 639.4hPa | 2.7V | 02:31:00 | 00:00:00 | 00:00:00 | |
| DM0DOS-11 | 2026-09-01 13:19:23 | 49.85721 | 8.80964 | 96° | 37km/h | 3937m | -6m/s | -1.9°C | 30.7% | 636hPa | 2.7V | 02:31:24 | 02:42:03 | 00:00:00 | |
| NBG1-10 | 2026-09-01 13:19:21 | 49.85719 | 8.81008 | 93° | 40km/h | 3919m | -5.9m/s | 0°C | 0% | 0hPa | 2.7V | 00:00:00 | 02:42:06 | 00:00:00 | |
| SFWM-10 | 2026-09-01 13:19:19 | 49.85720 | 8.80993 | 95° | 38km/h | 3926m | -5.9m/s | -1.9°C | 30.4% | 636.9hPa | 2.7V | 00:00:00 | 00:00:00 | 00:00:00 | |
| DM0DOS-11 | 2026-09-01 13:19:18 | 49.85723 | 8.80897 | 85° | 35km/h | 3967m | -5.7m/s | -2.1°C | 30.8% | 633.6hPa | 2.7V | 02:31:29 | 02:41:58 | 00:00:00 | |
| DB0UT-7 | 2026-09-01 13:19:16 | 49.85723 | 8.80936 | 95° | 40km/h | 3949m | -5.9m/s | -2.0°C | 30.3% | 634.9hPa | 2.6V | 00:00:00 | 00:00:00 | 00:00:00 | |
| DF7PN | 2026-09-01 13:19:15 | 49.85723 | 8.80923 | 90° | 33km/h | 3955m | -5.8m/s | -2.1°C | 30.0% | 634.6hPa | 2.6V | 00:00:00 | 00:00:00 | 00:00:00 | |
| DM0DOS-11 | 2026-09-01 13:19:13 | 49.85716 | 8.80826 | 80° | 38km/h | 3996m | -5.5m/s | -2.4°C | 31.7% | 631.3hPa | 2.6V | 02:31:34 | 02:41:53 | 00:00:00 | |
| DK5PH-5 | 2026-09-01 13:19:12 | 49.85722 | 8.80883 | 83° | 40km/h | 3972m | -5.6m/s | -2.2°C | 31.0% | 633.1hPa | 2.7V | 02:31:00 | 02:41:57 | 00:00:00 | |
| DB0ND-19 | 2026-09-01 13:19:06 | 49.85713 | 8.80795 | 81° | 42km/h | 4007m | -6.1m/s | -2.5°C | 31.2% | 630.4hPa | 2.7V | 00:00:00 | 00:00:00 | 00:00:00 | |
| DM0DOS-11 | 2026-09-01 13:19:03 | 49.85709 | 8.80745 | 85° | 42km/h | 4025m | -6.3m/s | -2.7°C | 31.2% | 629hPa | 2.7V | 02:31:39 | 02:41:48 | 00:00:00 | |
| DM0DOS-11 | 2026-09-01 13:19:03 | 49.85709 | 8.80671 | 90° | 33km/h | 4054m | -6.2m/s | -2.7°C | 33.2% | 626.5hPa | 2.7V | 02:31:44 | 02:41:43 | 00:00:00 | |
| DL1ZP-14 | 2026-09-01 13:19:01 | 49.85708 | 8.80713 | 90° | 38km/h | 4037m | -5.9m/s | -2.7°C | 30.9% | 628.0hPa | 2.6V | 00:00:00 | 00:00:00 | 00:00:00 | |
| DB0NH | 2026-09-01 13:19:00 | 49.85708 | 8.80699 | 93° | 40km/h | 4043m | -5.8m/s | 0°C | 0% | 0hPa | 2.7V | 02:31:00 | 02:41:45 | 00:00:00 | |
| DM0DOS-11 | 2026-09-01 13:18:58 | 49.85704 | 8.80600 | 80° | 40km/h | 4084m | -5.3m/s | -3.1°C | 31.5% | 624.2hPa | 2.7V | 02:31:49 | 02:41:38 | 00:00:00 | |
| DM0DOS-11 | 2026-09-01 13:18:53 | 49.85697 | 8.80517 | 84° | 46km/h | 4114m | -5.7m/s | -3.3°C | 33.1% | 621.8hPa | 2.6V | 02:31:54 | 02:41:33 | 00:00:00 | |
| DM0DOS-11 | 2026-09-01 13:18:48 | 49.85696 | 8.80427 | 93° | 46km/h | 4145m | -6.2m/s | -3.5°C | 32.9% | 619.4hPa | 2.6V | 02:31:59 | 02:41:28 | 00:00:00 | |
| DF7PN | 2026-09-01 13:18:44 | 49.85695 | 8.80445 | 91° | 46km/h | 4139m | -6.2m/s | -3.5°C | 32.7% | 619.8hPa | 2.7V | 00:00:00 | 00:00:00 | 00:00:00 | |
| DM0DOS-11 | 2026-09-01 13:18:43 | 49.85701 | 8.80349 | 94° | 35km/h | 4175m | -5.6m/s | -3.7°C | 33.4% | 617hPa | 2.7V | 02:32:04 | 02:41:23 | 00:00:00 | |
| DK5PH-5 | 2026-09-01 13:18:42 | 49.85697 | 8.80410 | 96° | 38km/h | 4151m | -6.1m/s | -3.5°C | 33.0% | 618.9hPa | 2.7V | 00:00:00 | 02:41:27 | 00:00:00 | |
| DB0UT-9 | 2026-09-01 13:18:39 | 49.85699 | 8.80378 | 98° | 38km/h | 4163m | -5.7m/s | -3.6°C | 32.6% | 617.9hPa | 2.7V | 02:32:00 | 00:00:00 | 00:00:00 | |
| DM0DOS-11 | 2026-09-01 13:18:38 | 49.85698 | 8.80280 | 81° | 40km/h | 4207m | -6.3m/s | -4°C | 34.2% | 614.8hPa | 2.7V | 02:32:09 | 02:41:18 | 00:00:00 | |
| DB0ND-19 | 2026-09-01 13:18:35 | 49.85700 | 8.80309 | 83° | 35km/h | 4194m | -6.3m/s | -3.9°C | 33.5% | 615.6hPa | 2.7V | 00:00:00 | 00:00:00 | 00:00:00 | |
| DM0DOS-11 | 2026-09-01 13:18:33 | 49.85692 | 8.80193 | 87° | 46km/h | 4237m | -5.7m/s | -4.3°C | 34.9% | 612.3hPa | 2.7V | 02:32:14 | 02:41:13 | 00:00:00 | |
| DL1ZP-14 | 2026-09-01 13:18:30 | 49.85693 | 8.80211 | 86° | 46km/h | 4231m | -5.9m/s | -4.3°C | 34.5% | 612.8hPa | 2.7V | 00:00:00 | 00:00:00 | 00:00:00 | |
| DM0DOS-11 | 2026-09-01 13:18:28 | 49.85694 | 8.80115 | 93° | 35km/h | 4268m | -6.7m/s | -4.4°C | 35.3% | 610hPa | 2.7V | 02:32:19 | 02:41:08 | 00:00:00 | |
| DB0NH | 2026-09-01 13:18:27 | 49.85692 | 8.80176 | 91° | 38km/h | 4243m | -6.6m/s | 0°C | 0% | 0hPa | 2.6V | 00:00:00 | 02:41:12 | 00:00:00 | |
| SFWM-10 | 2026-09-01 13:18:26 | 49.85692 | 8.80176 | 91° | 44km/h | 4243m | -6.6m/s | -4.3°C | 34.6% | 611.9hPa | 2.6V | 00:00:00 | 00:00:00 | 00:00:00 | |
| DM0DOS-11 | 2026-09-01 13:18:23 | 49.85692 | 8.80048 | 81° | 37km/h | 4299m | -5.5m/s | -4.6°C | 35.7% | 607.6hPa | 2.6V | 02:32:24 | 02:41:03 | 00:00:00 | |
| DL0LBS | 2026-09-01 13:18:22 | 49.85694 | 8.80114 | 94° | 35km/h | 4268m | -6.7m/s | -4.4°C | 34.9% | 610.0hPa | 2.7V | 02:32:00 | 00:00:00 | 00:00:00 | |
| BEGRI65-1 | 2026-09-01 13:18:21 | 49.85695 | 8.80101 | 92° | 33km/h | 4275m | -5.8m/s | -4.4°C | 35.0% | 609.4hPa | 2.7V | 02:32:00 | 00:00:00 | 00:00:00 | |
| DB0UT-9 | 2026-09-01 13:18:19 | 49.85694 | 8.80075 | 87° | 33km/h | 4287m | -6.3m/s | -4.5°C | 35.1% | 608.6hPa | 2.7V | 02:32:00 | 00:00:00 | 00:00:00 | |
| DB0UT-7 | 2026-09-01 13:18:15 | 49.85689 | 8.80002 | 86° | 40km/h | 4317m | -5.5m/s | -4.8°C | 35.9% | 606.2hPa | 2.7V | 00:00:00 | 00:00:00 | 00:00:00 | |
| DM0DOS-11 | 2026-09-01 13:18:13 | 49.85686 | 8.79896 | 81° | 35km/h | 4360m | -5.7m/s | -5.2°C | 36.7% | 602.8hPa | 2.7V | 02:32:34 | 02:40:53 | 00:00:00 | |
| DK5PH-5 | 2026-09-01 13:18:12 | 49.85688 | 8.79953 | 91° | 38km/h | 4335m | -6.0m/s | -4.9°C | 36.1% | 604.7hPa | 2.7V | 00:00:00 | 02:40:57 | 00:00:00 | |
| DB0ND-19 | 2026-09-01 13:18:04 | 49.85679 | 8.79841 | 77° | 37km/h | 4384m | -6.0m/s | -5.4°C | 37.4% | 600.9hPa | 2.7V | 00:00:00 | 00:00:00 | 00:00:00 | |
| DM0DOS-11 | 2026-09-01 13:18:03 | 49.85667 | 8.79748 | 82° | 44km/h | 4421m | -5.5m/s | -5.8°C | 38.1% | 598.1hPa | 2.7V | 02:32:44 | 02:40:43 | 00:00:00 | |
| BIOWL1-15 | 2026-09-01 13:17:57 | 49.85666 | 8.79732 | 84° | 44km/h | 4428m | -6.6m/s | -5.9°C | 44.2% | 597.5hPa | 2.7V | 02:32:48 | 02:40:42 | 00:00:00 | |
| DL9SK-14 | 2026-09-01 13:17:56 | 49.85665 | 8.79715 | 85° | 42km/h | 4434m | -6.4m/s | -5.9°C | 38.3% | 597.1hPa | 2.6V | 00:00:00 | 00:00:00 | 00:00:00 | |
| DM0DOS-11 | 2026-09-01 13:17:53 | 49.85667 | 8.79587 | 94° | 37km/h | 4483m | -6.3m/s | -6.2°C | 40.1% | 593.2hPa | 2.6V | 02:32:54 | 02:40:33 | 00:00:00 | |
| DM0DOS-11 | 2026-09-01 13:17:48 | 49.85666 | 8.79516 | 79° | 38km/h | 4514m | -5.7m/s | -6.5°C | 41.6% | 591hPa | 2.6V | 02:32:59 | 02:40:28 | 00:00:00 | |
| BIOWL1-15 | 2026-09-01 13:17:47 | 49.85668 | 8.79572 | 94° | 37km/h | 4490m | -6.5m/s | -6.2°C | 44.4% | 592.8hPa | 2.7V | 02:33:39 | 02:40:32 | 00:00:00 | |
| BIOWL9-15 | 2026-09-01 13:17:44 | 49.85668 | 8.79531 | 82° | 35km/h | 4508m | -6.5m/s | -6.4°C | 41.0% | 591.4hPa | 2.7V | 00:00:00 | 00:00:00 | 00:00:00 | |
| DM0DOS-11 | 2026-09-01 13:17:43 | 49.85658 | 8.79433 | 85° | 46km/h | 4546m | -6.7m/s | -6.8°C | 41.1% | 588.6hPa | 2.7V | 02:33:04 | 02:40:23 | 00:00:00 | |
| DK5PH-5 | 2026-09-01 13:17:42 | 49.85664 | 8.79501 | 79° | 42km/h | 4520m | -6.1m/s | -6.5°C | 41.5% | 590.4hPa | 2.6V | 02:33:00 | 02:40:27 | 00:00:00 | |
| DL0LBS | 2026-09-01 13:17:40 | 49.85662 | 8.79485 | 80° | 42km/h | 4527m | -7.1m/s | -6.6°C | 40.7% | 590.0hPa | 2.7V | 02:33:00 | 00:00:00 | 00:00:00 | |
| BIOWL7-15 | 2026-09-01 13:17:39 | 49.85660 | 8.79468 | 82° | 44km/h | 4534m | -6.2m/s | -6.7°C | 40.5% | 589.5hPa | 2.7V | 00:00:00 | 00:00:00 | 00:00:00 | |
| DM0DOS-11 | 2026-09-01 13:17:38 | 49.85658 | 8.79345 | 94° | 42km/h | 4578m | -6.4m/s | -6.9°C | 42% | 586.2hPa | 2.7V | 02:33:09 | 02:40:18 | 00:00:00 | |
| BIOWL1-15 | 2026-09-01 13:17:37 | 49.85657 | 8.79415 | 87° | 46km/h | 4553m | -6.5m/s | -6.8°C | 46.8% | 588.1hPa | 2.6V | 02:33:39 | 02:40:22 | 00:00:00 | |
| SFWM-10 | 2026-09-01 13:17:35 | 49.85656 | 8.79397 | 90° | 46km/h | 4559m | -6.0m/s | -6.8°C | 40.6% | 587.6hPa | 2.7V | 00:00:00 | 00:00:00 | 00:00:00 | |
| DM0DOS-11 | 2026-09-01 13:17:33 | 49.85660 | 8.79270 | 84° | 38km/h | 4610m | -6m/s | -7.2°C | 44.9% | 583.8hPa | 2.7V | 02:33:14 | 02:40:13 | 00:00:00 | |
| DM0DOS-11 | 2026-09-01 13:17:28 | 49.85654 | 8.79186 | 87° | 46km/h | 4640m | -6.5m/s | -7.5°C | 44% | 581.4hPa | 2.7V | 02:33:19 | 02:40:08 | 00:00:00 | |
| BIOWL1-15 | 2026-09-01 13:17:26 | 49.85657 | 8.79238 | 81° | 42km/h | 4622m | -5.6m/s | -7.3°C | 51.4% | 582.9hPa | 2.6V | 02:33:39 | 02:40:11 | 00:00:00 | |
| DL9SK-14 | 2026-09-01 13:17:25 | 49.85656 | 8.79221 | 82° | 44km/h | 4628m | -5.8m/s | -7.4°C | 44.2% | 582.5hPa | 2.7V | 00:00:00 | 00:00:00 | 00:00:00 | |
| DM0DOS-11 | 2026-09-01 13:17:23 | 49.85656 | 8.79102 | 95° | 40km/h | 4671m | -6.1m/s | -7.6°C | 42.4% | 579.1hPa | 2.7V | 02:33:24 | 02:40:03 | 00:00:00 | |
| DL0LBS | 2026-09-01 13:17:20 | 49.85654 | 8.79151 | 93° | 44km/h | 4653m | -5.9m/s | -7.5°C | 42.7% | 580.5hPa | 2.6V | 02:33:00 | 00:00:00 | 00:00:00 | |
| DM0DOS-11 | 2026-09-01 13:17:18 | 49.85662 | 8.79028 | 97° | 37km/h | 4702m | -6.9m/s | -7.9°C | 42.5% | 576.8hPa | 2.6V | 02:33:29 | 02:39:58 | 00:00:00 | |
| BIOWL1-15 | 2026-09-01 13:17:15 | 49.85659 | 8.79057 | 98° | 38km/h | 4690m | -5.4m/s | -7.8°C | 45.9% | 577.8hPa | 2.7V | 02:33:39 | 02:40:00 | 00:00:00 | |
| DB0UT-7 | 2026-09-01 13:17:14 | 49.85660 | 8.79042 | 98° | 40km/h | 4696m | -6.2m/s | -7.8°C | 42.4% | 577.3hPa | 2.6V | 02:33:00 | 00:00:00 | 00:00:00 | |
| BIOWL9-15 | 2026-09-01 13:17:13 | 49.85662 | 8.79028 | 97° | 37km/h | 4702m | -6.9m/s | -7.9°C | 41.9% | 576.8hPa | 2.6V | 00:00:00 | 00:00:00 | 00:00:00 | |
| DK5PH-5 | 2026-09-01 13:17:12 | 49.85663 | 8.79013 | 97° | 40km/h | 4709m | -6.3m/s | -7.9°C | 42.6% | 576.3hPa | 2.6V | 00:00:00 | 02:39:57 | 00:00:00 | |
| DM0DOS-11 | 2026-09-01 13:17:11 | 49.85666 | 8.78953 | 89° | 40km/h | 4735m | -6.8m/s | -8.2°C | 43.3% | 574.4hPa | 2.6V | 02:33:34 | 02:39:53 | 00:00:00 | |
| BIOWL1-15 | 2026-09-01 13:17:05 | 49.85665 | 8.78904 | 89° | 44km/h | 4753m | -6.8m/s | -8.5°C | 48.1% | 573hPa | 2.7V | 02:33:39 | 02:39:50 | 00:00:00 | |
| DM0DOS-11 | 2026-09-01 13:17:03 | 49.85664 | 8.78870 | 87° | 42km/h | 4768m | -6.9m/s | -8.6°C | 43.7% | 572hPa | 2.6V | 02:33:39 | 02:39:48 | 00:00:00 | |
| DM0DOS-11 | 2026-09-01 13:17:03 | 49.85662 | 8.78788 | 87° | 40km/h | 4800m | -6.8m/s | -8.9°C | 40.4% | 569.6hPa | 2.7V | 02:33:44 | 02:39:43 | 00:00:00 | |
| DB0ND-19 | 2026-09-01 13:17:02 | 49.85664 | 8.78854 | 87° | 42km/h | 4774m | -5.9m/s | -8.7°C | 43.2% | 571.5hPa | 2.7V | 00:00:00 | 00:00:00 | 00:00:00 | |
| BEGRI65-1 | 2026-09-01 13:17:00 | 49.85664 | 8.78837 | 90° | 42km/h | 4780m | -7.0m/s | -8.7°C | 43.2% | 571.0hPa | 2.7V | 02:34:00 | 00:00:00 | 00:00:00 | |
| DL0LBS | 2026-09-01 13:16:59 | 49.85663 | 8.78821 | 90° | 42km/h | 4787m | -5.8m/s | -8.7°C | 43.0% | 570.6hPa | 2.7V | 02:34:00 | 00:00:00 | 00:00:00 | |
| DM0DOS-11 | 2026-09-01 13:16:58 | 49.85660 | 8.78709 | 86° | 40km/h | 4834m | -6.6m/s | -9.1°C | 38.1% | 567hPa | 2.7V | 02:33:49 | 02:39:38 | 00:00:00 | |
| BIOWL1-15 | 2026-09-01 13:16:54 | 49.85660 | 8.78725 | 87° | 40km/h | 4828m | -6.8m/s | -9°C | 43% | 567.5hPa | 2.7V | 02:34:30 | 02:39:39 | 00:00:00 | |
| DM0DOS-11 | 2026-09-01 13:16:53 | 49.85656 | 8.78629 | 85° | 40km/h | 4868m | -6.8m/s | -9.2°C | 47.9% | 564.7hPa | 2.7V | 02:33:54 | 02:39:33 | 00:00:00 | |
| DM0DOS-11 | 2026-09-01 13:16:48 | 49.85653 | 8.78551 | 85° | 38km/h | 4901m | -6.4m/s | -9.4°C | 51.3% | 562.3hPa | 2.7V | 02:33:59 | 02:39:28 | 00:00:00 | |
| BIOWL1-15 | 2026-09-01 13:16:44 | 49.85653 | 8.78567 | 86° | 40km/h | 4894m | -6.5m/s | -9.4°C | 55.7% | 562.8hPa | 2.7V | 02:34:30 | 02:39:29 | 00:00:00 | |
| DM0DOS-11 | 2026-09-01 13:16:43 | 49.85649 | 8.78475 | 86° | 40km/h | 4932m | -6.6m/s | -9.7°C | 52% | 560hPa | 2.7V | 02:34:04 | 02:39:23 | 00:00:00 | |
| DK5PH-5 | 2026-09-01 13:16:42 | 49.85652 | 8.78536 | 86° | 40km/h | 4907m | -6.3m/s | -9.4°C | 51.5% | 561.8hPa | 2.7V | 00:00:00 | 02:39:27 | 00:00:00 | |
| BEGRI65-1 | 2026-09-01 13:16:39 | 49.85651 | 8.78506 | 87° | 38km/h | 4920m | -6.3m/s | -9.6°C | 51.0% | 561.0hPa | 2.7V | 02:34:00 | 00:00:00 | 00:00:00 | |
| DM0DOS-11 | 2026-09-01 13:16:38 | 49.85646 | 8.78398 | 86° | 38km/h | 4964m | -6.2m/s | -9.8°C | 50.7% | 557.7hPa | 2.7V | 02:34:09 | 02:39:18 | 00:00:00 | |
| BIOWL1-15 | 2026-09-01 13:16:33 | 49.85645 | 8.78368 | 88° | 38km/h | 4976m | -6.2m/s | -9.9°C | 54.8% | 556.9hPa | 2.7V | 02:34:30 | 02:39:16 | 00:00:00 | |
| DM0DOS-11 | 2026-09-01 13:16:31 | 49.85644 | 8.78322 | 88° | 38km/h | 4995m | -6.1m/s | -10.1°C | 51.3% | 555.4hPa | 2.7V | 02:34:14 | 02:39:13 | 00:00:00 | |
| BIOWL1-15 | 2026-09-01 13:16:23 | 49.85643 | 8.78246 | 89° | 40km/h | 5026m | -6.3m/s | -10.4°C | 56.6% | 553.3hPa | 2.6V | 02:34:30 | 02:39:08 | 00:00:00 | |
| DB0UT-9 | 2026-09-01 13:16:22 | 49.85642 | 8.78246 | 90° | 40km/h | 5026m | -6.3m/s | -10.4°C | 51.1% | 553.3hPa | 2.7V | 02:34:00 | 00:00:00 | 00:00:00 | |
| DM0DOS-11 | 2026-09-01 13:16:21 | 49.85642 | 8.78199 | 89° | 40km/h | 5044m | -6.3m/s | -10.6°C | 52.3% | 552hPa | 2.7V | 02:34:22 | 02:39:05 | 00:00:00 | |
| BIOWL1-15 | 2026-09-01 13:16:13 | 49.85643 | 8.78087 | 91° | 42km/h | 5087m | -6m/s | -11°C | 57.7% | 549hPa | 2.6V | 02:34:30 | 02:38:58 | 00:00:00 | |
| BIOWL1-15 | 2026-09-01 13:16:02 | 49.85647 | 8.77910 | 91° | 42km/h | 5155m | -6m/s | -11.6°C | 59.4% | 544.2hPa | 2.6V | 02:35:21 | 02:38:47 | 00:00:00 | |
| DM0DOS-11 | 2026-09-01 13:16:01 | 49.85648 | 8.77844 | 91° | 44km/h | 5179m | -5.9m/s | -11.9°C | 56.9% | 542.4hPa | 2.7V | 02:34:44 | 02:38:43 | 00:00:00 | |
| BIOWL1-15 | 2026-09-01 13:15:51 | 49.85649 | 8.77725 | 89° | 44km/h | 5221m | -6m/s | -12.2°C | 62.1% | 539.5hPa | 2.6V | 02:35:21 | 02:38:36 | 00:00:00 | |
| DM0DOS-11 | 2026-09-01 13:15:51 | 49.85648 | 8.77674 | 89° | 42km/h | 5239m | -6m/s | -12.3°C | 57.1% | 538.3hPa | 2.7V | 02:34:54 | 02:38:33 | 00:00:00 | |
| BIOWL1-15 | 2026-09-01 13:15:41 | 49.85646 | 8.77520 | 86° | 46km/h | 5294m | -5.9m/s | -12.8°C | 62.2% | 534.4hPa | 2.7V | 02:35:21 | 02:38:24 | 00:00:00 | |
| DM0DOS-11 | 2026-09-01 13:15:40 | 49.85645 | 8.77502 | 86° | 46km/h | 5300m | -5.9m/s | -12.8°C | 58.1% | 533.9hPa | 2.6V | 02:35:04 | 02:38:23 | 00:00:00 | |
| BIOWL1-15 | 2026-09-01 13:15:31 | 49.85639 | 8.77345 | 86° | 44km/h | 5354m | -5.9m/s | -13.2°C | 63% | 530.1hPa | 2.7V | 02:35:21 | 02:38:14 | 00:00:00 | |
| DM0DOS-11 | 2026-09-01 13:15:30 | 49.85638 | 8.77327 | 85° | 46km/h | 5360m | -6m/s | -13.3°C | 59.2% | 529.7hPa | 2.7V | 02:35:14 | 02:38:13 | 00:00:00 | |
| BIOWL1-15 | 2026-09-01 13:15:20 | 49.85626 | 8.77147 | 83° | 47km/h | 5419m | -5.7m/s | -13.8°C | 62.5% | 525.7hPa | 2.6V | 02:36:12 | 02:38:03 | 00:00:00 | |
| DM0DOS-11 | 2026-09-01 13:15:20 | 49.85625 | 8.77147 | 83° | 47km/h | 5419m | -5.7m/s | -13.8°C | 59.9% | 525.7hPa | 2.6V | 02:35:24 | 02:38:03 | 00:00:00 | |
| BIOWL1-15 | 2026-09-01 13:15:10 | 49.85609 | 8.76966 | 81° | 46km/h | 5477m | -5.6m/s | -14.2°C | 66.2% | 521.6hPa | 2.6V | 02:36:12 | 02:37:53 | 00:00:00 | |
| DM0DOS-11 | 2026-09-01 13:15:09 | 49.85601 | 8.76894 | 80° | 47km/h | 5499m | -5.6m/s | -14.3°C | 61.6% | 520.1hPa | 2.7V | 02:35:38 | 02:37:49 | 00:00:00 | |
| BIOWL9-15 | 2026-09-01 13:15:09 | 49.85609 | 8.76966 | 80° | 46km/h | 5477m | -5.6m/s | -14.2°C | 61.9% | 521.6hPa | 2.7V | 00:00:00 | 00:00:00 | 00:00:00 | |
| DF7PN | 2026-09-01 13:15:07 | 49.85607 | 8.76948 | 80° | 46km/h | 5482m | -5.6m/s | -14.2°C | 61.6% | 521.3hPa | 2.7V | 00:00:00 | 00:00:00 | 00:00:00 | |
| SFWM-10 | 2026-09-01 13:15:04 | 49.85603 | 8.76912 | 83° | 46km/h | 5493m | -5.4m/s | -14.3°C | 60.7% | 520.5hPa | 2.7V | 00:00:00 | 00:00:00 | 00:00:00 | |
| DB0ND-19 | 2026-09-01 13:14:58 | 49.85589 | 8.76783 | 80° | 46km/h | 5532m | -5.6m/s | -14.6°C | 57.5% | 517.8hPa | 2.7V | 00:00:00 | 00:00:00 | 00:00:00 | |
| BIOWL1-15 | 2026-09-01 13:14:58 | 49.85589 | 8.76783 | 80° | 47km/h | 5532m | -5.6m/s | -14.6°C | 61.5% | 517.8hPa | 2.6V | 02:36:12 | 02:37:43 | 00:00:00 | |
| DM0DOS-11 | 2026-09-01 13:14:57 | 49.85581 | 8.76710 | 80° | 47km/h | 5555m | -5.8m/s | -14.8°C | 59.2% | 516.1hPa | 2.7V | 02:35:48 | 02:37:39 | 00:00:00 | |
| BIOWL1-15 | 2026-09-01 13:14:47 | 49.85563 | 8.76543 | 81° | 47km/h | 5605m | -5.6m/s | -15.2°C | 61.4% | 512.7hPa | 2.7V | 02:36:12 | 02:37:30 | 00:00:00 | |
| BIOWL1-15 | 2026-09-01 13:14:36 | 49.85545 | 8.76373 | 81° | 51km/h | 5654m | -5.4m/s | -15.7°C | 63.2% | 509.4hPa | 2.7V | 02:36:12 | 02:37:21 | 00:00:00 | |
| BIOWL1-15 | 2026-09-01 13:14:25 | 49.85523 | 8.76140 | 82° | 57km/h | 5713m | -5.5m/s | -16.2°C | 68.9% | 505.3hPa | 2.7V | 02:37:03 | 02:37:10 | 00:00:00 | |
| SFWM-10 | 2026-09-01 13:14:22 | 49.85519 | 8.76096 | 84° | 57km/h | 5724m | -5.3m/s | -16.2°C | 66.7% | 504.7hPa | 2.6V | 00:00:00 | 00:00:00 | 00:00:00 | |
| DM0DOS-11 | 2026-09-01 13:14:21 | 49.85511 | 8.75982 | 84° | 60km/h | 5751m | -5.3m/s | -15.9°C | 76.7% | 503hPa | 2.6V | 02:36:24 | 02:37:03 | 00:00:00 | |
| BIOWL1-15 | 2026-09-01 13:14:14 | 49.85506 | 8.75888 | 86° | 60km/h | 5772m | -5.5m/s | -16°C | 77.8% | 501.5hPa | 2.7V | 02:37:03 | 02:36:59 | 00:00:00 | |
| DF2AP-13 | 2026-09-01 13:14:13 | 49.85505 | 8.75864 | 86° | 62km/h | 5777m | -5.3m/s | -16.0°C | 79.5% | 501.1hPa | 2.6V | 02:36:00 | 02:36:58 | 00:00:00 | |
| DK5PH-5 | 2026-09-01 13:14:12 | 49.85503 | 8.75840 | 86° | 62km/h | 5783m | -5.4m/s | -16.1°C | 79.9% | 500.7hPa | 2.7V | 00:00:00 | 02:36:57 | 00:00:00 | |
| DF1GD-15 | 2026-09-01 13:14:10 | 49.85502 | 8.75815 | 87° | 62km/h | 5788m | -5.4m/s | -16.1°C | 78.3% | 500.5hPa | 2.7V | 02:37:00 | 00:00:00 | 00:00:00 | |
| DM0DOS-11 | 2026-09-01 13:14:09 | 49.85492 | 8.75645 | 85° | 62km/h | 5825m | -5.4m/s | -16.4°C | 79.1% | 498hPa | 2.7V | 02:36:38 | 02:36:49 | 00:00:00 | |
| BIOWL1-15 | 2026-09-01 13:14:03 | 49.85488 | 8.75571 | 84° | 64km/h | 5841m | -5.2m/s | -16.6°C | 79.3% | 496.9hPa | 2.6V | 02:37:03 | 02:36:46 | 00:00:00 | |
| DB0UT-7 | 2026-09-01 13:14:03 | 49.85490 | 8.75620 | 85° | 60km/h | 5831m | -5.1m/s | -16.4°C | 78.9% | 497.5hPa | 2.7V | 02:36:00 | 00:00:00 | 00:00:00 | |
| DF3TZ-5 | 2026-09-01 13:14:02 | 49.85486 | 8.75547 | 84° | 62km/h | 5846m | -5.3m/s | -16.6°C | 76.4% | 496.7hPa | 2.7V | 00:00:00 | 00:00:00 | 00:00:00 | |
| DM0DOS-11 | 2026-09-01 13:13:59 | 49.85477 | 8.75399 | 85° | 62km/h | 5879m | -5.3m/s | -16.6°C | 64.7% | 494.4hPa | 2.7V | 02:36:48 | 02:36:39 | 00:00:00 | |
| BIOWL1-15 | 2026-09-01 13:13:55 | 49.85476 | 8.75374 | 86° | 62km/h | 5884m | -5.2m/s | -16.6°C | 65.7% | 494.1hPa | 2.7V | 02:37:03 | 02:36:38 | 00:00:00 | |
| DL1ZP-14 | 2026-09-01 13:13:50 | 49.85472 | 8.75302 | 85° | 60km/h | 5899m | -5.3m/s | -16.7°C | 65.8% | 493.0hPa | 2.6V | 00:00:00 | 00:00:00 | 00:00:00 | |
| DM0DOS-11 | 2026-09-01 13:13:48 | 49.85465 | 8.75161 | 85° | 60km/h | 5931m | -5.1m/s | -16.8°C | 70.6% | 491hPa | 2.6V | 02:36:58 | 02:36:29 | 00:00:00 | |
| DL9SK-14 | 2026-09-01 13:13:48 | 49.85469 | 8.75231 | 85° | 60km/h | 5915m | -5.3m/s | -16.7°C | 66.2% | 492.1hPa | 2.6V | 00:00:00 | 00:00:00 | 00:00:00 | |
| BIOWL1-15 | 2026-09-01 13:13:43 | 49.85464 | 8.75137 | 86° | 60km/h | 5936m | -5.3m/s | -16.8°C | 71.8% | 490.7hPa | 2.6V | 02:37:03 | 02:36:28 | 00:00:00 | |
| DF2AP-13 | 2026-09-01 13:13:43 | 49.85464 | 8.75137 | 86° | 57km/h | 5936m | -5.3m/s | -16.7°C | 73.1% | 490.7hPa | 2.7V | 00:00:00 | 02:36:28 | 00:00:00 | |
| DK5PH-5 | 2026-09-01 13:13:42 | 49.85463 | 8.75114 | 86° | 57km/h | 5941m | -5.3m/s | -16.7°C | 75.9% | 490.3hPa | 2.7V | 00:00:00 | 02:36:27 | 00:00:00 | |
| DM0DOS-11 | 2026-09-01 13:13:39 | 49.85452 | 8.74932 | 83° | 58km/h | 5983m | -5.2m/s | -16.9°C | 80.3% | 487.6hPa | 2.7V | 02:37:08 | 02:36:19 | 00:00:00 | |
| BIOWL1-15 | 2026-09-01 13:13:32 | 49.85448 | 8.74887 | 83° | 57km/h | 5994m | -5.3m/s | -17°C | 80.4% | 486.9hPa | 2.6V | 02:37:54 | 02:36:17 | 00:00:00 | |
| DL0LBS | 2026-09-01 13:13:31 | 49.85448 | 8.74887 | 84° | 57km/h | 5994m | -5.3m/s | -17.0°C | 78.1% | 486.9hPa | 2.6V | 02:37:00 | 00:00:00 | 00:00:00 | |
| DF1GD-15 | 2026-09-01 13:13:30 | 49.85447 | 8.74865 | 84° | 57km/h | 5999m | -5.6m/s | -17.0°C | 78.3% | 486.6hPa | 2.6V | 02:37:00 | 00:00:00 | 00:00:00 | |
| DD1CC8 | 2026-09-01 13:13:29 | 49.85439 | 8.74777 | 82° | 55km/h | 6020m | -5.4m/s | -17.1°C | 77.7% | 485.2hPa | 2.6V | 00:00:00 | 00:00:00 | 00:00:00 | |
| DM0DOS-11 | 2026-09-01 13:13:28 | 49.85434 | 8.74712 | 83° | 57km/h | 6036m | -5.3m/s | -17.2°C | 79.6% | 484.2hPa | 2.6V | 02:37:18 | 02:36:09 | 00:00:00 | |
| BIOWL1-15 | 2026-09-01 13:13:21 | 49.85428 | 8.74625 | 83° | 55km/h | 6058m | -5.5m/s | -17.4°C | 76.7% | 482.7hPa | 2.7V | 02:37:54 | 02:36:05 | 00:00:00 | |
| DL1ZP-14 | 2026-09-01 13:13:19 | 49.85427 | 8.74604 | 83° | 55km/h | 6063m | -5.2m/s | -17.4°C | 77.2% | 482.4hPa | 2.6V | 00:00:00 | 00:00:00 | 00:00:00 | |
| SFWM-10 | 2026-09-01 13:13:18 | 49.85427 | 8.74604 | 85° | 55km/h | 6063m | -5.2m/s | -17.4°C | 77.2% | 482.4hPa | 2.6V | 02:37:00 | 00:00:00 | 00:00:00 | |
| DB0UT-9 | 2026-09-01 13:13:16 | 49.85423 | 8.74561 | 85° | 55km/h | 6073m | -5.4m/s | -17.4°C | 77.5% | 481.7hPa | 2.6V | 02:37:00 | 00:00:00 | 00:00:00 | |
| DM0DOS-11 | 2026-09-01 13:13:13 | 49.85415 | 8.74431 | 85° | 57km/h | 6105m | -5.2m/s | -17.6°C | 75.7% | 479.7hPa | 2.6V | 02:37:31 | 02:35:56 | 00:00:00 | |
| BIOWL1-15 | 2026-09-01 13:13:10 | 49.85413 | 8.74386 | 86° | 57km/h | 6116m | -5.2m/s | -17.6°C | 74% | 479hPa | 2.7V | 02:37:54 | 02:35:54 | 00:00:00 | |
| BIOWL1-15 | 2026-09-01 13:13:01 | 49.85402 | 8.74166 | 85° | 57km/h | 6169m | -5.3m/s | -18.1°C | 75.3% | 475.7hPa | 2.6V | 02:37:54 | 02:35:44 | 00:00:00 | |
| DF3TZ-5 | 2026-09-01 13:13:00 | 49.85399 | 8.74099 | 85° | 57km/h | 6184m | -5.3m/s | -18.2°C | 71.9% | 474.5hPa | 2.6V | 00:00:00 | 00:00:00 | 00:00:00 | |
| DM0DOS-11 | 2026-09-01 13:12:59 | 49.85396 | 8.74055 | 85° | 57km/h | 6195m | -5.3m/s | -18.3°C | 72.7% | 473.9hPa | 2.6V | 02:37:48 | 02:35:39 | 00:00:00 | |
| BIOWL1-15 | 2026-09-01 13:12:51 | 49.85391 | 8.73944 | 85° | 57km/h | 6221m | -5.2m/s | -18.5°C | 74.1% | 472.2hPa | 2.6V | 02:37:54 | 02:35:34 | 00:00:00 | |
| DL1ZP-14 | 2026-09-01 13:12:48 | 49.85389 | 8.73922 | 84° | 55km/h | 6226m | -5.2m/s | -18.5°C | 73.3% | 471.9hPa | 2.6V | 00:00:00 | 00:00:00 | 00:00:00 | |
| DL9SK-14 | 2026-09-01 13:12:46 | 49.85386 | 8.73855 | 85° | 57km/h | 6242m | -5.2m/s | -18.7°C | 73.9% | 470.9hPa | 2.6V | 00:00:00 | 00:00:00 | 00:00:00 | |
| BIOWL1-15 | 2026-09-01 13:12:38 | 49.85376 | 8.73652 | 86° | 58km/h | 6290m | -5.2m/s | -19.2°C | 78.8% | 467.9hPa | 2.6V | 02:38:45 | 02:35:21 | 00:00:00 | |
| BIOWL1-15 | 2026-09-01 13:12:28 | 49.85370 | 8.73422 | 89° | 58km/h | 6341m | -5.2m/s | -19.5°C | 77.2% | 464.7hPa | 2.6V | 02:38:45 | 02:35:11 | 00:00:00 | |
| BIOWL1-15 | 2026-09-01 13:12:18 | 49.85364 | 8.73236 | 87° | 60km/h | 6382m | -5.2m/s | -20°C | 76.4% | 462hPa | 2.6V | 02:38:45 | 02:35:03 | 00:00:00 | |
| BIOWL1-15 | 2026-09-01 13:12:08 | 49.85356 | 8.72993 | 86° | 64km/h | 6434m | -5m/s | -20.3°C | 80.1% | 458.8hPa | 2.6V | 02:38:45 | 02:34:53 | 00:00:00 | |
| BIOWL1-15 | 2026-09-01 13:12:00 | 49.85344 | 8.72743 | 87° | 64km/h | 6484m | -4.9m/s | -20.7°C | 78.9% | 455.7hPa | 2.6V | 02:38:45 | 02:34:43 | 00:00:00 | |
| DM0DOS-11 | 2026-09-01 13:11:58 | 49.85339 | 8.72616 | 85° | 66km/h | 6509m | -5.3m/s | -20.9°C | 81.2% | 454hPa | 2.6V | 02:38:49 | 02:34:38 | 00:00:00 | |
| DB0ND-19 | 2026-09-01 13:11:52 | 49.85336 | 8.72566 | 84° | 64km/h | 6519m | -5.2m/s | -21.0°C | 79.7% | 453.5hPa | 2.6V | 00:00:00 | 00:00:00 | 00:00:00 | |
| BEGRI65-1 | 2026-09-01 13:11:50 | 49.85336 | 8.72566 | 86° | 66km/h | 6519m | -5.2m/s | -21.0°C | 79.7% | 453.5hPa | 2.6V | 02:39:00 | 00:00:00 | 00:00:00 | |
| DL0LBS | 2026-09-01 13:11:49 | 49.85335 | 8.72540 | 86° | 66km/h | 6524m | -5.2m/s | -21.1°C | 80.3% | 453.1hPa | 2.6V | 02:39:00 | 00:00:00 | 00:00:00 | |
| DM0DOS-11 | 2026-09-01 13:11:48 | 49.85326 | 8.72360 | 86° | 66km/h | 6561m | -5.5m/s | -21.4°C | 85.4% | 450.9hPa | 2.6V | 02:38:59 | 02:34:28 | 00:00:00 | |
| BIOWL1-15 | 2026-09-01 13:11:48 | 49.85330 | 8.72438 | 85° | 66km/h | 6545m | -5.5m/s | -21.3°C | 83.9% | 451.9hPa | 2.6V | 02:39:36 | 02:34:31 | 00:00:00 | |
| BIOWL1-15 | 2026-09-01 13:11:36 | 49.85319 | 8.72179 | 87° | 68km/h | 6597m | -5.2m/s | -21.8°C | 88.1% | 448.7hPa | 2.6V | 02:39:36 | 02:34:21 | 00:00:00 | |
| SFWM-10 | 2026-09-01 13:11:35 | 49.85318 | 8.72179 | 88° | 68km/h | 6597m | -5.2m/s | -21.8°C | 88.3% | 448.7hPa | 2.6V | 02:39:00 | 00:00:00 | 00:00:00 | |
| DB0UT-9 | 2026-09-01 13:11:34 | 49.85318 | 8.72152 | 88° | 68km/h | 6602m | -5.2m/s | -21.9°C | 88.5% | 448.3hPa | 2.6V | 02:39:00 | 00:00:00 | 00:00:00 | |
| BEGRI65-1 | 2026-09-01 13:11:30 | 49.85313 | 8.72047 | 87° | 66km/h | 6623m | -5.2m/s | -22.1°C | 89.6% | 447.2hPa | 2.6V | 02:39:00 | 00:00:00 | 00:00:00 | |
| DL0LBS | 2026-09-01 13:11:29 | 49.85312 | 8.72021 | 86° | 68km/h | 6628m | -5.3m/s | -22.1°C | 89.6% | 446.8hPa | 2.6V | 02:39:00 | 00:00:00 | 00:00:00 | |
| DM0DOS-11 | 2026-09-01 13:11:28 | 49.85305 | 8.71835 | 87° | 69km/h | 6665m | -5.6m/s | -22.5°C | 94.8% | 444.6hPa | 2.6V | 02:39:19 | 02:34:08 | 00:00:00 | |
| BIOWL1-15 | 2026-09-01 13:11:26 | 49.85306 | 8.71862 | 88° | 69km/h | 6659m | -5.4m/s | -22.5°C | 90.2% | 444.8hPa | 2.6V | 02:39:36 | 02:34:09 | 00:00:00 | |
| BIOWL1-15 | 2026-09-01 13:11:17 | 49.85301 | 8.71623 | 88° | 66km/h | 6708m | -5.4m/s | -22.8°C | 87.8% | 441.9hPa | 2.6V | 02:39:36 | 02:34:00 | 00:00:00 | |
| BIOWL1-15 | 2026-09-01 13:11:09 | 49.85298 | 8.71375 | 90° | 58km/h | 6762m | -5.6m/s | -22.8°C | 64.2% | 438.6hPa | 2.6V | 02:40:27 | 02:33:50 | 00:00:00 | |
| BIOWL1-15 | 2026-09-01 13:10:54 | 49.85301 | 8.71115 | 93° | 49km/h | 6829m | -5.9m/s | -22.4°C | 35.5% | 434.6hPa | 2.6V | 02:40:27 | 02:33:38 | 00:00:00 | |
| BIOWL1-15 | 2026-09-01 13:10:44 | 49.85309 | 8.70945 | 97° | 47km/h | 6881m | -6.2m/s | -22.3°C | 22.8% | 431.5hPa | 2.6V | 02:40:27 | 02:33:29 | 00:00:00 | |
| DL1ZP-14 | 2026-09-01 13:10:44 | 49.85310 | 8.70927 | 97° | 47km/h | 6887m | -6.1m/s | -22.3°C | 18.5% | 431.1hPa | 2.6V | 00:00:00 | 00:00:00 | 00:00:00 | |
| DL9SK-14 | 2026-09-01 13:10:42 | 49.85314 | 8.70890 | 97° | 46km/h | 6899m | -6.0m/s | -22.3°C | 17.0% | 430.5hPa | 2.6V | 00:00:00 | 00:00:00 | 00:00:00 | |
| DM0DOS-11 | 2026-09-01 13:10:41 | 49.85318 | 8.70835 | 97° | 47km/h | 6916m | -5.8m/s | -22.4°C | 17% | 429.5hPa | 2.6V | 02:40:04 | 02:33:23 | 00:00:00 | |
| BIOWL1-15 | 2026-09-01 13:10:34 | 49.85326 | 8.70760 | 99° | 47km/h | 6939m | -6.1m/s | -22.4°C | 21.6% | 428.1hPa | 2.6V | 02:40:27 | 02:33:19 | 00:00:00 | |
| DM0DOS-11 | 2026-09-01 13:10:33 | 49.85340 | 8.70648 | 101° | 49km/h | 6974m | -6.2m/s | -22.7°C | 20.4% | 426hPa | 2.5V | 02:40:14 | 02:33:13 | 00:00:00 | |
| BIOWL1-15 | 2026-09-01 13:10:24 | 49.85362 | 8.70492 | 103° | 53km/h | 7020m | -6.1m/s | -23.1°C | 23.1% | 423.4hPa | 2.6V | 02:40:27 | 02:33:05 | 00:00:00 | |
| DM0DOS-11 | 2026-09-01 13:10:23 | 49.85368 | 8.70452 | 103° | 53km/h | 7032m | -5.9m/s | -23.2°C | 20.2% | 422.7hPa | 2.6V | 02:40:24 | 02:33:03 | 00:00:00 | |
| BIOWL1-15 | 2026-09-01 13:10:11 | 49.85393 | 8.70272 | 98° | 53km/h | 7084m | -6.3m/s | -23.5°C | 22.4% | 419.6hPa | 2.5V | 02:41:18 | 02:32:54 | 00:00:00 | |
| DL9SK-14 | 2026-09-01 13:10:10 | 49.85391 | 8.70293 | 99° | 51km/h | 7078m | -6.1m/s | -23.5°C | 18.4% | 420.0hPa | 2.5V | 00:00:00 | 00:00:00 | 00:00:00 | |
| DM0DOS-11 | 2026-09-01 13:10:07 | 49.85403 | 8.70163 | 101° | 60km/h | 7114m | -6.5m/s | -23.7°C | 21.8% | 417.9hPa | 2.5V | 02:40:38 | 02:32:49 | 00:00:00 | |
| BIOWL1-15 | 2026-09-01 13:10:00 | 49.85416 | 8.70071 | 102° | 58km/h | 7138m | -7m/s | -23.9°C | 23.7% | 416.5hPa | 2.6V | 02:41:18 | 02:32:45 | 00:00:00 | |
| DM0DOS-11 | 2026-09-01 13:09:58 | 49.85431 | 8.69938 | 100° | 58km/h | 7175m | -7m/s | -24.1°C | 20.2% | 414.4hPa | 2.6V | 02:40:48 | 02:32:39 | 00:00:00 | |
| BIOWL1-15 | 2026-09-01 13:09:49 | 49.85448 | 8.69781 | 97° | 60km/h | 7219m | -5.8m/s | -24.5°C | 22.8% | 411.9hPa | 2.6V | 02:41:18 | 02:32:32 | 00:00:00 | |
| DB0ND-19 | 2026-09-01 13:09:47 | 49.85448 | 8.69781 | 97° | 58km/h | 7219m | -5.8m/s | -24.5°C | 18.7% | 411.9hPa | 2.6V | 00:00:00 | 00:00:00 | 00:00:00 | |
| BEGRI65-1 | 2026-09-01 13:09:46 | 49.85448 | 8.69781 | 98° | 58km/h | 7219m | -5.8m/s | -24.5°C | 18.7% | 411.9hPa | 2.6V | 02:41:00 | 00:00:00 | 00:00:00 | |
| DF1GD-15 | 2026-09-01 13:09:44 | 49.85453 | 8.69734 | 101° | 62km/h | 7231m | -7.3m/s | -24.6°C | 18.7% | 411.3hPa | 2.6V | 02:41:00 | 00:00:00 | 00:00:00 | |
| DK5PH-5 | 2026-09-01 13:09:42 | 49.85462 | 8.69662 | 102° | 64km/h | 7250m | -6.0m/s | -24.7°C | 20.1% | 410.1hPa | 2.6V | 00:00:00 | 02:32:27 | 00:00:00 | |
| DM0DOS-11 | 2026-09-01 13:09:41 | 49.85479 | 8.69495 | 96° | 60km/h | 7291m | -6.2m/s | -25.1°C | 21% | 407.8hPa | 2.6V | 02:41:07 | 02:32:20 | 00:00:00 | |
| BIOWL1-15 | 2026-09-01 13:09:39 | 49.85471 | 8.69588 | 98° | 62km/h | 7268m | -5.9m/s | -24.9°C | 23.5% | 409.1hPa | 2.5V | 02:41:18 | 02:32:24 | 00:00:00 | |
| BIOWL1-15 | 2026-09-01 13:09:29 | 49.85488 | 8.69361 | 91° | 60km/h | 7329m | -6.5m/s | -25.5°C | 23.5% | 405.7hPa | 2.6V | 02:41:18 | 02:32:14 | 00:00:00 | |
| DM0DOS-11 | 2026-09-01 13:09:28 | 49.85490 | 8.69288 | 89° | 66km/h | 7348m | -7.4m/s | -25.6°C | 20.7% | 404.6hPa | 2.6V | 02:41:16 | 02:32:11 | 00:00:00 | |
| DB0UT-7 | 2026-09-01 13:09:28 | 49.85489 | 8.69338 | 93° | 69km/h | 7335m | -6.1m/s | -25.5°C | 20.7% | 405.3hPa | 2.5V | 02:41:00 | 02:32:13 | 00:00:00 | |
| BIOWL9-15 | 2026-09-01 13:09:27 | 49.85489 | 8.69313 | 92° | 62km/h | 7341m | -7.5m/s | -25.6°C | 19.4% | 405.0hPa | 2.5V | 00:00:00 | 00:00:00 | 00:00:00 | |
| DL0LBS | 2026-09-01 13:09:26 | 49.85489 | 8.69313 | 93° | 64km/h | 7342m | -7.5m/s | -25.6°C | 19.4% | 405.0hPa | 2.5V | 02:41:00 | 00:00:00 | 00:00:00 | |
| BEGRI65-1 | 2026-09-01 13:09:25 | 49.85490 | 8.69288 | 91° | 66km/h | 7349m | -7.4m/s | -25.6°C | 19.4% | 404.6hPa | 2.5V | 02:41:00 | 00:00:00 | 00:00:00 | |
| DF1GD-15 | 2026-09-01 13:09:23 | 49.85491 | 8.69234 | 94° | 69km/h | 7362m | -6.3m/s | -25.7°C | 19.3% | 403.9hPa | 2.5V | 02:41:00 | 00:00:00 | 00:00:00 | |
| DD1CC8 | 2026-09-01 13:09:20 | 49.85499 | 8.69124 | 100° | 73km/h | 7387m | -5.6m/s | -25.9°C | 17.5% | 402.4hPa | 2.5V | 00:00:00 | 00:00:00 | 00:00:00 | |
| DM0DOS-11 | 2026-09-01 13:09:18 | 49.85513 | 8.69018 | 102° | 64km/h | 7411m | -6.9m/s | -26.1°C | 16.3% | 401hPa | 2.5V | 02:41:26 | 02:32:01 | 00:00:00 | |
| BIOWL1-15 | 2026-09-01 13:09:18 | 49.85506 | 8.69070 | 102° | 68km/h | 7398m | -5.9m/s | -26°C | 20.1% | 401.7hPa | 2.6V | 02:42:09 | 02:32:03 | 00:00:00 | |
| DB0ND-19 | 2026-09-01 13:09:16 | 49.85513 | 8.69018 | 102° | 64km/h | 7411m | -6.9m/s | -26.1°C | 15.2% | 401.0hPa | 2.6V | 00:00:00 | 00:00:00 | 00:00:00 | |
| BIOWL7-15 | 2026-09-01 13:09:13 | 49.85519 | 8.68970 | 99° | 62km/h | 7424m | -7.3m/s | -26.2°C | 14.1% | 400.3hPa | 2.6V | 00:00:00 | 00:00:00 | 00:00:00 | |
| DK5PH-5 | 2026-09-01 13:09:12 | 49.85522 | 8.68922 | 93° | 73km/h | 7436m | -5.5m/s | -26.2°C | 14.4% | 399.6hPa | 2.6V | 00:00:00 | 02:31:57 | 00:00:00 | |
| DF2AP-13 | 2026-09-01 13:09:11 | 49.85522 | 8.68897 | 91° | 75km/h | 7442m | -7.2m/s | -26.2°C | 13.7% | 399.3hPa | 2.6V | 00:00:00 | 02:31:56 | 00:00:00 | |
| DB0UT-9 | 2026-09-01 13:09:10 | 49.85522 | 8.68897 | 92° | 64km/h | 7442m | -7.2m/s | -26.3°C | 12.6% | 399.3hPa | 2.6V | 02:42:00 | 00:00:00 | 00:00:00 | |
| DM0DOS-11 | 2026-09-01 13:09:09 | 49.85522 | 8.68762 | 90° | 75km/h | 7475m | -7.5m/s | -26.4°C | 12.1% | 397.5hPa | 2.6V | 02:41:36 | 02:31:51 | 00:00:00 | |
| BIOWL1-15 | 2026-09-01 13:09:08 | 49.85522 | 8.68818 | 91° | 69km/h | 7462m | -7m/s | -26.3°C | 14% | 398.2hPa | 2.6V | 02:42:09 | 02:31:53 | 00:00:00 | |
| DL0LBS | 2026-09-01 13:09:05 | 49.85522 | 8.68762 | 91° | 75km/h | 7476m | -7.5m/s | -26.4°C | 11.1% | 397.5hPa | 2.6V | 02:42:00 | 00:00:00 | 00:00:00 | |
| SFWM-10 | 2026-09-01 13:09:04 | 49.85522 | 8.68732 | 92° | 75km/h | 7482m | -6.4m/s | -26.4°C | 10.8% | 397.1hPa | 2.6V | 02:42:00 | 00:00:00 | 00:00:00 | |
| DF1GD-15 | 2026-09-01 13:09:03 | 49.85523 | 8.68702 | 95° | 78km/h | 7489m | -7.2m/s | -26.4°C | 10.7% | 396.8hPa | 2.6V | 02:42:00 | 00:00:00 | 00:00:00 | |
| DM0DOS-11 | 2026-09-01 13:08:58 | 49.85539 | 8.68475 | 90° | 68km/h | 7539m | -6.8m/s | -26.6°C | 13.3% | 394.1hPa | 2.6V | 02:41:46 | 02:31:41 | 00:00:00 | |
| BIOWL1-15 | 2026-09-01 13:08:57 | 49.85538 | 8.68502 | 93° | 68km/h | 7532m | -7.2m/s | -26.5°C | 14.7% | 394.4hPa | 2.5V | 02:42:09 | 02:31:42 | 00:00:00 | |
| BIOWL9-15 | 2026-09-01 13:08:56 | 49.85539 | 8.68475 | 90° | 68km/h | 7539m | -6.8m/s | -26.6°C | 12.2% | 394.1hPa | 2.5V | 00:00:00 | 00:00:00 | 00:00:00 | |
| DF3TZ-5 | 2026-09-01 13:08:52 | 49.85538 | 8.68330 | 90° | 78km/h | 7570m | -6.6m/s | -26.6°C | 14.0% | 392.3hPa | 2.5V | 00:00:00 | 00:00:00 | 00:00:00 | |
| DB0UT-9 | 2026-09-01 13:08:49 | 49.85539 | 8.68299 | 93° | 80km/h | 7576m | -6.7m/s | -26.7°C | 14.2% | 391.9hPa | 2.5V | 02:42:00 | 00:00:00 | 00:00:00 | |
| DM0DOS-11 | 2026-09-01 13:08:48 | 49.85542 | 8.68178 | 91° | 77km/h | 7604m | -7.2m/s | -26.9°C | 16.1% | 390.5hPa | 2.5V | 02:41:56 | 02:31:31 | 00:00:00 | |
| BIOWL1-15 | 2026-09-01 13:08:46 | 49.85542 | 8.68178 | 92° | 77km/h | 7604m | -7.2m/s | -26.9°C | 18.6% | 390.5hPa | 2.5V | 02:42:09 | 02:31:31 | 00:00:00 | |
| DB0ND-19 | 2026-09-01 13:08:46 | 49.85543 | 8.68148 | 92° | 75km/h | 7611m | -7.1m/s | -27.0°C | 15.3% | 390.1hPa | 2.5V | 00:00:00 | 00:00:00 | 00:00:00 | |
| DL0LBS | 2026-09-01 13:08:45 | 49.85542 | 8.68178 | 93° | 77km/h | 7604m | -7.2m/s | -26.9°C | 14.9% | 390.5hPa | 2.5V | 02:42:00 | 00:00:00 | 00:00:00 | |
| DF1GD-15 | 2026-09-01 13:08:43 | 49.85544 | 8.68119 | 93° | 73km/h | 7617m | -6.6m/s | -27.0°C | 15.5% | 389.8hPa | 2.5V | 02:42:00 | 00:00:00 | 00:00:00 | |
| DK5PH-5 | 2026-09-01 13:08:42 | 49.85544 | 8.68061 | 89° | 77km/h | 7630m | -7.8m/s | -27.1°C | 17.5% | 389.1hPa | 2.5V | 02:42:00 | 02:31:27 | 00:00:00 | |
| DL1ZP-14 | 2026-09-01 13:08:39 | 49.85540 | 8.67974 | 84° | 78km/h | 7651m | -6.5m/s | -27.3°C | 17.6% | 387.9hPa | 2.5V | 00:00:00 | 00:00:00 | 00:00:00 | |
| DM0DOS-11 | 2026-09-01 13:08:38 | 49.85535 | 8.67879 | 87° | 84km/h | 7670m | -8m/s | -27.4°C | 20.3% | 386.9hPa | 2.6V | 02:42:06 | 02:31:21 | 00:00:00 | |
| BIOWL1-15 | 2026-09-01 13:08:35 | 49.85535 | 8.67846 | 90° | 84km/h | 7677m | -8.1m/s | -27.4°C | 23.8% | 386.4hPa | 2.6V | 02:42:09 | 02:31:20 | 00:00:00 | |
| BIOWL1-15 | 2026-09-01 13:08:27 | 49.85532 | 8.67532 | 82° | 78km/h | 7746m | -7.4m/s | -28°C | 26.7% | 382.9hPa | 2.5V | 02:43:00 | 02:31:10 | 00:00:00 | |
| DL0LBS | 2026-09-01 13:08:26 | 49.85534 | 8.67562 | 84° | 78km/h | 7739m | -6.6m/s | -27.9°C | 21.7% | 383.2hPa | 2.6V | 02:43:00 | 00:00:00 | 00:00:00 | |
| BIOWL9-15 | 2026-09-01 13:08:25 | 49.85532 | 8.67532 | 82° | 77km/h | 7746m | -7.4m/s | -28.0°C | 21.6% | 382.9hPa | 2.6V | 00:00:00 | 00:00:00 | 00:00:00 | |
| DM0DOS-11 | 2026-09-01 13:08:23 | 49.85518 | 8.67333 | 84° | 69km/h | 7794m | -7m/s | -28.4°C | 23.9% | 380.3hPa | 2.6V | 02:42:24 | 02:31:03 | 00:00:00 | |
| BIOWL1-15 | 2026-09-01 13:08:16 | 49.85512 | 8.67221 | 87° | 77km/h | 7821m | -7m/s | -28.7°C | 27.9% | 378.8hPa | 2.6V | 02:43:00 | 02:30:59 | 00:00:00 | |
| DB0ND-19 | 2026-09-01 13:08:14 | 49.85512 | 8.67221 | 86° | 75km/h | 7821m | -7.0m/s | -28.7°C | 23.1% | 378.8hPa | 2.6V | 00:00:00 | 00:00:00 | 00:00:00 | |
| DK5PH-5 | 2026-09-01 13:08:12 | 49.85510 | 8.67161 | 88° | 77km/h | 7835m | -7.2m/s | -28.7°C | 24.8% | 378.1hPa | 2.6V | 00:00:00 | 02:30:57 | 00:00:00 | |
| DB0UT-9 | 2026-09-01 13:08:08 | 49.85507 | 8.67066 | 89° | 82km/h | 7855m | -7.2m/s | -29.0°C | 23.7% | 377.1hPa | 2.6V | 02:43:00 | 00:00:00 | 00:00:00 | |
| DM0DOS-11 | 2026-09-01 13:08:07 | 49.85499 | 8.66876 | 83° | 80km/h | 7895m | -7.5m/s | -29.3°C | 26.4% | 374.9hPa | 2.6V | 02:42:39 | 02:30:48 | 00:00:00 | |
| BIOWL1-15 | 2026-09-01 13:08:04 | 49.85501 | 8.66907 | 85° | 78km/h | 7889m | -7.6m/s | -29.3°C | 29.9% | 375.2hPa | 2.5V | 02:43:00 | 02:30:49 | 00:00:00 | |
| DF1GD-15 | 2026-09-01 13:08:03 | 49.85501 | 8.66907 | 86° | 78km/h | 7889m | -7.6m/s | -29.3°C | 24.6% | 375.2hPa | 2.6V | 02:43:00 | 00:00:00 | 00:00:00 | |
| BEGRI65-1 | 2026-09-01 13:08:02 | 49.85499 | 8.66876 | 85° | 80km/h | 7895m | -7.5m/s | -29.3°C | 24.8% | 374.9hPa | 2.6V | 02:43:00 | 00:00:00 | 00:00:00 | |
| DF2AP-13 | 2026-09-01 13:08:00 | 49.85492 | 8.66784 | 83° | 78km/h | 7918m | -7.9m/s | -29.5°C | 27.0% | 373.8hPa | 2.6V | 00:00:00 | 02:30:45 | 00:00:00 | |
| DM0DOS-11 | 2026-09-01 13:07:58 | 49.85473 | 8.66582 | 82° | 73km/h | 7966m | -7.5m/s | -29.9°C | 28.7% | 371.2hPa | 2.6V | 02:42:49 | 02:30:38 | 00:00:00 | |
| BIOWL1-15 | 2026-09-01 13:07:53 | 49.85473 | 8.66582 | 82° | 73km/h | 7966m | -7.5m/s | -29.9°C | 32.5% | 371.2hPa | 2.6V | 02:43:00 | 02:30:38 | 00:00:00 | |
| DF3TZ-5 | 2026-09-01 13:07:49 | 49.85462 | 8.66470 | 81° | 73km/h | 7995m | -8.3m/s | -30.1°C | 28.0% | 369.8hPa | 2.6V | 00:00:00 | 00:00:00 | 00:00:00 | |
| DD1CC8 | 2026-09-01 13:07:47 | 49.85450 | 8.66354 | 82° | 75km/h | 8023m | -7.5m/s | -30.4°C | 28.8% | 368.3hPa | 2.6V | 00:00:00 | 00:00:00 | 00:00:00 | |
| BIOWL1-15 | 2026-09-01 13:07:42 | 49.85443 | 8.66264 | 83° | 78km/h | 8044m | -7.6m/s | -30.6°C | 34.9% | 367.3hPa | 2.6V | 02:43:00 | 02:30:27 | 00:00:00 | |
| DK5PH-5 | 2026-09-01 13:07:42 | 49.85443 | 8.66264 | 83° | 77km/h | 8044m | -7.6m/s | -30.5°C | 31.2% | 367.2hPa | 2.5V | 00:00:00 | 02:30:27 | 00:00:00 | |
| DM0DOS-11 | 2026-09-01 13:07:41 | 49.85429 | 8.66073 | 82° | 84km/h | 8085m | -6.5m/s | -30.9°C | 32.5% | 365.1hPa | 2.5V | 02:43:06 | 02:30:21 | 00:00:00 | |
| BIOWL1-15 | 2026-09-01 13:07:32 | 49.85417 | 8.65943 | 82° | 82km/h | 8113m | -6.8m/s | -31.1°C | 37.9% | 363.6hPa | 2.6V | 02:43:51 | 02:30:17 | 00:00:00 | |
| DM0DOS-11 | 2026-09-01 13:07:31 | 49.85398 | 8.65761 | 80° | 75km/h | 8155m | -7m/s | -31.5°C | 35.6% | 361.5hPa | 2.6V | 02:43:16 | 02:30:11 | 00:00:00 | |
| DF2AP-13 | 2026-09-01 13:07:30 | 49.85411 | 8.65880 | 80° | 77km/h | 8127m | -7.6m/s | -31.2°C | 34.1% | 362.9hPa | 2.5V | 02:43:00 | 02:30:15 | 00:00:00 | |
| DB0UT-7 | 2026-09-01 13:07:28 | 49.85404 | 8.65819 | 81° | 84km/h | 8141m | -8.1m/s | -31.3°C | 34.7% | 362.2hPa | 2.6V | 00:00:00 | 02:30:13 | 00:00:00 | |
| DB0UT-9 | 2026-09-01 13:07:26 | 49.85401 | 8.65790 | 81° | 77km/h | 8149m | -6.9m/s | -31.4°C | 32.9% | 361.9hPa | 2.6V | 00:00:00 | 00:00:00 | 00:00:00 | |
| HEMX73-11 | 2026-09-01 13:07:25 | 49.85398 | 8.65760 | 82° | 75km/h | 8155m | -7.0m/s | -31.5°C | 33.5% | 361.5hPa | 2.6V | 02:43:00 | 00:00:00 | 00:00:00 | |
| DH7VM-15 | 2026-09-01 13:07:23 | 49.85392 | 8.65677 | 86° | 71km/h | 8176m | -6.4m/s | -31.7°C | 34.2% | 360.4hPa | 2.6V | 00:00:00 | 00:00:00 | 00:00:00 | |
| BIOWL1-15 | 2026-09-01 13:07:22 | 49.85391 | 8.65649 | 86° | 71km/h | 8183m | -8m/s | -31.7°C | 40.4% | 360.1hPa | 2.6V | 02:43:51 | 02:30:07 | 00:00:00 | |
| BEGRI65-1 | 2026-09-01 13:07:21 | 49.85390 | 8.65649 | 87° | 71km/h | 8183m | -8.0m/s | -31.7°C | 34.4% | 360.1hPa | 2.6V | 02:43:00 | 00:00:00 | 00:00:00 | |
| DM0DOS-11 | 2026-09-01 13:07:20 | 49.85389 | 8.65453 | 90° | 77km/h | 8234m | -7m/s | -32.2°C | 37.9% | 357.6hPa | 2.6V | 02:43:27 | 02:30:00 | 00:00:00 | |
| BIOWL1-15 | 2026-09-01 13:07:14 | 49.85390 | 8.65359 | 89° | 86km/h | 8255m | -7.6m/s | -32.4°C | 42.6% | 356.5hPa | 2.5V | 02:43:51 | 02:29:57 | 00:00:00 | |
| DK5PH-5 | 2026-09-01 13:07:12 | 49.85390 | 8.65359 | 89° | 88km/h | 8255m | -7.5m/s | -32.3°C | 39.1% | 356.4hPa | 2.5V | 02:43:00 | 02:29:57 | 00:00:00 | |
| DM0DOS-11 | 2026-09-01 13:07:10 | 49.85380 | 8.65123 | 85° | 88km/h | 8302m | -7.6m/s | -32.8°C | 40% | 354.1hPa | 2.6V | 02:43:37 | 02:29:50 | 00:00:00 | |
| BIOWL1-15 | 2026-09-01 13:07:02 | 49.85376 | 8.65020 | 86° | 88km/h | 8324m | -8m/s | -33°C | 43.8% | 353hPa | 2.5V | 02:43:51 | 02:29:47 | 00:00:00 | |
| BEGRI65-1 | 2026-09-01 13:07:01 | 49.85375 | 8.65020 | 87° | 88km/h | 8324m | -8.0m/s | -33.0°C | 37.7% | 353.0hPa | 2.5V | 02:43:00 | 00:00:00 | 00:00:00 | |
| DM0DOS-11 | 2026-09-01 13:07:00 | 49.85368 | 8.64775 | 86° | 89km/h | 8374m | -6.9m/s | -33.5°C | 40.7% | 350.5hPa | 2.5V | 02:43:47 | 02:29:40 | 00:00:00 | |
| BIOWL1-15 | 2026-09-01 13:06:54 | 49.85363 | 8.64672 | 85° | 88km/h | 8395m | -7.1m/s | -33.7°C | 44.4% | 349.4hPa | 2.5V | 02:43:51 | 02:29:37 | 00:00:00 | |
| BIOWL9-15 | 2026-09-01 13:06:52 | 49.85363 | 8.64672 | 84° | 88km/h | 8395m | -7.1m/s | -33.7°C | 38.3% | 349.4hPa | 2.5V | 00:00:00 | 00:00:00 | 00:00:00 | |
| DO9LL-15 | 2026-09-01 13:06:50 | 49.85360 | 8.64603 | 86° | 82km/h | 8411m | -8.4m/s | -33.7°C | 40.4% | 348.7hPa | 2.5V | 00:00:00 | 02:29:35 | 00:00:00 | |
| DM0DOS-11 | 2026-09-01 13:06:49 | 49.85350 | 8.64434 | 83° | 86km/h | 8447m | -7.3m/s | -34.1°C | 40.2% | 346.9hPa | 2.5V | 02:43:57 | 02:29:30 | 00:00:00 | |
| DF3TZ-5 | 2026-09-01 13:06:47 | 49.85347 | 8.64402 | 84° | 82km/h | 8454m | -7.7m/s | -34.2°C | 37.7% | 346.6hPa | 2.6V | 00:00:00 | 00:00:00 | 00:00:00 | |
| DD1CC8 | 2026-09-01 13:06:45 | 49.85347 | 8.64402 | 84° | 82km/h | 8454m | -7.7m/s | -34.2°C | 37.7% | 346.6hPa | 2.6V | 00:00:00 | 00:00:00 | 00:00:00 | |
| BIOWL1-15 | 2026-09-01 13:06:41 | 49.85341 | 8.64306 | 85° | 80km/h | 8475m | -7.1m/s | -34.3°C | 43.8% | 345.5hPa | 2.6V | 02:44:42 | 02:29:26 | 00:00:00 | |
| BEGRI65-1 | 2026-09-01 13:06:40 | 49.85340 | 8.64306 | 86° | 80km/h | 8476m | -7.1m/s | -34.3°C | 37.7% | 345.5hPa | 2.6V | 02:44:00 | 00:00:00 | 00:00:00 | |
| DM0DOS-11 | 2026-09-01 13:06:37 | 49.85330 | 8.64120 | 84° | 77km/h | 8519m | -6.8m/s | -34.7°C | 40.2% | 343.4hPa | 2.6V | 02:44:07 | 02:29:20 | 00:00:00 | |
| BIOWL1-15 | 2026-09-01 13:06:30 | 49.85320 | 8.63969 | 83° | 78km/h | 8555m | -8.3m/s | -35°C | 42.1% | 341.6hPa | 2.6V | 02:44:42 | 02:29:15 | 00:00:00 | |
| DF2AP-13 | 2026-09-01 13:06:29 | 49.85319 | 8.63939 | 86° | 84km/h | 8563m | -8.0m/s | -35.0°C | 38.3% | 341.1hPa | 2.5V | 00:00:00 | 02:29:14 | 00:00:00 | |
| DB0UT-7 | 2026-09-01 13:06:28 | 49.85316 | 8.63910 | 82° | 84km/h | 8571m | -7.7m/s | -35.0°C | 38.3% | 340.8hPa | 2.5V | 02:44:00 | 02:29:13 | 00:00:00 | |
| DM0DOS-11 | 2026-09-01 13:06:25 | 49.85294 | 8.63693 | 80° | 82km/h | 8623m | -7.7m/s | -35.5°C | 37.2% | 338.3hPa | 2.5V | 02:44:21 | 02:29:06 | 00:00:00 | |
| BIOWL1-15 | 2026-09-01 13:06:20 | 49.85275 | 8.63496 | 82° | 86km/h | 8668m | -7m/s | -35.9°C | 40% | 336.2hPa | 2.5V | 02:44:42 | 02:29:00 | 00:00:00 | |
| SFWM-10 | 2026-09-01 13:06:19 | 49.85290 | 8.63660 | 82° | 84km/h | 8631m | -7.8m/s | -35.6°C | 34.4% | 338.0hPa | 2.6V | 02:44:00 | 00:00:00 | 00:00:00 | |
| DO9LL-15 | 2026-09-01 13:06:17 | 49.85281 | 8.63563 | 83° | 86km/h | 8653m | -8.2m/s | -35.7°C | 36.7% | 336.8hPa | 2.6V | 02:44:00 | 02:29:02 | 00:00:00 | |
| DD1CC8 | 2026-09-01 13:06:14 | 49.85273 | 8.63462 | 84° | 88km/h | 8675m | -7.6m/s | -35.9°C | 33.8% | 335.9hPa | 2.5V | 00:00:00 | 00:00:00 | 00:00:00 | |
| DM0DOS-11 | 2026-09-01 13:06:13 | 49.85267 | 8.63326 | 87° | 86km/h | 8704m | -8.2m/s | -36.2°C | 36.4% | 334.4hPa | 2.5V | 02:44:32 | 02:28:55 | 00:00:00 | |
| HSKMA3-T | 2026-09-01 13:06:11 | 49.85268 | 8.63360 | 87° | 88km/h | 8697m | -6.9m/s | 0°C | 0% | 0hPa | 2.6V | 18:12:15 | 02:28:56 | 00:00:00 | |
| BIOWL1-15 | 2026-09-01 13:06:07 | 49.85265 | 8.63191 | 89° | 86km/h | 8733m | -7.7m/s | -36.4°C | 40% | 333hPa | 2.6V | 02:44:42 | 02:28:51 | 00:00:00 | |
| DL1ZP-14 | 2026-09-01 13:06:04 | 49.85264 | 8.63123 | 90° | 88km/h | 8748m | -7.5m/s | -36.6°C | 34.3% | 332.3hPa | 2.6V | 00:00:00 | 00:00:00 | 00:00:00 | |
| DB0UT-9 | 2026-09-01 13:06:03 | 49.85264 | 8.63123 | 91° | 88km/h | 8748m | -7.5m/s | -36.6°C | 34.3% | 332.3hPa | 2.6V | 02:44:00 | 00:00:00 | 00:00:00 | |
| HEMX73-11 | 2026-09-01 13:06:02 | 49.85264 | 8.63089 | 92° | 86km/h | 8755m | -7.1m/s | -36.6°C | 34.8% | 331.9hPa | 2.6V | 02:44:00 | 00:00:00 | 00:00:00 | |
| DM0DOS-11 | 2026-09-01 13:06:01 | 49.85266 | 8.62990 | 91° | 82km/h | 8776m | -7.6m/s | -36.8°C | 38.5% | 330.8hPa | 2.6V | 02:44:42 | 02:28:45 | 00:00:00 | |
| BIOWL1-15 | 2026-09-01 13:05:57 | 49.85268 | 8.62834 | 91° | 78km/h | 8812m | -7.4m/s | -37°C | 43.1% | 329.1hPa | 2.6V | 02:45:33 | 02:28:40 | 00:00:00 | |
| DM0DOS-11 | 2026-09-01 13:05:55 | 49.85265 | 8.62685 | 85° | 77km/h | 8849m | -7.3m/s | -37.4°C | 41.1% | 327.4hPa | 2.5V | 02:44:52 | 02:28:35 | 00:00:00 | |
| BIOWL9-15 | 2026-09-01 13:05:50 | 49.85265 | 8.62685 | 85° | 75km/h | 8850m | -7.3m/s | -37.4°C | 38.2% | 327.4hPa | 2.5V | 00:00:00 | 00:00:00 | 00:00:00 | |
| DF3TZ-5 | 2026-09-01 13:05:46 | 49.85256 | 8.62509 | 84° | 75km/h | 8894m | -8.1m/s | -37.8°C | 38.5% | 325.3hPa | 2.5V | 00:00:00 | 00:00:00 | 00:00:00 | |
| BIOWL1-15 | 2026-09-01 13:05:44 | 49.85246 | 8.62359 | 84° | 78km/h | 8932m | -7.1m/s | -38.2°C | 43.9% | 323.6hPa | 2.5V | 02:45:33 | 02:28:24 | 00:00:00 | |
| DM0DOS-11 | 2026-09-01 13:05:44 | 49.85248 | 8.62390 | 83° | 78km/h | 8925m | -8m/s | -38.1°C | 41.4% | 323.9hPa | 2.5V | 02:45:02 | 02:28:25 | 00:00:00 | |
| BIOWL1-15 | 2026-09-01 13:05:34 | 49.85227 | 8.62137 | 82° | 82km/h | 8982m | -7.3m/s | -38.6°C | 41.4% | 321.1hPa | 2.6V | 02:45:33 | 02:28:17 | 00:00:00 | |
| DL1ZP-14 | 2026-09-01 13:05:33 | 49.85230 | 8.62169 | 81° | 80km/h | 8975m | -6.9m/s | -38.6°C | 35.7% | 321.5hPa | 2.5V | 00:00:00 | 00:00:00 | 00:00:00 | |
| DM0DOS-11 | 2026-09-01 13:05:31 | 49.85221 | 8.62074 | 81° | 80km/h | 8997m | -6.6m/s | -38.7°C | 38.2% | 320.5hPa | 2.6V | 02:45:12 | 02:28:15 | 00:00:00 | |
| DL9SK-14 | 2026-09-01 13:05:31 | 49.85222 | 8.62074 | 81° | 80km/h | 8997m | -6.6m/s | -38.7°C | 35.3% | 320.5hPa | 2.5V | 00:00:00 | 00:00:00 | 00:00:00 | |
| DF2AP-13 | 2026-09-01 13:05:29 | 49.85219 | 8.62042 | 82° | 80km/h | 9003m | -7.4m/s | -38.7°C | 38.4% | 320.1hPa | 2.5V | 00:00:00 | 02:28:14 | 00:00:00 | |
| DM0DOS-11 | 2026-09-01 13:05:25 | 49.85196 | 8.61767 | 83° | 82km/h | 9070m | -8.7m/s | -39.4°C | 38% | 317hPa | 2.5V | 02:45:22 | 02:28:05 | 00:00:00 | |
| BIOWL1-15 | 2026-09-01 13:05:22 | 49.85201 | 8.61830 | 82° | 78km/h | 9055m | -7.7m/s | -39.3°C | 41.2% | 317.7hPa | 2.5V | 02:45:33 | 02:28:07 | 00:00:00 | |
| DB0UT-9 | 2026-09-01 13:05:21 | 49.85201 | 8.61830 | 83° | 78km/h | 9055m | -7.7m/s | -39.3°C | 35.3% | 317.7hPa | 2.6V | 00:00:00 | 00:00:00 | 00:00:00 | |
| DF1GD-15 | 2026-09-01 13:05:20 | 49.85198 | 8.61799 | 83° | 82km/h | 9062m | -6.9m/s | -39.4°C | 35.3% | 317.4hPa | 2.6V | 02:45:00 | 00:00:00 | 00:00:00 | |
| BIOWL9-15 | 2026-09-01 13:05:19 | 49.85193 | 8.61736 | 81° | 82km/h | 9078m | -8.0m/s | -39.4°C | -1.0% | 316.6hPa | 2.6V | 00:00:00 | 00:00:00 | 00:00:00 | |
| SFWM-10 | 2026-09-01 13:05:18 | 49.85193 | 8.61736 | 83° | 82km/h | 9078m | -8.0m/s | -39.4°C | 34.5% | 316.6hPa | 2.6V | 00:00:00 | 00:00:00 | 00:00:00 | |
| DB0UT-7 | 2026-09-01 13:05:15 | 49.85180 | 8.61608 | 81° | 77km/h | 9107m | -7.7m/s | -39.5°C | 38.0% | 314.9hPa | 2.6V | 00:00:00 | 02:28:00 | 00:00:00 | |
| DM0DOS-11 | 2026-09-01 13:05:14 | 49.85166 | 8.61452 | 81° | 80km/h | 9144m | -7.8m/s | -39.9°C | 39% | 313.5hPa | 2.6V | 02:45:32 | 02:27:55 | 00:00:00 | |
| BIOWL1-15 | 2026-09-01 13:05:13 | 49.85169 | 8.61483 | 82° | 80km/h | 9137m | -7.3m/s | -39.8°C | 41.7% | 313.9hPa | 2.6V | 02:45:33 | 02:27:56 | 00:00:00 | |
| DK5PH-5 | 2026-09-01 13:05:12 | 49.85171 | 8.61514 | 84° | 78km/h | 9129m | -8.3m/s | -39.7°C | 38.5% | 314.2hPa | 2.5V | 00:00:00 | 02:27:57 | 00:00:00 | |
| CB1BUN | 2026-09-01 13:05:10 | 49.85169 | 8.61483 | 83° | 80km/h | 9137m | -7.3m/s | -39.8°C | 35.7% | 313.9hPa | 2.5V | 02:45:00 | 00:00:00 | 00:00:00 | |
| DL8DAS-14 | 2026-09-01 13:05:08 | 49.85158 | 8.61359 | 82° | 78km/h | 9167m | -8.2m/s | -40.1°C | 36.0% | 312.5hPa | 2.5V | 00:00:00 | 00:00:00 | 00:00:00 | |
| DM0DOS-11 | 2026-09-01 13:05:04 | 49.85140 | 8.61143 | 81° | 80km/h | 9220m | -8.1m/s | -40.4°C | 39.5% | 310.1hPa | 2.5V | 02:45:42 | 02:27:45 | 00:00:00 | |
| BIOWL1-15 | 2026-09-01 13:05:01 | 49.85143 | 8.61174 | 83° | 78km/h | 9213m | -7.9m/s | -40.4°C | 42.6% | 310.5hPa | 2.5V | 02:46:24 | 02:27:46 | 00:00:00 | |
| DL9SK-14 | 2026-09-01 13:05:00 | 49.85138 | 8.61112 | 82° | 78km/h | 9228m | -7.0m/s | -40.5°C | 36.5% | 309.6hPa | 2.6V | 00:00:00 | 00:00:00 | 00:00:00 | |
| DF2AP-13 | 2026-09-01 13:04:59 | 49.85138 | 8.61112 | 83° | 75km/h | 9228m | -6.9m/s | -40.4°C | 39.6% | 309.6hPa | 2.6V | 00:00:00 | 02:27:44 | 00:00:00 | |
| SFWM-10 | 2026-09-01 13:04:55 | 49.85130 | 8.61020 | 82° | 80km/h | 9250m | -6.5m/s | -40.7°C | 36.9% | 308.6hPa | 2.6V | 02:46:00 | 00:00:00 | 00:00:00 | |
| DM0DOS-11 | 2026-09-01 13:04:54 | 49.85112 | 8.60830 | 81° | 82km/h | 9296m | -7.9m/s | -41.1°C | 41.4% | 306.7hPa | 2.6V | 02:45:52 | 02:27:35 | 00:00:00 | |
| BIOWL1-15 | 2026-09-01 13:04:50 | 49.85112 | 8.60830 | 82° | 82km/h | 9296m | -7.9m/s | -41.1°C | 44.4% | 306.7hPa | 2.6V | 02:46:24 | 02:27:35 | 00:00:00 | |
| BIOWL9-15 | 2026-09-01 13:04:48 | 49.85108 | 8.60768 | 83° | 78km/h | 9312m | -7.3m/s | 0°C | -1.0% | -1.0hPa | 2.5V | 00:00:00 | 00:00:00 | 00:00:00 | |
| DM0DOS-11 | 2026-09-01 13:04:44 | 49.85100 | 8.60542 | 85° | 69km/h | 9375m | -7m/s | -41.8°C | 44.7% | 303.1hPa | 2.5V | 02:46:02 | 02:27:25 | 00:00:00 | |
| BIOWL1-15 | 2026-09-01 13:04:41 | 49.85098 | 8.60515 | 86° | 69km/h | 9382m | -8.2m/s | -41.9°C | 48.3% | 302.8hPa | 2.6V | 02:46:24 | 02:27:24 | 00:00:00 | |
| HEMX73-11 | 2026-09-01 13:04:41 | 49.85101 | 8.60569 | 88° | 69km/h | 9367m | -8.5m/s | -41.7°C | 40.7% | 303.5hPa | 2.5V | 02:46:00 | 00:00:00 | 00:00:00 | |
| DB0UT-9 | 2026-09-01 13:04:39 | 49.85100 | 8.60542 | 87° | 69km/h | 9375m | -7.1m/s | -41.8°C | 41.2% | 303.1hPa | 2.5V | 02:46:00 | 00:00:00 | 00:00:00 | |
| DL8DAS-14 | 2026-09-01 13:04:37 | 49.85094 | 8.60435 | 85° | 68km/h | 9405m | -8.2m/s | -42.1°C | 43.0% | 301.8hPa | 2.5V | 00:00:00 | 00:00:00 | 00:00:00 | |
| DB0UT-7 | 2026-09-01 13:04:36 | 49.85094 | 8.60434 | 86° | 75km/h | 9405m | -8.2m/s | -42.0°C | 46.7% | 301.7hPa | 2.5V | 02:46:00 | 00:00:00 | 00:00:00 | |
| DM0DOS-11 | 2026-09-01 13:04:34 | 49.85085 | 8.60273 | 83° | 68km/h | 9452m | -8.5m/s | -42.5°C | 50.7% | 299.6hPa | 2.6V | 02:46:12 | 02:27:15 | 00:00:00 | |
| CB1BUN | 2026-09-01 13:04:30 | 49.85086 | 8.60299 | 84° | 69km/h | 9445m | -8.3m/s | -42.4°C | 46.2% | 300.1hPa | 2.6V | 02:46:00 | 00:00:00 | 00:00:00 | |
| DF2AP-13 | 2026-09-01 13:04:29 | 49.85082 | 8.60246 | 82° | 80km/h | 9461m | -8.5m/s | -42.5°C | 51.5% | 299.3hPa | 2.6V | 02:46:00 | 02:27:14 | 00:00:00 | |
| BIOWL1-15 | 2026-09-01 13:04:29 | 49.85082 | 8.60246 | 81° | 69km/h | 9461m | -8.6m/s | -42.6°C | 54.3% | 299.3hPa | 2.6V | 02:46:24 | 02:27:14 | 00:00:00 | |
| DM0DOS-11 | 2026-09-01 13:04:24 | 49.85055 | 8.59994 | 80° | 78km/h | 9531m | -7.4m/s | -43.1°C | 54.5% | 296.3hPa | 2.5V | 02:46:22 | 02:27:05 | 00:00:00 | |
| BIOWL1-15 | 2026-09-01 13:04:18 | 49.85048 | 8.59933 | 79° | 80km/h | 9546m | -7.5m/s | -43.3°C | 57.2% | 295.6hPa | 2.6V | 02:46:24 | 02:27:03 | 00:00:00 | |
| SFWM-10 | 2026-09-01 13:04:17 | 49.85048 | 8.59933 | 80° | 80km/h | 9547m | -7.5m/s | -43.3°C | 50.4% | 295.6hPa | 2.5V | 02:46:00 | 00:00:00 | 00:00:00 | |
| DK5PH-5 | 2026-09-01 13:04:12 | 49.85027 | 8.59749 | 80° | 86km/h | 9592m | -6.6m/s | -43.6°C | 53.7% | 293.5hPa | 2.5V | 02:46:00 | 02:26:57 | 00:00:00 | |
| DM0DOS-11 | 2026-09-01 13:04:11 | 49.85020 | 8.59685 | 80° | 84km/h | 9607m | -8.3m/s | -43.8°C | 54.2% | 292.9hPa | 2.6V | 02:46:32 | 02:26:55 | 00:00:00 | |
| BIOWL1-15 | 2026-09-01 13:04:10 | 49.85013 | 8.59621 | 81° | 86km/h | 9622m | -7.7m/s | -43.9°C | 57.2% | 292.2hPa | 2.6V | 02:47:15 | 02:26:53 | 00:00:00 | |
| CB1BUN | 2026-09-01 13:04:10 | 49.85020 | 8.59685 | 81° | 84km/h | 9607m | -8.4m/s | -43.8°C | 50.0% | 292.9hPa | 2.5V | 02:47:00 | 00:00:00 | 00:00:00 | |
| DL8DAS-14 | 2026-09-01 13:04:06 | 49.85004 | 8.59522 | 84° | 84km/h | 9645m | -8.0m/s | -44.1°C | 50.5% | 291.3hPa | 2.5V | 00:00:00 | 00:00:00 | 00:00:00 | |
| DM0DOS-11 | 2026-09-01 13:04:05 | 49.84993 | 8.59359 | 84° | 82km/h | 9683m | -8.3m/s | -44.4°C | 54.8% | 289.6hPa | 2.5V | 02:46:42 | 02:26:45 | 00:00:00 | |
| BIOWL1-15 | 2026-09-01 13:03:57 | 49.84988 | 8.59262 | 85° | 84km/h | 9705m | -8.5m/s | -44.6°C | 57.4% | 288.6hPa | 2.6V | 02:47:15 | 02:26:42 | 00:00:00 | |
| SFWM-10 | 2026-09-01 13:03:55 | 49.84986 | 8.59229 | 87° | 84km/h | 9714m | -8.0m/s | -44.6°C | 50.4% | 288.3hPa | 2.6V | 00:00:00 | 00:00:00 | 00:00:00 | |
| DM0DOS-11 | 2026-09-01 13:03:54 | 49.84977 | 8.59031 | 85° | 86km/h | 9760m | -7.6m/s | -44.9°C | 52.8% | 286.4hPa | 2.6V | 02:46:52 | 02:26:35 | 00:00:00 | |
| BIOWL1-15 | 2026-09-01 13:03:47 | 49.84972 | 8.58931 | 86° | 88km/h | 9784m | -7.6m/s | -45°C | 54.5% | 285.3hPa | 2.5V | 02:47:15 | 02:26:32 | 00:00:00 | |
| BIOWL9-15 | 2026-09-01 13:03:46 | 49.84970 | 8.58896 | 85° | 88km/h | 9791m | -7.8m/s | -45.1°C | 47.2% | 285.0hPa | 2.6V | 00:00:00 | 00:00:00 | 00:00:00 | |
| DM0DOS-11 | 2026-09-01 13:03:44 | 49.84954 | 8.58615 | 84° | 93km/h | 9854m | -8.2m/s | -45.6°C | 51% | 282.4hPa | 2.6V | 02:47:04 | 02:26:23 | 00:00:00 | |
| BIOWL1-15 | 2026-09-01 13:03:36 | 49.84950 | 8.58543 | 85° | 95km/h | 9869m | -8.2m/s | -45.7°C | 52.3% | 281.8hPa | 2.5V | 02:47:15 | 02:26:21 | 00:00:00 | |
| DL8DAS-14 | 2026-09-01 13:03:35 | 49.84938 | 8.58355 | 84° | 99km/h | 9907m | -7.9m/s | -46.1°C | 43.6% | 280.1hPa | 2.5V | 00:00:00 | 00:00:00 | 00:00:00 | |
| DM0DOS-11 | 2026-09-01 13:03:33 | 49.84933 | 8.58278 | 84° | 99km/h | 9923m | -8.3m/s | -46.2°C | 46.2% | 279.4hPa | 2.5V | 02:47:13 | 02:26:14 | 00:00:00 | |
| BIOWL1-15 | 2026-09-01 13:03:25 | 49.84926 | 8.58123 | 87° | 102km/h | 9953m | -6m/s | -46.3°C | 43.4% | 278.2hPa | 2.6V | 02:48:06 | 02:26:10 | 00:00:00 | |
| DM0DOS-11 | 2026-09-01 13:03:23 | 49.84919 | 8.57897 | 88° | 95km/h | 10000m | -8.2m/s | -46.3°C | 32.5% | 276.2hPa | 2.5V | 02:47:23 | 02:26:04 | 00:00:00 | |
| BIOWL1-15 | 2026-09-01 13:03:17 | 49.84917 | 8.57747 | 89° | 95km/h | 10031m | -8.1m/s | -46.3°C | 32.9% | 274.9hPa | 2.6V | 02:48:06 | 02:26:00 | 00:00:00 | |
| DL8DAS-15 | 2026-09-01 13:03:16 | 49.84918 | 8.57821 | 90° | 97km/h | 10016m | -7.6m/s | -46.3°C | 27.4% | 275.5hPa | 2.6V | 00:00:00 | 00:00:00 | 00:00:00 | |
| BIOWL9-15 | 2026-09-01 13:03:15 | 49.84917 | 8.57747 | 88° | 93km/h | 10031m | -8.1m/s | -46.3°C | 26.5% | 274.9hPa | 2.6V | 00:00:00 | 00:00:00 | 00:00:00 | |
| DM0DOS-11 | 2026-09-01 13:03:13 | 49.84914 | 8.57528 | 88° | 93km/h | 10079m | -8.2m/s | -46.5°C | 28.7% | 272.9hPa | 2.6V | 02:47:33 | 02:25:54 | 00:00:00 | |
| BIOWL1-15 | 2026-09-01 13:03:05 | 49.84912 | 8.57346 | 89° | 93km/h | 10121m | -7.6m/s | -46.8°C | 31.3% | 271.2hPa | 2.6V | 02:48:06 | 02:25:49 | 00:00:00 | |
| BIOWL1-15 | 2026-09-01 13:02:54 | 49.84905 | 8.56984 | 89° | 91km/h | 10202m | -7.6m/s | -47.2°C | 30.6% | 267.9hPa | 2.5V | 02:48:06 | 02:25:39 | 00:00:00 | |
| DM0DOS-11 | 2026-09-01 13:02:51 | 49.84900 | 8.56806 | 87° | 91km/h | 10243m | -8.9m/s | -47.4°C | 29.7% | 266.3hPa | 2.5V | 02:47:53 | 02:25:34 | 00:00:00 | |
| DO9LL-15 | 2026-09-01 13:02:51 | 49.84902 | 8.56877 | 87° | 91km/h | 10226m | -8.1m/s | 0°C | 0% | 0hPa | 2.6V | 02:47:00 | 02:25:36 | 00:00:00 | |
| CB1BUN | 2026-09-01 13:02:47 | 49.84898 | 8.56771 | 86° | 89km/h | 10252m | -9.0m/s | -47.4°C | 26.7% | 265.9hPa | 2.6V | 02:48:00 | 00:00:00 | 00:00:00 | |
| DM0DOS-11 | 2026-09-01 13:02:44 | 49.84879 | 8.56454 | 83° | 89km/h | 10326m | -8.3m/s | -48.1°C | 34.7% | 262.9hPa | 2.6V | 02:48:03 | 02:25:24 | 00:00:00 | |
| BIOWL9-15 | 2026-09-01 13:02:44 | 49.84891 | 8.56630 | 84° | 91km/h | 10285m | -8.2m/s | -47.7°C | 29.1% | 264.6hPa | 2.5V | 00:00:00 | 00:00:00 | 00:00:00 | |
| BIOWL1-15 | 2026-09-01 13:02:43 | 49.84889 | 8.56595 | 84° | 91km/h | 10293m | -8.2m/s | -47.8°C | 36.8% | 264.3hPa | 2.5V | 02:48:06 | 02:25:28 | 00:00:00 | |
| SFWM-10 | 2026-09-01 13:02:43 | 49.84889 | 8.56595 | 85° | 91km/h | 10293m | -8.2m/s | -47.8°C | 29.6% | 264.3hPa | 2.5V | 02:48:00 | 00:00:00 | 00:00:00 | |
| DK5PH-5 | 2026-09-01 13:02:42 | 49.84886 | 8.56560 | 84° | 95km/h | 10301m | -8.9m/s | -47.8°C | 33.8% | 263.9hPa | 2.5V | 02:48:00 | 02:25:27 | 00:00:00 | |
| HEMX73-6 | 2026-09-01 13:02:40 | 49.84882 | 8.56489 | 85° | 51km/h | 10318m | -8.5m/s | -48.0°C | 34.4% | 263.2hPa | 2.6V | 00:00:00 | 02:25:25 | 00:00:00 | |
| DB0UT-9 | 2026-09-01 13:02:36 | 49.84875 | 8.56385 | 85° | 89km/h | 10343m | -8.4m/s | -48.2°C | 31.1% | 262.3hPa | 2.6V | 02:48:00 | 00:00:00 | 00:00:00 | |
| HEMX73-11 | 2026-09-01 13:02:35 | 49.84872 | 8.56351 | 85° | 88km/h | 10351m | -8.2m/s | -48.3°C | 31.4% | 262.0hPa | 2.6V | 02:48:00 | 00:00:00 | 00:00:00 | |
| DM0DOS-11 | 2026-09-01 13:02:33 | 49.84865 | 8.56109 | 90° | 93km/h | 10407m | -7.5m/s | -48.7°C | 36.5% | 259.7hPa | 2.6V | 02:48:13 | 02:25:14 | 00:00:00 | |
| BIOWL1-15 | 2026-09-01 13:02:32 | 49.84866 | 8.56215 | 88° | 88km/h | 10383m | -8.8m/s | -48.5°C | 39.3% | 260.7hPa | 2.5V | 02:48:57 | 02:25:17 | 00:00:00 | |
| DF2AP-13 | 2026-09-01 13:02:29 | 49.84865 | 8.56108 | 91° | 97km/h | 10407m | -7.4m/s | -48.7°C | 36.5% | 259.7hPa | 2.6V | 00:00:00 | 02:25:14 | 00:00:00 | |
| CB1BUN | 2026-09-01 13:02:26 | 49.84866 | 8.56033 | 90° | 99km/h | 10424m | -9.3m/s | -48.9°C | 32.3% | 259.1hPa | 2.6V | 02:48:00 | 00:00:00 | 00:00:00 | |
| DL9SK-14 | 2026-09-01 13:02:25 | 49.84866 | 8.55917 | 90° | 99km/h | 10448m | -8.3m/s | -49.1°C | 32.3% | 258.1hPa | 2.6V | 00:00:00 | 00:00:00 | 00:00:00 | |
| DL8DAS-15 | 2026-09-01 13:02:23 | 49.84866 | 8.55917 | 92° | 99km/h | 10448m | -8.3m/s | -49.1°C | 32.3% | 258.1hPa | 2.6V | 00:00:00 | 00:00:00 | 00:00:00 | |
| DM0DOS-11 | 2026-09-01 13:02:22 | 49.84868 | 8.55720 | 90° | 102km/h | 10490m | -8.6m/s | -49.4°C | 35.6% | 256.5hPa | 2.6V | 02:48:23 | 02:25:04 | 00:00:00 | |
| BIOWL1-15 | 2026-09-01 13:02:22 | 49.84868 | 8.55720 | 90° | 102km/h | 10490m | -8.6m/s | -49.4°C | 39.2% | 256.5hPa | 2.6V | 02:48:57 | 02:25:04 | 00:00:00 | |
| DB0UT-7 | 2026-09-01 13:02:21 | 49.84868 | 8.55799 | 91° | 97km/h | 10474m | -8.6m/s | -49.2°C | 36.0% | 257.1hPa | 2.5V | 00:00:00 | 00:00:00 | 00:00:00 | |
| DH7VM-15 | 2026-09-01 13:02:20 | 49.84867 | 8.55799 | 92° | 102km/h | 10474m | -8.6m/s | -49.3°C | 31.8% | 257.2hPa | 2.5V | 00:00:00 | 00:00:00 | 00:00:00 | |
| DB0UT-9 | 2026-09-01 13:02:15 | 49.84870 | 8.55601 | 93° | 100km/h | 10515m | -8.3m/s | -49.6°C | 31.2% | 255.5hPa | 2.5V | 02:48:00 | 00:00:00 | 00:00:00 | |
| HEMX73-11 | 2026-09-01 13:02:14 | 49.84871 | 8.55563 | 93° | 99km/h | 10524m | -8.3m/s | -49.6°C | 31.3% | 255.2hPa | 2.5V | 02:48:00 | 00:00:00 | 00:00:00 | |
| BIOWL9-15 | 2026-09-01 13:02:13 | 49.84874 | 8.55487 | 92° | 93km/h | 10539m | -7.9m/s | -49.7°C | 31.3% | 254.6hPa | 2.5V | 00:00:00 | 00:00:00 | 00:00:00 | |
| DM0DOS-11 | 2026-09-01 13:02:12 | 49.84878 | 8.55341 | 91° | 93km/h | 10571m | -8m/s | -49.8°C | 35.2% | 253.3hPa | 2.5V | 02:48:33 | 02:24:54 | 00:00:00 | |
| BIOWL1-15 | 2026-09-01 13:02:11 | 49.84879 | 8.55305 | 90° | 91km/h | 10579m | -8.4m/s | -49.9°C | 38.4% | 253.1hPa | 2.6V | 02:48:57 | 02:24:53 | 00:00:00 | |
| DF3TZ-5 | 2026-09-01 13:02:08 | 49.84879 | 8.55305 | 90° | 91km/h | 10579m | -8.4m/s | -49.9°C | 30.9% | 253.1hPa | 2.5V | 00:00:00 | 00:00:00 | 00:00:00 | |
| DD1CC8 | 2026-09-01 13:02:06 | 49.84878 | 8.55160 | 88° | 93km/h | 10610m | -8.0m/s | -50.1°C | 31.1% | 251.8hPa | 2.5V | 00:00:00 | 00:00:00 | 00:00:00 | |
| DM0DOS-11 | 2026-09-01 13:02:02 | 49.84871 | 8.54971 | 85° | 99km/h | 10653m | -8.7m/s | -50.4°C | 35.9% | 250.3hPa | 2.5V | 02:48:43 | 02:24:44 | 00:00:00 | |
| BIOWL1-15 | 2026-09-01 13:02:00 | 49.84873 | 8.55010 | 86° | 99km/h | 10644m | -9.9m/s | -50.4°C | 38.7% | 250.5hPa | 2.6V | 02:48:57 | 02:24:45 | 00:00:00 | |
| DL1ZP-14 | 2026-09-01 13:01:56 | 49.84864 | 8.54814 | 86° | 100km/h | 10685m | -9.0m/s | -50.7°C | 31.7% | 248.9hPa | 2.6V | 00:00:00 | 00:00:00 | 00:00:00 | |
| DL9SK-14 | 2026-09-01 13:01:54 | 49.84859 | 8.54735 | 86° | 100km/h | 10704m | -8.6m/s | -50.8°C | 31.7% | 248.3hPa | 2.6V | 00:00:00 | 00:00:00 | 00:00:00 | |
| HEMX73-11 | 2026-09-01 13:01:53 | 49.84861 | 8.54775 | 84° | 100km/h | 10694m | -9.5m/s | -50.8°C | 31.7% | 248.6hPa | 2.6V | 02:48:00 | 00:00:00 | 00:00:00 | |
| DM0DOS-11 | 2026-09-01 13:01:51 | 49.84853 | 8.54578 | 85° | 102km/h | 10739m | -8.6m/s | -51.1°C | 36% | 247hPa | 2.6V | 02:48:53 | 02:24:34 | 00:00:00 | |
| BIOWL1-15 | 2026-09-01 13:01:51 | 49.84851 | 8.54538 | 85° | 102km/h | 10747m | -7.7m/s | -51.2°C | 38.5% | 246.7hPa | 2.6V | 02:48:57 | 02:24:33 | 00:00:00 | |
| DJ2DS-15 | 2026-09-01 13:01:46 | 49.84847 | 8.54460 | 85° | 99km/h | 10763m | -9.2m/s | -51.3°C | 31.0% | 246.1hPa | 2.6V | 00:00:00 | 00:00:00 | 00:00:00 | |
| CB1BUN | 2026-09-01 13:01:45 | 49.84847 | 8.54460 | 86° | 99km/h | 10764m | -9.2m/s | -51.3°C | 31.0% | 246.1hPa | 2.6V | 02:48:00 | 00:00:00 | 00:00:00 | |
| DK5PH-5 | 2026-09-01 13:01:42 | 49.84839 | 8.54309 | 86° | 95km/h | 10797m | -7.7m/s | -51.5°C | 35.1% | 244.7hPa | 2.6V | 00:00:00 | 02:24:27 | 00:00:00 | |
| SFWM-10 | 2026-09-01 13:01:41 | 49.84839 | 8.54309 | 86° | 95km/h | 10797m | -7.8m/s | -51.5°C | 30.5% | 244.8hPa | 2.6V | 00:00:00 | 00:00:00 | 00:00:00 | |
| DM0DOS-11 | 2026-09-01 13:01:40 | 49.84835 | 8.54199 | 86° | 93km/h | 10821m | -8.2m/s | -51.6°C | 34.5% | 243.8hPa | 2.6V | 02:49:03 | 02:24:24 | 00:00:00 | |
| BIOWL1-15 | 2026-09-01 13:01:39 | 49.84834 | 8.54162 | 87° | 93km/h | 10830m | -8.3m/s | -51.6°C | 36.6% | 243.6hPa | 2.6V | 02:49:48 | 02:24:23 | 00:00:00 | |
| DD1CC8 | 2026-09-01 13:01:35 | 49.84830 | 8.54017 | 88° | 91km/h | 10862m | -7.9m/s | -51.7°C | 28.8% | 242.2hPa | 2.6V | 00:00:00 | 00:00:00 | 00:00:00 | |
| HEMX73-11 | 2026-09-01 13:01:33 | 49.84829 | 8.53980 | 90° | 93km/h | 10870m | -8.5m/s | -51.7°C | 28.5% | 242.0hPa | 2.6V | 02:49:00 | 00:00:00 | 00:00:00 | |
| DB0ND-19 | 2026-09-01 13:01:31 | 49.84829 | 8.53907 | 90° | 93km/h | 10887m | -8.6m/s | -51.8°C | 28.6% | 241.4hPa | 2.6V | 00:00:00 | 00:00:00 | 00:00:00 | |
| DM0DOS-11 | 2026-09-01 13:01:30 | 49.84829 | 8.53834 | 90° | 93km/h | 10905m | -7.8m/s | -51.9°C | 33.3% | 240.7hPa | 2.6V | 02:49:13 | 02:24:14 | 00:00:00 | |
| BIOWL1-15 | 2026-09-01 13:01:29 | 49.84830 | 8.53761 | 90° | 95km/h | 10921m | -8.3m/s | -52°C | 36.5% | 240.2hPa | 2.6V | 02:49:48 | 02:24:12 | 00:00:00 | |
| DF2AP-13 | 2026-09-01 13:01:28 | 49.84829 | 8.53798 | 91° | 99km/h | 10913m | -8.3m/s | -51.9°C | 33.3% | 240.4hPa | 2.6V | 02:49:00 | 02:24:13 | 00:00:00 | |
| CB1BUN | 2026-09-01 13:01:24 | 49.84829 | 8.53687 | 90° | 93km/h | 10938m | -8.6m/s | -52.1°C | 29.3% | 239.5hPa | 2.6V | 02:49:00 | 00:00:00 | 00:00:00 | |
| DL8DAS-15 | 2026-09-01 13:01:22 | 49.84828 | 8.53614 | 89° | 93km/h | 10955m | -8.4m/s | -52.2°C | 29.6% | 238.9hPa | 2.6V | 00:00:00 | 00:00:00 | 00:00:00 | |
| DB0UT-7 | 2026-09-01 13:01:21 | 49.84826 | 8.53540 | 87° | 102km/h | 10972m | -8.7m/s | -52.3°C | 34.5% | 238.3hPa | 2.6V | 02:49:00 | 00:00:00 | 00:00:00 | |
| DM0DOS-11 | 2026-09-01 13:01:20 | 49.84824 | 8.53467 | 87° | 95km/h | 10989m | -8.3m/s | -52.5°C | 34.7% | 237.7hPa | 2.6V | 02:49:23 | 02:24:04 | 00:00:00 | |
| BIOWL1-15 | 2026-09-01 13:01:19 | 49.84824 | 8.53467 | 87° | 95km/h | 10989m | -8.3m/s | -52.5°C | 37.6% | 237.7hPa | 2.6V | 02:49:48 | 02:24:04 | 00:00:00 | |
| DO9LL-15 | 2026-09-01 13:01:18 | 49.84822 | 8.53430 | 87° | 113km/h | 10998m | -8.6m/s | 0°C | 0% | 0hPa | 2.6V | 00:00:00 | 02:24:03 | 00:00:00 | |
| DM0DOS-11 | 2026-09-01 13:01:14 | 49.84807 | 8.53091 | 86° | 99km/h | 11074m | -8.6m/s | -53°C | 36.1% | 234.6hPa | 2.6V | 02:49:33 | 02:23:54 | 00:00:00 | |
| BIOWL1-15 | 2026-09-01 13:01:09 | 49.84806 | 8.53052 | 87° | 100km/h | 11083m | -8.6m/s | -53°C | 37% | 234.3hPa | 2.5V | 02:49:48 | 02:23:53 | 00:00:00 | |
| DF3TZ-5 | 2026-09-01 13:01:06 | 49.84798 | 8.52852 | 87° | 104km/h | 11124m | -7.4m/s | -53.5°C | 29.5% | 232.9hPa | 2.6V | 00:00:00 | 00:00:00 | 00:00:00 | |
| DM0DOS-11 | 2026-09-01 13:01:04 | 49.84794 | 8.52687 | 88° | 106km/h | 11155m | -8.3m/s | -53.6°C | 33.2% | 231.6hPa | 2.6V | 02:49:43 | 02:23:44 | 00:00:00 | |
| BIOWL1-15 | 2026-09-01 13:00:58 | 49.84793 | 8.52646 | 88° | 106km/h | 11163m | -7.7m/s | -53.5°C | 35% | 231.4hPa | 2.6V | 02:49:48 | 02:23:43 | 00:00:00 | |
| DF2AP-13 | 2026-09-01 13:00:58 | 49.84793 | 8.52646 | 88° | 115km/h | 11163m | -7.7m/s | -53.5°C | 33.0% | 231.3hPa | 2.6V | 00:00:00 | 02:23:43 | 00:00:00 | |
| DM0DOS-11 | 2026-09-01 13:00:54 | 49.84784 | 8.52222 | 89° | 111km/h | 11243m | -8.5m/s | -53.5°C | 31.2% | 228.5hPa | 2.6V | 02:49:54 | 02:23:33 | 00:00:00 | |
| BIOWL1-15 | 2026-09-01 13:00:51 | 49.84783 | 8.52134 | 89° | 111km/h | 11260m | -8.1m/s | -53.6°C | 34.1% | 227.9hPa | 2.5V | 02:50:39 | 02:23:31 | 00:00:00 | |
| DB0UT-7 | 2026-09-01 13:00:51 | 49.84786 | 8.52351 | 89° | 115km/h | 11219m | -8.7m/s | -53.3°C | 31.3% | 229.3hPa | 2.6V | 00:00:00 | 02:23:36 | 00:00:00 | |
| DM0DOS-11 | 2026-09-01 13:00:43 | 49.84781 | 8.51772 | 89° | 119km/h | 11324m | -7.8m/s | -54.1°C | 31.7% | 225.6hPa | 2.6V | 02:50:04 | 02:23:23 | 00:00:00 | |
| BIOWL1-15 | 2026-09-01 13:00:36 | 49.84780 | 8.51633 | 90° | 119km/h | 11348m | -8.2m/s | -54.2°C | 33.7% | 224.8hPa | 2.6V | 02:50:39 | 02:23:20 | 00:00:00 | |
| DJ2DS-15 | 2026-09-01 13:00:34 | 49.84780 | 8.51587 | 89° | 117km/h | 11356m | -7.3m/s | -54.3°C | 26.4% | 224.6hPa | 2.6V | 00:00:00 | 00:00:00 | 00:00:00 | |
| DD1CC8 | 2026-09-01 13:00:33 | 49.84780 | 8.51494 | 89° | 119km/h | 11371m | -7.9m/s | -54.4°C | 26.2% | 223.9hPa | 2.6V | 00:00:00 | 00:00:00 | 00:00:00 | |
| HEMX73-11 | 2026-09-01 13:00:31 | 49.84780 | 8.51494 | 91° | 119km/h | 11371m | -7.9m/s | -54.4°C | 26.2% | 223.9hPa | 2.6V | 02:50:00 | 00:00:00 | 00:00:00 | |
| DM0DOS-11 | 2026-09-01 13:00:28 | 49.84778 | 8.51307 | 88° | 120km/h | 11403m | -8.2m/s | -54.5°C | 30.8% | 222.8hPa | 2.6V | 02:50:14 | 02:23:13 | 00:00:00 | |
| BIOWL1-15 | 2026-09-01 13:00:24 | 49.84774 | 8.51117 | 87° | 122km/h | 11434m | -8.4m/s | -54.6°C | 32.6% | 221.7hPa | 2.7V | 02:50:39 | 02:23:09 | 00:00:00 | |
| BIOWL1-15 | 2026-09-01 13:00:14 | 49.84737 | 8.50413 | 84° | 117km/h | 11555m | -7.8m/s | -55.2°C | 30.9% | 217.6hPa | 2.6V | 02:50:39 | 02:22:54 | 00:00:00 | |
| DM0DOS-11 | 2026-09-01 13:00:13 | 49.84733 | 8.50368 | 83° | 117km/h | 11563m | -8.8m/s | -55.2°C | 29.2% | 217.3hPa | 2.6V | 02:50:34 | 02:22:53 | 00:00:00 | |
| DK5PH-5 | 2026-09-01 13:00:12 | 49.84747 | 8.50551 | 84° | 113km/h | 11531m | -8.4m/s | -55.0°C | 29.6% | 218.3hPa | 2.6V | 00:00:00 | 02:22:57 | 00:00:00 | |
| HEMX73-11 | 2026-09-01 13:00:10 | 49.84743 | 8.50505 | 84° | 119km/h | 11539m | -8.3m/s | -55.1°C | 24.7% | 218.1hPa | 2.6V | 02:50:00 | 00:00:00 | 00:00:00 | |
| BIOWL9-15 | 2026-09-01 13:00:09 | 49.84733 | 8.50368 | 83° | 115km/h | 11563m | -8.8m/s | -55.3°C | 24.3% | 217.3hPa | 2.6V | 00:00:00 | 00:00:00 | 00:00:00 | |
| DF3TZ-5 | 2026-09-01 13:00:04 | 49.84715 | 8.50142 | 82° | 115km/h | 11603m | -7.4m/s | -55.2°C | 23.2% | 216.0hPa | 2.6V | 00:00:00 | 00:00:00 | 00:00:00 | |
| DM0DOS-11 | 2026-09-01 13:00:03 | 49.84695 | 8.49920 | 82° | 113km/h | 11642m | -8.2m/s | -55.4°C | 27.5% | 214.6hPa | 2.6V | 02:50:44 | 02:22:43 | 00:00:00 | |
| BIOWL1-15 | 2026-09-01 13:00:02 | 49.84711 | 8.50097 | 82° | 115km/h | 11611m | -7.6m/s | -55.3°C | 29.5% | 215.7hPa | 2.6V | 02:51:30 | 02:22:47 | 00:00:00 | |
| BIOWL1-15 | 2026-09-01 12:59:51 | 49.84672 | 8.49618 | 84° | 110km/h | 11699m | -8.4m/s | -55.5°C | 27.8% | 212.7hPa | 2.6V | 02:51:30 | 02:22:36 | 00:00:00 | |
| DL9SK-14 | 2026-09-01 12:59:49 | 49.84667 | 8.49533 | 84° | 108km/h | 11715m | -8.3m/s | -55.7°C | 21.5% | 212.2hPa | 2.6V | 00:00:00 | 00:00:00 | 00:00:00 | |
| DM0DOS-11 | 2026-09-01 12:59:48 | 49.84664 | 8.49490 | 84° | 110km/h | 11724m | -8.6m/s | -55.7°C | 26.2% | 211.9hPa | 2.6V | 02:50:54 | 02:22:33 | 00:00:00 | |
| AU51GT2 | 2026-09-01 12:59:48 | 49.84659 | 8.49405 | 84° | 108km/h | 11740m | -7.9m/s | 0°C | -1.0% | 211.4hPa | 2.6V | 00:00:00 | 00:00:00 | 00:00:00 | |
| DL8DAS-15 | 2026-09-01 12:59:44 | 49.84656 | 8.49362 | 86° | 110km/h | 11748m | -8.2m/s | -55.9°C | 21.1% | 211.1hPa | 2.6V | 00:00:00 | 00:00:00 | 00:00:00 | |
| DM0DOS-11 | 2026-09-01 12:59:43 | 49.84634 | 8.49064 | 82° | 111km/h | 11807m | -8.4m/s | -56.2°C | 24.3% | 209.2hPa | 2.6V | 02:51:04 | 02:22:23 | 00:00:00 | |
| BIOWL1-15 | 2026-09-01 12:59:41 | 49.84624 | 8.48934 | 83° | 111km/h | 11832m | -8.3m/s | -56.1°C | 23.9% | 208.3hPa | 2.7V | 02:51:30 | 02:22:20 | 00:00:00 | |
| BIOWL7-15 | 2026-09-01 12:59:41 | 49.84645 | 8.49192 | 84° | 110km/h | 11781m | -8.5m/s | -56.0°C | 20.1% | 210.0hPa | 2.6V | 00:00:00 | 00:00:00 | 00:00:00 | |
| DJ2DS-15 | 2026-09-01 12:59:40 | 49.84642 | 8.49149 | 83° | 113km/h | 11790m | -8.7m/s | -56.1°C | 24.6% | 209.7hPa | 2.6V | 00:00:00 | 02:22:25 | 00:00:00 | |
| BIOWL9-15 | 2026-09-01 12:59:38 | 49.84631 | 8.49021 | 82° | 110km/h | 11815m | -8.5m/s | -56.3°C | 19.4% | 208.9hPa | 2.6V | 00:00:00 | 00:00:00 | 00:00:00 | |
| DF3TZ-5 | 2026-09-01 12:59:33 | 49.84610 | 8.48759 | 82° | 111km/h | 11866m | -8.2m/s | -56.1°C | 17.8% | 207.3hPa | 2.6V | 00:00:00 | 00:00:00 | 00:00:00 | |
| DM0DOS-11 | 2026-09-01 12:59:32 | 49.84598 | 8.48627 | 82° | 115km/h | 11890m | -8.6m/s | -56.1°C | 21.8% | 206.5hPa | 2.6V | 02:51:14 | 02:22:13 | 00:00:00 | |
| BIOWL1-15 | 2026-09-01 12:59:31 | 49.84594 | 8.48582 | 83° | 113km/h | 11899m | -8m/s | -56.1°C | 21.7% | 206.2hPa | 2.6V | 02:51:30 | 02:22:12 | 00:00:00 | |
| DM0DOS-11 | 2026-09-01 12:59:22 | 49.84561 | 8.48179 | 82° | 115km/h | 11974m | -8.2m/s | -55.7°C | 18.5% | 203.8hPa | 2.6V | 02:51:24 | 02:22:03 | 00:00:00 | |
| BIOWL1-15 | 2026-09-01 12:59:18 | 49.84561 | 8.48179 | 82° | 115km/h | 11974m | -8.2m/s | -55.7°C | 19.1% | 203.8hPa | 2.6V | 02:51:30 | 02:22:03 | 00:00:00 | |
| AU51GT2 | 2026-09-01 12:59:17 | 49.84557 | 8.48134 | 81° | 115km/h | 11983m | -8.6m/s | 0°C | -1.0% | 203.5hPa | 2.7V | 00:00:00 | 00:00:00 | 00:00:00 | |
| DK5PH-5 | 2026-09-01 12:59:12 | 49.84532 | 8.47913 | 79° | 106km/h | 12026m | -8.7m/s | -55.7°C | 17.9% | 202.1hPa | 2.7V | 00:00:00 | 02:21:57 | 00:00:00 | |
| DB0UT-9 | 2026-09-01 12:59:11 | 49.84532 | 8.47913 | 79° | 113km/h | 12026m | -8.8m/s | -55.8°C | 13.8% | 202.1hPa | 2.7V | 02:51:00 | 00:00:00 | 00:00:00 | |
| DM0DOS-11 | 2026-09-01 12:59:10 | 49.84506 | 8.47742 | 76° | 110km/h | 12060m | -8.4m/s | -55.8°C | 17.4% | 201.1hPa | 2.7V | 02:51:34 | 02:21:53 | 00:00:00 | |
| BIOWL1-15 | 2026-09-01 12:59:07 | 49.84500 | 8.47701 | 76° | 108km/h | 12069m | -8.7m/s | -55.7°C | 17.3% | 200.8hPa | 2.6V | 02:52:21 | 02:21:52 | 00:00:00 | |
| BIOWL9-15 | 2026-09-01 12:59:07 | 49.84493 | 8.47660 | 76° | 106km/h | 12077m | -8.0m/s | -55.7°C | 12.9% | 200.6hPa | 2.6V | 00:00:00 | 00:00:00 | 00:00:00 | |
| DO1YAY-16 | 2026-09-01 12:59:06 | 49.84487 | 8.47619 | 76° | 106km/h | 12085m | -8.4m/s | -55.7°C | 12.8% | 200.3hPa | 2.6V | 00:00:00 | 00:00:00 | 00:00:00 | |
| DF3TZ-5 | 2026-09-01 12:59:02 | 49.84461 | 8.47458 | 76° | 104km/h | 12119m | -9.4m/s | -55.8°C | 12.3% | 199.2hPa | 2.6V | 00:00:00 | 00:00:00 | 00:00:00 | |
| DM0DOS-11 | 2026-09-01 12:59:00 | 49.84443 | 8.47340 | 77° | 104km/h | 12146m | -8.8m/s | -55.8°C | 15.9% | 198.3hPa | 2.6V | 02:51:44 | 02:21:43 | 00:00:00 | |
| BIOWL1-15 | 2026-09-01 12:58:57 | 49.84437 | 8.47300 | 77° | 104km/h | 12155m | -8.8m/s | -55.9°C | 15.9% | 198hPa | 2.6V | 02:52:21 | 02:21:42 | 00:00:00 | |
| DL8DAS-14 | 2026-09-01 12:58:57 | 49.84425 | 8.47220 | 77° | 102km/h | 12172m | -8.8m/s | -55.9°C | 11.7% | 197.5hPa | 2.7V | 00:00:00 | 00:00:00 | 00:00:00 | |
| SFWM-10 | 2026-09-01 12:58:56 | 49.84431 | 8.47260 | 78° | 104km/h | 12164m | -8.6m/s | -55.9°C | 0% | 197.8hPa | 2.7V | 02:52:00 | 00:00:00 | 00:00:00 | |
| DB0UT-7 | 2026-09-01 12:58:51 | 49.84403 | 8.47060 | 78° | 95km/h | 12207m | -8.9m/s | -56.0°C | 15.4% | 196.4hPa | 2.7V | 00:00:00 | 02:21:36 | 00:00:00 | |
| DM0DOS-11 | 2026-09-01 12:58:50 | 49.84386 | 8.46939 | 77° | 104km/h | 12234m | -8.7m/s | -55.9°C | 14.6% | 195.6hPa | 2.7V | 02:51:54 | 02:21:33 | 00:00:00 | |
| BIOWL1-15 | 2026-09-01 12:58:47 | 49.84380 | 8.46900 | 78° | 104km/h | 12243m | -8.6m/s | -55.8°C | 14.1% | 195.3hPa | 2.7V | 02:52:21 | 02:21:32 | 00:00:00 | |
| DJ2DS-15 | 2026-09-01 12:58:46 | 49.84369 | 8.46822 | 77° | 99km/h | 12260m | -8.7m/s | -55.9°C | 10.4% | 194.7hPa | 2.6V | 00:00:00 | 00:00:00 | 00:00:00 | |
| DK5PH-5 | 2026-09-01 12:58:42 | 49.84353 | 8.46709 | 78° | 97km/h | 12288m | -9.0m/s | -56.0°C | 14.2% | 193.9hPa | 2.6V | 00:00:00 | 02:21:27 | 00:00:00 | |
| DM0DOS-11 | 2026-09-01 12:58:40 | 49.84334 | 8.46566 | 79° | 89km/h | 12325m | -8.9m/s | -56.1°C | 13.8% | 192.9hPa | 2.6V | 02:52:04 | 02:21:23 | 00:00:00 | |
| BIOWL1-15 | 2026-09-01 12:58:36 | 49.84327 | 8.46498 | 82° | 88km/h | 12342m | -9.1m/s | -56°C | 11.9% | 192.3hPa | 2.6V | 02:52:21 | 02:21:21 | 00:00:00 | |
| BIOWL1-15 | 2026-09-01 12:58:25 | 49.84317 | 8.46109 | 91° | 99km/h | 12440m | -8.3m/s | -55.6°C | 9.7% | 189.3hPa | 2.6V | 02:52:21 | 02:21:10 | 00:00:00 | |
| DB0ND-19 | 2026-09-01 12:58:25 | 49.84317 | 8.46069 | 89° | 100km/h | 12449m | -8.7m/s | -55.7°C | 7.1% | 189.1hPa | 2.6V | 00:00:00 | 00:00:00 | 00:00:00 | |
| DL8DAS-14 | 2026-09-01 12:58:24 | 49.84317 | 8.46069 | 89° | 100km/h | 12449m | -8.7m/s | -55.7°C | 7.1% | 189.1hPa | 2.6V | 00:00:00 | 00:00:00 | 00:00:00 | |
| DB0UT-7 | 2026-09-01 12:58:21 | 49.84316 | 8.45947 | 88° | 91km/h | 12474m | -9.0m/s | -55.8°C | 10.4% | 188.2hPa | 2.6V | 02:52:00 | 00:00:00 | 00:00:00 | |
| DM0DOS-11 | 2026-09-01 12:58:20 | 49.84311 | 8.45821 | 84° | 108km/h | 12502m | -9.8m/s | -55.9°C | 10.5% | 187.5hPa | 2.6V | 02:52:24 | 02:21:03 | 00:00:00 | |
| BIOWL1-15 | 2026-09-01 12:58:14 | 49.84288 | 8.45578 | 79° | 99km/h | 12557m | -8.4m/s | -56.1°C | 8.6% | 185.8hPa | 2.6V | 02:53:12 | 02:20:57 | 00:00:00 | |
| BIOWL1-15 | 2026-09-01 12:58:06 | 49.84253 | 8.45289 | 80° | 89km/h | 12629m | -9.5m/s | -55.3°C | 7.3% | 183.7hPa | 2.6V | 02:53:12 | 02:20:49 | 00:00:00 | |
| BIOWL1-15 | 2026-09-01 12:57:54 | 49.84233 | 8.44972 | 91° | 77km/h | 12719m | -9.7m/s | -54.4°C | 6.2% | 181.1hPa | 2.6V | 02:53:12 | 02:20:39 | 00:00:00 | |
| BIOWL1-15 | 2026-09-01 12:57:44 | 49.84245 | 8.44638 | 92° | 93km/h | 12811m | -9.4m/s | -54.8°C | 5.8% | 178.5hPa | 2.6V | 02:53:12 | 02:20:29 | 00:00:00 | |
| DK5PH-5 | 2026-09-01 12:57:42 | 49.84246 | 8.44565 | 92° | 84km/h | 12829m | -9.3m/s | -54.6°C | 7.6% | 177.9hPa | 2.7V | 00:00:00 | 02:20:27 | 00:00:00 | |
| DJ2DS-15 | 2026-09-01 12:57:40 | 49.84246 | 8.44491 | 89° | 84km/h | 12847m | -9.6m/s | -54.7°C | 7.5% | 177.4hPa | 2.7V | 00:00:00 | 02:20:25 | 00:00:00 | |
| DM0DOS-11 | 2026-09-01 12:57:39 | 49.84245 | 8.44417 | 86° | 93km/h | 12866m | -9.7m/s | -54.8°C | 7.4% | 176.9hPa | 2.7V | 02:53:04 | 02:20:23 | 00:00:00 | |
| BIOWL1-15 | 2026-09-01 12:57:33 | 49.84216 | 8.44105 | 78° | 80km/h | 12952m | -9.7m/s | -54°C | 4.4% | 174.6hPa | 2.6V | 02:54:03 | 02:20:14 | 00:00:00 | |
| BIOWL1-15 | 2026-09-01 12:57:22 | 49.84189 | 8.43852 | 88° | 71km/h | 13039m | -9.9m/s | -54.7°C | 4.1% | 172.3hPa | 2.6V | 02:54:03 | 02:20:05 | 00:00:00 | |
| DB0UT-7 | 2026-09-01 12:57:21 | 49.84190 | 8.43879 | 87° | 82km/h | 13030m | -9.8m/s | -54.6°C | 6.3% | 172.4hPa | 2.6V | 00:00:00 | 00:00:00 | 00:00:00 | |
| DJ2DS-15 | 2026-09-01 12:57:20 | 49.84189 | 8.43852 | 89° | 86km/h | 13039m | -9.8m/s | -54.7°C | 6.4% | 172.3hPa | 2.6V | 00:00:00 | 02:20:05 | 00:00:00 | |
| DL1ZP-14 | 2026-09-01 12:57:16 | 49.84188 | 8.43731 | 88° | 82km/h | 13077m | -9.9m/s | -55.1°C | 3.5% | 171.3hPa | 2.6V | 00:00:00 | 00:00:00 | 00:00:00 | |
| DL9SK-14 | 2026-09-01 12:57:15 | 49.84184 | 8.43629 | 85° | 88km/h | 13106m | -9.7m/s | -55.2°C | 3.4% | 170.5hPa | 2.6V | 00:00:00 | 00:00:00 | 00:00:00 | |
| DK5PH-5 | 2026-09-01 12:57:12 | 49.84182 | 8.43594 | 85° | 82km/h | 13116m | -9.9m/s | -55.1°C | 6.3% | 170.2hPa | 2.6V | 00:00:00 | 02:19:57 | 00:00:00 | |
| BIOWL1-15 | 2026-09-01 12:57:12 | 49.84182 | 8.43594 | 84° | 89km/h | 13116m | -10m/s | -55.2°C | 3.5% | 170.2hPa | 2.6V | 02:54:03 | 02:19:57 | 00:00:00 | |
| DM0DOS-11 | 2026-09-01 12:57:10 | 49.84159 | 8.43386 | 76° | 89km/h | 13173m | -9.6m/s | -55.1°C | 5.7% | 168.7hPa | 2.6V | 02:53:36 | 02:19:51 | 00:00:00 | |
| BIOWL1-15 | 2026-09-01 12:57:02 | 49.84136 | 8.43256 | 75° | 82km/h | 13210m | -9.3m/s | -54.3°C | 2.2% | 167.8hPa | 2.6V | 02:54:03 | 02:19:47 | 00:00:00 | |
| DO1YAY-16 | 2026-09-01 12:57:01 | 49.84131 | 8.43225 | 74° | 78km/h | 13219m | -9.9m/s | -54.2°C | 2.4% | 167.5hPa | 2.6V | 00:00:00 | 00:00:00 | 00:00:00 | |
| DJ2DS-15 | 2026-09-01 12:57:00 | 49.84126 | 8.43195 | 77° | 80km/h | 13229m | -9.7m/s | -54.1°C | 5.0% | 167.2hPa | 2.6V | 02:53:00 | 02:19:45 | 00:00:00 | |
| DM0DOS-11 | 2026-09-01 12:56:58 | 49.84109 | 8.42989 | 87° | 77km/h | 13297m | -10.1m/s | -53.8°C | 4.7% | 165.5hPa | 2.7V | 02:53:49 | 02:19:38 | 00:00:00 | |
| BIOWL1-15 | 2026-09-01 12:56:51 | 49.84108 | 8.42929 | 89° | 77km/h | 13317m | -10m/s | -53.7°C | 1.7% | 164.9hPa | 2.6V | 02:54:03 | 02:19:36 | 00:00:00 | |
| DB0UT-7 | 2026-09-01 12:56:51 | 49.84108 | 8.42929 | 90° | 82km/h | 13317m | -10.0m/s | -53.6°C | 4.6% | 164.9hPa | 2.6V | 02:53:00 | 02:19:36 | 00:00:00 | |
| DB0UT-9 | 2026-09-01 12:56:48 | 49.84109 | 8.42870 | 92° | 77km/h | 13337m | -10.1m/s | -53.7°C | 2.1% | 164.4hPa | 2.6V | 02:54:00 | 00:00:00 | 00:00:00 | |
| DM0DOS-11 | 2026-09-01 12:56:46 | 49.84116 | 8.42599 | 91° | 95km/h | 13414m | -10m/s | -53.1°C | 4.3% | 162.5hPa | 2.6V | 02:54:01 | 02:19:26 | 00:00:00 | |
| DL1ZP-14 | 2026-09-01 12:56:45 | 49.84112 | 8.42742 | 90° | 82km/h | 13376m | -10.5m/s | -53.2°C | 1.9% | 163.4hPa | 2.6V | 00:00:00 | 00:00:00 | 00:00:00 | |
| BIOWL1-15 | 2026-09-01 12:56:41 | 49.84115 | 8.42489 | 88° | 91km/h | 13443m | -10.2m/s | -53.2°C | 1.4% | 161.8hPa | 2.7V | 02:54:54 | 02:19:23 | 00:00:00 | |
| BIOWL1-15 | 2026-09-01 12:56:29 | 49.84095 | 8.42198 | 84° | 77km/h | 13531m | -9.6m/s | -53.5°C | 1.4% | 159.6hPa | 2.7V | 02:54:54 | 02:19:14 | 00:00:00 | |
| BIOWL1-15 | 2026-09-01 12:56:18 | 49.84089 | 8.41898 | 96° | 68km/h | 13638m | -9.9m/s | -53.4°C | 1.4% | 156.9hPa | 2.6V | 02:54:54 | 02:19:03 | 00:00:00 | |
| CB1BUN | 2026-09-01 12:56:14 | 49.84098 | 8.41816 | 100° | 73km/h | 13667m | -10.2m/s | -53.3°C | 1.8% | 156.2hPa | 2.7V | 02:54:00 | 00:00:00 | 00:00:00 | |
| DM0DOS-11 | 2026-09-01 12:56:12 | 49.84114 | 8.41614 | 93° | 78km/h | 13738m | -10.6m/s | -53.4°C | 4.3% | 154.4hPa | 2.7V | 02:54:34 | 02:18:53 | 00:00:00 | |
| BIOWL1-15 | 2026-09-01 12:56:08 | 49.84112 | 8.41459 | 86° | 80km/h | 13788m | -9.9m/s | -53°C | 1.1% | 153.3hPa | 2.6V | 02:54:54 | 02:18:48 | 00:00:00 | |
| DB0UT-9 | 2026-09-01 12:56:07 | 49.84114 | 8.41614 | 95° | 78km/h | 13738m | -10.6m/s | -53.4°C | 1.8% | 154.4hPa | 2.7V | 02:54:00 | 00:00:00 | 00:00:00 | |
| DJTTGO | 2026-09-01 12:56:04 | 49.84115 | 8.41522 | 88° | 80km/h | 13768m | -10.4m/s | -53.2°C | 1.8% | 153.8hPa | 2.7V | 00:00:00 | 00:00:00 | 00:00:00 | |
| DO9LL-15 | 2026-09-01 12:56:03 | 49.84112 | 8.41459 | 86° | 77km/h | 13788m | -9.9m/s | 0°C | 0% | 0hPa | 2.7V | 00:00:00 | 02:18:48 | 00:00:00 | |
| DM0DOS-11 | 2026-09-01 12:56:01 | 49.84096 | 8.41279 | 76° | 75km/h | 13848m | -10.5m/s | -52.6°C | 4% | 151.8hPa | 2.7V | 02:54:45 | 02:18:42 | 00:00:00 | |
| BIOWL1-15 | 2026-09-01 12:55:59 | 49.84074 | 8.41172 | 69° | 68km/h | 13889m | -10.2m/s | -52.7°C | 1% | 150.9hPa | 2.6V | 02:54:54 | 02:18:38 | 00:00:00 | |
| DO1YAY-16 | 2026-09-01 12:55:59 | 49.84103 | 8.41337 | 80° | 77km/h | 13828m | -10.6m/s | -52.7°C | 1.6% | 152.2hPa | 2.6V | 00:00:00 | 00:00:00 | 00:00:00 | |
| DF3TZ-5 | 2026-09-01 12:55:55 | 49.84086 | 8.41224 | 71° | 73km/h | 13869m | -10.4m/s | -52.6°C | 1.6% | 151.3hPa | 2.6V | 00:00:00 | 00:00:00 | 00:00:00 | |
| DD1CC8 | 2026-09-01 12:55:53 | 49.84067 | 8.41147 | 67° | 68km/h | 13898m | -9.9m/s | -52.6°C | 1.6% | 150.6hPa | 2.6V | 00:00:00 | 00:00:00 | 00:00:00 | |
| DL8DAS-15 | 2026-09-01 12:55:52 | 49.84073 | 8.41172 | 70° | 68km/h | 13889m | -10.2m/s | -52.7°C | 1.6% | 150.9hPa | 2.6V | 00:00:00 | 00:00:00 | 00:00:00 | |
| SFWM-10 | 2026-09-01 12:55:51 | 49.84061 | 8.41123 | 67° | 64km/h | 13908m | -10.7m/s | 0°C | 0% | 0hPa | 2.6V | 00:00:00 | 00:00:00 | 00:00:00 | |
| DM0DOS-11 | 2026-09-01 12:55:50 | 49.84038 | 8.41032 | 71° | 60km/h | 13948m | -10m/s | -52.9°C | 4% | 149.4hPa | 2.6V | 02:54:55 | 02:18:32 | 00:00:00 | |
| BIOWL1-15 | 2026-09-01 12:55:45 | 49.84029 | 8.40986 | 73° | 62km/h | 13969m | -10.2m/s | -52.9°C | 1% | 149hPa | 2.6V | 02:55:45 | 02:18:30 | 00:00:00 | |
| DK5PH-5 | 2026-09-01 12:55:42 | 49.84018 | 8.40913 | 77° | 80km/h | 14000m | -10.7m/s | -53.0°C | 4.1% | 148.2hPa | 2.7V | 00:00:00 | 02:18:27 | 00:00:00 | |
| DL9SK-14 | 2026-09-01 12:55:41 | 49.84010 | 8.40861 | 76° | 69km/h | 14021m | -10.6m/s | -53.1°C | 1.6% | 147.8hPa | 2.7V | 00:00:00 | 00:00:00 | 00:00:00 | |
| DM0DOS-11 | 2026-09-01 12:55:40 | 49.83999 | 8.40779 | 78° | 71km/h | 14053m | -11.1m/s | -53.2°C | 4.1% | 147.1hPa | 2.7V | 02:55:05 | 02:18:22 | 00:00:00 | |
| BIOWL1-15 | 2026-09-01 12:55:35 | 49.83992 | 8.40724 | 80° | 73km/h | 14074m | -11.1m/s | -53.2°C | 1.1% | 146.6hPa | 2.6V | 02:55:45 | 02:18:20 | 00:00:00 | |
| CB1BUN | 2026-09-01 12:55:34 | 49.83992 | 8.40724 | 81° | 73km/h | 14074m | -11.1m/s | -53.2°C | 1.7% | 146.6hPa | 2.6V | 02:55:00 | 00:00:00 | 00:00:00 | |
| DL4BBY-15 | 2026-09-01 12:55:32 | 49.83982 | 8.40639 | 79° | 68km/h | 14105m | -10.7m/s | -53.5°C | 0% | 0hPa | 2.6V | 00:00:00 | 00:00:00 | 00:00:00 | |
| DM0DOS-11 | 2026-09-01 12:55:30 | 49.83967 | 8.40494 | 81° | 78km/h | 14155m | -10.7m/s | -52.8°C | 4% | 144.7hPa | 2.6V | 02:55:15 | 02:18:12 | 00:00:00 | |
| BIOWL1-15 | 2026-09-01 12:55:26 | 49.83943 | 8.40149 | 79° | 95km/h | 14258m | -11.5m/s | -52.6°C | 0.9% | 142.4hPa | 2.7V | 02:55:45 | 02:18:02 | 00:00:00 | |
| BIOWL1-15 | 2026-09-01 12:55:14 | 49.83927 | 8.40043 | 74° | 89km/h | 14289m | -11.5m/s | -52.7°C | 1% | 141.7hPa | 2.6V | 02:55:45 | 02:17:59 | 00:00:00 | |
| CB1BUN | 2026-09-01 12:55:13 | 49.83927 | 8.40043 | 75° | 89km/h | 14290m | -11.5m/s | -52.7°C | 1.6% | 141.7hPa | 2.7V | 02:55:00 | 00:00:00 | 00:00:00 | |
| SFWM-10 | 2026-09-01 12:55:12 | 49.83914 | 8.39977 | 73° | 86km/h | 14311m | -11.7m/s | 0°C | 0% | 0hPa | 2.7V | 00:00:00 | 00:00:00 | 00:00:00 | |
| DM0DOS-11 | 2026-09-01 12:55:10 | 49.83889 | 8.39830 | 77° | 71km/h | 14366m | -11.3m/s | -52.8°C | 4% | 140.1hPa | 2.7V | 02:55:35 | 02:17:52 | 00:00:00 | |
| BIOWL1-15 | 2026-09-01 12:55:04 | 49.83877 | 8.39671 | 91° | 64km/h | 14430m | -10.8m/s | -52.9°C | 1% | 138.7hPa | 2.6V | 02:55:45 | 02:17:46 | 00:00:00 | |
| BIOWL1-15 | 2026-09-01 12:54:53 | 49.83893 | 8.39461 | 97° | 73km/h | 14515m | -11.1m/s | -53.2°C | 1% | 136.9hPa | 2.7V | 02:56:36 | 02:17:38 | 00:00:00 | |
| DL3AQ-11 | 2026-09-01 12:54:51 | 49.83898 | 8.39375 | 92° | 73km/h | 14547m | -11.6m/s | -53.3°C | 1.7% | 136.2hPa | 2.7V | 00:00:00 | 00:00:00 | 00:00:00 | |
| DL8DAS-14 | 2026-09-01 12:54:47 | 49.83898 | 8.39285 | 87° | 75km/h | 14580m | -11.5m/s | -53.4°C | 1.6% | 135.5hPa | 2.7V | 00:00:00 | 00:00:00 | 00:00:00 | |
| BIOWL1-15 | 2026-09-01 12:54:42 | 49.83887 | 8.39111 | 80° | 71km/h | 14646m | -10.7m/s | -53.1°C | 1.1% | 134.1hPa | 2.7V | 02:56:36 | 02:17:26 | 00:00:00 | |
| DK5PH-5 | 2026-09-01 12:54:42 | 49.83890 | 8.39139 | 81° | 64km/h | 14636m | -11.0m/s | -53.1°C | 4.2% | 134.3hPa | 2.7V | 00:00:00 | 02:17:27 | 00:00:00 | |
| DL1ZP-14 | 2026-09-01 12:54:41 | 49.83887 | 8.39111 | 79° | 71km/h | 14646m | -10.7m/s | -53.1°C | 1.6% | 134.1hPa | 2.7V | 00:00:00 | 00:00:00 | 00:00:00 | |
| DM0DOS-11 | 2026-09-01 12:54:40 | 49.83868 | 8.38986 | 74° | 60km/h | 14700m | -10.9m/s | -53.3°C | 4.2% | 133hPa | 2.7V | 02:56:06 | 02:17:21 | 00:00:00 | |
| DL3AQ-11 | 2026-09-01 12:54:40 | 49.83880 | 8.39058 | 74° | 68km/h | 14668m | -11.0m/s | -53.1°C | 1.6% | 133.7hPa | 2.6V | 00:00:00 | 00:00:00 | 00:00:00 | |
| AU51GT2 | 2026-09-01 12:54:38 | 49.83872 | 8.39009 | 75° | 62km/h | 14690m | -10.9m/s | -53.3°C | 1.6% | 133.2hPa | 2.6V | 00:00:00 | 00:00:00 | 00:00:00 | |
| DL1XH1-15 | 2026-09-01 12:54:36 | 49.83857 | 8.38922 | 78° | 55km/h | 14733m | -11.6m/s | -53.5°C | 4.2% | 132.3hPa | 2.6V | 02:56:09 | 02:17:18 | 00:00:00 | |
| DL1XH-west | 2026-09-01 12:54:33 | 49.83858 | 8.38922 | 78° | 55km/h | 14733m | -11.6m/s | -53.5°C | 1.1% | 132.3hPa | 2.6V | 02:56:36 | 02:17:18 | 00:00:00 | |
| BIOWL1-15 | 2026-09-01 12:54:32 | 49.83852 | 8.38860 | 87° | 55km/h | 14766m | -11.7m/s | -53.4°C | 1.1% | 131.6hPa | 2.7V | 02:56:36 | 02:17:15 | 00:00:00 | |
| DL4BBY-15 | 2026-09-01 12:54:31 | 49.83853 | 8.38881 | 83° | 68km/h | 14756m | -11.0m/s | -54.1°C | 0% | 0hPa | 2.6V | 00:00:00 | 00:00:00 | 00:00:00 | |
| DM0DOS-11 | 2026-09-01 12:54:30 | 49.83857 | 8.38748 | 95° | 62km/h | 14822m | -11.8m/s | -53.1°C | 4.1% | 130.5hPa | 2.6V | 02:56:17 | 02:17:10 | 00:00:00 | |
| DL1XH-west | 2026-09-01 12:54:23 | 49.83860 | 8.38699 | 94° | 66km/h | 14844m | -11.1m/s | -52.7°C | 1% | 130.1hPa | 2.7V | 02:56:36 | 02:17:08 | 00:00:00 | |
| BIOWL1-15 | 2026-09-01 12:54:22 | 49.83861 | 8.38673 | 94° | 68km/h | 14855m | -11.6m/s | -52.7°C | 1% | 129.9hPa | 2.7V | 02:56:36 | 02:17:07 | 00:00:00 | |
| DB0UT-7 | 2026-09-01 12:54:21 | 49.83862 | 8.38646 | 93° | 68km/h | 14866m | -11.3m/s | -52.6°C | 3.9% | 129.6hPa | 2.6V | 00:00:00 | 00:00:00 | 00:00:00 | |
| DD1CC8 | 2026-09-01 12:54:20 | 49.83862 | 8.38619 | 90° | 69km/h | 14877m | -11.2m/s | -52.7°C | 1.5% | 129.4hPa | 2.6V | 00:00:00 | 00:00:00 | 00:00:00 | |
| DM0DOS-11 | 2026-09-01 12:54:19 | 49.83858 | 8.38479 | 82° | 73km/h | 14932m | -11.1m/s | -52.8°C | 4% | 128.3hPa | 2.6V | 02:56:27 | 02:17:00 | 00:00:00 | |
| BIOWL1-15 | 2026-09-01 12:54:12 | 49.83848 | 8.38395 | 78° | 73km/h | 14965m | -11.5m/s | -53°C | 1% | 127.6hPa | 2.7V | 02:56:36 | 02:16:57 | 00:00:00 | |
| BIOWL1-15 | 2026-09-01 12:54:03 | 49.83760 | 8.38050 | 61° | 58km/h | 15122m | -11.5m/s | -53.9°C | 1% | 124.5hPa | 2.6V | 02:57:27 | 02:16:43 | 00:00:00 | |
| DL1XH1-15 | 2026-09-01 12:54:02 | 49.83752 | 8.38031 | 60° | 58km/h | 15133m | -11.3m/s | -54°C | 4.2% | 124.3hPa | 2.6V | 02:56:45 | 02:16:42 | 00:00:00 | |
| DL1XH-west | 2026-09-01 12:54:01 | 49.83774 | 8.38091 | 61° | 60km/h | 15100m | -10.8m/s | -53.8°C | 1.1% | 125hPa | 2.7V | 02:57:27 | 02:16:45 | 00:00:00 | |
| HSKMA3-T | 2026-09-01 12:53:55 | 49.83739 | 8.37993 | 64° | 55km/h | 15156m | -11.8m/s | 0°C | 0% | 0hPa | 2.7V | 03:01:42 | 02:16:40 | 00:00:00 | |
| DO1YAY-16 | 2026-09-01 12:53:55 | 49.83739 | 8.37993 | 63° | 53km/h | 15156m | -11.8m/s | -54.0°C | 1.6% | 123.9hPa | 2.6V | 00:00:00 | 00:00:00 | 00:00:00 | |
| DL1XH1-15 | 2026-09-01 12:53:52 | 49.83701 | 8.37835 | 76° | 57km/h | 15248m | -12.1m/s | -54.3°C | 4.3% | 122.1hPa | 2.6V | 02:56:55 | 02:16:32 | 00:00:00 | |
| BIOWL1-15 | 2026-09-01 12:53:49 | 49.83708 | 8.37877 | 73° | 55km/h | 15225m | -11.2m/s | -54.2°C | 1.1% | 122.6hPa | 2.7V | 02:57:27 | 02:16:34 | 00:00:00 | |
| HSKMA3-T | 2026-09-01 12:53:45 | 49.83692 | 8.37769 | 79° | 60km/h | 15285m | -11.9m/s | 0°C | 0% | 0hPa | 2.7V | 03:01:42 | 02:16:29 | 00:00:00 | |
| DL3AQ-11 | 2026-09-01 12:53:44 | 49.83689 | 8.37746 | 79° | 58km/h | 15296m | -11.1m/s | -54.3°C | 1.7% | 121.3hPa | 2.7V | 00:00:00 | 00:00:00 | 00:00:00 | |
| DL1XH1-15 | 2026-09-01 12:53:42 | 49.83677 | 8.37601 | 84° | 64km/h | 15363m | -11.3m/s | -54.7°C | 4.4% | 120hPa | 2.7V | 02:57:05 | 02:16:22 | 00:00:00 | |
| DL1XH-west | 2026-09-01 12:53:39 | 49.83680 | 8.37650 | 83° | 62km/h | 15341m | -11.7m/s | -54.6°C | 1.2% | 120.4hPa | 2.6V | 02:57:27 | 02:16:24 | 00:00:00 | |
| BIOWL1-15 | 2026-09-01 12:53:39 | 49.83675 | 8.37576 | 86° | 66km/h | 15375m | -12m/s | -54.7°C | 1.1% | 119.8hPa | 2.7V | 02:57:27 | 02:16:21 | 00:00:00 | |
| BEGRI65-1 | 2026-09-01 12:53:39 | 49.83680 | 8.37650 | 84° | 62km/h | 15341m | -11.7m/s | -54.6°C | 0% | 0hPa | 2.7V | 02:57:00 | 00:00:00 | 00:00:00 | |
| DM0DOS-11 | 2026-09-01 12:53:38 | 49.83674 | 8.37550 | 86° | 66km/h | 15386m | -11.7m/s | -54.8°C | 4.4% | 119.5hPa | 2.7V | 02:57:07 | 02:16:20 | 00:00:00 | |
| HSKMA3-T | 2026-09-01 12:53:33 | 49.83673 | 8.37496 | 89° | 71km/h | 15409m | -11.3m/s | 0°C | 0% | 0hPa | 2.6V | 03:01:42 | 02:16:18 | 00:00:00 | |
| DL1XH1-15 | 2026-09-01 12:53:32 | 49.83672 | 8.37310 | 89° | 88km/h | 15476m | -11.8m/s | -54.6°C | 4.5% | 117.8hPa | 2.6V | 02:57:15 | 02:16:12 | 00:00:00 | |
| DL1XH-west | 2026-09-01 12:53:29 | 49.83672 | 8.37376 | 89° | 82km/h | 15454m | -11.6m/s | -54.8°C | 1.2% | 118.2hPa | 2.6V | 02:57:27 | 02:16:14 | 00:00:00 | |
| BIOWL1-15 | 2026-09-01 12:53:27 | 49.83672 | 8.37310 | 90° | 88km/h | 15476m | -11.8m/s | -54.7°C | 1.2% | 117.8hPa | 2.6V | 02:57:27 | 02:16:12 | 00:00:00 | |
| DL1XH-west | 2026-09-01 12:53:18 | 49.83657 | 8.36999 | 83° | 86km/h | 15580m | -11.3m/s | -54.6°C | 1.2% | 116hPa | 2.6V | 02:57:27 | 02:16:03 | 00:00:00 | |
| DJ2DS-15 | 2026-09-01 12:53:18 | 49.83657 | 8.36999 | 83° | 60km/h | 15581m | -11.2m/s | -54.5°C | 4.4% | 115.9hPa | 2.7V | 00:00:00 | 02:16:03 | 00:00:00 | |
| DM0DOS-11 | 2026-09-01 12:53:17 | 49.83648 | 8.36902 | 78° | 80km/h | 15614m | -12.6m/s | -54.5°C | 4.4% | 115.3hPa | 2.7V | 02:57:27 | 02:16:00 | 00:00:00 | |
| DB0UT-7 | 2026-09-01 12:53:16 | 49.83652 | 8.36933 | 82° | 62km/h | 15603m | -11.6m/s | -54.5°C | 4.4% | 115.5hPa | 2.6V | 00:00:00 | 00:00:00 | 00:00:00 | |
| DL8DAS-14 | 2026-09-01 12:53:15 | 49.83644 | 8.36873 | 77° | 75km/h | 15626m | -11.6m/s | -54.5°C | 1.6% | 115.1hPa | 2.6V | 00:00:00 | 00:00:00 | 00:00:00 | |
| DL1XH1-15 | 2026-09-01 12:53:14 | 49.83617 | 8.36701 | 80° | 51km/h | 15708m | -12.7m/s | -54.2°C | 4.2% | 113.6hPa | 2.6V | 02:57:35 | 02:15:52 | 00:00:00 | |
| HSKMA3-T | 2026-09-01 12:53:09 | 49.83623 | 8.36744 | 77° | 57km/h | 15684m | -12.2m/s | 0°C | 0% | 0hPa | 2.7V | 03:01:42 | 02:15:54 | 00:00:00 | |
| DL1XH-west | 2026-09-01 12:53:08 | 49.83619 | 8.36722 | 75° | 57km/h | 15695m | -12.7m/s | -54.2°C | 1% | 113.8hPa | 2.7V | 02:58:18 | 02:15:53 | 00:00:00 | |
| BIOWL1-15 | 2026-09-01 12:53:01 | 49.83616 | 8.36593 | 101° | 47km/h | 15776m | -11m/s | -54.1°C | 1% | 112.5hPa | 2.6V | 02:58:18 | 02:15:46 | 00:00:00 | |
| DL4BBY-15 | 2026-09-01 12:53:01 | 49.83616 | 8.36592 | 101° | 51km/h | 15777m | -11.0m/s | -54.7°C | 0% | 0hPa | 2.7V | 00:00:00 | 00:00:00 | 00:00:00 | |
| DB0UT-9 | 2026-09-01 12:53:00 | 49.83616 | 8.36593 | 102° | 47km/h | 15776m | -11.0m/s | -54.1°C | 1.5% | 112.4hPa | 2.7V | 02:58:00 | 00:00:00 | 00:00:00 | |
| DL1XH1-15 | 2026-09-01 12:52:58 | 49.83628 | 8.36510 | 102° | 58km/h | 15822m | -11.8m/s | -54.3°C | 4.2% | 111.6hPa | 2.7V | 02:57:45 | 02:15:42 | 00:00:00 | |
| DL1XH-west | 2026-09-01 12:52:57 | 49.83628 | 8.36510 | 103° | 58km/h | 15822m | -11.8m/s | -54.3°C | 1% | 111.6hPa | 2.7V | 02:58:18 | 02:15:42 | 00:00:00 | |
| BIOWL9-15 | 2026-09-01 12:52:55 | 49.83638 | 8.36410 | 93° | 68km/h | 15868m | -11.8m/s | -54.5°C | 1.5% | 110.8hPa | 2.7V | 00:00:00 | 00:00:00 | 00:00:00 | |
| DL1XH1-15 | 2026-09-01 12:52:52 | 49.83632 | 8.36245 | 79° | 69km/h | 15936m | -11.8m/s | -54.5°C | 4.4% | 109.7hPa | 2.7V | 02:57:55 | 02:15:32 | 00:00:00 | |
| BIOWL1-15 | 2026-09-01 12:52:50 | 49.83635 | 8.36272 | 82° | 69km/h | 15925m | -11.8m/s | -54.5°C | 1% | 109.8hPa | 2.6V | 02:58:18 | 02:15:33 | 00:00:00 | |
| DL1XH-west | 2026-09-01 12:52:46 | 49.83628 | 8.36219 | 77° | 69km/h | 15948m | -11.9m/s | -54.6°C | 1% | 109.5hPa | 2.7V | 02:58:18 | 02:15:31 | 00:00:00 | |
| DJ2DS-15 | 2026-09-01 12:52:45 | 49.83624 | 8.36194 | 75° | 64km/h | 15960m | -11.6m/s | -54.6°C | 1.5% | 109.3hPa | 2.7V | 00:00:00 | 00:00:00 | 00:00:00 | |
| DL8DAS-14 | 2026-09-01 12:52:43 | 49.83617 | 8.36149 | 74° | 55km/h | 15982m | -12.3m/s | -54.5°C | 1.5% | 108.9hPa | 2.7V | 00:00:00 | 00:00:00 | 00:00:00 | |
| DL8DAS-15 | 2026-09-01 12:52:42 | 49.83613 | 8.36129 | 74° | 51km/h | 15994m | -11.7m/s | -54.4°C | 1.5% | 108.7hPa | 2.7V | 00:00:00 | 00:00:00 | 00:00:00 | |
| DL1XH1-15 | 2026-09-01 12:52:41 | 49.83604 | 8.36027 | 92° | 40km/h | 16064m | -11.5m/s | -54.1°C | 4.2% | 107.5hPa | 2.7V | 02:58:06 | 02:15:21 | 00:00:00 | |
| BIOWL1-15 | 2026-09-01 12:52:40 | 49.83608 | 8.36092 | 77° | 46km/h | 16018m | -12.4m/s | -54.1°C | 0.9% | 108.3hPa | 2.7V | 02:58:18 | 02:15:25 | 00:00:00 | |
| DL1XH-west | 2026-09-01 12:52:35 | 49.83605 | 8.36011 | 96° | 42km/h | 16075m | -11.8m/s | -54.1°C | 0.8% | 107.3hPa | 2.7V | 02:58:18 | 02:15:20 | 00:00:00 | |
| BIOWL1-15 | 2026-09-01 12:52:30 | 49.83619 | 8.35920 | 110° | 57km/h | 16134m | -12.1m/s | -54.1°C | 0.9% | 106.4hPa | 2.7V | 02:58:18 | 02:15:15 | 00:00:00 | |
| DL1XH-west | 2026-09-01 12:52:24 | 49.83647 | 8.35779 | 102° | 66km/h | 16205m | -12.4m/s | -53.2°C | 0.7% | 105.2hPa | 2.7V | 02:58:18 | 02:15:09 | 00:00:00 | |
| BIOWL1-15 | 2026-09-01 12:52:20 | 49.83652 | 8.35656 | 84° | 58km/h | 16263m | -12m/s | -53°C | 0.8% | 104.2hPa | 2.7V | 02:59:09 | 02:15:04 | 00:00:00 | |
| DL1XH-west | 2026-09-01 12:52:14 | 49.83637 | 8.35553 | 71° | 47km/h | 16320m | -12.3m/s | -52.3°C | 0.7% | 103.3hPa | 2.7V | 02:59:09 | 02:14:59 | 00:00:00 | |
| BIOWL1-15 | 2026-09-01 12:52:09 | 49.83619 | 8.35480 | 64° | 31km/h | 16381m | -12.9m/s | -51.1°C | 0.4% | 102.3hPa | 2.7V | 02:59:09 | 02:14:54 | 00:00:00 | |
| DL1XH-west | 2026-09-01 12:52:04 | 49.83606 | 8.35433 | 89° | 15km/h | 16454m | -12.2m/s | -51°C | 0.3% | 101.2hPa | 2.7V | 02:59:09 | 02:14:48 | 00:00:00 | |
| BIOWL1-15 | 2026-09-01 12:51:59 | 49.83613 | 8.35407 | 117° | 24km/h | 16500m | -12.1m/s | -50.9°C | 0.3% | 100.4hPa | 2.7V | 02:59:09 | 02:14:44 | 00:00:00 | |
| DJ2DS-15 | 2026-09-01 12:51:58 | 49.83616 | 8.35398 | 112° | 46km/h | 16512m | -11.6m/s | -50.9°C | 3.4% | 100.2hPa | 2.7V | 02:58:00 | 02:14:43 | 00:00:00 | |
| DL1XH1-15 | 2026-09-01 12:51:53 | 49.83631 | 8.35313 | 97° | 46km/h | 16584m | -12.4m/s | -51.4°C | 3.5% | 99.2hPa | 2.7V | 02:58:50 | 02:14:37 | 00:00:00 | |
| DL1XH-west | 2026-09-01 12:51:53 | 49.83629 | 8.35330 | 100° | 42km/h | 16572m | -12.6m/s | -51.3°C | 0.4% | 99.3hPa | 2.7V | 02:59:09 | 02:14:38 | 00:00:00 | |
| BIOWL1-15 | 2026-09-01 12:51:49 | 49.83632 | 8.35255 | 84° | 53km/h | 16620m | -12.3m/s | -51.6°C | 0.5% | 98.6hPa | 2.6V | 02:59:09 | 02:14:34 | 00:00:00 | |
| DF3TZ-5 | 2026-09-01 12:51:47 | 49.83625 | 8.35192 | 74° | 55km/h | 16656m | -12.4m/s | 0°C | -1.0% | -1.0hPa | 2.7V | 00:00:00 | 00:00:00 | 00:00:00 | |
| DD1CC8 | 2026-09-01 12:51:45 | 49.83616 | 8.35152 | 66° | 51km/h | 16680m | -12.0m/s | -51.6°C | 1.1% | 97.7hPa | 2.7V | 00:00:00 | 00:00:00 | 00:00:00 | |
| DL1XH1-15 | 2026-09-01 12:51:43 | 49.83606 | 8.35118 | 58° | 47km/h | 16703m | -12.9m/s | -51.5°C | 3.5% | 97.3hPa | 2.7V | 02:59:00 | 02:14:27 | 00:00:00 | |
| DL1XH-west | 2026-09-01 12:51:42 | 49.83605 | 8.35118 | 58° | 49km/h | 16703m | -12.9m/s | -51.6°C | 0.4% | 97.3hPa | 2.7V | 02:59:09 | 02:14:27 | 00:00:00 | |
| BIOWL1-15 | 2026-09-01 12:51:39 | 49.83578 | 8.35052 | 65° | 29km/h | 16767m | -13.1m/s | -51.8°C | 0.4% | 96.4hPa | 2.7V | 02:59:09 | 02:14:22 | 00:00:00 | |
| DL1XH-west | 2026-09-01 12:51:32 | 49.83576 | 8.34980 | 102° | 40km/h | 16846m | -13.5m/s | -52.3°C | 0.4% | 95.2hPa | 2.6V | 03:00:00 | 02:14:16 | 00:00:00 | |
| BIOWL1-15 | 2026-09-01 12:51:28 | 49.83585 | 8.34927 | 103° | 51km/h | 16886m | -12.7m/s | -52.2°C | 0.5% | 94.7hPa | 2.7V | 03:00:00 | 02:14:13 | 00:00:00 | |
| CB1BUN | 2026-09-01 12:51:27 | 49.83585 | 8.34927 | 104° | 51km/h | 16887m | -12.7m/s | -52.2°C | 1.2% | 94.7hPa | 2.7V | 03:00:00 | 00:00:00 | 00:00:00 | |
| DL1XH1-15 | 2026-09-01 12:51:23 | 49.83596 | 8.34796 | 87° | 58km/h | 16961m | -13.6m/s | -52.3°C | 3.7% | 93.6hPa | 2.7V | 02:59:20 | 02:14:07 | 00:00:00 | |
| DL1XH-west | 2026-09-01 12:51:20 | 49.83593 | 8.34751 | 80° | 58km/h | 16988m | -14m/s | -52.4°C | 0.5% | 93.2hPa | 2.6V | 03:00:00 | 02:14:05 | 00:00:00 | |
| DJ2DS-15 | 2026-09-01 12:51:18 | 49.83587 | 8.34708 | 74° | 38km/h | 17015m | -13.1m/s | -52.4°C | 3.7% | 92.7hPa | 2.6V | 00:00:00 | 02:14:03 | 00:00:00 | |
| DJ3KS | 2026-09-01 12:51:17 | 49.83587 | 8.34708 | 75° | 55km/h | 17015m | -13.2m/s | 0°C | 0% | 0hPa | 2.6V | 00:00:00 | 00:00:00 | 00:00:00 | |
| BIOWL1-15 | 2026-09-01 12:51:17 | 49.83579 | 8.34670 | 67° | 47km/h | 17040m | -14.1m/s | -52.5°C | 0.6% | 92.4hPa | 2.7V | 03:00:00 | 02:14:01 | 00:00:00 | |
| DB0UT-9 | 2026-09-01 12:51:16 | 49.83583 | 8.34688 | 71° | 51km/h | 17028m | -13.1m/s | -52.5°C | 1.2% | 92.6hPa | 2.6V | 03:00:00 | 00:00:00 | 00:00:00 | |
| DB0UT-7 | 2026-09-01 12:51:14 | 49.83569 | 8.34640 | 56° | 42km/h | 17067m | -13.5m/s | -52.5°C | 3.7% | 92.0hPa | 2.6V | 00:00:00 | 00:00:00 | 00:00:00 | |
| DL1XH1-15 | 2026-09-01 12:51:13 | 49.83561 | 8.34617 | 60° | 29km/h | 17093m | -12.7m/s | -52.7°C | 3.6% | 91.7hPa | 2.6V | 02:59:30 | 02:13:57 | 00:00:00 | |
| DL1XH-west | 2026-09-01 12:51:10 | 49.83556 | 8.34599 | 77° | 20km/h | 17118m | -12.9m/s | -52.7°C | 0.5% | 91.3hPa | 2.7V | 03:00:00 | 02:13:55 | 00:00:00 | |
| BIOWL1-15 | 2026-09-01 12:51:05 | 49.83568 | 8.34555 | 117° | 35km/h | 17183m | -14.3m/s | -53°C | 0.6% | 90.4hPa | 2.6V | 03:00:00 | 02:13:50 | 00:00:00 | |
| DL1XH1-15 | 2026-09-01 12:51:03 | 49.83581 | 8.34511 | 110° | 46km/h | 17224m | -12.9m/s | -52.9°C | 3.8% | 89.8hPa | 2.7V | 02:59:40 | 02:13:47 | 00:00:00 | |
| DL1XH-west | 2026-09-01 12:50:59 | 49.83591 | 8.34453 | 99° | 53km/h | 17263m | -13.9m/s | -53°C | 0.6% | 89.3hPa | 2.6V | 03:00:00 | 02:13:44 | 00:00:00 | |
| BIOWL1-15 | 2026-09-01 12:50:58 | 49.83580 | 8.34306 | 64° | 53km/h | 17357m | -14.5m/s | -52.8°C | 0.5% | 88hPa | 2.7V | 03:00:00 | 02:13:37 | 00:00:00 | |
| DJ2DS-15 | 2026-09-01 12:50:57 | 49.83593 | 8.34410 | 90° | 55km/h | 17289m | -14.6m/s | -53.0°C | 1.2% | 88.9hPa | 2.7V | 00:00:00 | 00:00:00 | 00:00:00 | |
| DB0UT-9 | 2026-09-01 12:50:55 | 49.83593 | 8.34388 | 86° | 55km/h | 17303m | -13.8m/s | -53.1°C | 1.3% | 88.7hPa | 2.7V | 03:00:00 | 00:00:00 | 00:00:00 | |
| DL1XH1-15 | 2026-09-01 12:50:53 | 49.83580 | 8.34306 | 64° | 53km/h | 17357m | -14.5m/s | -52.8°C | 3.7% | 88hPa | 2.7V | 02:59:50 | 02:13:37 | 00:00:00 | |
| DL3AQ-11 | 2026-09-01 12:50:51 | 49.83567 | 8.34271 | 55° | 51km/h | 17385m | -14.7m/s | -52.9°C | 1.2% | 87.6hPa | 2.7V | 00:00:00 | 00:00:00 | 00:00:00 | |
| BIOWL9-15 | 2026-09-01 12:50:50 | 49.83559 | 8.34254 | 52° | 51km/h | 17399m | -14.4m/s | -52.9°C | 1.2% | 87.4hPa | 2.7V | 00:00:00 | 00:00:00 | 00:00:00 | |
| DO1YAY-16 | 2026-09-01 12:50:48 | 49.83552 | 8.34239 | 51° | 46km/h | 17412m | -13.9m/s | -53.0°C | 1.2% | 87.2hPa | 2.7V | 00:00:00 | 00:00:00 | 00:00:00 | |
| DL1XH-west | 2026-09-01 12:50:48 | 49.83552 | 8.34239 | 51° | 46km/h | 17412m | -13.9m/s | -53°C | 0.6% | 87.2hPa | 2.6V | 03:00:00 | 02:13:33 | 00:00:00 | |
| BIOWL1-15 | 2026-09-01 12:50:43 | 49.83509 | 8.34165 | 68° | 29km/h | 17505m | -14m/s | -53.6°C | 0.7% | 86hPa | 2.7V | 03:00:51 | 02:13:26 | 00:00:00 | |
| DL1XH1-15 | 2026-09-01 12:50:43 | 49.83512 | 8.34175 | 57° | 29km/h | 17492m | -13.7m/s | -53.5°C | 3.9% | 86.1hPa | 2.6V | 03:00:00 | 02:13:27 | 00:00:00 | |
| DL1XH-west | 2026-09-01 12:50:38 | 49.83505 | 8.34127 | 90° | 37km/h | 17546m | -14.2m/s | -53.5°C | 0.7% | 85.4hPa | 2.6V | 03:00:51 | 02:13:23 | 00:00:00 | |
| DJTTGO | 2026-09-01 12:50:37 | 49.83505 | 8.34127 | 90° | 37km/h | 17546m | -14.2m/s | -53.5°C | 0% | 85.4hPa | 2.6V | 00:00:00 | 00:00:00 | 00:00:00 | |
| DL1XH1-15 | 2026-09-01 12:50:36 | 49.83516 | 8.34015 | 97° | 58km/h | 17629m | -14.3m/s | -53.7°C | 4.1% | 84.3hPa | 2.6V | 03:00:10 | 02:13:17 | 00:00:00 | |
| BIOWL1-15 | 2026-09-01 12:50:35 | 49.83513 | 8.34036 | 100° | 55km/h | 17616m | -14.7m/s | -53.6°C | 0.7% | 84.5hPa | 2.6V | 03:00:51 | 02:13:18 | 00:00:00 | |
| DL1XH-west | 2026-09-01 12:50:27 | 49.83519 | 8.33896 | 84° | 60km/h | 17699m | -15.1m/s | -53.5°C | 0.8% | 83.4hPa | 2.6V | 03:00:51 | 02:13:12 | 00:00:00 | |
| BIOWL1-15 | 2026-09-01 12:50:24 | 49.83506 | 8.33817 | 69° | 44km/h | 17755m | -15.6m/s | -53.1°C | 0.6% | 82.7hPa | 2.7V | 03:00:51 | 02:13:08 | 00:00:00 | |
| DL1XH1-15 | 2026-09-01 12:50:23 | 49.83502 | 8.33801 | 66° | 40km/h | 17770m | -14.4m/s | -53.1°C | 3.9% | 82.5hPa | 2.6V | 03:00:20 | 02:13:07 | 00:00:00 | |
| HSKMA3-T | 2026-09-01 12:50:21 | 49.83498 | 8.33788 | 57° | 37km/h | 17784m | -15.3m/s | 0°C | 0% | 0hPa | 2.6V | 03:01:42 | 02:13:06 | 00:00:00 | |
| DL1XH-west | 2026-09-01 12:50:17 | 49.83482 | 8.33754 | 42° | 18km/h | 17842m | -14.4m/s | -52.7°C | 0.6% | 81.5hPa | 2.7V | 03:00:51 | 02:13:02 | 00:00:00 | |
| BIOWL1-15 | 2026-09-01 12:50:13 | 49.83478 | 8.33739 | 105° | 15km/h | 17898m | -13.9m/s | -52.6°C | 0.6% | 80.9hPa | 2.7V | 03:00:51 | 02:12:58 | 00:00:00 | |
| DL1XH-west | 2026-09-01 12:50:07 | 49.83491 | 8.33681 | 97° | 40km/h | 17984m | -14.2m/s | -52.4°C | 0.6% | 79.8hPa | 2.7V | 03:00:51 | 02:12:52 | 00:00:00 | |
| BIOWL1-15 | 2026-09-01 12:50:05 | 49.83488 | 8.33610 | 74° | 53km/h | 18040m | -14.6m/s | -52.4°C | 0.6% | 79.1hPa | 2.6V | 03:00:51 | 02:12:48 | 00:00:00 | |
| DL2OL | 2026-09-01 12:50:04 | 49.83492 | 8.33647 | 87° | 47km/h | 18012m | -14.7m/s | -52.5°C | 0% | 0hPa | 2.7V | 00:00:00 | 00:00:00 | 00:00:00 | |
| DL1ZP-14 | 2026-09-01 12:50:01 | 49.83478 | 8.33571 | 61° | 51km/h | 18069m | -15.8m/s | -52.3°C | 1.1% | 78.8hPa | 2.7V | 00:00:00 | 00:00:00 | 00:00:00 | |
| DL9SK-14 | 2026-09-01 12:49:59 | 49.83455 | 8.33521 | 46° | 51km/h | 18112m | -14.7m/s | -52.2°C | 1.2% | 78.2hPa | 2.6V | 00:00:00 | 00:00:00 | 00:00:00 | |
| DL1XH1-15 | 2026-09-01 12:49:58 | 49.83411 | 8.33464 | 47° | 22km/h | 18198m | -13.9m/s | -52.3°C | 3.9% | 77.2hPa | 2.6V | 03:00:50 | 02:12:37 | 00:00:00 | |
| DL1XH-west | 2026-09-01 12:49:57 | 49.83437 | 8.33496 | 39° | 44km/h | 18140m | -15m/s | -52.3°C | 0.6% | 77.9hPa | 2.7V | 03:00:51 | 02:12:41 | 00:00:00 | |
| BIOWL1-15 | 2026-09-01 12:49:52 | 49.83411 | 8.33464 | 47° | 22km/h | 18198m | -13.9m/s | -52.3°C | 0.7% | 77.2hPa | 2.6V | 03:00:51 | 02:12:37 | 00:00:00 | |
| BIOWL9-15 | 2026-09-01 12:49:48 | 49.83411 | 8.33412 | 102° | 38km/h | 18269m | -14.6m/s | -52.1°C | 1.2% | 76.4hPa | 2.6V | 00:00:00 | 00:00:00 | 00:00:00 | |
| DL1XH1-15 | 2026-09-01 12:49:46 | 49.83422 | 8.33315 | 90° | 58km/h | 18340m | -14.2m/s | -51.7°C | 3.8% | 75.5hPa | 2.6V | 03:01:00 | 02:12:27 | 00:00:00 | |
| DL1XH-west | 2026-09-01 12:49:46 | 49.83414 | 8.33396 | 105° | 44km/h | 18284m | -15m/s | -51.9°C | 0.6% | 76.2hPa | 2.7V | 03:01:42 | 02:12:31 | 00:00:00 | |
| BIOWL1-15 | 2026-09-01 12:49:41 | 49.83422 | 8.33292 | 89° | 60km/h | 18354m | -15.2m/s | -51.5°C | 0.6% | 75.3hPa | 2.7V | 03:01:42 | 02:12:26 | 00:00:00 | |
| DL1XH-west | 2026-09-01 12:49:36 | 49.83399 | 8.33135 | 64° | 53km/h | 18454m | -14.8m/s | -51.3°C | 0.5% | 74.2hPa | 2.7V | 03:01:42 | 02:12:19 | 00:00:00 | |
| BIOWL1-15 | 2026-09-01 12:49:30 | 49.83373 | 8.33044 | 85° | 20km/h | 18552m | -14.8m/s | -50.5°C | 0.5% | 73hPa | 2.6V | 03:01:42 | 02:12:12 | 00:00:00 | |
| DL1ZP-14 | 2026-09-01 12:49:30 | 49.83380 | 8.33075 | 64° | 33km/h | 18509m | -14.1m/s | -51.4°C | 1.1% | 73.6hPa | 2.6V | 00:00:00 | 00:00:00 | 00:00:00 | |
| KANTATE | 2026-09-01 12:49:29 | 49.83380 | 8.33075 | 66° | 35km/h | 18509m | -14.1m/s | -51.4°C | 1.1% | 73.6hPa | 2.6V | 00:00:00 | 00:00:00 | 00:00:00 | |
| DL9SK-14 | 2026-09-01 12:49:28 | 49.83373 | 8.33044 | 84° | 20km/h | 18552m | -14.8m/s | -50.5°C | 1.1% | 73.0hPa | 2.6V | 00:00:00 | 00:00:00 | 00:00:00 | |
| DL1XH1-15 | 2026-09-01 12:49:27 | 49.83381 | 8.33012 | 143° | 20km/h | 18624m | -15.5m/s | -50.1°C | 3.3% | 72.3hPa | 2.6V | 03:01:20 | 02:12:07 | 00:00:00 | |
| DL1XH-west | 2026-09-01 12:49:23 | 49.83378 | 8.33017 | 126° | 18km/h | 18609m | -15.1m/s | -50.2°C | 0.3% | 72.5hPa | 2.6V | 03:01:42 | 02:12:08 | 00:00:00 | |
| DK5PH-5 | 2026-09-01 12:49:22 | 49.83381 | 8.33012 | 144° | 16km/h | 18624m | -15.5m/s | -50.1°C | 3.3% | 72.2hPa | 2.6V | 03:01:00 | 02:12:07 | 00:00:00 | |
| DL3AQ-11 | 2026-09-01 12:49:20 | 49.83396 | 8.32995 | 138° | 27km/h | 18667m | -15.3m/s | -50.0°C | 1.0% | 71.8hPa | 2.7V | 00:00:00 | 00:00:00 | 00:00:00 | |
| DJ2DS-15 | 2026-09-01 12:49:18 | 49.83402 | 8.32987 | 142° | 27km/h | 18682m | -15.5m/s | -49.9°C | 3.3% | 71.6hPa | 2.7V | 00:00:00 | 02:12:03 | 00:00:00 | |
| BIOWL9-15 | 2026-09-01 12:49:17 | 49.83414 | 8.32970 | 127° | 31km/h | 18711m | -14.9m/s | -49.9°C | 1.0% | 71.4hPa | 2.7V | 00:00:00 | 00:00:00 | 00:00:00 | |
| DL1XH1-15 | 2026-09-01 12:49:16 | 49.83426 | 8.32923 | 92° | 27km/h | 18770m | -16.2m/s | -49.8°C | 3.2% | 70.7hPa | 2.7V | 03:01:30 | 02:11:57 | 00:00:00 | |
| HSKMA3-T | 2026-09-01 12:49:16 | 49.83414 | 8.32970 | 127° | 31km/h | 18711m | -14.9m/s | 0°C | 0% | 0hPa | 2.6V | 03:01:42 | 02:12:01 | 00:00:00 | |
| DL1XH-west | 2026-09-01 12:49:12 | 49.83426 | 8.32923 | 93° | 27km/h | 18770m | -16.2m/s | -49.8°C | 0.3% | 70.7hPa | 2.7V | 03:01:42 | 02:11:57 | 00:00:00 | |
| BIOWL1-15 | 2026-09-01 12:49:07 | 49.83411 | 8.32885 | 16° | 26km/h | 18843m | -14.9m/s | -49.9°C | 0.2% | 69.9hPa | 2.7V | 03:01:42 | 02:11:52 | 00:00:00 | |
| DL1XH1-15 | 2026-09-01 12:49:06 | 49.83381 | 8.32902 | 307° | 26km/h | 18917m | -14.9m/s | -50.2°C | 3.2% | 69.1hPa | 2.6V | 03:01:40 | 02:11:47 | 00:00:00 | |
| HSKMA3-T | 2026-09-01 12:49:05 | 49.83398 | 8.32885 | 344° | 26km/h | 18871m | -15.4m/s | 0°C | 0% | 0hPa | 2.6V | 03:01:42 | 02:11:50 | 00:00:00 | |
| DL1XH-west | 2026-09-01 12:49:02 | 49.83378 | 8.32910 | 298° | 24km/h | 18931m | -16.1m/s | -50.3°C | 0.2% | 68.9hPa | 2.6V | 03:01:42 | 02:11:46 | 00:00:00 | |
| BIOWL1-15 | 2026-09-01 12:48:57 | 49.83378 | 8.32941 | 77° | 4km/h | 19039m | -15.1m/s | -51.1°C | 0.3% | 67.8hPa | 2.7V | 03:02:33 | 02:11:39 | 00:00:00 | |
| DL1XH1-15 | 2026-09-01 12:48:56 | 49.83377 | 8.32935 | 67° | 11km/h | 19069m | -16.1m/s | -51.4°C | 3.4% | 67.5hPa | 2.6V | 03:01:50 | 02:11:37 | 00:00:00 | |
| HSKMA3-T | 2026-09-01 12:48:53 | 49.83378 | 8.32939 | 69° | 9km/h | 19054m | -15.5m/s | 0°C | 0% | 0hPa | 2.7V | 18:12:15 | 02:11:38 | 00:00:00 | |
| DL1XH-west | 2026-09-01 12:48:51 | 49.83375 | 8.32931 | 52° | 13km/h | 19084m | -15m/s | -51.5°C | 0.5% | 67.4hPa | 2.6V | 03:02:33 | 02:11:36 | 00:00:00 | |
| DL3AQ-11 | 2026-09-01 12:48:51 | 49.83373 | 8.32926 | 55° | 16km/h | 19099m | -15.9m/s | -51.6°C | 1.1% | 67.2hPa | 2.7V | 00:00:00 | 00:00:00 | 00:00:00 | |
| HEMX73-11 | 2026-09-01 12:48:48 | 49.83371 | 8.32920 | 52° | 20km/h | 19115m | -15.9m/s | -51.7°C | 1.1% | 67.1hPa | 2.7V | 03:02:00 | 00:00:00 | 00:00:00 | |
| DL1XH1-15 | 2026-09-01 12:48:47 | 49.83328 | 8.32858 | 32° | 44km/h | 19223m | -16.5m/s | -52.5°C | 3.8% | 66hPa | 2.7V | 03:02:00 | 02:11:27 | 00:00:00 | |
| BIOWL1-15 | 2026-09-01 12:48:47 | 49.83351 | 8.32888 | 44° | 35km/h | 19176m | -15.6m/s | -52.1°C | 0.6% | 66.4hPa | 2.6V | 03:02:33 | 02:11:30 | 00:00:00 | |
| DO1YAY-16 | 2026-09-01 12:48:44 | 49.83344 | 8.32878 | 41° | 38km/h | 19191m | -15.4m/s | -52.3°C | 1.1% | 66.2hPa | 2.7V | 00:00:00 | 00:00:00 | 00:00:00 | |
| HSKMA3-T | 2026-09-01 12:48:43 | 49.83337 | 8.32868 | 38° | 40km/h | 19207m | -17.1m/s | 0°C | 0% | 0hPa | 2.7V | 18:12:15 | 02:11:28 | 00:00:00 | |
| DL1XH-west | 2026-09-01 12:48:41 | 49.83309 | 8.32840 | 29° | 49km/h | 19254m | -15.6m/s | -52.7°C | 0.6% | 65.6hPa | 2.6V | 03:02:33 | 02:11:25 | 00:00:00 | |
| BIOWL1-15 | 2026-09-01 12:48:36 | 49.83242 | 8.32812 | 3° | 35km/h | 19347m | -16.4m/s | -53.2°C | 0.8% | 64.7hPa | 2.7V | 03:02:33 | 02:11:19 | 00:00:00 | |
| DL1XH1-15 | 2026-09-01 12:48:36 | 49.83227 | 8.32813 | 347° | 24km/h | 19379m | -16.3m/s | -53.3°C | 4% | 64.4hPa | 2.6V | 03:02:10 | 02:11:17 | 00:00:00 | |
| DL1XH-west | 2026-09-01 12:48:30 | 49.83215 | 8.32816 | 352° | 9km/h | 19426m | -17.1m/s | -52.9°C | 0.7% | 63.9hPa | 2.7V | 03:02:33 | 02:11:14 | 00:00:00 | |
| DL1ZP-14 | 2026-09-01 12:48:29 | 49.83213 | 8.32816 | 10° | 4km/h | 19443m | -15.9m/s | -52.9°C | 1.2% | 63.7hPa | 2.7V | 00:00:00 | 00:00:00 | 00:00:00 | |
| SSTOLZ84 | 2026-09-01 12:48:28 | 49.83213 | 8.32816 | 10° | 4km/h | 19443m | -15.9m/s | -52.9°C | 1.2% | 63.7hPa | 2.7V | 00:00:00 | 00:00:00 | 00:00:00 | |
| DL1XH1-15 | 2026-09-01 12:48:27 | 49.83217 | 8.32783 | 94° | 24km/h | 19537m | -16.2m/s | -52.2°C | 3.6% | 62.8hPa | 2.7V | 03:02:20 | 02:11:07 | 00:00:00 | |
| DL1XH-west | 2026-09-01 12:48:21 | 49.83210 | 8.32742 | 52° | 29km/h | 19599m | -15.8m/s | -52.4°C | 0.5% | 62.2hPa | 2.7V | 03:02:33 | 02:11:03 | 00:00:00 | |
| BIOWL1-15 | 2026-09-01 12:48:11 | 49.83143 | 8.32725 | 338° | 31km/h | 19739m | -17.3m/s | -53.2°C | 0.7% | 60.9hPa | 2.6V | 03:02:33 | 02:10:54 | 00:00:00 | |
| DL1XH-west | 2026-09-01 12:48:07 | 49.83131 | 8.32736 | 327° | 26km/h | 19773m | -15.6m/s | -53.3°C | 0.7% | 60.6hPa | 2.7V | 03:03:24 | 02:10:52 | 00:00:00 | |
| BIOWL1-15 | 2026-09-01 12:47:59 | 49.83100 | 8.32742 | 83° | 13km/h | 20018m | -17m/s | -54.5°C | 1% | 58.3hPa | 2.6V | 03:03:24 | 02:10:37 | 00:00:00 | |
| DL1XH-west | 2026-09-01 12:47:57 | 49.83103 | 8.32756 | 44° | 7km/h | 19952m | -16.8m/s | -54.4°C | 0.9% | 58.9hPa | 2.6V | 03:03:24 | 02:10:41 | 00:00:00 | |
| DJ2DS-15 | 2026-09-01 12:47:57 | 49.83101 | 8.32754 | 54° | 7km/h | 19969m | -16.6m/s | -54.6°C | 1.3% | 58.7hPa | 2.6V | 00:00:00 | 00:00:00 | 00:00:00 | |
| DL9SK-14 | 2026-09-01 12:47:55 | 49.83101 | 8.32751 | 65° | 7km/h | 19985m | -16.7m/s | -54.7°C | 1.3% | 58.6hPa | 2.6V | 00:00:00 | 00:00:00 | 00:00:00 | |
| AU51GT2 | 2026-09-01 12:47:54 | 49.83101 | 8.32751 | 65° | 7km/h | 19985m | -16.7m/s | -54.7°C | 1.3% | 58.6hPa | 2.6V | 00:00:00 | 00:00:00 | 00:00:00 | |
| DL1XH1-15 | 2026-09-01 12:47:53 | 49.83099 | 8.32742 | 83° | 13km/h | 20018m | -17m/s | -54.5°C | 4.4% | 58.3hPa | 2.6V | 03:02:50 | 02:10:37 | 00:00:00 | |
| BIOWL1-15 | 2026-09-01 12:47:48 | 49.83098 | 8.32696 | 88° | 29km/h | 20117m | -16.9m/s | -54°C | 0.9% | 57.4hPa | 2.6V | 03:03:24 | 02:10:31 | 00:00:00 | |
| DL1XH-west | 2026-09-01 12:47:46 | 49.83097 | 8.32685 | 78° | 29km/h | 20134m | -17.5m/s | -54°C | 0.9% | 57.3hPa | 2.6V | 03:03:24 | 02:10:30 | 00:00:00 | |
| BIOWL1-15 | 2026-09-01 12:47:35 | 49.83069 | 8.32545 | 56° | 38km/h | 20303m | -15.8m/s | -53°C | 0.8% | 55.7hPa | 2.7V | 03:03:24 | 02:10:20 | 00:00:00 | |
| DL1XH-west | 2026-09-01 12:47:35 | 49.83043 | 8.32515 | 26° | 11km/h | 20401m | -17.8m/s | -52.8°C | 0.7% | 54.9hPa | 2.7V | 03:03:24 | 02:10:14 | 00:00:00 | |
| DB0ND-19 | 2026-09-01 12:47:33 | 49.83058 | 8.32528 | 35° | 24km/h | 20336m | -17.5m/s | -52.7°C | 1.2% | 55.5hPa | 2.7V | 00:00:00 | 00:00:00 | 00:00:00 | |
| DL8DAS-15 | 2026-09-01 12:47:32 | 49.83058 | 8.32527 | 37° | 24km/h | 20336m | -17.5m/s | -52.7°C | 1.2% | 55.5hPa | 2.7V | 00:00:00 | 00:00:00 | 00:00:00 | |
| DL3AQ-11 | 2026-09-01 12:47:31 | 49.83046 | 8.32517 | 24° | 11km/h | 20385m | -17.0m/s | -52.8°C | 1.2% | 55.0hPa | 2.7V | 00:00:00 | 00:00:00 | 00:00:00 | |
| DB0UT-9 | 2026-09-01 12:47:29 | 49.83043 | 8.32515 | 27° | 11km/h | 20402m | -17.8m/s | -52.8°C | 1.2% | 54.9hPa | 2.7V | 03:03:00 | 00:00:00 | 00:00:00 | |
| SSTOLZ84 | 2026-09-01 12:47:26 | 49.83038 | 8.32514 | 71° | 2km/h | 20473m | -17.1m/s | -52.8°C | 1.2% | 54.2hPa | 2.7V | 00:00:00 | 00:00:00 | 00:00:00 | |
| DL1XH1-15 | 2026-09-01 12:47:25 | 49.83036 | 8.32466 | 70° | 35km/h | 20576m | -17.9m/s | -52.7°C | 4% | 53.4hPa | 2.7V | 03:03:23 | 02:10:04 | 00:00:00 | |
| BIOWL1-15 | 2026-09-01 12:47:25 | 49.83038 | 8.32514 | 71° | 4km/h | 20473m | -17.1m/s | -52.8°C | 0.8% | 54.2hPa | 2.7V | 03:03:24 | 02:10:10 | 00:00:00 | |
| DL1XH-west | 2026-09-01 12:47:20 | 49.83036 | 8.32466 | 71° | 35km/h | 20576m | -18m/s | -52.7°C | 0.8% | 53.5hPa | 2.7V | 03:03:24 | 02:10:04 | 00:00:00 | |
| BIOWL1-15 | 2026-09-01 12:47:16 | 49.83005 | 8.32408 | 28° | 40km/h | 20658m | -17.4m/s | -52.6°C | 0.7% | 52.8hPa | 2.6V | 03:04:15 | 02:09:59 | 00:00:00 | |
| DL1XH1-15 | 2026-09-01 12:47:14 | 49.82968 | 8.32397 | 345° | 20km/h | 20743m | -15.8m/s | -52.4°C | 3.8% | 52hPa | 2.6V | 03:03:33 | 02:09:54 | 00:00:00 | |
| DL1XH-west | 2026-09-01 12:47:09 | 49.82964 | 8.32399 | 335° | 16km/h | 20759m | -17.3m/s | -52.2°C | 0.7% | 51.9hPa | 2.6V | 03:04:15 | 02:09:53 | 00:00:00 | |
| BIOWL1-15 | 2026-09-01 12:47:03 | 49.82962 | 8.32402 | 133° | 11km/h | 20844m | -17.7m/s | -51.8°C | 0.6% | 51.3hPa | 2.6V | 03:04:15 | 02:09:48 | 00:00:00 | |
| DL1XH-west | 2026-09-01 12:46:57 | 49.82970 | 8.32343 | 84° | 38km/h | 20947m | -17.7m/s | -52°C | 0.7% | 50.4hPa | 2.6V | 03:04:15 | 02:09:42 | 00:00:00 | |
| DL1XH1-15 | 2026-09-01 12:46:56 | 49.82965 | 8.32315 | 65° | 38km/h | 20981m | -17.1m/s | -51.9°C | 3.7% | 50.2hPa | 2.7V | 03:03:47 | 02:09:40 | 00:00:00 | |
| BIOWL1-15 | 2026-09-01 12:46:54 | 49.82949 | 8.32283 | 37° | 35km/h | 21031m | -17.5m/s | -52°C | 0.6% | 49.8hPa | 2.6V | 03:04:15 | 02:09:37 | 00:00:00 | |
| DL1XH-west | 2026-09-01 12:46:47 | 49.82918 | 8.32268 | 340° | 20km/h | 21118m | -17.8m/s | -52.3°C | 0.7% | 49.1hPa | 2.7V | 03:04:15 | 02:09:32 | 00:00:00 | |
| DL1XH1-15 | 2026-09-01 12:46:42 | 49.82935 | 8.32297 | 156° | 27km/h | 21295m | -17.8m/s | -52.2°C | 3.6% | 47.8hPa | 2.7V | 03:04:05 | 02:09:22 | 00:00:00 | |
| BIOWL1-15 | 2026-09-01 12:46:41 | 49.82915 | 8.32297 | 215° | 15km/h | 21222m | -17.2m/s | -52.4°C | 0.6% | 48.3hPa | 2.7V | 03:04:15 | 02:09:26 | 00:00:00 | |
| DL1XH-west | 2026-09-01 12:46:36 | 49.82941 | 8.32293 | 145° | 26km/h | 21312m | -18m/s | -52.4°C | 0.6% | 47.6hPa | 2.7V | 03:04:15 | 02:09:21 | 00:00:00 | |
| BIOWL1-15 | 2026-09-01 12:46:30 | 49.82956 | 8.32233 | 76° | 27km/h | 21416m | -19m/s | -52.9°C | 0.8% | 46.9hPa | 2.7V | 03:04:15 | 02:09:15 | 00:00:00 | |
| DL1XH-west | 2026-09-01 12:46:25 | 49.82933 | 8.32200 | 15° | 29km/h | 21505m | -19.1m/s | -53.4°C | 0.9% | 46.2hPa | 2.7V | 03:05:57 | 02:09:10 | 00:00:00 | |
| DL3AQ-11 | 2026-09-01 12:46:24 | 49.82920 | 8.32200 | 348° | 26km/h | 21541m | -18.1m/s | -53.5°C | 1.2% | 46.0hPa | 2.6V | 00:00:00 | 00:00:00 | 00:00:00 | |
| DL1XH1-15 | 2026-09-01 12:46:21 | 49.82911 | 8.32227 | 205° | 15km/h | 21665m | -19.3m/s | -53.4°C | 4.2% | 45.1hPa | 2.6V | 03:04:26 | 02:09:01 | 00:00:00 | |
| BIOWL1-15 | 2026-09-01 12:46:19 | 49.82906 | 8.32221 | 241° | 11km/h | 21628m | -18m/s | -53.6°C | 1% | 45.4hPa | 2.7V | 03:05:06 | 02:09:03 | 00:00:00 | |
| DL1XH-west | 2026-09-01 12:46:15 | 49.82919 | 8.32229 | 173° | 13km/h | 21702m | -18.8m/s | -53.3°C | 1% | 0hPa | 2.6V | 03:05:57 | 02:08:59 | 00:00:00 | |
| BIOWL1-15 | 2026-09-01 12:46:09 | 49.82912 | 8.32200 | 11° | 27km/h | 21844m | -17.7m/s | -53.6°C | 1% | 43.9hPa | 2.7V | 03:05:06 | 02:08:51 | 00:00:00 | |
| DL1XH-west | 2026-09-01 12:46:04 | 49.82894 | 8.32198 | 353° | 22km/h | 21901m | -17.8m/s | -52.9°C | 1% | 0hPa | 2.6V | 03:05:57 | 02:08:48 | 00:00:00 | |
| BIOWL1-15 | 2026-09-01 12:45:57 | 49.82887 | 8.32208 | 227° | 9km/h | 22014m | -19.3m/s | -51.4°C | 0.6% | 42.7hPa | 2.6V | 03:05:06 | 02:08:42 | 00:00:00 | |
| BIOWL1-15 | 2026-09-01 12:45:48 | 49.82896 | 8.32172 | 55° | 24km/h | 22227m | -20.2m/s | -50.8°C | 0.5% | 41.4hPa | 2.6V | 03:05:06 | 02:08:31 | 00:00:00 | |
| BIOWL1-15 | 2026-09-01 12:45:35 | 49.82831 | 8.32177 | 297° | 24km/h | 22441m | -23.2m/s | -52°C | 0.7% | 40hPa | 2.6V | 03:05:57 | 02:08:20 | 00:00:00 | |
| BIOWL1-15 | 2026-09-01 12:45:27 | 49.82801 | 8.32219 | 18° | 26km/h | 22724m | -20.3m/s | -51.8°C | 0.7% | 38.3hPa | 2.6V | 03:05:57 | 02:08:06 | 00:00:00 | |
| DL1XH-west | 2026-09-01 12:45:22 | 49.82783 | 8.32207 | 28° | 29km/h | 22790m | -23.1m/s | -51.8°C | 0.7% | 0hPa | 2.7V | 03:05:57 | 02:08:03 | 00:00:00 | |
| BIOWL1-15 | 2026-09-01 12:45:18 | 49.82756 | 8.32136 | 89° | 20km/h | 22974m | -23.6m/s | -51.7°C | 0.6% | 36.8hPa | 2.7V | 03:05:57 | 02:07:55 | 00:00:00 | |
| DL1XH-west | 2026-09-01 12:45:12 | 49.82758 | 8.32154 | 78° | 27km/h | 22925m | -26.5m/s | -52°C | 0.7% | 0hPa | 2.7V | 03:05:57 | 02:07:57 | 00:00:00 | |
| BIOWL1-15 | 2026-09-01 12:45:06 | 49.82765 | 8.32138 | 324° | 9km/h | 23196m | -22.5m/s | -52°C | 0.7% | 35.6hPa | 2.6V | 03:05:57 | 02:07:45 | 00:00:00 | |
| DL1XH-west | 2026-09-01 12:45:01 | 49.82766 | 8.32134 | 265° | 9km/h | 23175m | -21.6m/s | -52°C | 0.7% | 0hPa | 2.7V | 03:05:57 | 02:07:46 | 00:00:00 | |
| BIOWL1-15 | 2026-09-01 12:44:54 | 49.82765 | 8.32135 | 56° | 13km/h | 23325m | -22.3m/s | -52°C | 0.7% | 34.9hPa | 2.6V | 03:05:57 | 02:07:39 | 00:00:00 | |
| DL1XH-west | 2026-09-01 12:44:51 | 49.82756 | 8.32123 | 36° | 18km/h | 23388m | -23.8m/s | 0°C | 0% | 0hPa | 2.7V | 03:05:57 | 02:07:36 | 00:00:00 | |
| BIOWL1-15 | 2026-09-01 12:44:44 | 49.82728 | 8.32084 | 52° | 20km/h | 23546m | -21.7m/s | -52.3°C | 0.7% | 33.7hPa | 2.6V | 03:06:48 | 02:07:29 | 00:00:00 | |
| DL1XH-west | 2026-09-01 12:44:40 | 49.82728 | 8.32062 | 112° | 15km/h | 23634m | -21.8m/s | 0°C | 0% | 0hPa | 2.7V | 18:12:15 | 02:07:25 | 00:00:00 | |
| BIOWL1-15 | 2026-09-01 12:44:37 | 49.82750 | 8.32027 | 144° | 22km/h | 23790m | -26.2m/s | -52.6°C | 0.8% | 32.5hPa | 2.6V | 03:06:48 | 02:07:18 | 00:00:00 | |
| DL1XH-west | 2026-09-01 12:44:29 | 49.82768 | 8.32016 | 178° | 15km/h | 23886m | -21.6m/s | 0°C | 0% | 0hPa | 2.7V | 18:12:15 | 02:07:14 | 00:00:00 | |
| BIOWL1-15 | 2026-09-01 12:44:24 | 49.82786 | 8.32036 | 356° | 4km/h | 24095m | -21.2m/s | -52.8°C | 1% | 30.9hPa | 2.7V | 03:06:48 | 02:07:05 | 00:00:00 | |
| BIOWL1-15 | 2026-09-01 12:44:12 | 49.82776 | 8.32025 | 335° | 7km/h | 24279m | -24.6m/s | -52.1°C | 0.9% | 30.1hPa | 2.6V | 03:06:48 | 02:06:57 | 00:00:00 | |
| BIOWL1-15 | 2026-09-01 12:44:01 | 49.82754 | 8.32067 | 295° | 7km/h | 24531m | -24.8m/s | -51.1°C | 0.8% | 28.9hPa | 2.6V | 03:06:48 | 02:06:46 | 00:00:00 | |
| AA1-15 | 2026-09-01 12:43:51 | 49.82743 | 8.32078 | 348° | 7km/h | 24776m | -23.5m/s | -50.1°C | 0.6% | 27.8hPa | 2.7V | 03:09:21 | 02:06:36 | 00:00:00 | |
| BIOWL1-15 | 2026-09-01 12:43:50 | 49.82738 | 8.32079 | 320° | 0km/h | 24874m | -23.9m/s | -50.1°C | 0.6% | 27.4hPa | 2.7V | 03:07:39 | 02:06:32 | 00:00:00 | |
| DL1ZP-14 | 2026-09-01 12:43:49 | 49.82739 | 8.32078 | 348° | 2km/h | 24848m | -27.4m/s | -50.1°C | 1.0% | 27.5hPa | 2.6V | 00:00:00 | 00:00:00 | 00:00:00 | |
| AU51GT2 | 2026-09-01 12:43:46 | 49.82739 | 8.32079 | 145° | 2km/h | 24920m | -23.7m/s | -50.2°C | 1.1% | 27.2hPa | 2.6V | 00:00:00 | 00:00:00 | 00:00:00 | |
| DJ2DS-15 | 2026-09-01 12:43:44 | 49.82740 | 8.32079 | 192° | 4km/h | 24943m | -24.7m/s | -50.2°C | 1.0% | 27.1hPa | 2.6V | 00:00:00 | 00:00:00 | 00:00:00 | |
| BIOWL1-15 | 2026-09-01 12:43:39 | 49.82745 | 8.32079 | 324° | 9km/h | 25214m | -25.3m/s | -49.9°C | 0.6% | 26hPa | 2.6V | 03:07:39 | 02:06:18 | 00:00:00 | |
| BIOWL1-15 | 2026-09-01 12:43:27 | 49.82732 | 8.32110 | 282° | 15km/h | 25417m | -26.3m/s | -49.7°C | 0.7% | 25.2hPa | 2.7V | 03:07:39 | 02:06:10 | 00:00:00 | |
| BIOWL1-15 | 2026-09-01 12:43:17 | 49.82720 | 8.32140 | 313° | 16km/h | 25695m | -31.3m/s | -49°C | 0.6% | 24.2hPa | 2.7V | 03:07:39 | 02:05:59 | 00:00:00 | |
| AA1-15 | 2026-09-01 12:43:13 | 49.82717 | 8.32144 | 321° | 16km/h | 25724m | -26.5m/s | -49°C | 0.6% | 24.1hPa | 2.7V | 03:09:21 | 02:05:58 | 00:00:00 | |
| BIOWL1-15 | 2026-09-01 12:43:10 | 49.82685 | 8.32162 | 8° | 22km/h | 25917m | -28m/s | -48.2°C | 0.4% | 23.3hPa | 2.6V | 03:07:39 | 02:05:51 | 00:00:00 | |
| AA1-15 | 2026-09-01 12:42:57 | 49.82658 | 8.32161 | 342° | 5km/h | 26175m | -26.9m/s | -48.1°C | 0.4% | 22.4hPa | 2.7V | 03:09:21 | 02:05:42 | 00:00:00 | |
| BIOWL1-15 | 2026-09-01 12:42:55 | 49.82655 | 8.32165 | 321° | 7km/h | 26234m | -30.8m/s | -48°C | 0.5% | 22.2hPa | 2.6V | 03:08:30 | 02:05:40 | 00:00:00 | |
| BIOWL1-15 | 2026-09-01 12:42:45 | 49.82617 | 8.32181 | 349° | 24km/h | 26535m | -29.9m/s | -47.4°C | 0.3% | 21.3hPa | 2.6V | 03:08:30 | 02:05:30 | 00:00:00 | |
| AA1-15 | 2026-09-01 12:42:34 | 49.82549 | 8.32215 | 329° | 16km/h | 26911m | -30.8m/s | -47°C | 0.3% | 20hPa | 2.6V | 03:09:21 | 02:05:17 | 00:00:00 | |
| BIOWL1-15 | 2026-09-01 12:42:34 | 49.82557 | 8.32207 | 332° | 16km/h | 26852m | -29.6m/s | -46.9°C | 0.3% | 20.3hPa | 2.6V | 03:08:30 | 02:05:19 | 00:00:00 | |
| BIOWL1-15 | 2026-09-01 12:42:23 | 49.82525 | 8.32214 | 345° | 4km/h | 27239m | -29.6m/s | -47.9°C | 0.4% | 19.1hPa | 2.7V | 03:08:30 | 02:05:06 | 00:00:00 | |
| AA1-15 | 2026-09-01 12:42:22 | 49.82525 | 8.32216 | 289° | 7km/h | 27268m | -30.4m/s | -48°C | 0.5% | 18.9hPa | 2.7V | 03:09:21 | 02:05:05 | 00:00:00 | |
| BIOWL1-15 | 2026-09-01 12:42:12 | 49.82514 | 8.32248 | 327° | 4km/h | 27578m | -32.2m/s | -47.5°C | 0.4% | 18.1hPa | 2.6V | 03:09:21 | 02:04:55 | 00:00:00 | |
| AA1-15 | 2026-09-01 12:42:10 | 49.82513 | 8.32248 | 21° | 4km/h | 27608m | -28.8m/s | -47.5°C | 0.4% | 18hPa | 2.7V | 03:09:21 | 02:04:54 | 00:00:00 | |
| BIOWL1-15 | 2026-09-01 12:42:02 | 49.82491 | 8.32239 | 19° | 24km/h | 27812m | -30.8m/s | -47.1°C | 0.4% | 17.5hPa | 2.6V | 03:09:21 | 02:04:47 | 00:00:00 | |
| AA1-15 | 2026-09-01 12:42:00 | 49.82474 | 8.32228 | 35° | 24km/h | 27904m | -31.1m/s | -46.7°C | 0.3% | 17.2hPa | 2.7V | 03:09:21 | 02:04:44 | 00:00:00 | |
| BIOWL1-15 | 2026-09-01 12:41:53 | 49.82463 | 8.32177 | 86° | 15km/h | 28138m | -29.1m/s | -47°C | 0.5% | 16.6hPa | 2.7V | 03:09:21 | 02:04:36 | 00:00:00 | |
| AA1-15 | 2026-09-01 12:41:49 | 49.82462 | 8.32164 | 73° | 5km/h | 28233m | -34.7m/s | -47°C | 0.5% | 16.4hPa | 2.6V | 03:09:21 | 02:04:33 | 00:00:00 | |
| DL1ZP-14 | 2026-09-01 12:41:45 | 49.82453 | 8.32154 | 27° | 16km/h | 28370m | -36.1m/s | -46.6°C | 1.0% | 16.0hPa | 2.6V | 00:00:00 | 00:00:00 | 00:00:00 | |
| SSTOLZ84 | 2026-09-01 12:41:44 | 49.82453 | 8.32154 | 27° | 16km/h | 28370m | -36.1m/s | -46.6°C | 1.0% | 16.0hPa | 2.6V | 00:00:00 | 00:00:00 | 00:00:00 | |
| BIOWL1-15 | 2026-09-01 12:41:42 | 49.82432 | 8.32128 | 46° | 26km/h | 28533m | -33.1m/s | -46.2°C | 0.5% | 15.6hPa | 2.6V | 03:09:21 | 02:04:24 | 00:00:00 | |
| AA1-15 | 2026-09-01 12:41:38 | 49.82428 | 8.32121 | 45° | 24km/h | 28566m | -33.8m/s | -46.3°C | 0.5% | 15.6hPa | 2.6V | 03:09:21 | 02:04:23 | 00:00:00 | |
| BIOWL1-15 | 2026-09-01 12:41:30 | 49.82419 | 8.32070 | 92° | 13km/h | 28834m | -37.4m/s | -45.1°C | 0.3% | 14.9hPa | 2.7V | 03:09:21 | 02:04:15 | 00:00:00 | |
| AA1-15 | 2026-09-01 12:41:28 | 49.82419 | 8.32057 | 73° | 7km/h | 28974m | -35.8m/s | -44.4°C | 0.2% | 14.6hPa | 2.6V | 03:09:21 | 02:04:11 | 00:00:00 | |
| BIOWL1-15 | 2026-09-01 12:41:19 | 49.82420 | 8.32044 | 60° | 9km/h | 29299m | -34.6m/s | -43.7°C | 0.2% | 13.9hPa | 2.6V | 03:10:12 | 02:04:02 | 00:00:00 | |
| AA1-15 | 2026-09-01 12:41:17 | 49.82419 | 8.32040 | 50° | 13km/h | 29334m | -37.9m/s | -43.5°C | 0.1% | 13.9hPa | 2.6V | 03:10:12 | 02:04:01 | 00:00:00 | |
| BIOWL1-15 | 2026-09-01 12:41:09 | 49.82410 | 8.32019 | 51° | 9km/h | 29593m | -38.5m/s | -43.2°C | 0.1% | 13.3hPa | 2.7V | 03:10:12 | 02:03:54 | 00:00:00 | |
| AA1-15 | 2026-09-01 12:41:06 | 49.82403 | 8.32011 | 358° | 5km/h | 29745m | -40.2m/s | -42.6°C | 0% | 13hPa | 2.6V | 03:10:12 | 02:03:50 | 00:00:00 | |
| BIOWL1-15 | 2026-09-01 12:40:59 | 49.82400 | 8.32022 | 252° | 7km/h | 29965m | -36.1m/s | -42.2°C | 0% | 12.6hPa | 2.6V | 03:10:12 | 02:03:44 | 00:00:00 | |
| AA1-15 | 2026-09-01 12:40:55 | 49.82399 | 8.32027 | 287° | 4km/h | 30107m | -33.9m/s | -41.7°C | 0% | 12.3hPa | 2.7V | 03:10:12 | 02:03:40 | 00:00:00 | |
| BIOWL1-15 | 2026-09-01 12:40:49 | 49.82384 | 8.32020 | 30° | 18km/h | 30325m | -35.9m/s | -41.3°C | 0% | 11.9hPa | 2.7V | 03:10:12 | 02:03:34 | 00:00:00 | |
| AA1-15 | 2026-09-01 12:40:45 | 49.82368 | 8.32005 | 47° | 7km/h | 30522m | -40.6m/s | -40.9°C | 0% | 11.6hPa | 2.7V | 03:10:12 | 02:03:29 | 00:00:00 | |
| BIOWL1-15 | 2026-09-01 12:40:38 | 49.82360 | 8.31984 | 69° | 15km/h | 30753m | -43.2m/s | -40.6°C | 0% | 11.2hPa | 2.7V | 03:10:12 | 02:03:23 | 00:00:00 | |
| AA1-15 | 2026-09-01 12:40:34 | 49.82348 | 8.31957 | 38° | 13km/h | 30966m | -39.2m/s | -40°C | 0% | 10.8hPa | 2.7V | 03:10:12 | 02:03:18 | 00:00:00 | |
| BIOWL1-15 | 2026-09-01 12:40:30 | 49.82334 | 8.31938 | 50° | 18km/h | 31174m | -44.9m/s | -39.8°C | 0% | 10.5hPa | 2.7V | 03:11:03 | 02:03:13 | 00:00:00 | |
| AA1-15 | 2026-09-01 12:40:23 | 49.82316 | 8.31877 | 71° | 35km/h | 31432m | -42.4m/s | -39.8°C | 0% | 10.1hPa | 2.7V | 03:11:03 | 02:03:07 | 00:00:00 | |
| BIOWL1-15 | 2026-09-01 12:40:19 | 49.82306 | 8.31811 | 82° | 35km/h | 31639m | -39.7m/s | -39.8°C | 0% | 9.8hPa | 2.6V | 03:11:03 | 02:03:02 | 00:00:00 | |
| AA1-15 | 2026-09-01 12:40:12 | 49.82308 | 8.31748 | 97° | 31km/h | 31840m | -42.4m/s | -39.8°C | 0% | 9.5hPa | 2.6V | 03:11:03 | 02:02:57 | 00:00:00 | |
| GOEST3-10 | 2026-09-01 12:40:11 | 49.82309 | 8.31736 | 99° | 22km/h | 31882m | -42.5m/s | -39.6°C | 2.5% | 9.4hPa | 2.7V | 00:00:00 | 00:00:00 | 00:00:00 | |
| DM0DOS-11 | 2026-09-01 12:40:10 | 49.82313 | 8.31716 | 112° | 22km/h | 31963m | -41.1m/s | -39.4°C | 2.5% | 9.3hPa | 2.7V | 03:10:33 | 02:02:54 | 00:00:00 | |
| DL1XH-west | 2026-09-01 12:40:09 | 49.82313 | 8.31716 | 113° | 22km/h | 31963m | -41.1m/s | 0°C | 0% | 0hPa | 2.7V | 18:12:15 | 02:02:54 | 00:00:00 | |
| HSKMA3-T | 2026-09-01 12:40:08 | 49.82314 | 8.31710 | 80° | 15km/h | 32005m | -45.6m/s | 0°C | 0% | 0hPa | 2.6V | 18:12:15 | 02:02:53 | 00:00:00 | |
| BIOWL1-15 | 2026-09-01 12:40:06 | 49.82312 | 8.31700 | 38° | 18km/h | 32089m | -43.2m/s | -39.3°C | 0% | 9.1hPa | 2.6V | 03:11:03 | 02:02:51 | 00:00:00 | |
| AA1-15 | 2026-09-01 12:40:02 | 49.82292 | 8.31699 | 22° | 18km/h | 32307m | -44.5m/s | -39.1°C | 0% | 8.8hPa | 2.6V | 03:11:03 | 02:02:46 | 00:00:00 | |
| BIOWL1-15 | 2026-09-01 12:39:55 | 49.82276 | 8.31663 | 83° | 20km/h | 32588m | -44.2m/s | -37°C | 0% | 8.4hPa | 2.7V | 03:11:03 | 02:02:39 | 00:00:00 | |
| AA1-15 | 2026-09-01 12:39:49 | 49.82268 | 8.31630 | 48° | 18km/h | 32824m | -52m/s | -36.1°C | 0% | 8.2hPa | 2.7V | 03:11:03 | 02:02:34 | 00:00:00 | |
| BIOWL1-15 | 2026-09-01 12:39:45 | 49.82249 | 8.31608 | 31° | 26km/h | 33021m | -51.9m/s | -35°C | 0% | 7.9hPa | 2.6V | 03:11:03 | 02:02:30 | 00:00:00 | |
| DL8DAS-15 | 2026-09-01 12:39:44 | 49.82249 | 8.31608 | 32° | 26km/h | 33022m | -51.9m/s | -35.0°C | 0.6% | 7.9hPa | 2.7V | 03:11:00 | 00:00:00 | 00:00:00 | |
| DB0UT-9 | 2026-09-01 12:39:43 | 49.82244 | 8.31602 | 41° | 29km/h | 33073m | -51.6m/s | -34.6°C | 0.6% | 7.9hPa | 2.7V | 03:11:00 | 00:00:00 | 00:00:00 | |
| GOEST3-10 | 2026-09-01 12:39:41 | 49.82228 | 8.31583 | 35° | 27km/h | 33227m | -51.8m/s | -34.1°C | 1.9% | 7.6hPa | 2.7V | 03:11:00 | 00:00:00 | 00:00:00 | |
| DM0DOS-11 | 2026-09-01 12:39:40 | 49.82211 | 8.31569 | 22° | 31km/h | 33380m | -51.7m/s | -33.8°C | 1.9% | 7.5hPa | 2.7V | 03:11:04 | 02:02:23 | 00:00:00 | |
| AA1-15 | 2026-09-01 12:39:38 | 49.82211 | 8.31569 | 23° | 31km/h | 33380m | -51.7m/s | -33.8°C | 0% | 7.5hPa | 2.7V | 03:11:54 | 02:02:23 | 00:00:00 | |
| AU51GT2 | 2026-09-01 12:39:38 | 49.82203 | 8.31564 | 23° | 35km/h | 33431m | -50.6m/s | -33.7°C | 0.5% | 7.5hPa | 2.7V | 00:00:00 | 00:00:00 | 00:00:00 | |
| IW2NTF | 2026-09-01 12:39:37 | 49.82159 | 8.31526 | 40° | 40km/h | 33676m | -44.4m/s | 0°C | 0% | 0hPa | 2.7V | 03:11:10 | 02:02:17 | 00:00:00 | |
| BIOWL1-15 | 2026-09-01 12:39:37 | 49.82186 | 8.31553 | 28° | 40km/h | 33531m | -50.3m/s | -33.7°C | 0% | 7.3hPa | 2.6V | 03:11:54 | 02:02:20 | 00:00:00 | |
| HSKMA3-T | 2026-09-01 12:39:28 | 49.82133 | 8.31479 | 53° | 35km/h | 33864m | -49.9m/s | 0°C | 0% | 0hPa | 2.6V | 18:12:15 | 02:02:13 | 00:00:00 | |
| AA1-15 | 2026-09-01 12:39:28 | 49.82128 | 8.31470 | 48° | 29km/h | 33913m | -49.4m/s | -33.5°C | 0% | 6.9hPa | 2.7V | 03:11:54 | 02:02:12 | 00:00:00 | |
| BIOWL1-15 | 2026-09-01 12:39:25 | 49.82119 | 8.31458 | 33° | 16km/h | 34014m | -52.7m/s | -33.3°C | 0% | 6.8hPa | 2.7V | 03:11:54 | 02:02:10 | 00:00:00 | |
| DF3TZ-5 | 2026-09-01 12:39:22 | 49.82113 | 8.31447 | 75° | 29km/h | 34249m | -69.5m/s | -33.0°C | 0.5% | 6.6hPa | 2.6V | 00:00:00 | 00:00:00 | 00:00:00 | |
| DM0DOS-11 | 2026-09-01 12:39:21 | 49.82110 | 8.31406 | 85° | 40km/h | 34444m | -56.3m/s | -33.3°C | 1.8% | 6.4hPa | 2.6V | 03:11:24 | 02:02:03 | 00:00:00 | |
| AA1-15 | 2026-09-01 12:39:17 | 49.82109 | 8.31391 | 85° | 38km/h | 34497m | -50.5m/s | -33.5°C | 0% | 6.4hPa | 2.6V | 03:11:54 | 02:02:02 | 00:00:00 | |
| BIOWL1-15 | 2026-09-01 12:39:14 | 49.82099 | 8.31322 | 31° | 15km/h | 34645m | -7.7m/s | -33.3°C | 0% | 6.2hPa | 2.6V | 03:11:54 | 02:01:57 | 00:00:00 | |
| CB1BUN | 2026-09-01 12:39:11 | 49.82099 | 8.31322 | 32° | 15km/h | 34645m | -7.7m/s | -33.3°C | 0.5% | 6.3hPa | 2.7V | 03:11:00 | 00:00:00 | 00:00:00 | |
| DL1ZP-14 | 2026-09-01 12:39:09 | 49.82088 | 8.31324 | 356° | 13km/h | 34630m | 6.1m/s | -33.3°C | 0.5% | 6.3hPa | 2.7V | 00:00:00 | 00:00:00 | 00:00:00 | |
| DJ2KF-10 | 2026-09-01 12:39:08 | 49.82084 | 8.31324 | 356° | 16km/h | 34624m | 5.4m/s | -33.2°C | 1.8% | 6.2hPa | 2.7V | 00:00:00 | 02:01:53 | 00:00:00 | |
| AU51GT2 | 2026-09-01 12:39:07 | 49.82079 | 8.31326 | 338° | 11km/h | 34613m | 5.3m/s | -33.4°C | 0.5% | 6.3hPa | 2.7V | 00:00:00 | 00:00:00 | 00:00:00 | |
| DL9SK-14 | 2026-09-01 12:39:06 | 49.82079 | 8.31326 | 338° | 11km/h | 34613m | 5.3m/s | -33.4°C | 0.5% | 6.3hPa | 2.7V | 00:00:00 | 00:00:00 | 00:00:00 | |
| GOEST3-10 | 2026-09-01 12:39:05 | 49.82075 | 8.31328 | 331° | 16km/h | 34608m | 6.1m/s | -33.5°C | 1.9% | 6.2hPa | 2.7V | 00:00:00 | 02:01:50 | 00:00:00 | |
| DM0DOS-11 | 2026-09-01 12:39:03 | 49.82068 | 8.31336 | 316° | 20km/h | 34596m | 5.3m/s | -33.4°C | 1.8% | 6.3hPa | 2.7V | 03:11:39 | 02:01:48 | 00:00:00 | |
| AA1-15 | 2026-09-01 12:39:00 | 49.82061 | 8.31353 | 280° | 13km/h | 34580m | 6.2m/s | -33.5°C | 0% | 6.3hPa | 2.6V | 03:11:54 | 02:01:45 | 00:00:00 | |
| BIOWL1-15 | 2026-09-01 12:39:00 | 49.82062 | 8.31358 | 207° | 4km/h | 34568m | 5.4m/s | -33.7°C | 0% | 6.3hPa | 2.7V | 03:11:54 | 02:01:43 | 00:00:00 | |
| DM0DOS-11 | 2026-09-01 12:38:58 | 49.82052 | 8.31342 | 26° | 27km/h | 34539m | 6.3m/s | -33.9°C | 1.9% | 6.3hPa | 2.7V | 03:11:49 | 02:01:38 | 00:00:00 | |
| BIOWL1-15 | 2026-09-01 12:38:50 | 49.82039 | 8.31342 | 189° | 13km/h | 34495m | 3.8m/s | -33.8°C | 0% | 6.4hPa | 2.6V | 03:12:45 | 02:01:30 | 00:00:00 | |
| AA1-15 | 2026-09-01 12:38:49 | 49.82031 | 8.31334 | 340° | 9km/h | 34519m | 6.6m/s | -33.8°C | 0% | 6.4hPa | 2.6V | 03:11:54 | 02:01:34 | 00:00:00 | |
| DD1CC8 | 2026-09-01 12:38:48 | 49.82031 | 8.31336 | 247° | 5km/h | 34512m | 6.9m/s | -33.7°C | 0.5% | 6.4hPa | 2.6V | 00:00:00 | 00:00:00 | 00:00:00 | |
| DL8DAS-14 | 2026-09-01 12:38:46 | 49.82039 | 8.31342 | 188° | 13km/h | 34496m | 3.8m/s | -33.8°C | 0.5% | 6.4hPa | 2.6V | 00:00:00 | 00:00:00 | 00:00:00 | |
| AA1-15 | 2026-09-01 12:38:38 | 49.82019 | 8.31304 | 46° | 29km/h | 34456m | 4.6m/s | -33.9°C | 0% | 6.4hPa | 2.6V | 03:12:45 | 02:01:23 | 00:00:00 | |
| BIOWL1-15 | 2026-09-01 12:38:35 | 49.82012 | 8.31289 | 125° | 5km/h | 34439m | 6m/s | -33.8°C | 0% | 6.5hPa | 2.7V | 03:12:45 | 02:01:20 | 00:00:00 | |
| AA1-15 | 2026-09-01 12:38:28 | 49.82000 | 8.31290 | 31° | 27km/h | 34395m | 5.6m/s | -33.9°C | 0% | 6.5hPa | 2.6V | 03:12:45 | 02:01:12 | 00:00:00 | |
| BIOWL1-15 | 2026-09-01 12:38:26 | 49.81983 | 8.31243 | 87° | 27km/h | 34366m | 5m/s | -33.8°C | 0% | 6.5hPa | 2.6V | 03:12:45 | 02:01:07 | 00:00:00 | |
| AA1-15 | 2026-09-01 12:38:17 | 49.81970 | 8.31213 | 5° | 26km/h | 34338m | 6.7m/s | -34.1°C | 0% | 6.5hPa | 2.6V | 03:12:45 | 02:01:02 | 00:00:00 | |
| BIOWL1-15 | 2026-09-01 12:38:15 | 49.81942 | 8.31218 | 350° | 20km/h | 34318m | 5.3m/s | -33.8°C | 0% | 6.6hPa | 2.7V | 03:12:45 | 02:00:58 | 00:00:00 | |
| AA1-15 | 2026-09-01 12:38:07 | 49.81934 | 8.31184 | 69° | 35km/h | 34286m | 5.7m/s | -34.1°C | 0% | 6.6hPa | 2.6V | 03:12:45 | 02:00:52 | 00:00:00 | |
| DJ2KF-10 | 2026-09-01 12:38:07 | 49.81934 | 8.31184 | 69° | 31km/h | 34286m | 5.7m/s | -34.1°C | 1.9% | 6.6hPa | 2.7V | 00:00:00 | 02:00:52 | 00:00:00 | |
| DM0DOS-11 | 2026-09-01 12:38:06 | 49.81905 | 8.31142 | 18° | 38km/h | 34263m | 4m/s | -34.4°C | 2% | 6.6hPa | 2.7V | 03:12:39 | 02:00:48 | 00:00:00 | |
| BIOWL1-15 | 2026-09-01 12:38:04 | 49.81896 | 8.31139 | 4° | 31km/h | 34259m | 4.2m/s | -34.3°C | 0% | 6.6hPa | 2.7V | 03:12:45 | 02:00:47 | 00:00:00 | |
| AA1-15 | 2026-09-01 12:37:57 | 49.81894 | 8.31150 | 166° | 24km/h | 34230m | 3.9m/s | -34°C | 0% | 6.7hPa | 2.6V | 03:12:45 | 02:00:42 | 00:00:00 | |
| BIOWL9-15 | 2026-09-01 12:37:54 | 49.81904 | 8.31106 | 72° | 46km/h | 34209m | 7.0m/s | -34.1°C | 0.6% | 6.7hPa | 2.7V | 00:00:00 | 00:00:00 | 00:00:00 | |
| DM0DOS-11 | 2026-09-01 12:37:53 | 49.81903 | 8.31106 | 72° | 47km/h | 34208m | 7m/s | -34.1°C | 2% | 6.7hPa | 2.7V | 03:12:49 | 02:00:38 | 00:00:00 | |
| BIOWL1-15 | 2026-09-01 12:37:52 | 49.81898 | 8.31089 | 57° | 53km/h | 34202m | 5.7m/s | -34.1°C | 0% | 6.7hPa | 2.6V | 03:13:36 | 02:00:37 | 00:00:00 | |
| DG1MJG | 2026-09-01 12:37:51 | 49.81898 | 8.31089 | 58° | 53km/h | 34203m | 5.7m/s | 0°C | 0% | 0hPa | 2.7V | 00:00:00 | 00:00:00 | 00:00:00 | |
| GOEST3-10 | 2026-09-01 12:37:49 | 49.81871 | 8.31054 | 19° | 24km/h | 34189m | 4.8m/s | -34.0°C | 2.0% | 6.6hPa | 2.7V | 03:12:00 | 00:00:00 | 00:00:00 | |
| DM0DOS-11 | 2026-09-01 12:37:48 | 49.81862 | 8.31072 | 181° | 11km/h | 34154m | 4.4m/s | -33.8°C | 2% | 6.7hPa | 2.7V | 03:12:59 | 02:00:28 | 00:00:00 | |
| AA1-15 | 2026-09-01 12:37:46 | 49.81855 | 8.31059 | 278° | 16km/h | 34169m | 6.6m/s | -34°C | 0% | 6.7hPa | 2.6V | 03:13:36 | 02:00:31 | 00:00:00 | |
| BIOWL1-15 | 2026-09-01 12:37:41 | 49.81865 | 8.31064 | 81° | 20km/h | 34144m | 6m/s | -33.8°C | 0% | 6.8hPa | 2.6V | 03:13:36 | 02:00:26 | 00:00:00 | |
| AA1-15 | 2026-09-01 12:37:36 | 49.81833 | 8.31004 | 36° | 42km/h | 34114m | 5.3m/s | -33.8°C | 0% | 6.8hPa | 2.7V | 03:13:36 | 02:00:21 | 00:00:00 | |
| DM0DOS-11 | 2026-09-01 12:37:36 | 49.81812 | 8.30990 | 358° | 18km/h | 34097m | 5.9m/s | -33.9°C | 2% | 6.8hPa | 2.7V | 03:13:09 | 02:00:18 | 00:00:00 | |
| BIOWL1-15 | 2026-09-01 12:37:31 | 49.81805 | 8.30994 | 323° | 15km/h | 34086m | 5m/s | -33.8°C | 0% | 6.8hPa | 2.7V | 03:13:36 | 02:00:16 | 00:00:00 | |
| DL3AQ-11 | 2026-09-01 12:37:31 | 49.81802 | 8.30997 | 329° | 15km/h | 34081m | 4.4m/s | -33.8°C | 0.6% | 6.8hPa | 2.6V | 00:00:00 | 00:00:00 | 00:00:00 | |
| GOEST3-10 | 2026-09-01 12:37:29 | 49.81798 | 8.30999 | 350° | 29km/h | 34077m | 5.0m/s | -33.7°C | 2.0% | 6.7hPa | 2.6V | 03:13:00 | 00:00:00 | 00:00:00 | |
| DL4BBY-15 | 2026-09-01 12:37:28 | 49.81793 | 8.30999 | 11° | 37km/h | 34072m | 5.9m/s | -34.3°C | 0% | 0hPa | 2.6V | 00:00:00 | 00:00:00 | 00:00:00 | |
| CB1BUN | 2026-09-01 12:37:27 | 49.81793 | 8.30999 | 11° | 22km/h | 34071m | 5.9m/s | -33.8°C | 0.6% | 6.8hPa | 2.6V | 03:13:00 | 00:00:00 | 00:00:00 | |
| DB0UT-7 | 2026-09-01 12:37:26 | 49.81780 | 8.30990 | 33° | 37km/h | 34058m | 6.3m/s | -33.6°C | 1.9% | 6.8hPa | 2.6V | 03:13:00 | 02:00:11 | 00:00:00 | |
| DM0DOS-11 | 2026-09-01 12:37:25 | 49.81756 | 8.30957 | 49° | 42km/h | 34041m | 4.9m/s | -33.8°C | 1.9% | 6.8hPa | 2.6V | 03:13:19 | 02:00:08 | 00:00:00 | |
| AA1-15 | 2026-09-01 12:37:25 | 49.81772 | 8.30981 | 40° | 42km/h | 34052m | 6.2m/s | -33.7°C | 0% | 6.8hPa | 2.7V | 03:13:36 | 02:00:10 | 00:00:00 | |
| BIOWL1-15 | 2026-09-01 12:37:21 | 49.81746 | 8.30934 | 57° | 29km/h | 34029m | 6.4m/s | -33.7°C | 0% | 6.8hPa | 2.7V | 03:13:36 | 02:00:06 | 00:00:00 | |
| AA1-15 | 2026-09-01 12:37:14 | 49.81703 | 8.30905 | 17° | 47km/h | 33990m | 5.7m/s | -33.4°C | 0% | 6.9hPa | 2.6V | 03:13:36 | 01:59:59 | 00:00:00 | |
| DM0DOS-11 | 2026-09-01 12:37:14 | 49.81692 | 8.30899 | 22° | 49km/h | 33985m | 5m/s | -33.6°C | 1.9% | 6.9hPa | 2.6V | 03:13:29 | 01:59:58 | 00:00:00 | |
| BIOWL1-15 | 2026-09-01 12:37:10 | 49.81663 | 8.30870 | 44° | 40km/h | 33968m | 5.9m/s | -33.5°C | 0% | 6.9hPa | 2.7V | 03:13:36 | 01:59:55 | 00:00:00 | |
| GOEST3-10 | 2026-09-01 12:37:09 | 49.81656 | 8.30859 | 52° | 35km/h | 33963m | 5.2m/s | -33.4°C | 1.9% | 6.9hPa | 2.6V | 03:13:00 | 00:00:00 | 00:00:00 | |
| DM0DOS-11 | 2026-09-01 12:37:08 | 49.81609 | 8.30797 | 19° | 42km/h | 33925m | 5.3m/s | -33.6°C | 1.9% | 6.9hPa | 2.6V | 03:13:40 | 01:59:47 | 00:00:00 | |
| AA1-15 | 2026-09-01 12:37:03 | 49.81618 | 8.30803 | 24° | 40km/h | 33930m | 5.9m/s | -33.7°C | 0% | 7hPa | 2.6V | 03:14:27 | 01:59:48 | 00:00:00 | |
| BIOWL1-15 | 2026-09-01 12:37:00 | 49.81589 | 8.30787 | 21° | 38km/h | 33914m | 6m/s | -33.6°C | 0% | 7hPa | 2.7V | 03:14:27 | 01:59:45 | 00:00:00 | |
| GOEST3-10 | 2026-09-01 12:36:59 | 49.81581 | 8.30781 | 28° | 42km/h | 33908m | 5.4m/s | -33.6°C | 1.9% | 6.9hPa | 2.7V | 00:00:00 | 00:00:00 | 00:00:00 | |
| DL4BBY-15 | 2026-09-01 12:36:57 | 49.81566 | 8.30764 | 43° | 42km/h | 33899m | 4.6m/s | -34.3°C | 0% | 0hPa | 2.7V | 00:00:00 | 00:00:00 | 00:00:00 | |
| DM0DOS-11 | 2026-09-01 12:36:56 | 49.81522 | 8.30694 | 44° | 51km/h | 33870m | 4m/s | -33.9°C | 1.9% | 7hPa | 2.7V | 03:13:50 | 01:59:37 | 00:00:00 | |
| AA1-15 | 2026-09-01 12:36:53 | 49.81532 | 8.30708 | 46° | 55km/h | 33875m | 5.1m/s | -33.9°C | 0% | 7hPa | 2.6V | 03:14:27 | 01:59:38 | 00:00:00 | |
| BIOWL1-15 | 2026-09-01 12:36:49 | 49.81498 | 8.30665 | 26° | 27km/h | 33855m | 7.3m/s | -33.8°C | 0% | 7hPa | 2.6V | 03:14:27 | 01:59:34 | 00:00:00 | |
| DF3TZ-5 | 2026-09-01 12:36:46 | 49.81481 | 8.30664 | 348° | 24km/h | 33837m | 3.7m/s | -33.8°C | 0.5% | 7.1hPa | 2.7V | 00:00:00 | 00:00:00 | 00:00:00 | |
| CB1BUN | 2026-09-01 12:36:45 | 49.81482 | 8.30664 | 349° | 26km/h | 33838m | 3.7m/s | -33.8°C | 0.5% | 7.1hPa | 2.7V | 03:14:00 | 00:00:00 | 00:00:00 | |
| GOEST3-10 | 2026-09-01 12:36:44 | 49.81465 | 8.30665 | 6° | 55km/h | 33830m | 4.9m/s | -33.8°C | 1.9% | 7.0hPa | 2.7V | 00:00:00 | 01:59:29 | 00:00:00 | |
| DM0DOS-11 | 2026-09-01 12:36:43 | 49.81442 | 8.30656 | 21° | 58km/h | 33817m | 6.9m/s | -33.8°C | 1.9% | 7hPa | 2.6V | 03:14:00 | 01:59:27 | 00:00:00 | |
| AA1-15 | 2026-09-01 12:36:42 | 49.81442 | 8.30656 | 22° | 58km/h | 33817m | 6.9m/s | -33.8°C | 0% | 7hPa | 2.6V | 03:14:27 | 01:59:27 | 00:00:00 | |
| BIOWL1-15 | 2026-09-01 12:36:38 | 49.81392 | 8.30603 | 47° | 51km/h | 33797m | 4.8m/s | -33.6°C | 0% | 7.1hPa | 2.6V | 03:14:27 | 01:59:23 | 00:00:00 | |
| DJ2KF-10 | 2026-09-01 12:36:37 | 49.81384 | 8.30590 | 53° | 33km/h | 33792m | 6.4m/s | -33.6°C | 1.9% | 7.0hPa | 2.6V | 00:00:00 | 01:59:22 | 00:00:00 | |
| DM0DOS-11 | 2026-09-01 12:36:36 | 49.81366 | 8.30574 | 346° | 27km/h | 33765m | 5m/s | -33.6°C | 1.9% | 7.1hPa | 2.6V | 03:14:10 | 01:59:17 | 00:00:00 | |
| AA1-15 | 2026-09-01 12:36:31 | 49.81357 | 8.30576 | 354° | 38km/h | 33760m | 6.3m/s | -33.6°C | 0% | 7.1hPa | 2.7V | 03:14:27 | 01:59:16 | 00:00:00 | |
| BIOWL1-15 | 2026-09-01 12:36:28 | 49.81318 | 8.30568 | 19° | 62km/h | 33742m | 4.4m/s | -33.6°C | 0% | 7.1hPa | 2.6V | 03:14:27 | 01:59:13 | 00:00:00 | |
| DL4BBY-15 | 2026-09-01 12:36:27 | 49.81303 | 8.30558 | 29° | 31km/h | 33738m | 3.5m/s | -34.0°C | 0% | 0hPa | 2.6V | 00:00:00 | 00:00:00 | 00:00:00 | |
| DB0UT-7 | 2026-09-01 12:36:26 | 49.81292 | 8.30547 | 37° | 29km/h | 33734m | 4.1m/s | -33.4°C | 1.9% | 7.1hPa | 2.6V | 00:00:00 | 01:59:11 | 00:00:00 | |
| CB1BUN | 2026-09-01 12:36:25 | 49.81292 | 8.30547 | 38° | 53km/h | 33734m | 4.1m/s | -33.5°C | 0.5% | 7.1hPa | 2.6V | 03:14:00 | 00:00:00 | 00:00:00 | |
| GOEST3-10 | 2026-09-01 12:36:24 | 49.81277 | 8.30523 | 61° | 15km/h | 33723m | 6.6m/s | -33.4°C | 1.9% | 7.1hPa | 2.6V | 00:00:00 | 01:59:09 | 00:00:00 | |
| DM0DOS-11 | 2026-09-01 12:36:23 | 49.81275 | 8.30508 | 108° | 11km/h | 33710m | 5.2m/s | -33.4°C | 1.9% | 7.2hPa | 2.6V | 03:14:20 | 01:59:07 | 00:00:00 | |
| AA1-15 | 2026-09-01 12:36:21 | 49.81273 | 8.30506 | 352° | 18km/h | 33697m | 4.9m/s | -33.6°C | 0% | 7.2hPa | 2.7V | 03:14:27 | 01:59:04 | 00:00:00 | |
| BIOWL1-15 | 2026-09-01 12:36:19 | 49.81257 | 8.30506 | 5° | 44km/h | 33685m | 6.7m/s | -33.8°C | 0% | 7.2hPa | 2.6V | 03:14:27 | 01:59:02 | 00:00:00 | |
| GOEST3-10 | 2026-09-01 12:36:19 | 49.81273 | 8.30506 | 353° | 42km/h | 33698m | 4.9m/s | -33.6°C | 1.9% | 7.1hPa | 2.7V | 00:00:00 | 00:00:00 | 00:00:00 | |
| DM0DOS-11 | 2026-09-01 12:36:17 | 49.81194 | 8.30474 | 32° | 40km/h | 33660m | 5.4m/s | -33.8°C | 1.9% | 7.2hPa | 2.7V | 03:14:30 | 01:58:57 | 00:00:00 | |
| AA1-15 | 2026-09-01 12:36:08 | 49.81184 | 8.30453 | 123° | 4km/h | 33637m | 4.4m/s | -33.8°C | 0% | 7.3hPa | 2.6V | 03:17:00 | 01:58:53 | 00:00:00 | |
| BIOWL1-15 | 2026-09-01 12:36:06 | 49.81149 | 8.30441 | 17° | 51km/h | 33604m | 5m/s | -34.1°C | 0% | 7.3hPa | 2.6V | 03:15:18 | 01:58:47 | 00:00:00 | |
| AA1-15 | 2026-09-01 12:35:57 | 49.81108 | 8.30412 | 45° | 11km/h | 33579m | 6.5m/s | -34°C | 0% | 7.3hPa | 2.6V | 03:17:00 | 01:58:42 | 00:00:00 | |
| BIOWL1-15 | 2026-09-01 12:35:57 | 49.81089 | 8.30401 | 27° | 38km/h | 33541m | 6.2m/s | -34°C | 0% | 7.4hPa | 2.7V | 03:15:18 | 01:58:35 | 00:00:00 | |
| AA1-15 | 2026-09-01 12:35:46 | 49.81056 | 8.30368 | 39° | 27km/h | 33520m | 5.3m/s | -34.2°C | 0% | 7.4hPa | 2.6V | 03:17:00 | 01:58:31 | 00:00:00 | |
| BIOWL1-15 | 2026-09-01 12:35:44 | 49.81050 | 8.30360 | 50° | 7km/h | 33508m | 6m/s | -34°C | 0% | 7.4hPa | 2.7V | 03:15:18 | 01:58:29 | 00:00:00 | |
| GOEST3-10 | 2026-09-01 12:35:44 | 49.81049 | 8.30360 | 50° | 4km/h | 33509m | 6.0m/s | -34.0°C | 1.9% | 7.3hPa | 2.7V | 00:00:00 | 01:58:29 | 00:00:00 | |
| HEMX73-11 | 2026-09-01 12:35:43 | 49.81050 | 8.30360 | 51° | 7km/h | 33509m | 6.0m/s | -34.0°C | 0.6% | 7.4hPa | 2.6V | 03:15:00 | 00:00:00 | 00:00:00 | |
| DD1CC8 | 2026-09-01 12:35:42 | 49.81049 | 8.30360 | 253° | 4km/h | 33498m | 4.7m/s | -34.0°C | 0.6% | 7.4hPa | 2.6V | 00:00:00 | 00:00:00 | 00:00:00 | |
| DM0DOS-11 | 2026-09-01 12:35:41 | 49.81047 | 8.30363 | 350° | 9km/h | 33488m | 5.1m/s | -34°C | 1.9% | 7.4hPa | 2.6V | 03:15:02 | 01:58:25 | 00:00:00 | |
| AA1-15 | 2026-09-01 12:35:36 | 49.81025 | 8.30345 | 41° | 38km/h | 33466m | 5m/s | -34°C | 0% | 7.4hPa | 2.7V | 03:17:00 | 01:58:21 | 00:00:00 | |
| BIOWL1-15 | 2026-09-01 12:35:35 | 49.81008 | 8.30315 | 58° | 24km/h | 33451m | 5.6m/s | -34.2°C | 0% | 7.5hPa | 2.6V | 03:15:18 | 01:58:18 | 00:00:00 | |
| AA1-15 | 2026-09-01 12:35:25 | 49.80979 | 8.30309 | 19° | 38km/h | 33410m | 5.9m/s | -34.1°C | 0% | 7.5hPa | 2.7V | 03:17:00 | 01:58:10 | 00:00:00 | |
| BIOWL1-15 | 2026-09-01 12:35:24 | 49.80953 | 8.30279 | 54° | 42km/h | 33395m | 4m/s | -34.3°C | 0% | 7.5hPa | 2.6V | 03:16:09 | 01:58:07 | 00:00:00 | |
| CB1BUN | 2026-09-01 12:35:24 | 49.80969 | 8.30302 | 32° | 44km/h | 33405m | 5.2m/s | -34.1°C | 0.5% | 7.5hPa | 2.7V | 03:15:00 | 00:00:00 | 00:00:00 | |
| HEMX73-11 | 2026-09-01 12:35:22 | 49.80960 | 8.30292 | 44° | 46km/h | 33400m | 4.5m/s | -34.2°C | 0.5% | 7.5hPa | 2.7V | 03:16:00 | 00:00:00 | 00:00:00 | |
| DM0DOS-11 | 2026-09-01 12:35:20 | 49.80946 | 8.30246 | 96° | 15km/h | 33381m | 5.3m/s | -34.3°C | 1.9% | 7.5hPa | 2.7V | 03:15:23 | 01:58:04 | 00:00:00 | |
| AA1-15 | 2026-09-01 12:35:13 | 49.80928 | 8.30262 | 359° | 40km/h | 33352m | 5.2m/s | -34.5°C | 0% | 7.6hPa | 2.7V | 03:17:00 | 01:57:58 | 00:00:00 | |
| BIOWL1-15 | 2026-09-01 12:35:11 | 49.80906 | 8.30252 | 32° | 51km/h | 33341m | 5.2m/s | -34.5°C | 0% | 7.6hPa | 2.6V | 03:16:09 | 01:57:56 | 00:00:00 | |
| DM0DOS-11 | 2026-09-01 12:35:10 | 49.80886 | 8.30178 | 145° | 9km/h | 33311m | 4.9m/s | -34.9°C | 1.9% | 7.6hPa | 2.6V | 03:15:37 | 01:57:50 | 00:00:00 | |
| AA1-15 | 2026-09-01 12:35:02 | 49.80882 | 8.30188 | 327° | 29km/h | 33297m | 5m/s | -34.9°C | 0% | 7.6hPa | 2.7V | 03:17:00 | 01:57:47 | 00:00:00 | |
| BIOWL1-15 | 2026-09-01 12:35:00 | 49.80862 | 8.30196 | 0° | 53km/h | 33286m | 5.8m/s | -34.8°C | 0% | 7.6hPa | 2.6V | 03:16:09 | 01:57:45 | 00:00:00 | |
| DL9SK-14 | 2026-09-01 12:34:58 | 49.80821 | 8.30170 | 40° | 64km/h | 33271m | 4.7m/s | -35.0°C | 0.6% | 7.7hPa | 2.7V | 00:00:00 | 00:00:00 | 00:00:00 | |
| DL4BBY-15 | 2026-09-01 12:34:57 | 49.80821 | 8.30170 | 41° | 35km/h | 33271m | 4.7m/s | -35.6°C | 0% | 0hPa | 2.7V | 00:00:00 | 00:00:00 | 00:00:00 | |
| GOEST3-10 | 2026-09-01 12:34:55 | 49.80803 | 8.30135 | 68° | 26km/h | 33261m | 5.0m/s | -34.9°C | 1.9% | 7.6hPa | 2.7V | 00:00:00 | 00:00:00 | 00:00:00 | |
| DM0DOS-11 | 2026-09-01 12:34:53 | 49.80804 | 8.30099 | 225° | 5km/h | 33239m | 5m/s | -34.9°C | 1.9% | 7.7hPa | 2.7V | 03:15:51 | 01:57:36 | 00:00:00 | |
| BIOWL1-15 | 2026-09-01 12:34:52 | 49.80804 | 8.30103 | 295° | 15km/h | 33234m | 4.6m/s | -34.8°C | 0% | 7.7hPa | 2.7V | 03:16:09 | 01:57:35 | 00:00:00 | |
| AA1-15 | 2026-09-01 12:34:51 | 49.80804 | 8.30099 | 225° | 5km/h | 33239m | 5m/s | -34.9°C | 0% | 7.7hPa | 2.7V | 03:17:00 | 01:57:36 | 00:00:00 | |
| DL3AQ-11 | 2026-09-01 12:34:51 | 49.80804 | 8.30103 | 294° | 13km/h | 33234m | 4.6m/s | -34.8°C | 0.6% | 7.7hPa | 2.6V | 00:00:00 | 00:00:00 | 00:00:00 | |
| DL9PN | 2026-09-01 12:34:47 | 49.80761 | 8.30105 | 29° | 55km/h | 33209m | 5.4m/s | 0°C | -1.0% | -1.0hPa | 2.6V | 00:00:00 | 00:00:00 | 00:00:00 | |
| DM0DOS-11 | 2026-09-01 12:34:46 | 49.80735 | 8.30043 | 91° | 38km/h | 33187m | 4.9m/s | -35.1°C | 1.9% | 7.7hPa | 2.6V | 03:16:01 | 01:57:26 | 00:00:00 | |
| DO1YAY-16 | 2026-09-01 12:34:46 | 49.80761 | 8.30105 | 29° | 55km/h | 33209m | 5.4m/s | -35.0°C | 0.5% | 7.7hPa | 2.7V | 00:00:00 | 00:00:00 | 00:00:00 | |
| AA1-15 | 2026-09-01 12:34:40 | 49.80739 | 8.30023 | 133° | 18km/h | 33177m | 4.7m/s | -35.2°C | 0% | 7.8hPa | 2.7V | 03:17:00 | 01:57:24 | 00:00:00 | |
| BIOWL1-15 | 2026-09-01 12:34:40 | 49.80730 | 8.30034 | 349° | 33km/h | 33149m | 5.1m/s | -35.5°C | 0% | 7.8hPa | 2.7V | 03:16:09 | 01:57:19 | 00:00:00 | |
| DL3AQ-11 | 2026-09-01 12:34:40 | 49.80739 | 8.30023 | 133° | 18km/h | 33178m | 4.7m/s | -35.2°C | 0.6% | 7.8hPa | 2.7V | 00:00:00 | 00:00:00 | 00:00:00 | |
| DL8DAS-14 | 2026-09-01 12:34:38 | 49.80743 | 8.30021 | 267° | 7km/h | 33167m | 6.0m/s | -35.3°C | 0.6% | 7.8hPa | 2.7V | 00:00:00 | 00:00:00 | 00:00:00 | |
| KANTATE | 2026-09-01 12:34:37 | 49.80742 | 8.30021 | 269° | 7km/h | 33167m | 6.0m/s | -35.3°C | 0.6% | 7.8hPa | 2.7V | 00:00:00 | 00:00:00 | 00:00:00 | |
| GOEST3-10 | 2026-09-01 12:34:35 | 49.80737 | 8.30030 | 333° | 35km/h | 33155m | 5.8m/s | -35.3°C | 2.0% | 7.7hPa | 2.7V | 00:00:00 | 00:00:00 | 00:00:00 | |
| DM0DOS-11 | 2026-09-01 12:34:33 | 49.80704 | 8.30023 | 42° | 37km/h | 33134m | 5.2m/s | -35.5°C | 2% | 7.8hPa | 2.7V | 03:16:11 | 01:57:16 | 00:00:00 | |
| BIOWL1-15 | 2026-09-01 12:34:29 | 49.80696 | 8.29997 | 83° | 40km/h | 33123m | 6.3m/s | -35.7°C | 0% | 7.8hPa | 2.7V | 03:17:00 | 01:57:14 | 00:00:00 | |
| AA1-15 | 2026-09-01 12:34:29 | 49.80699 | 8.29967 | 114° | 40km/h | 33111m | 5m/s | -35.7°C | 0% | 7.8hPa | 2.6V | 03:17:00 | 01:57:12 | 00:00:00 | |
| DL9SK-14 | 2026-09-01 12:34:27 | 49.80704 | 8.29954 | 124° | 35km/h | 33107m | 4.2m/s | -35.8°C | 0.6% | 7.9hPa | 2.6V | 00:00:00 | 00:00:00 | 00:00:00 | |
| DM0DOS-11 | 2026-09-01 12:34:26 | 49.80707 | 8.29929 | 17° | 22km/h | 33081m | 6m/s | -36.1°C | 2.1% | 7.9hPa | 2.6V | 03:16:21 | 01:57:06 | 00:00:00 | |
| BIOWL1-15 | 2026-09-01 12:34:19 | 49.80694 | 8.29921 | 27° | 31km/h | 33070m | 5.1m/s | -36.2°C | 0% | 7.9hPa | 2.7V | 03:17:00 | 01:57:04 | 00:00:00 | |
| AA1-15 | 2026-09-01 12:34:18 | 49.80682 | 8.29906 | 49° | 31km/h | 33060m | 4.9m/s | -36.2°C | 0% | 7.9hPa | 2.7V | 03:17:00 | 01:57:02 | 00:00:00 | |
| CB1BUN | 2026-09-01 12:34:17 | 49.80682 | 8.29906 | 50° | 31km/h | 33060m | 4.9m/s | -36.2°C | 0.6% | 7.9hPa | 2.6V | 03:17:00 | 00:00:00 | 00:00:00 | |
| DL8OAI-8 | 2026-09-01 12:34:16 | 49.80678 | 8.29897 | 63° | 29km/h | 33055m | 5.5m/s | -36.3°C | 0.6% | 7.9hPa | 2.6V | 00:00:00 | 00:00:00 | 00:00:00 | |
| DO1YAY-16 | 2026-09-01 12:34:15 | 49.80675 | 8.29887 | 78° | 26km/h | 33049m | 6.0m/s | -36.4°C | 0.6% | 7.9hPa | 2.6V | 00:00:00 | 00:00:00 | 00:00:00 | |
| GOEST3-10 | 2026-09-01 12:34:14 | 49.80675 | 8.29877 | 94° | 26km/h | 33043m | 6.3m/s | -36.3°C | 2.2% | 7.9hPa | 2.6V | 00:00:00 | 00:00:00 | 00:00:00 | |
| DJ2DS-15 | 2026-09-01 12:34:13 | 49.80676 | 8.29868 | 107° | 26km/h | 33037m | 5.7m/s | -36.4°C | 2.1% | 7.9hPa | 2.6V | 03:16:00 | 01:56:58 | 00:00:00 | |
| DM0DOS-11 | 2026-09-01 12:34:12 | 49.80680 | 8.29849 | 110° | 27km/h | 33027m | 4.3m/s | -36.5°C | 2.2% | 8hPa | 2.6V | 03:16:31 | 01:56:56 | 00:00:00 | |
| BIOWL1-15 | 2026-09-01 12:34:10 | 49.80683 | 8.29813 | 82° | 35km/h | 33011m | 6.2m/s | -36.6°C | 0% | 8hPa | 2.7V | 03:17:00 | 01:56:53 | 00:00:00 | |
| AA1-15 | 2026-09-01 12:34:08 | 49.80681 | 8.29800 | 73° | 35km/h | 33005m | 5.5m/s | -36.5°C | 0% | 8hPa | 2.7V | 03:17:00 | 01:56:52 | 00:00:00 | |
| DM0DOS-11 | 2026-09-01 12:34:07 | 49.80661 | 8.29756 | 41° | 13km/h | 32972m | 4.7m/s | -36.7°C | 2.2% | 8hPa | 2.7V | 03:16:41 | 01:56:46 | 00:00:00 | |
| BIOWL1-15 | 2026-09-01 12:33:57 | 49.80652 | 8.29727 | 74° | 29km/h | 32949m | 5.1m/s | -36.7°C | 0% | 8hPa | 2.7V | 03:17:00 | 01:56:42 | 00:00:00 | |
| AU51GT2 | 2026-09-01 12:33:56 | 49.80651 | 8.29716 | 76° | 29km/h | 32944m | 5.0m/s | -36.8°C | 0.7% | 8.0hPa | 2.6V | 00:00:00 | 00:00:00 | 00:00:00 | |
| DL9SK-14 | 2026-09-01 12:33:55 | 49.80649 | 8.29705 | 76° | 27km/h | 32939m | 5.1m/s | -36.9°C | 0.7% | 8.0hPa | 2.6V | 00:00:00 | 00:00:00 | 00:00:00 | |
| GOEST3-10 | 2026-09-01 12:33:54 | 49.80647 | 8.29695 | 74° | 20km/h | 32934m | 6.1m/s | -36.7°C | 2.2% | 8.0hPa | 2.6V | 00:00:00 | 00:00:00 | 00:00:00 | |
| DJ2DS-15 | 2026-09-01 12:33:53 | 49.80645 | 8.29688 | 66° | 22km/h | 32928m | 5.7m/s | -36.7°C | 2.2% | 8.0hPa | 2.7V | 00:00:00 | 01:56:38 | 00:00:00 | |
| DL8OAI-8 | 2026-09-01 12:33:52 | 49.80643 | 8.29682 | 53° | 16km/h | 32922m | 5.2m/s | -36.8°C | 0.7% | 8.1hPa | 2.6V | 00:00:00 | 00:00:00 | 00:00:00 | |
| DM0DOS-11 | 2026-09-01 12:33:50 | 49.80630 | 8.29667 | 31° | 26km/h | 32905m | 6.4m/s | -36.9°C | 2.2% | 8.1hPa | 2.6V | 03:16:53 | 01:56:34 | 00:00:00 | |
| BIOWL1-15 | 2026-09-01 12:33:47 | 49.80618 | 8.29655 | 35° | 29km/h | 32893m | 4.8m/s | -37.1°C | 0% | 8.1hPa | 2.7V | 03:17:00 | 01:56:32 | 00:00:00 | |
| AA1-15 | 2026-09-01 12:33:47 | 49.80613 | 8.29649 | 38° | 26km/h | 32889m | 4.6m/s | -37°C | 0% | 8.1hPa | 2.7V | 03:17:00 | 01:56:31 | 00:00:00 | |
| BIOWL9-15 | 2026-09-01 12:33:45 | 49.80608 | 8.29643 | 44° | 20km/h | 32884m | 5.6m/s | -37.0°C | 0.6% | 8.1hPa | 2.7V | 00:00:00 | 00:00:00 | 00:00:00 | |
| DL3AQ-11 | 2026-09-01 12:33:44 | 49.80604 | 8.29633 | 83° | 11km/h | 32871m | 6.4m/s | -37.1°C | 0.7% | 8.1hPa | 2.7V | 00:00:00 | 00:00:00 | 00:00:00 | |
| DH7VM-15 | 2026-09-01 12:33:41 | 49.80605 | 8.29629 | 106° | 13km/h | 32866m | 5.3m/s | -37.1°C | 0.6% | 8.1hPa | 2.7V | 03:17:00 | 00:00:00 | 00:00:00 | |
| DM0DOS-11 | 2026-09-01 12:33:40 | 49.80606 | 8.29605 | 85° | 27km/h | 32849m | 6.5m/s | -37.1°C | 2.3% | 8.2hPa | 2.7V | 03:17:03 | 01:56:24 | 00:00:00 | |
| BIOWL1-15 | 2026-09-01 12:33:36 | 49.80577 | 8.29557 | 11° | 15km/h | 32803m | 5m/s | -37.3°C | 0% | 8.2hPa | 2.7V | 03:17:51 | 01:56:16 | 00:00:00 | |
| AA1-15 | 2026-09-01 12:33:36 | 49.80599 | 8.29573 | 53° | 29km/h | 32832m | 4.8m/s | -37.1°C | 0% | 8.2hPa | 2.7V | 03:17:51 | 01:56:21 | 00:00:00 | |
| AA1-15 | 2026-09-01 12:33:25 | 49.80569 | 8.29509 | 96° | 20km/h | 32762m | 5.6m/s | -37°C | 0% | 8.3hPa | 2.7V | 03:17:51 | 01:56:09 | 00:00:00 | |
| DM0DOS-11 | 2026-09-01 12:33:25 | 49.80558 | 8.29473 | 42° | 29km/h | 32734m | 6.5m/s | -37.3°C | 2.2% | 8.3hPa | 2.7V | 03:17:23 | 01:56:04 | 00:00:00 | |
| BIOWL1-15 | 2026-09-01 12:33:22 | 49.80568 | 8.29495 | 71° | 18km/h | 32752m | 4.6m/s | -37.1°C | 0% | 8.3hPa | 2.6V | 03:17:51 | 01:56:07 | 00:00:00 | |
| DB0UT-7 | 2026-09-01 12:33:19 | 49.80558 | 8.29473 | 43° | 26km/h | 32735m | 6.4m/s | -37.2°C | 2.2% | 8.2hPa | 2.7V | 03:17:00 | 01:56:04 | 00:00:00 | |
| HEMX73-11 | 2026-09-01 12:33:18 | 49.80558 | 8.29473 | 43° | 29km/h | 32735m | 6.5m/s | -37.3°C | 0.6% | 8.3hPa | 2.7V | 03:17:00 | 00:00:00 | 00:00:00 | |
| CB1BUN | 2026-09-01 12:33:16 | 49.80542 | 8.29452 | 41° | 22km/h | 32719m | 4.6m/s | -37.3°C | 0.7% | 8.3hPa | 2.7V | 03:17:00 | 00:00:00 | 00:00:00 | |
| DM0DOS-11 | 2026-09-01 12:33:14 | 49.80537 | 8.29417 | 72° | 27km/h | 32678m | 6.6m/s | -37.5°C | 2.3% | 8.4hPa | 2.7V | 03:17:33 | 01:55:54 | 00:00:00 | |
| AA1-15 | 2026-09-01 12:33:13 | 49.80536 | 8.29441 | 107° | 7km/h | 32700m | 6.3m/s | -37.3°C | 0% | 8.3hPa | 2.6V | 03:17:51 | 01:55:58 | 00:00:00 | |
| BIOWL1-15 | 2026-09-01 12:33:11 | 49.80537 | 8.29417 | 73° | 27km/h | 32678m | 6.6m/s | -37.6°C | 0% | 8.4hPa | 2.7V | 03:17:51 | 01:55:54 | 00:00:00 | |
| AA1-15 | 2026-09-01 12:33:02 | 49.80501 | 8.29352 | 29° | 18km/h | 32637m | 5.8m/s | -37.8°C | 0% | 8.4hPa | 2.6V | 03:17:51 | 01:55:47 | 00:00:00 | |
| DM0DOS-11 | 2026-09-01 12:33:02 | 49.80490 | 8.29331 | 84° | 20km/h | 32607m | 5.7m/s | -37.6°C | 2.2% | 8.5hPa | 2.7V | 03:17:45 | 01:55:42 | 00:00:00 | |
| BIOWL1-15 | 2026-09-01 12:33:01 | 49.80497 | 8.29349 | 29° | 15km/h | 32631m | 5.6m/s | -37.7°C | 0% | 8.4hPa | 2.6V | 03:17:51 | 01:55:46 | 00:00:00 | |
| BIOWL1-15 | 2026-09-01 12:32:54 | 49.80486 | 8.29264 | 58° | 35km/h | 32566m | 7.2m/s | -38°C | 0% | 8.5hPa | 2.7V | 03:18:42 | 01:55:35 | 00:00:00 | |
| AA1-15 | 2026-09-01 12:32:52 | 49.80492 | 8.29286 | 80° | 27km/h | 32578m | 4.6m/s | -37.8°C | 0% | 8.5hPa | 2.6V | 03:17:51 | 01:55:37 | 00:00:00 | |
| DL3AQ-11 | 2026-09-01 12:32:51 | 49.80486 | 8.29264 | 57° | 33km/h | 32566m | 7.2m/s | -38.0°C | 0.6% | 8.5hPa | 2.7V | 00:00:00 | 00:00:00 | 00:00:00 | |
| AA1-15 | 2026-09-01 12:32:42 | 49.80464 | 8.29210 | 145° | 18km/h | 32519m | 4.7m/s | -38°C | 0% | 8.6hPa | 2.7V | 03:18:42 | 01:55:27 | 00:00:00 | |
| BIOWL1-15 | 2026-09-01 12:32:40 | 49.80470 | 8.29178 | 78° | 33km/h | 32497m | 5.8m/s | -38.2°C | 0% | 8.6hPa | 2.7V | 03:18:42 | 01:55:23 | 00:00:00 | |
| DM0DOS-11 | 2026-09-01 12:32:39 | 49.80468 | 8.29165 | 69° | 37km/h | 32491m | 5.4m/s | -38.3°C | 2.4% | 8.6hPa | 2.7V | 03:18:05 | 01:55:22 | 00:00:00 | |
| AA1-15 | 2026-09-01 12:32:32 | 49.80453 | 8.29108 | 92° | 13km/h | 32456m | 5.2m/s | -38.2°C | 0% | 8.7hPa | 2.7V | 03:18:42 | 01:55:16 | 00:00:00 | |
| BIOWL1-15 | 2026-09-01 12:32:31 | 49.80454 | 8.29097 | 97° | 16km/h | 32445m | 6.2m/s | -38.3°C | 0% | 8.7hPa | 2.6V | 03:18:42 | 01:55:14 | 00:00:00 | |
| AA1-15 | 2026-09-01 12:32:22 | 49.80451 | 8.29007 | 69° | 22km/h | 32386m | 6.3m/s | -39.2°C | 0% | 8.8hPa | 2.6V | 03:18:42 | 01:55:04 | 00:00:00 | |
| DM0DOS-11 | 2026-09-01 12:32:19 | 49.80446 | 8.28990 | 62° | 29km/h | 32373m | 5.6m/s | -39.3°C | 2.5% | 8.8hPa | 2.7V | 03:18:25 | 01:55:02 | 00:00:00 | |
| GOEST3-10 | 2026-09-01 12:32:19 | 49.80451 | 8.29007 | 69° | 26km/h | 32387m | 6.2m/s | -39.1°C | 2.5% | 8.7hPa | 2.6V | 00:00:00 | 01:55:04 | 00:00:00 | |
| HEMX73-11 | 2026-09-01 12:32:16 | 49.80446 | 8.28990 | 63° | 29km/h | 32374m | 5.6m/s | -39.3°C | 0.7% | 8.8hPa | 2.6V | 03:18:00 | 00:00:00 | 00:00:00 | |
| GOEST3-10 | 2026-09-01 12:32:14 | 49.80438 | 8.28960 | 83° | 24km/h | 32358m | 6.2m/s | -39.2°C | 2.5% | 8.7hPa | 2.6V | 00:00:00 | 00:00:00 | 00:00:00 | |
| DJ2DS-15 | 2026-09-01 12:32:13 | 49.80438 | 8.28951 | 99° | 24km/h | 32352m | 6.9m/s | -39.2°C | 2.5% | 8.8hPa | 2.6V | 00:00:00 | 01:54:58 | 00:00:00 | |
| DM0DOS-11 | 2026-09-01 12:32:12 | 49.80449 | 8.28896 | 81° | 31km/h | 32316m | 6.1m/s | -39.4°C | 2.5% | 8.8hPa | 2.6V | 03:18:35 | 01:54:52 | 00:00:00 | |
| HSKMA3-T | 2026-09-01 12:32:11 | 49.80443 | 8.28935 | 121° | 24km/h | 32339m | 5.1m/s | 0°C | 0% | 0hPa | 2.7V | 18:12:15 | 01:54:56 | 00:00:00 | |
| AA1-15 | 2026-09-01 12:32:09 | 49.80449 | 8.28896 | 82° | 31km/h | 32316m | 6.1m/s | -39.4°C | 0% | 8.8hPa | 2.6V | 03:18:42 | 01:54:52 | 00:00:00 | |
| GOEST3-10 | 2026-09-01 12:32:09 | 49.80448 | 8.28918 | 109° | 29km/h | 32329m | 5.9m/s | -39.3°C | 2.5% | 8.8hPa | 2.7V | 00:00:00 | 01:54:54 | 00:00:00 | |
| DF3TZ-5 | 2026-09-01 12:32:07 | 49.80447 | 8.28884 | 70° | 31km/h | 32311m | 5.4m/s | -39.5°C | 0.7% | 8.8hPa | 2.6V | 00:00:00 | 00:00:00 | 00:00:00 | |
| DB0UT-9 | 2026-09-01 12:32:06 | 49.80447 | 8.28884 | 72° | 31km/h | 32311m | 5.4m/s | -39.5°C | 0.8% | 8.8hPa | 2.6V | 03:18:00 | 00:00:00 | 00:00:00 | |
| DD1CC8 | 2026-09-01 12:32:05 | 49.80441 | 8.28864 | 56° | 26km/h | 32300m | 6.3m/s | -39.4°C | 0.7% | 8.9hPa | 2.6V | 00:00:00 | 00:00:00 | 00:00:00 | |
| GOEST3-10 | 2026-09-01 12:32:04 | 49.80441 | 8.28864 | 57° | 20km/h | 32300m | 6.2m/s | -39.3°C | 2.5% | 8.8hPa | 2.6V | 03:18:00 | 00:00:00 | 00:00:00 | |
| DL8DAS-14 | 2026-09-01 12:32:02 | 49.80432 | 8.28845 | 57° | 13km/h | 32282m | 4.9m/s | -39.5°C | 0.7% | 8.9hPa | 2.6V | 00:00:00 | 00:00:00 | 00:00:00 | |
| DL3AQ-11 | 2026-09-01 12:32:00 | 49.80429 | 8.28834 | 75° | 18km/h | 32272m | 5.8m/s | -39.4°C | 0.7% | 8.9hPa | 2.6V | 00:00:00 | 00:00:00 | 00:00:00 | |
| DM0DOS-11 | 2026-09-01 12:31:59 | 49.80426 | 8.28816 | 81° | 27km/h | 32259m | 6.1m/s | -39.5°C | 2.6% | 8.9hPa | 2.6V | 03:18:45 | 01:54:42 | 00:00:00 | |
| BIOWL1-15 | 2026-09-01 12:31:59 | 49.80429 | 8.28834 | 76° | 18km/h | 32271m | 5.8m/s | -39.4°C | 0% | 8.9hPa | 2.7V | 03:19:33 | 01:54:44 | 00:00:00 | |
| HSKMA3-T | 2026-09-01 12:31:57 | 49.80427 | 8.28816 | 81° | 27km/h | 32259m | 6.1m/s | 0°C | 0% | 0hPa | 2.6V | 18:12:15 | 01:54:42 | 00:00:00 | |
| GOEST3-10 | 2026-09-01 12:31:54 | 49.80425 | 8.28783 | 91° | 16km/h | 32242m | 5.9m/s | -39.3°C | 2.5% | 8.9hPa | 2.7V | 00:00:00 | 00:00:00 | 00:00:00 | |
| DM0DOS-11 | 2026-09-01 12:31:53 | 49.80419 | 8.28743 | 61° | 24km/h | 32201m | 5.9m/s | -39.3°C | 2.5% | 9hPa | 2.6V | 03:18:55 | 01:54:32 | 00:00:00 | |
| BIOWL1-15 | 2026-09-01 12:31:48 | 49.80422 | 8.28750 | 60° | 20km/h | 32207m | 6.5m/s | -39.3°C | 0% | 9hPa | 2.7V | 03:19:33 | 01:54:33 | 00:00:00 | |
| HSKMA3-T | 2026-09-01 12:31:47 | 49.80416 | 8.28735 | 65° | 24km/h | 32195m | 5.4m/s | 0°C | 0% | 0hPa | 2.6V | 18:12:15 | 01:54:31 | 00:00:00 | |
| AA1-15 | 2026-09-01 12:31:37 | 49.80414 | 8.28646 | 77° | 29km/h | 32138m | 4.8m/s | -39.3°C | 0% | 9.1hPa | 2.7V | 03:19:33 | 01:54:21 | 00:00:00 | |
| BIOWL1-15 | 2026-09-01 12:31:37 | 49.80415 | 8.28657 | 81° | 31km/h | 32144m | 5.4m/s | -39.2°C | 0% | 9.1hPa | 2.7V | 03:19:33 | 01:54:22 | 00:00:00 | |
| HSKMA3-T | 2026-09-01 12:31:34 | 49.80410 | 8.28628 | 72° | 18km/h | 32127m | 6.4m/s | 0°C | 0% | 0hPa | 2.6V | 18:12:15 | 01:54:19 | 00:00:00 | |
| BIOWL1-15 | 2026-09-01 12:31:30 | 49.80402 | 8.28566 | 81° | 29km/h | 32083m | 4.8m/s | -39.2°C | 0% | 9.2hPa | 2.6V | 03:19:33 | 01:54:11 | 00:00:00 | |
| AA1-15 | 2026-09-01 12:31:26 | 49.80401 | 8.28555 | 83° | 26km/h | 32077m | 5.8m/s | -39.2°C | 0% | 9.2hPa | 2.7V | 03:19:33 | 01:54:10 | 00:00:00 | |
| HSKMA3-T | 2026-09-01 12:31:21 | 49.80400 | 8.28528 | 85° | 11km/h | 32054m | 4.8m/s | 0°C | 0% | 0hPa | 2.6V | 18:12:15 | 01:54:06 | 00:00:00 | |
| BIOWL1-15 | 2026-09-01 12:31:18 | 49.80397 | 8.28462 | 130° | 22km/h | 31998m | 4.7m/s | -39.2°C | 0% | 9.3hPa | 2.7V | 03:19:33 | 01:53:56 | 00:00:00 | |
| AA1-15 | 2026-09-01 12:31:16 | 49.80391 | 8.28480 | 92° | 18km/h | 32016m | 6.4m/s | -39.4°C | 0% | 9.3hPa | 2.6V | 03:19:33 | 01:53:59 | 00:00:00 | |
| GOEST3-10 | 2026-09-01 12:31:14 | 49.80390 | 8.28480 | 93° | 20km/h | 32016m | 6.4m/s | -39.4°C | 2.4% | 9.2hPa | 2.7V | 00:00:00 | 00:00:00 | 00:00:00 | |
| DJ2DS-15 | 2026-09-01 12:31:13 | 49.80391 | 8.28473 | 113° | 29km/h | 32010m | 6.3m/s | -39.3°C | 2.4% | 9.2hPa | 2.7V | 00:00:00 | 01:53:58 | 00:00:00 | |
| DM0DOS-11 | 2026-09-01 12:31:12 | 49.80410 | 8.28419 | 101° | 38km/h | 31975m | 5.8m/s | -39.2°C | 2.4% | 9.3hPa | 2.7V | 03:19:35 | 01:53:52 | 00:00:00 | |
| HSKMA3-T | 2026-09-01 12:31:05 | 49.80413 | 8.28391 | 98° | 35km/h | 31965m | 4.9m/s | 0°C | 0% | 0hPa | 2.7V | 18:12:15 | 01:53:50 | 00:00:00 | |
| BIOWL1-15 | 2026-09-01 12:31:01 | 49.80420 | 8.28353 | 121° | 20km/h | 31942m | 4.6m/s | -39.4°C | 0% | 9.3hPa | 2.7V | 03:20:24 | 01:53:46 | 00:00:00 | |
| DM0DOS-11 | 2026-09-01 12:31:00 | 49.80428 | 8.28316 | 91° | 33km/h | 31920m | 5.7m/s | -39.5°C | 2.5% | 9.4hPa | 2.7V | 03:19:45 | 01:53:42 | 00:00:00 | |
| AA1-15 | 2026-09-01 12:30:55 | 49.80427 | 8.28263 | 96° | 31km/h | 31898m | 6.1m/s | -39.5°C | 0% | 9.4hPa | 2.7V | 03:20:24 | 01:53:38 | 00:00:00 | |
| GOEST3-10 | 2026-09-01 12:30:55 | 49.80427 | 8.28275 | 91° | 33km/h | 31905m | 6.3m/s | -39.6°C | 2.5% | 9.3hPa | 2.7V | 00:00:00 | 00:00:00 | 00:00:00 | |
| DJ2DS-15 | 2026-09-01 12:30:54 | 49.80427 | 8.28263 | 97° | 40km/h | 31899m | 6.0m/s | -39.5°C | 2.5% | 9.3hPa | 2.7V | 00:00:00 | 01:53:38 | 00:00:00 | |
| DM0DOS-11 | 2026-09-01 12:30:53 | 49.80438 | 8.28175 | 98° | 49km/h | 31864m | 5.4m/s | -39.6°C | 2.5% | 9.5hPa | 2.7V | 03:19:55 | 01:53:32 | 00:00:00 | |
| BIOWL1-15 | 2026-09-01 12:30:50 | 49.80434 | 8.28211 | 101° | 42km/h | 31877m | 6.7m/s | -39.6°C | 0% | 9.4hPa | 2.6V | 03:20:24 | 01:53:34 | 00:00:00 | |
| DL9SK-14 | 2026-09-01 12:30:50 | 49.80434 | 8.28211 | 100° | 40km/h | 31877m | 6.7m/s | -39.6°C | 0.7% | 9.4hPa | 2.6V | 00:00:00 | 00:00:00 | 00:00:00 | |
| AA1-15 | 2026-09-01 12:30:44 | 49.80446 | 8.28107 | 104° | 37km/h | 31842m | 5.6m/s | -39.5°C | 0% | 9.5hPa | 2.6V | 03:20:24 | 01:53:28 | 00:00:00 | |
| BIOWL1-15 | 2026-09-01 12:30:40 | 49.80451 | 8.28064 | 92° | 40km/h | 31825m | 6.6m/s | -39.6°C | 0% | 9.5hPa | 2.7V | 03:20:24 | 01:53:25 | 00:00:00 | |
| DL3AQ-11 | 2026-09-01 12:30:40 | 49.80451 | 8.28048 | 88° | 44km/h | 31819m | 6.2m/s | -39.6°C | 0.7% | 9.5hPa | 2.6V | 00:00:00 | 00:00:00 | 00:00:00 | |
| DM0DOS-11 | 2026-09-01 12:30:39 | 49.80450 | 8.28012 | 86° | 47km/h | 31808m | 4.8m/s | -39.7°C | 2.5% | 9.5hPa | 2.6V | 03:20:05 | 01:53:22 | 00:00:00 | |
| HSKMA3-T | 2026-09-01 12:30:38 | 49.80450 | 8.28030 | 87° | 47km/h | 31813m | 5.4m/s | 0°C | 0% | 0hPa | 2.6V | 18:12:15 | 01:53:23 | 00:00:00 | |
| AA1-15 | 2026-09-01 12:30:32 | 49.80452 | 8.27933 | 98° | 37km/h | 31780m | 5m/s | -39.5°C | 0% | 9.6hPa | 2.6V | 03:20:24 | 01:53:17 | 00:00:00 | |
| BIOWL1-15 | 2026-09-01 12:30:29 | 49.80449 | 8.27775 | 88° | 29km/h | 31723m | 4.7m/s | -39.4°C | 0% | 9.6hPa | 2.6V | 03:20:24 | 01:53:07 | 00:00:00 | |
| HSKMA3-T | 2026-09-01 12:30:24 | 49.80448 | 8.27799 | 91° | 35km/h | 31734m | 6.7m/s | 0°C | 0% | 0hPa | 2.7V | 18:12:15 | 01:53:09 | 00:00:00 | |
| AA1-15 | 2026-09-01 12:30:22 | 49.80437 | 8.27700 | 74° | 51km/h | 31695m | 5.1m/s | -39.6°C | 0% | 9.7hPa | 2.7V | 03:21:15 | 01:53:02 | 00:00:00 | |
| DL1ZP-14 | 2026-09-01 12:30:21 | 49.80446 | 8.27750 | 77° | 35km/h | 31713m | 6.5m/s | -39.6°C | 0.7% | 9.7hPa | 2.7V | 00:00:00 | 00:00:00 | 00:00:00 | |
| DM0DOS-11 | 2026-09-01 12:30:20 | 49.80437 | 8.27700 | 74° | 51km/h | 31695m | 5.1m/s | -39.6°C | 2.4% | 9.7hPa | 2.7V | 03:20:25 | 01:53:02 | 00:00:00 | |
| BIOWL1-15 | 2026-09-01 12:30:18 | 49.80431 | 8.27661 | 82° | 49km/h | 31682m | 6.4m/s | -39.6°C | 0% | 9.7hPa | 2.6V | 03:21:15 | 01:53:00 | 00:00:00 | |
| AA1-15 | 2026-09-01 12:30:11 | 49.80428 | 8.27590 | 83° | 46km/h | 31661m | 5.3m/s | -39.6°C | 0% | 9.7hPa | 2.7V | 03:21:15 | 01:52:56 | 00:00:00 | |
| DL3AQ-11 | 2026-09-01 12:30:10 | 49.80423 | 8.27553 | 73° | 47km/h | 31649m | 6.3m/s | -39.5°C | 0.7% | 9.8hPa | 2.6V | 00:00:00 | 00:00:00 | 00:00:00 | |
| GOEST3-10 | 2026-09-01 12:30:09 | 49.80423 | 8.27553 | 74° | 46km/h | 31649m | 6.3m/s | -39.5°C | 2.4% | 9.7hPa | 2.6V | 00:00:00 | 01:52:54 | 00:00:00 | |
| CB1BUN | 2026-09-01 12:30:08 | 49.80423 | 8.27553 | 75° | 49km/h | 31649m | 6.3m/s | -39.5°C | 0.7% | 9.8hPa | 2.7V | 03:21:00 | 00:00:00 | 00:00:00 | |
| DM0DOS-11 | 2026-09-01 12:30:07 | 49.80415 | 8.27518 | 69° | 46km/h | 31637m | 5.3m/s | -39.6°C | 2.4% | 9.8hPa | 2.7V | 03:20:35 | 01:52:52 | 00:00:00 | |
| BIOWL1-15 | 2026-09-01 12:30:06 | 49.80405 | 8.27473 | 75° | 37km/h | 31618m | 5.6m/s | -39.4°C | 0% | 9.8hPa | 2.6V | 03:21:15 | 01:52:49 | 00:00:00 | |
| GOEST3-10 | 2026-09-01 12:30:04 | 49.80405 | 8.27473 | 75° | 42km/h | 31619m | 5.5m/s | -39.3°C | 2.4% | 9.8hPa | 2.6V | 03:20:00 | 00:00:00 | 00:00:00 | |
| DM0DOS-11 | 2026-09-01 12:30:02 | 49.80378 | 8.27362 | 68° | 44km/h | 31579m | 6.4m/s | -39.4°C | 2.4% | 9.9hPa | 2.6V | 03:20:45 | 01:52:42 | 00:00:00 | |
| AA1-15 | 2026-09-01 12:30:01 | 49.80392 | 8.27413 | 68° | 47km/h | 31595m | 6.2m/s | -39.4°C | 0% | 9.8hPa | 2.7V | 03:21:15 | 01:52:45 | 00:00:00 | |
| HSKMA3-T | 2026-09-01 12:29:54 | 49.80370 | 8.27322 | 72° | 31km/h | 31560m | 5.4m/s | 0°C | 0% | 0hPa | 2.7V | 18:12:15 | 01:52:39 | 00:00:00 | |
| GOEST3-10 | 2026-09-01 12:29:54 | 49.80370 | 8.27322 | 73° | 35km/h | 31561m | 5.4m/s | -39.5°C | 2.4% | 9.8hPa | 2.7V | 00:00:00 | 00:00:00 | 00:00:00 | |
| DJ2DS-15 | 2026-09-01 12:29:53 | 49.80367 | 8.27311 | 69° | 31km/h | 31555m | 5.5m/s | -39.4°C | 2.4% | 9.9hPa | 2.7V | 00:00:00 | 01:52:38 | 00:00:00 | |
| DM0DOS-11 | 2026-09-01 12:29:52 | 49.80344 | 8.27234 | 72° | 33km/h | 31519m | 6.7m/s | -39.5°C | 2.4% | 9.9hPa | 2.7V | 03:20:55 | 01:52:32 | 00:00:00 | |
| AA1-15 | 2026-09-01 12:29:50 | 49.80355 | 8.27274 | 62° | 40km/h | 31536m | 5.3m/s | -39.5°C | 0% | 9.9hPa | 2.6V | 03:21:15 | 01:52:35 | 00:00:00 | |
| DL1ZP-14 | 2026-09-01 12:29:50 | 49.80351 | 8.27260 | 63° | 38km/h | 31531m | 5.1m/s | -39.5°C | 0.7% | 9.9hPa | 2.7V | 00:00:00 | 00:00:00 | 00:00:00 | |
| AU51GT2 | 2026-09-01 12:29:48 | 49.80347 | 8.27246 | 67° | 37km/h | 31526m | 5.8m/s | -39.4°C | 0.7% | 9.9hPa | 2.7V | 00:00:00 | 00:00:00 | 00:00:00 | |
| DL9SK-14 | 2026-09-01 12:29:47 | 49.80342 | 8.27222 | 77° | 29km/h | 31513m | 5.8m/s | -39.6°C | 0.7% | 10.0hPa | 2.7V | 00:00:00 | 00:00:00 | 00:00:00 | |
| BIOWL1-15 | 2026-09-01 12:29:43 | 49.80336 | 8.27189 | 70° | 29km/h | 31497m | 6m/s | -39.7°C | 0% | 10hPa | 2.7V | 03:21:15 | 01:52:28 | 00:00:00 | |
| AA1-15 | 2026-09-01 12:29:39 | 49.80314 | 8.27132 | 58° | 31km/h | 31469m | 5.6m/s | -39.9°C | 0% | 10hPa | 2.6V | 03:21:15 | 01:52:23 | 00:00:00 | |
| DM0DOS-11 | 2026-09-01 12:29:39 | 49.80311 | 8.27122 | 62° | 26km/h | 31463m | 6.5m/s | -40°C | 2.4% | 10hPa | 2.6V | 03:21:05 | 01:52:22 | 00:00:00 | |
| BIOWL1-15 | 2026-09-01 12:29:34 | 49.80303 | 8.27081 | 67° | 29km/h | 31436m | 6.8m/s | -40.1°C | 0% | 10.1hPa | 2.7V | 03:21:15 | 01:52:17 | 00:00:00 | |
| AA1-15 | 2026-09-01 12:29:28 | 49.80277 | 8.27031 | 37° | 27km/h | 31407m | 6.7m/s | -40.2°C | 0% | 10.1hPa | 2.6V | 03:21:15 | 01:52:12 | 00:00:00 | |
| BIOWL1-15 | 2026-09-01 12:29:24 | 49.80257 | 8.27011 | 46° | 22km/h | 31379m | 6.5m/s | -40.2°C | 0% | 10.2hPa | 2.6V | 03:22:06 | 01:52:07 | 00:00:00 | |
| GOEST3-10 | 2026-09-01 12:29:24 | 49.80264 | 8.27020 | 27° | 20km/h | 31391m | 4.7m/s | -40.1°C | 2.5% | 10.1hPa | 2.7V | 03:21:00 | 00:00:00 | 00:00:00 | |
| DM0DOS-11 | 2026-09-01 12:29:22 | 49.80241 | 8.26971 | 71° | 18km/h | 31351m | 5.9m/s | -40.2°C | 2.4% | 10.2hPa | 2.6V | 03:21:25 | 01:52:02 | 00:00:00 | |
| AA1-15 | 2026-09-01 12:29:16 | 49.80240 | 8.26965 | 77° | 13km/h | 31345m | 6.7m/s | -40.3°C | 0% | 10.2hPa | 2.6V | 03:22:06 | 01:52:01 | 00:00:00 | |
| DL9SK-14 | 2026-09-01 12:29:16 | 49.80240 | 8.26961 | 83° | 9km/h | 31339m | 5.7m/s | -40.3°C | 0.7% | 10.2hPa | 2.7V | 00:00:00 | 00:00:00 | 00:00:00 | |
| GOEST3-10 | 2026-09-01 12:29:14 | 49.80239 | 8.26958 | 77° | 16km/h | 31334m | 4.6m/s | -40.3°C | 2.4% | 10.2hPa | 2.7V | 00:00:00 | 00:00:00 | 00:00:00 | |
| DJ2DS-15 | 2026-09-01 12:29:13 | 49.80238 | 8.26955 | 58° | 22km/h | 31329m | 4.3m/s | -40.3°C | 2.4% | 10.2hPa | 2.7V | 00:00:00 | 01:51:58 | 00:00:00 | |
| DM0DOS-11 | 2026-09-01 12:29:11 | 49.80197 | 8.26910 | 17° | 33km/h | 31290m | 5m/s | -40.5°C | 2.5% | 10.3hPa | 2.7V | 03:21:36 | 01:51:51 | 00:00:00 | |
| BIOWL1-15 | 2026-09-01 12:29:11 | 49.80233 | 8.26946 | 44° | 22km/h | 31318m | 6.5m/s | -40.4°C | 0% | 10.3hPa | 2.6V | 03:22:06 | 01:51:56 | 00:00:00 | |
| AA1-15 | 2026-09-01 12:29:06 | 49.80189 | 8.26907 | 8° | 26km/h | 31285m | 6.4m/s | -40.6°C | 0% | 10.3hPa | 2.6V | 03:22:06 | 01:51:50 | 00:00:00 | |
| BIOWL9-15 | 2026-09-01 12:29:06 | 49.80189 | 8.26907 | 7° | 26km/h | 31285m | 6.4m/s | -40.6°C | 0.8% | 10.3hPa | 2.7V | 00:00:00 | 00:00:00 | 00:00:00 | |
| DL8DAS-15 | 2026-09-01 12:29:05 | 49.80190 | 8.26907 | 9° | 26km/h | 31285m | 6.4m/s | -40.6°C | 0.8% | 10.3hPa | 2.7V | 00:00:00 | 00:00:00 | 00:00:00 | |
| DL3AQ-11 | 2026-09-01 12:29:04 | 49.80181 | 8.26908 | 329° | 9km/h | 31273m | 5.6m/s | -40.3°C | 0.7% | 10.3hPa | 2.7V | 00:00:00 | 00:00:00 | 00:00:00 | |
| DM0DOS-11 | 2026-09-01 12:29:01 | 49.80181 | 8.26877 | 64° | 24km/h | 31233m | 5.8m/s | -40.3°C | 2.5% | 10.4hPa | 2.7V | 03:21:46 | 01:51:41 | 00:00:00 | |
| BIOWL1-15 | 2026-09-01 12:29:00 | 49.80183 | 8.26895 | 90° | 22km/h | 31243m | 5.2m/s | -40.4°C | 0% | 10.4hPa | 2.6V | 03:22:06 | 01:51:43 | 00:00:00 | |
| AA1-15 | 2026-09-01 12:28:56 | 49.80178 | 8.26870 | 47° | 22km/h | 31227m | 6.4m/s | -40.3°C | 0% | 10.4hPa | 2.7V | 03:22:06 | 01:51:40 | 00:00:00 | |
| DL8DAS-14 | 2026-09-01 12:28:55 | 49.80178 | 8.26870 | 47° | 20km/h | 31227m | 6.4m/s | -40.3°C | 0.7% | 10.4hPa | 2.6V | 00:00:00 | 00:00:00 | 00:00:00 | |
| DL3AQ-11 | 2026-09-01 12:28:51 | 49.80154 | 8.26863 | 9° | 16km/h | 31197m | 5.8m/s | -40.3°C | 0.7% | 10.5hPa | 2.6V | 00:00:00 | 00:00:00 | 00:00:00 | |
| DM0DOS-11 | 2026-09-01 12:28:49 | 49.80151 | 8.26836 | 126° | 9km/h | 31160m | 6m/s | -40.2°C | 2.5% | 10.5hPa | 2.6V | 03:21:58 | 01:51:29 | 00:00:00 | |
| BIOWL1-15 | 2026-09-01 12:28:49 | 49.80151 | 8.26861 | 32° | 15km/h | 31190m | 6.5m/s | -40.3°C | 0% | 10.5hPa | 2.6V | 03:22:06 | 01:51:34 | 00:00:00 | |
| DL1ZP-14 | 2026-09-01 12:28:48 | 49.80147 | 8.26851 | 86° | 15km/h | 31178m | 5.4m/s | -40.2°C | 0.7% | 10.5hPa | 2.7V | 00:00:00 | 00:00:00 | 00:00:00 | |
| AU51GT2 | 2026-09-01 12:28:46 | 49.80149 | 8.26840 | 117° | 13km/h | 31166m | 6.9m/s | -40.3°C | 0.7% | 10.5hPa | 2.7V | 00:00:00 | 00:00:00 | 00:00:00 | |
| AA1-15 | 2026-09-01 12:28:46 | 49.80149 | 8.26840 | 117° | 15km/h | 31166m | 6.9m/s | -40.3°C | 0% | 10.5hPa | 2.6V | 03:22:06 | 01:51:30 | 00:00:00 | |
| DL9SK-14 | 2026-09-01 12:28:45 | 49.80151 | 8.26836 | 126° | 9km/h | 31160m | 6.0m/s | -40.2°C | 0.7% | 10.5hPa | 2.7V | 00:00:00 | 00:00:00 | 00:00:00 | |
| BIOWL1-15 | 2026-09-01 12:28:39 | 49.80145 | 8.26823 | 32° | 20km/h | 31131m | 6.5m/s | -40.2°C | 0% | 10.5hPa | 2.7V | 03:22:06 | 01:51:24 | 00:00:00 | |
| DB0UT-9 | 2026-09-01 12:28:39 | 49.80145 | 8.26823 | 33° | 20km/h | 31131m | 6.5m/s | -40.2°C | 0.8% | 10.5hPa | 2.7V | 03:22:00 | 00:00:00 | 00:00:00 | |
| DJ2KF-10 | 2026-09-01 12:28:37 | 49.80136 | 8.26815 | 25° | 13km/h | 31120m | 4.8m/s | -40.3°C | 2.5% | 10.5hPa | 2.7V | 00:00:00 | 01:51:22 | 00:00:00 | |
| DM0DOS-11 | 2026-09-01 12:28:36 | 49.80124 | 8.26816 | 211° | 2km/h | 31091m | 4.9m/s | -40.4°C | 2.5% | 10.6hPa | 2.7V | 03:22:10 | 01:51:17 | 00:00:00 | |
| AA1-15 | 2026-09-01 12:28:35 | 49.80128 | 8.26812 | 357° | 13km/h | 31108m | 6.8m/s | -40.5°C | 0% | 10.6hPa | 2.6V | 03:22:57 | 01:51:20 | 00:00:00 | |
| BIOWL1-15 | 2026-09-01 12:28:29 | 49.80127 | 8.26806 | 95° | 18km/h | 31072m | 6.2m/s | -40.3°C | 0% | 10.6hPa | 2.6V | 03:22:57 | 01:51:14 | 00:00:00 | |
| AA1-15 | 2026-09-01 12:28:24 | 49.80119 | 8.26775 | 358° | 9km/h | 31037m | 5.2m/s | -40.5°C | 0% | 10.7hPa | 2.6V | 03:22:57 | 01:51:08 | 00:00:00 | |
| DM0DOS-11 | 2026-09-01 12:28:23 | 49.80116 | 8.26775 | 356° | 7km/h | 31032m | 4.7m/s | -40.6°C | 2.5% | 10.7hPa | 2.6V | 03:22:20 | 01:51:07 | 00:00:00 | |
| BIOWL1-15 | 2026-09-01 12:28:18 | 49.80110 | 8.26762 | 74° | 18km/h | 31008m | 5.5m/s | -40.6°C | 0% | 10.7hPa | 2.6V | 03:22:57 | 01:51:03 | 00:00:00 | |
| DL1ZP-14 | 2026-09-01 12:28:17 | 49.80108 | 8.26747 | 82° | 16km/h | 30997m | 5.6m/s | -40.8°C | 0.7% | 10.8hPa | 2.6V | 00:00:00 | 00:00:00 | 00:00:00 | |
| DM0DOS-11 | 2026-09-01 12:28:16 | 49.80109 | 8.26733 | 140° | 5km/h | 30973m | 5m/s | -40.7°C | 2.6% | 10.8hPa | 2.6V | 03:22:30 | 01:50:57 | 00:00:00 | |
| AA1-15 | 2026-09-01 12:28:12 | 49.80109 | 8.26733 | 141° | 5km/h | 30973m | 5m/s | -40.7°C | 0% | 10.8hPa | 2.6V | 03:22:57 | 01:50:57 | 00:00:00 | |
| BIOWL1-15 | 2026-09-01 12:28:08 | 49.80109 | 8.26718 | 72° | 20km/h | 30950m | 5.9m/s | -40.8°C | 0% | 10.8hPa | 2.7V | 03:22:57 | 01:50:53 | 00:00:00 | |
| AA1-15 | 2026-09-01 12:28:02 | 49.80090 | 8.26689 | 22° | 16km/h | 30914m | 5.3m/s | -41.1°C | 0% | 10.9hPa | 2.7V | 03:22:57 | 01:50:47 | 00:00:00 | |
| BIOWL1-15 | 2026-09-01 12:27:58 | 49.80074 | 8.26656 | 61° | 13km/h | 30870m | 5.5m/s | -41°C | 0% | 11hPa | 2.7V | 03:22:57 | 01:50:40 | 00:00:00 | |
| AA1-15 | 2026-09-01 12:27:52 | 49.80063 | 8.26627 | 60° | 31km/h | 30847m | 6.9m/s | 0°C | 0% | 11hPa | 2.7V | 03:22:57 | 01:50:36 | 00:00:00 | |
| BIOWL1-15 | 2026-09-01 12:27:47 | 49.80043 | 8.26592 | 30° | 26km/h | 30824m | 7.1m/s | -41.2°C | 0% | 11.1hPa | 2.6V | 03:22:57 | 01:50:32 | 00:00:00 | |
| DL1ZP-14 | 2026-09-01 12:27:45 | 49.80033 | 8.26587 | 3° | 15km/h | 30810m | 5.8m/s | -41.2°C | 0.7% | 11.1hPa | 2.7V | 00:00:00 | 00:00:00 | 00:00:00 | |
| AA1-15 | 2026-09-01 12:27:41 | 49.80025 | 8.26578 | 75° | 16km/h | 30786m | 5.3m/s | 0°C | 0% | 11.1hPa | 2.6V | 18:12:15 | 01:50:26 | 00:00:00 | |
| BIOWL1-15 | 2026-09-01 12:27:39 | 49.80016 | 8.26551 | 45° | 22km/h | 30763m | 6.5m/s | -41.2°C | 0% | 11.2hPa | 2.7V | 03:23:48 | 01:50:22 | 00:00:00 | |
| BIOWL1-15 | 2026-09-01 12:27:26 | 49.79973 | 8.26507 | 23° | 16km/h | 30698m | 5.5m/s | -41.3°C | 0% | 11.3hPa | 2.7V | 03:23:48 | 01:50:11 | 00:00:00 | |
| AA1-15 | 2026-09-01 12:27:25 | 49.79964 | 8.26497 | 50° | 27km/h | 30685m | 6.9m/s | 0°C | 0% | 11.3hPa | 2.6V | 18:12:15 | 01:50:09 | 00:00:00 | |
| BIOWL1-15 | 2026-09-01 12:27:16 | 49.79917 | 8.26449 | 2° | 16km/h | 30638m | 6.4m/s | -41.4°C | 0% | 11.4hPa | 2.6V | 03:23:48 | 01:50:01 | 00:00:00 | |
| AA1-15 | 2026-09-01 12:27:14 | 49.79909 | 8.26444 | 40° | 11km/h | 30621m | 4.8m/s | 0°C | 0% | 11.4hPa | 2.7V | 18:12:15 | 01:49:58 | 00:00:00 | |
| BIOWL1-15 | 2026-09-01 12:27:05 | 49.79877 | 8.26411 | 48° | 20km/h | 30573m | 5.4m/s | -41.5°C | 0% | 11.5hPa | 2.6V | 03:23:48 | 01:49:50 | 00:00:00 | |
| AA1-15 | 2026-09-01 12:27:03 | 49.79869 | 8.26402 | 24° | 20km/h | 30563m | 5.6m/s | 0°C | 0% | 11.5hPa | 2.7V | 18:12:15 | 01:49:48 | 00:00:00 | |
| BIOWL1-15 | 2026-09-01 12:26:54 | 49.79821 | 8.26383 | 31° | 24km/h | 30508m | 6.3m/s | -41.9°C | 0% | 11.6hPa | 2.6V | 03:23:48 | 01:49:39 | 00:00:00 | |
| DB0ND-19 | 2026-09-01 12:26:52 | 49.79803 | 8.26374 | 7° | 22km/h | 30491m | 5.1m/s | -41.7°C | 0.8% | 11.6hPa | 2.7V | 00:00:00 | 00:00:00 | 00:00:00 | |
| DL3AQ-11 | 2026-09-01 12:26:51 | 49.79798 | 8.26373 | 3° | 18km/h | 30485m | 5.8m/s | -41.8°C | 0.8% | 11.6hPa | 2.7V | 00:00:00 | 00:00:00 | 00:00:00 | |
| BIOWL1-15 | 2026-09-01 12:26:43 | 49.79777 | 8.26386 | 342° | 20km/h | 30443m | 5m/s | -41.8°C | 0% | 11.7hPa | 2.7V | 03:24:39 | 01:49:28 | 00:00:00 | |
| DL1XH-west | 2026-09-01 12:26:38 | 49.79757 | 8.26376 | 49° | 18km/h | 30415m | 4.8m/s | 0°C | 0% | 0hPa | 2.7V | 18:12:15 | 01:49:23 | 00:00:00 | |
| BIOWL1-15 | 2026-09-01 12:26:33 | 49.79738 | 8.26373 | 314° | 20km/h | 30387m | 5.3m/s | -41.8°C | 0% | 11.8hPa | 2.7V | 03:24:39 | 01:49:18 | 00:00:00 | |
| AA1-15 | 2026-09-01 12:26:27 | 49.79731 | 8.26402 | 348° | 9km/h | 30353m | 6.3m/s | 0°C | 0% | 11.9hPa | 2.7V | 18:12:15 | 01:49:12 | 00:00:00 | |
| BIOWL1-15 | 2026-09-01 12:26:22 | 49.79709 | 8.26392 | 31° | 15km/h | 30324m | 6.3m/s | -42.1°C | 0% | 11.9hPa | 2.6V | 03:24:39 | 01:49:07 | 00:00:00 | |
| BIOWL1-15 | 2026-09-01 12:26:13 | 49.79687 | 8.26421 | 39° | 18km/h | 30262m | 6m/s | -42°C | 0% | 12hPa | 2.6V | 03:24:39 | 01:48:56 | 00:00:00 | |
| AA1-15 | 2026-09-01 12:26:08 | 49.79665 | 8.26401 | 357° | 18km/h | 30234m | 5.4m/s | 0°C | 0% | 12.1hPa | 2.6V | 18:12:15 | 01:48:51 | 00:00:00 | |
| BIOWL1-15 | 2026-09-01 12:26:00 | 49.79646 | 8.26416 | 340° | 16km/h | 30200m | 5.4m/s | -42.4°C | 0% | 12.1hPa | 2.6V | 03:25:30 | 01:48:45 | 00:00:00 | |
| BIOWL1-15 | 2026-09-01 12:25:49 | 49.79604 | 8.26400 | 310° | 15km/h | 30137m | 5.9m/s | -42.6°C | 0% | 12.3hPa | 2.7V | 03:25:30 | 01:48:34 | 00:00:00 | |
| AA1-15 | 2026-09-01 12:25:41 | 49.79591 | 8.26408 | 42° | 16km/h | 30093m | 6.8m/s | 0°C | 0% | 12.3hPa | 2.6V | 18:12:15 | 01:48:26 | 00:00:00 | |
| BIOWL1-15 | 2026-09-01 12:25:39 | 49.79581 | 8.26396 | 42° | 13km/h | 30076m | 5.4m/s | -42.8°C | 0.1% | 12.4hPa | 2.7V | 03:25:30 | 01:48:23 | 00:00:00 | |
| BIOWL1-15 | 2026-09-01 12:25:28 | 49.79566 | 8.26415 | 6° | 7km/h | 30016m | 6m/s | -42.8°C | 0% | 12.5hPa | 2.7V | 03:25:30 | 01:48:12 | 00:00:00 | |
| AA1-15 | 2026-09-01 12:25:22 | 49.79556 | 8.26425 | 302° | 15km/h | 29982m | 5m/s | 0°C | 0% | 12.5hPa | 2.7V | 18:12:15 | 01:48:06 | 00:00:00 | |
| BIOWL1-15 | 2026-09-01 12:25:16 | 49.79556 | 8.26439 | 171° | 4km/h | 29954m | 5m/s | -43°C | 0.1% | 12.6hPa | 2.6V | 03:25:30 | 01:48:01 | 00:00:00 | |
| BIOWL1-15 | 2026-09-01 12:25:05 | 49.79546 | 8.26434 | 25° | 9km/h | 29882m | 4.7m/s | -43.1°C | 0.1% | 12.8hPa | 2.7V | 03:26:21 | 01:47:48 | 00:00:00 | |
| BIOWL1-15 | 2026-09-01 12:24:54 | 49.79526 | 8.26445 | 0° | 13km/h | 29831m | 4.6m/s | -43.2°C | 0.1% | 12.8hPa | 2.6V | 03:26:21 | 01:47:39 | 00:00:00 | |
| DL3AQ-11 | 2026-09-01 12:24:51 | 49.79519 | 8.26432 | 86° | 15km/h | 29808m | 5.3m/s | -43.3°C | 0.8% | 12.9hPa | 2.6V | 00:00:00 | 00:00:00 | 00:00:00 | |
| DD1CC8 | 2026-09-01 12:24:50 | 49.79519 | 8.26432 | 86° | 15km/h | 29808m | 5.3m/s | -43.3°C | 0.8% | 12.9hPa | 2.6V | 00:00:00 | 00:00:00 | 00:00:00 | |
| DB0ND-19 | 2026-09-01 12:24:48 | 49.79515 | 8.26414 | 44° | 16km/h | 29790m | 6.5m/s | -43.4°C | 0.8% | 12.9hPa | 2.6V | 00:00:00 | 00:00:00 | 00:00:00 | |
| DL8DAS-14 | 2026-09-01 12:24:47 | 49.79515 | 8.26414 | 44° | 16km/h | 29790m | 6.5m/s | -43.4°C | 0.8% | 12.9hPa | 2.6V | 00:00:00 | 00:00:00 | 00:00:00 | |
| BIOWL1-15 | 2026-09-01 12:24:43 | 49.79498 | 8.26408 | 354° | 7km/h | 29761m | 5.3m/s | -43.6°C | 0.1% | 13hPa | 2.6V | 03:26:21 | 01:47:27 | 00:00:00 | |
| DL1XH-west | 2026-09-01 12:24:34 | 49.79484 | 8.26367 | 90° | 24km/h | 29713m | 5m/s | 0°C | 0% | 0hPa | 2.6V | 03:28:03 | 01:47:19 | 00:00:00 | |
| BIOWL1-15 | 2026-09-01 12:24:31 | 49.79465 | 8.26342 | 352° | 22km/h | 29679m | 5.4m/s | -43.7°C | 0.2% | 13.1hPa | 2.6V | 03:26:21 | 01:47:13 | 00:00:00 | |
| AA1-15 | 2026-09-01 12:24:24 | 49.79452 | 8.26343 | 55° | 7km/h | 29657m | 4.9m/s | 0°C | 0% | 13.2hPa | 2.6V | 18:12:15 | 01:47:09 | 00:00:00 | |
| BIOWL1-15 | 2026-09-01 12:24:21 | 49.79447 | 8.26329 | 64° | 20km/h | 29639m | 6.3m/s | -43.6°C | 0.1% | 13.2hPa | 2.7V | 03:26:21 | 01:47:06 | 00:00:00 | |
| BIOWL1-15 | 2026-09-01 12:24:11 | 49.79415 | 8.26317 | 284° | 5km/h | 29567m | 6.7m/s | -43.9°C | 0.1% | 13.4hPa | 2.7V | 03:27:12 | 01:46:53 | 00:00:00 | |
| AA1-15 | 2026-09-01 12:24:03 | 49.79417 | 8.26298 | 68° | 18km/h | 29536m | 6.2m/s | 0°C | 0% | 13.4hPa | 2.7V | 18:12:15 | 01:46:48 | 00:00:00 | |
| BIOWL1-15 | 2026-09-01 12:23:57 | 49.79404 | 8.26286 | 275° | 5km/h | 29503m | 5.3m/s | -43.9°C | 0.1% | 13.5hPa | 2.7V | 03:27:12 | 01:46:42 | 00:00:00 | |
| DL1XH-west | 2026-09-01 12:23:48 | 49.79406 | 8.26283 | 170° | 9km/h | 29450m | 5.3m/s | 0°C | 0% | 0hPa | 2.6V | 03:28:03 | 01:46:33 | 00:00:00 | |
| DD1CC8 | 2026-09-01 12:23:48 | 49.79406 | 8.26283 | 170° | 9km/h | 29450m | 5.3m/s | -44.0°C | 0.9% | 13.6hPa | 2.6V | 00:00:00 | 00:00:00 | 00:00:00 | |
| DB0ND-19 | 2026-09-01 12:23:46 | 49.79410 | 8.26279 | 88° | 5km/h | 29433m | 6.9m/s | -44.1°C | 0.8% | 13.7hPa | 2.6V | 00:00:00 | 00:00:00 | 00:00:00 | |
| BIOWL1-15 | 2026-09-01 12:23:46 | 49.79410 | 8.26281 | 139° | 5km/h | 29439m | 6.6m/s | -44.1°C | 0.2% | 13.6hPa | 2.6V | 03:27:12 | 01:46:31 | 00:00:00 | |
| DL8DAS-14 | 2026-09-01 12:23:45 | 49.79410 | 8.26279 | 88° | 5km/h | 29433m | 6.9m/s | -44.1°C | 0.8% | 13.7hPa | 2.6V | 00:00:00 | 00:00:00 | 00:00:00 | |
| BIOWL1-15 | 2026-09-01 12:23:36 | 49.79408 | 8.26280 | 16° | 2km/h | 29378m | 6.3m/s | -44.5°C | 0.2% | 13.8hPa | 2.6V | 03:27:12 | 01:46:21 | 00:00:00 | |
| DL1XH-west | 2026-09-01 12:23:33 | 49.79409 | 8.26280 | 199° | 4km/h | 29361m | 6.3m/s | 0°C | 0% | 0hPa | 2.7V | 03:28:03 | 01:46:18 | 00:00:00 | |
| BIOWL1-15 | 2026-09-01 12:23:26 | 49.79400 | 8.26264 | 349° | 7km/h | 29302m | 6.4m/s | -44.6°C | 0.3% | 13.9hPa | 2.6V | 03:28:03 | 01:46:08 | 00:00:00 | |
| DL1XH-west | 2026-09-01 12:23:19 | 49.79396 | 8.26269 | 48° | 2km/h | 29279m | 7.1m/s | 0°C | 0% | 0hPa | 2.6V | 03:28:03 | 01:46:04 | 00:00:00 | |
| BIOWL1-15 | 2026-09-01 12:23:14 | 49.79386 | 8.26229 | 145° | 5km/h | 29195m | 5.8m/s | -44.5°C | 0.2% | 14.2hPa | 2.7V | 03:28:03 | 01:45:50 | 00:00:00 | |
| DL1XH-west | 2026-09-01 12:23:04 | 49.79387 | 8.26228 | 170° | 4km/h | 29190m | 4.5m/s | 0°C | 0% | 0hPa | 2.7V | 03:28:03 | 01:45:49 | 00:00:00 | |
| BIOWL1-15 | 2026-09-01 12:23:00 | 49.79384 | 8.26215 | 65° | 15km/h | 29161m | 5.1m/s | -44.7°C | 0.2% | 14.2hPa | 2.7V | 03:28:03 | 01:45:44 | 00:00:00 | |
| AA1-15 | 2026-09-01 12:22:58 | 49.79383 | 8.26210 | 69° | 13km/h | 29155m | 6.4m/s | 0°C | 0% | 14.2hPa | 2.7V | 18:12:15 | 01:45:43 | 00:00:00 | |
| DL1XH-west | 2026-09-01 12:22:51 | 49.79381 | 8.26187 | 9° | 4km/h | 29107m | 6.1m/s | 0°C | 0% | 0hPa | 2.7V | 03:28:03 | 01:45:35 | 00:00:00 | |
| BIOWL1-15 | 2026-09-01 12:22:49 | 49.79380 | 8.26187 | 315° | 5km/h | 29100m | 7.3m/s | -44.7°C | 0.3% | 14.3hPa | 2.7V | 03:28:03 | 01:45:34 | 00:00:00 | |
| DD1CC8 | 2026-09-01 12:22:46 | 49.79375 | 8.26195 | 11° | 7km/h | 29075m | 7.1m/s | -44.6°C | 0.9% | 14.4hPa | 2.6V | 00:00:00 | 00:00:00 | 00:00:00 | |
| DL1XH-west | 2026-09-01 12:22:39 | 49.79366 | 8.26183 | 217° | 4km/h | 29039m | 5.5m/s | 0°C | 0% | 0hPa | 2.6V | 03:28:03 | 01:45:24 | 00:00:00 | |
| BIOWL1-15 | 2026-09-01 12:22:28 | 49.79366 | 8.26179 | 14° | 5km/h | 28975m | 6m/s | -44.7°C | 0.3% | 14.6hPa | 2.6V | 03:28:54 | 01:45:13 | 00:00:00 | |
| DL1XH-west | 2026-09-01 12:22:24 | 49.79368 | 8.26163 | 129° | 16km/h | 28950m | 6.1m/s | 0°C | 0% | 0hPa | 2.7V | 18:12:15 | 01:45:09 | 00:00:00 | |
| BIOWL1-15 | 2026-09-01 12:22:19 | 49.79386 | 8.26136 | 108° | 15km/h | 28908m | 5.3m/s | -45.1°C | 0.3% | 14.8hPa | 2.6V | 03:28:54 | 01:45:02 | 00:00:00 | |
| DL1XH-west | 2026-09-01 12:22:13 | 49.79390 | 8.26121 | 131° | 7km/h | 28884m | 5.2m/s | 0°C | 0% | 0hPa | 2.7V | 18:12:15 | 01:44:58 | 00:00:00 | |
| BIOWL1-15 | 2026-09-01 12:22:06 | 49.79392 | 8.26068 | 70° | 16km/h | 28834m | 4.8m/s | -44.9°C | 0.3% | 15hPa | 2.6V | 03:28:54 | 01:44:49 | 00:00:00 | |
| AA1-15 | 2026-09-01 12:22:02 | 49.79390 | 8.26055 | 94° | 20km/h | 28821m | 6.7m/s | 0°C | 0% | 15hPa | 2.7V | 18:12:15 | 01:44:47 | 00:00:00 | |
| BIOWL1-15 | 2026-09-01 12:21:55 | 49.79390 | 8.26008 | 72° | 20km/h | 28780m | 7.1m/s | -45.2°C | 0.4% | 15.1hPa | 2.6V | 03:28:54 | 01:44:40 | 00:00:00 | |
| BIOWL9-15 | 2026-09-01 12:21:51 | 49.79380 | 8.25975 | 55° | 22km/h | 28756m | 7.2m/s | -45.0°C | 0.9% | 15.1hPa | 2.7V | 00:00:00 | 00:00:00 | 00:00:00 | |
| DO1YAY-16 | 2026-09-01 12:21:50 | 49.79374 | 8.25962 | 51° | 18km/h | 28744m | 5.0m/s | -44.8°C | 0.9% | 15.1hPa | 2.7V | 00:00:00 | 00:00:00 | 00:00:00 | |
| BIOWL1-15 | 2026-09-01 12:21:45 | 49.79359 | 8.25910 | 51° | 22km/h | 28687m | 7m/s | -44.8°C | 0.2% | 15.3hPa | 2.7V | 03:29:45 | 01:44:24 | 00:00:00 | |
| AA1-15 | 2026-09-01 12:21:44 | 49.79367 | 8.25927 | 88° | 13km/h | 28715m | 5.6m/s | 0°C | 0% | 15.2hPa | 2.6V | 18:12:15 | 01:44:29 | 00:00:00 | |
| BIOWL1-15 | 2026-09-01 12:21:34 | 49.79322 | 8.25847 | 46° | 24km/h | 28646m | 5.5m/s | -45.1°C | 0.2% | 15.4hPa | 2.6V | 03:29:45 | 01:44:17 | 00:00:00 | |
| BIOWL1-15 | 2026-09-01 12:21:22 | 49.79267 | 8.25785 | 20° | 33km/h | 28565m | 6.1m/s | -45.7°C | 0.3% | 15.6hPa | 2.7V | 03:29:45 | 01:44:03 | 00:00:00 | |
| BIOWL1-15 | 2026-09-01 12:21:14 | 49.79246 | 8.25776 | 171° | 4km/h | 28529m | 5.2m/s | -45.6°C | 0.4% | 15.7hPa | 2.6V | 03:29:45 | 01:43:57 | 00:00:00 | |
| BIOWL1-15 | 2026-09-01 12:21:01 | 49.79199 | 8.25761 | 348° | 18km/h | 28466m | 6m/s | -45.6°C | 0.3% | 15.8hPa | 2.6V | 03:29:45 | 01:43:46 | 00:00:00 | |
| BIOWL1-15 | 2026-09-01 12:20:53 | 49.79175 | 8.25784 | 351° | 22km/h | 28410m | 5.1m/s | -45.7°C | 0.4% | 15.9hPa | 2.6V | 03:30:36 | 01:43:36 | 00:00:00 | |
| AA1-15 | 2026-09-01 12:20:45 | 49.79157 | 8.25779 | 354° | 5km/h | 28376m | 6.8m/s | 0°C | 0% | 16hPa | 2.6V | 18:12:15 | 01:43:30 | 00:00:00 | |
| BIOWL1-15 | 2026-09-01 12:20:42 | 49.79154 | 8.25788 | 216° | 4km/h | 28345m | 6.7m/s | -46°C | 0.4% | 16.1hPa | 2.6V | 03:30:36 | 01:43:25 | 00:00:00 | |
| AA1-15 | 2026-09-01 12:20:32 | 49.79150 | 8.25797 | 4° | 4km/h | 28288m | 5.3m/s | 0°C | 0% | 16.3hPa | 2.6V | 18:12:15 | 01:43:15 | 00:00:00 | |
| BIOWL1-15 | 2026-09-01 12:20:30 | 49.79139 | 8.25798 | 26° | 7km/h | 28259m | 6.8m/s | -46.2°C | 0.4% | 16.3hPa | 2.6V | 03:30:36 | 01:43:10 | 00:00:00 | |
| GOEST3-10 | 2026-09-01 12:20:29 | 49.79149 | 8.25797 | 348° | 9km/h | 28282m | 6.7m/s | -46.2°C | 3.1% | 16.2hPa | 2.7V | 00:00:00 | 00:00:00 | 00:00:00 | |
| BIOWL1-15 | 2026-09-01 12:20:21 | 49.79114 | 8.25752 | 38° | 22km/h | 28178m | 4.8m/s | -46.5°C | 0.4% | 16.5hPa | 2.7V | 03:30:36 | 01:42:56 | 00:00:00 | |
| AA1-15 | 2026-09-01 12:20:10 | 49.79107 | 8.25740 | 53° | 20km/h | 28167m | 6.7m/s | 0°C | 0% | 16.6hPa | 2.7V | 18:12:15 | 01:42:54 | 00:00:00 | |
| BIOWL1-15 | 2026-09-01 12:20:06 | 49.79096 | 8.25713 | 43° | 13km/h | 28137m | 4.8m/s | -46.4°C | 0.4% | 16.6hPa | 2.7V | 03:31:27 | 01:42:49 | 00:00:00 | |
| BIOWL1-15 | 2026-09-01 12:19:54 | 49.79079 | 8.25674 | 33° | 20km/h | 28083m | 4.9m/s | -46.3°C | 0.5% | 16.8hPa | 2.6V | 03:31:27 | 01:42:39 | 00:00:00 | |
| AA1-15 | 2026-09-01 12:19:52 | 49.79072 | 8.25667 | 35° | 13km/h | 28071m | 5.9m/s | 0°C | 0% | 16.8hPa | 2.7V | 18:12:15 | 01:42:37 | 00:00:00 | |
| BIOWL9-15 | 2026-09-01 12:19:47 | 49.79058 | 8.25656 | 33° | 13km/h | 28039m | 4.7m/s | -46.4°C | 0.9% | 16.9hPa | 2.6V | 00:00:00 | 00:00:00 | 00:00:00 | |
| DL9PN | 2026-09-01 12:19:46 | 49.79058 | 8.25656 | 33° | 13km/h | 28039m | 4.7m/s | -46.4°C | 0.9% | 16.9hPa | 2.6V | 00:00:00 | 00:00:00 | 00:00:00 | |
| BIOWL1-15 | 2026-09-01 12:19:45 | 49.79055 | 8.25647 | 109° | 7km/h | 28021m | 6.4m/s | -46.3°C | 0.4% | 16.9hPa | 2.6V | 03:31:27 | 01:42:28 | 00:00:00 | |
| AA1-15 | 2026-09-01 12:19:41 | 49.79056 | 8.25643 | 100° | 4km/h | 28010m | 5m/s | 0°C | 0% | 16.9hPa | 2.6V | 18:12:15 | 01:42:26 | 00:00:00 | |
| BIOWL1-15 | 2026-09-01 12:19:32 | 49.79033 | 8.25652 | 334° | 11km/h | 27960m | 6.2m/s | -46.3°C | 0.5% | 17.1hPa | 2.6V | 03:31:27 | 01:42:17 | 00:00:00 | |
| AA1-15 | 2026-09-01 12:19:31 | 49.79030 | 8.25654 | 342° | 13km/h | 27954m | 6.4m/s | 0°C | 0% | 17.1hPa | 2.6V | 18:12:15 | 01:42:16 | 00:00:00 | |
| AA1-15 | 2026-09-01 12:19:21 | 49.79003 | 8.25643 | 13° | 20km/h | 27885m | 6.4m/s | 0°C | 0% | 17.3hPa | 2.7V | 18:12:15 | 01:42:04 | 00:00:00 | |
| BIOWL1-15 | 2026-09-01 12:19:21 | 49.78999 | 8.25642 | 5° | 18km/h | 27879m | 5.4m/s | -46.2°C | 0.4% | 17.3hPa | 2.6V | 03:31:27 | 01:42:03 | 00:00:00 | |
| BIOWL1-15 | 2026-09-01 12:19:13 | 49.78977 | 8.25621 | 36° | 15km/h | 27816m | 6.6m/s | -46.5°C | 0.5% | 17.5hPa | 2.7V | 03:32:18 | 01:41:52 | 00:00:00 | |
| AA1-15 | 2026-09-01 12:19:05 | 49.78961 | 8.25613 | 357° | 15km/h | 27795m | 6.5m/s | 0°C | 0% | 17.5hPa | 2.7V | 18:12:15 | 01:41:48 | 00:00:00 | |
| BIOWL1-15 | 2026-09-01 12:19:01 | 49.78934 | 8.25629 | 333° | 26km/h | 27705m | 5.1m/s | -46.8°C | 0.5% | 17.8hPa | 2.7V | 03:32:18 | 01:41:32 | 00:00:00 | |
| AA1-15 | 2026-09-01 12:18:54 | 49.78954 | 8.25607 | 244° | 5km/h | 27737m | 5.6m/s | 0°C | 0% | 17.7hPa | 2.7V | 18:12:15 | 01:41:38 | 00:00:00 | |
| DL3AQ-11 | 2026-09-01 12:18:50 | 49.78950 | 8.25617 | 324° | 16km/h | 27721m | 6.9m/s | -46.7°C | 1.0% | 17.7hPa | 2.7V | 00:00:00 | 00:00:00 | 00:00:00 | |
| BIOWL1-15 | 2026-09-01 12:18:47 | 49.78915 | 8.25665 | 299° | 16km/h | 27641m | 5.3m/s | -47°C | 0.5% | 17.9hPa | 2.7V | 03:32:18 | 01:41:21 | 00:00:00 | |
| BIOWL9-15 | 2026-09-01 12:18:45 | 49.78923 | 8.25643 | 297° | 11km/h | 27687m | 5.3m/s | -46.8°C | 1.0% | 17.8hPa | 2.6V | 00:00:00 | 00:00:00 | 00:00:00 | |
| DL9PN | 2026-09-01 12:18:44 | 49.78923 | 8.25643 | 297° | 11km/h | 27687m | 5.3m/s | -46.8°C | 1.0% | 17.8hPa | 2.6V | 00:00:00 | 00:00:00 | 00:00:00 | |
| AA1-15 | 2026-09-01 12:18:37 | 49.78917 | 8.25660 | 290° | 13km/h | 27646m | 6m/s | 0°C | 0% | 17.9hPa | 2.6V | 18:12:15 | 01:41:22 | 00:00:00 | |
| BIOWL1-15 | 2026-09-01 12:18:36 | 49.78898 | 8.25687 | 333° | 26km/h | 27617m | 4.5m/s | -47.1°C | 0.5% | 18hPa | 2.7V | 03:32:18 | 01:41:17 | 00:00:00 | |
| BIOWL1-15 | 2026-09-01 12:18:24 | 49.78883 | 8.25725 | 295° | 15km/h | 27560m | 5.4m/s | -47.6°C | 0.6% | 18.1hPa | 2.7V | 03:33:09 | 01:41:07 | 00:00:00 | |
| DL8OAI-8 | 2026-09-01 12:18:23 | 49.78886 | 8.25716 | 298° | 11km/h | 27571m | 6.0m/s | -47.4°C | 1.0% | 18.1hPa | 2.7V | 03:32:00 | 00:00:00 | 00:00:00 | |
| DM7RM-13 | 2026-09-01 12:18:21 | 49.78882 | 8.25730 | 289° | 16km/h | 27555m | 7.0m/s | -47.6°C | 1.1% | 18.2hPa | 2.7V | 03:33:00 | 00:00:00 | 00:00:00 | |
| DL8DAS-15 | 2026-09-01 12:18:18 | 49.78880 | 8.25742 | 290° | 16km/h | 27543m | 4.6m/s | -47.5°C | 1.0% | 18.2hPa | 2.7V | 00:00:00 | 00:00:00 | 00:00:00 | |
| BIOWL1-15 | 2026-09-01 12:18:14 | 49.78872 | 8.25804 | 294° | 13km/h | 27431m | 4.6m/s | -47.5°C | 0.5% | 18.5hPa | 2.7V | 03:33:09 | 01:40:45 | 00:00:00 | |
| BIOWL1-15 | 2026-09-01 12:18:02 | 49.78871 | 8.25809 | 268° | 13km/h | 27426m | 6.6m/s | -47.4°C | 0.6% | 18.5hPa | 2.6V | 03:33:09 | 01:40:44 | 00:00:00 | |
| AA1-15 | 2026-09-01 12:17:50 | 49.78887 | 8.25838 | 288° | 13km/h | 27373m | 6.8m/s | 0°C | 0% | 18.7hPa | 2.7V | 18:12:15 | 01:40:35 | 00:00:00 | |
| BIOWL1-15 | 2026-09-01 12:17:49 | 49.78886 | 8.25844 | 279° | 16km/h | 27367m | 6.3m/s | -47.4°C | 0.5% | 18.7hPa | 2.7V | 03:33:09 | 01:40:34 | 00:00:00 | |
| BIOWL1-15 | 2026-09-01 12:17:39 | 49.78906 | 8.25874 | 191° | 11km/h | 27304m | 5.1m/s | -47.2°C | 0.6% | 18.9hPa | 2.6V | 03:33:09 | 01:40:23 | 00:00:00 | |
| BIOWL1-15 | 2026-09-01 12:17:28 | 49.78904 | 8.25896 | 156° | 9km/h | 27238m | 6.2m/s | -47.2°C | 0.5% | 19.1hPa | 2.7V | 03:34:00 | 01:40:12 | 00:00:00 | |
| DL1XH-west | 2026-09-01 12:17:26 | 49.78908 | 8.25891 | 138° | 7km/h | 27227m | 5m/s | -47.1°C | 0.5% | 19.1hPa | 2.6V | 03:38:15 | 01:40:10 | 00:00:00 | |
| AA1-15 | 2026-09-01 12:17:19 | 49.78898 | 8.25909 | 329° | 13km/h | 27173m | 6.6m/s | 0°C | 0% | 19.3hPa | 2.6V | 18:12:15 | 01:40:01 | 00:00:00 | |
| BIOWL1-15 | 2026-09-01 12:17:18 | 49.78896 | 8.25911 | 310° | 11km/h | 27166m | 7.1m/s | -47.1°C | 0.5% | 19.3hPa | 2.7V | 03:34:00 | 01:40:00 | 00:00:00 | |
| DL1XH-west | 2026-09-01 12:17:14 | 49.78895 | 8.25914 | 294° | 9km/h | 27160m | 5.2m/s | -47°C | 0.5% | 19.3hPa | 2.7V | 03:38:15 | 01:39:59 | 00:00:00 | |
| BIOWL1-15 | 2026-09-01 12:17:07 | 49.78878 | 8.25930 | 336° | 15km/h | 27088m | 5.1m/s | -47.1°C | 0.6% | 19.5hPa | 2.7V | 03:34:00 | 01:39:47 | 00:00:00 | |
| DL1XH-west | 2026-09-01 12:17:03 | 49.78882 | 8.25928 | 339° | 15km/h | 27093m | 5.8m/s | -47.1°C | 0.6% | 19.5hPa | 2.7V | 03:38:15 | 01:39:48 | 00:00:00 | |
| BIOWL1-15 | 2026-09-01 12:16:56 | 49.78868 | 8.25941 | 104° | 5km/h | 27046m | 5.1m/s | -47°C | 0.6% | 19.6hPa | 2.6V | 03:34:00 | 01:39:40 | 00:00:00 | |
| DL1XH-west | 2026-09-01 12:16:51 | 49.78862 | 8.25946 | 330° | 16km/h | 27017m | 5.1m/s | -46.9°C | 0.5% | 19.7hPa | 2.6V | 03:38:15 | 01:39:35 | 00:00:00 | |
| BIOWL1-15 | 2026-09-01 12:16:45 | 49.78841 | 8.25957 | 311° | 7km/h | 26981m | 5.9m/s | -46.7°C | 0.5% | 19.8hPa | 2.6V | 03:34:00 | 01:39:29 | 00:00:00 | |
| DL1XH-west | 2026-09-01 12:16:36 | 49.78835 | 8.25960 | 325° | 16km/h | 26934m | 5.1m/s | -46.7°C | 0.5% | 20hPa | 2.7V | 03:38:15 | 01:39:21 | 00:00:00 | |
| BIOWL1-15 | 2026-09-01 12:16:35 | 49.78810 | 8.25973 | 341° | 16km/h | 26905m | 6.2m/s | -46.7°C | 0.5% | 20.1hPa | 2.6V | 03:34:51 | 01:39:16 | 00:00:00 | |
| AA1-15 | 2026-09-01 12:16:29 | 49.78805 | 8.25980 | 301° | 4km/h | 26887m | 5.3m/s | 0°C | 0% | 0hPa | 2.7V | 18:12:15 | 01:39:13 | 00:00:00 | |
| DL1XH-west | 2026-09-01 12:16:22 | 49.78792 | 8.25983 | 339° | 20km/h | 26846m | 5.2m/s | -46.7°C | 0.5% | 20.3hPa | 2.7V | 03:38:15 | 01:39:06 | 00:00:00 | |
| AA1-15 | 2026-09-01 12:16:18 | 49.78775 | 8.25988 | 358° | 22km/h | 26829m | 4.3m/s | 0°C | 0% | 0hPa | 2.6V | 18:12:15 | 01:39:03 | 00:00:00 | |
| BIOWL1-15 | 2026-09-01 12:16:12 | 49.78743 | 8.26000 | 325° | 7km/h | 26739m | 4.7m/s | -47.4°C | 0.5% | 20.6hPa | 2.6V | 03:34:51 | 01:38:47 | 00:00:00 | |
| DL1XH-west | 2026-09-01 12:16:10 | 49.78760 | 8.25983 | 82° | 7km/h | 26784m | 5m/s | -46.7°C | 0.4% | 20.4hPa | 2.6V | 03:38:15 | 01:38:55 | 00:00:00 | |
| AA1-15 | 2026-09-01 12:16:08 | 49.78759 | 8.25981 | 320° | 5km/h | 26773m | 6.7m/s | 0°C | 0% | 0hPa | 2.6V | 18:12:15 | 01:38:53 | 00:00:00 | |
| DL1XH-west | 2026-09-01 12:15:59 | 49.78749 | 8.26002 | 147° | 13km/h | 26712m | 5.9m/s | -47.3°C | 0.5% | 20.7hPa | 2.6V | 03:38:15 | 01:38:42 | 00:00:00 | |
| AA1-15 | 2026-09-01 12:15:58 | 49.78752 | 8.25998 | 122° | 13km/h | 26707m | 5.5m/s | 0°C | 0% | 0hPa | 2.6V | 18:12:15 | 01:38:41 | 00:00:00 | |
| DL1ZP-14 | 2026-09-01 12:15:52 | 49.78735 | 8.25996 | 334° | 27km/h | 26676m | 4.3m/s | -47.2°C | 1.0% | 20.8hPa | 2.7V | 00:00:00 | 00:00:00 | 00:00:00 | |
| SSTOLZ84 | 2026-09-01 12:15:51 | 49.78735 | 8.25996 | 334° | 27km/h | 26676m | 4.3m/s | -47.2°C | 1.0% | 20.8hPa | 2.7V | 00:00:00 | 00:00:00 | 00:00:00 | |
| DJ2DS-15 | 2026-09-01 12:15:50 | 49.78735 | 8.25996 | 335° | 18km/h | 26676m | 4.2m/s | -47.1°C | 3.3% | 20.7hPa | 2.7V | 00:00:00 | 01:38:35 | 00:00:00 | |
| GOEST3-10 | 2026-09-01 12:15:49 | 49.78728 | 8.26001 | 340° | 24km/h | 26672m | 5.1m/s | -47.0°C | 3.3% | 20.8hPa | 2.6V | 00:00:00 | 01:38:34 | 00:00:00 | |
| DL1XH-west | 2026-09-01 12:15:49 | 49.78728 | 8.26001 | 339° | 29km/h | 26672m | 5.1m/s | -47.1°C | 0.5% | 20.8hPa | 2.6V | 03:38:15 | 01:38:34 | 00:00:00 | |
| BIOWL1-15 | 2026-09-01 12:15:48 | 49.78650 | 8.26028 | 5° | 18km/h | 26570m | 5.7m/s | -47.2°C | 0.5% | 21.1hPa | 2.7V | 03:35:42 | 01:38:15 | 00:00:00 | |
| AA1-15 | 2026-09-01 12:15:46 | 49.78705 | 8.26004 | 14° | 15km/h | 26650m | 4.5m/s | 0°C | 0% | 0hPa | 2.7V | 18:12:15 | 01:38:30 | 00:00:00 | |
| DL1XH-west | 2026-09-01 12:15:39 | 49.78692 | 8.26008 | 347° | 11km/h | 26618m | 5.6m/s | -47.2°C | 0.6% | 21hPa | 2.7V | 03:38:15 | 01:38:24 | 00:00:00 | |
| GOEST3-10 | 2026-09-01 12:15:39 | 49.78692 | 8.26008 | 347° | 18km/h | 26619m | 5.6m/s | -47.1°C | 3.3% | 20.9hPa | 2.6V | 00:00:00 | 01:38:24 | 00:00:00 | |
| BIOWL9-15 | 2026-09-01 12:15:38 | 49.78689 | 8.26009 | 355° | 13km/h | 26613m | 5.5m/s | -47.2°C | 1.0% | 21.0hPa | 2.6V | 00:00:00 | 00:00:00 | 00:00:00 | |
| BIOWL1-15 | 2026-09-01 12:15:37 | 49.78576 | 8.26058 | 332° | 16km/h | 26465m | 5.2m/s | -47.4°C | 0.5% | 21.5hPa | 2.6V | 03:35:42 | 01:37:56 | 00:00:00 | |
| AA1-15 | 2026-09-01 12:15:35 | 49.78660 | 8.26026 | 337° | 20km/h | 26582m | 4.7m/s | 0°C | 0% | 0hPa | 2.6V | 18:12:15 | 01:38:17 | 00:00:00 | |
| DL1XH-west | 2026-09-01 12:15:27 | 49.78636 | 8.26027 | 354° | 18km/h | 26554m | 6.3m/s | -47.3°C | 0.5% | 21.2hPa | 2.6V | 03:38:15 | 01:38:12 | 00:00:00 | |
| BIOWL1-15 | 2026-09-01 12:15:26 | 49.78573 | 8.26061 | 326° | 15km/h | 26460m | 4.6m/s | -47.5°C | 0.5% | 21.5hPa | 2.7V | 03:35:42 | 01:37:55 | 00:00:00 | |
| AA1-15 | 2026-09-01 12:15:25 | 49.78628 | 8.26030 | 340° | 18km/h | 26543m | 5m/s | 0°C | 0% | 0hPa | 2.7V | 18:12:15 | 01:38:10 | 00:00:00 | |
| DL1XH-west | 2026-09-01 12:15:18 | 49.78598 | 8.26052 | 343° | 15km/h | 26492m | 6.4m/s | -47.3°C | 0.5% | 21.4hPa | 2.6V | 03:38:15 | 01:38:01 | 00:00:00 | |
| AA1-15 | 2026-09-01 12:15:15 | 49.78589 | 8.26054 | 359° | 18km/h | 26481m | 4.5m/s | 0°C | 0% | 0hPa | 2.7V | 18:12:15 | 01:37:59 | 00:00:00 | |
| BIOWL1-15 | 2026-09-01 12:15:12 | 49.78570 | 8.26064 | 322° | 11km/h | 26455m | 4.9m/s | -47.4°C | 0.5% | 21.5hPa | 2.7V | 03:35:42 | 01:37:54 | 00:00:00 | |
| DL1XH-west | 2026-09-01 12:15:06 | 49.78568 | 8.26070 | 227° | 7km/h | 26433m | 5.5m/s | -47.6°C | 0.5% | 21.6hPa | 2.6V | 03:38:15 | 01:37:50 | 00:00:00 | |
| AA1-15 | 2026-09-01 12:15:04 | 49.78571 | 8.26076 | 246° | 11km/h | 26422m | 4.6m/s | 0°C | 0% | 0hPa | 2.7V | 18:12:15 | 01:37:48 | 00:00:00 | |
| BIOWL1-15 | 2026-09-01 12:15:01 | 49.78563 | 8.26091 | 262° | 9km/h | 26373m | 4.6m/s | -47.7°C | 0.5% | 21.8hPa | 2.6V | 03:36:33 | 01:37:39 | 00:00:00 | |
| DL1XH-west | 2026-09-01 12:14:53 | 49.78563 | 8.26094 | 240° | 9km/h | 26369m | 4.9m/s | -47.7°C | 0.5% | 21.8hPa | 2.7V | 03:38:15 | 01:37:38 | 00:00:00 | |
| BIOWL1-15 | 2026-09-01 12:14:51 | 49.78570 | 8.26098 | 181° | 11km/h | 26351m | 5.1m/s | -47.9°C | 0.6% | 21.9hPa | 2.6V | 03:36:33 | 01:37:35 | 00:00:00 | |
| AA1-15 | 2026-09-01 12:14:45 | 49.78576 | 8.26104 | 337° | 5km/h | 26323m | 6.5m/s | 0°C | 0% | 0hPa | 2.7V | 18:12:15 | 01:37:30 | 00:00:00 | |
| BIOWL1-15 | 2026-09-01 12:14:41 | 49.78567 | 8.26104 | 277° | 5km/h | 26296m | 6.2m/s | -48.1°C | 0.6% | 22hPa | 2.7V | 03:36:33 | 01:37:25 | 00:00:00 | |
| BIOWL1-15 | 2026-09-01 12:14:31 | 49.78567 | 8.26117 | 359° | 15km/h | 26228m | 4.8m/s | -48.2°C | 0.6% | 22.3hPa | 2.6V | 03:36:33 | 01:37:13 | 00:00:00 | |
| BIOWL1-15 | 2026-09-01 12:14:20 | 49.78539 | 8.26119 | 347° | 18km/h | 26155m | 6.4m/s | -48.5°C | 0.7% | 22.5hPa | 2.7V | 03:36:33 | 01:37:00 | 00:00:00 | |
| BIOWL1-15 | 2026-09-01 12:14:10 | 49.78517 | 8.26127 | 4° | 7km/h | 26122m | 5.3m/s | -48.5°C | 0.7% | 22.6hPa | 2.7V | 03:36:33 | 01:36:54 | 00:00:00 | |
| BIOWL1-15 | 2026-09-01 12:13:59 | 49.78484 | 8.26134 | 346° | 24km/h | 26058m | 4.4m/s | -48.5°C | 0.6% | 22.8hPa | 2.7V | 03:37:24 | 01:36:42 | 00:00:00 | |
| BIOWL1-15 | 2026-09-01 12:13:48 | 49.78474 | 8.26132 | 317° | 5km/h | 25995m | 4.8m/s | -48.6°C | 0.6% | 23.1hPa | 2.6V | 03:37:24 | 01:36:31 | 00:00:00 | |
| DL1XH-west | 2026-09-01 12:13:44 | 49.78470 | 8.26135 | 345° | 13km/h | 25983m | 6.9m/s | -48.6°C | 0.7% | 23.1hPa | 2.6V | 03:38:15 | 01:36:29 | 00:00:00 | |
| DL1XH-west | 2026-09-01 12:13:30 | 49.78428 | 8.26156 | 341° | 16km/h | 25902m | 6.7m/s | -49.1°C | 0.7% | 23.4hPa | 2.6V | 03:38:15 | 01:36:15 | 00:00:00 | |
| IW2NTF | 2026-09-01 12:13:29 | 49.78413 | 8.26160 | 350° | 22km/h | 25884m | 5.1m/s | 0°C | 0% | 0hPa | 2.7V | 00:00:00 | 01:36:12 | 00:00:00 | |
| BIOWL1-15 | 2026-09-01 12:13:21 | 49.78377 | 8.26188 | 338° | 26km/h | 25843m | 4.3m/s | -49.1°C | 0.7% | 23.6hPa | 2.7V | 03:37:24 | 01:36:05 | 00:00:00 | |
| DL1XH-west | 2026-09-01 12:13:17 | 49.78363 | 8.26198 | 333° | 15km/h | 25827m | 6.1m/s | -49.2°C | 0.7% | 23.7hPa | 2.6V | 03:38:15 | 01:36:02 | 00:00:00 | |
| BIOWL1-15 | 2026-09-01 12:13:10 | 49.78329 | 8.26202 | 349° | 15km/h | 25756m | 5.1m/s | -49.4°C | 0.7% | 23.9hPa | 2.6V | 03:38:15 | 01:35:50 | 00:00:00 | |
| DL1XH-west | 2026-09-01 12:13:07 | 49.78332 | 8.26201 | 355° | 15km/h | 25761m | 5.6m/s | -49.2°C | 0.7% | 23.9hPa | 2.6V | 03:38:15 | 01:35:51 | 00:00:00 | |
| BIOWL1-15 | 2026-09-01 12:13:00 | 49.78317 | 8.26212 | 32° | 5km/h | 25720m | 6.3m/s | -49.4°C | 0.8% | 24.1hPa | 2.6V | 03:38:15 | 01:35:44 | 00:00:00 | |
| DL1XH-west | 2026-09-01 12:12:56 | 49.78316 | 8.26203 | 133° | 7km/h | 25697m | 5.8m/s | -49.4°C | 0.7% | 24.2hPa | 2.6V | 03:38:15 | 01:35:40 | 00:00:00 | |
| BIOWL1-15 | 2026-09-01 12:12:49 | 49.78310 | 8.26201 | 346° | 13km/h | 25664m | 5.1m/s | -49.5°C | 0.7% | 24.3hPa | 2.6V | 03:38:15 | 01:35:34 | 00:00:00 | |
| DL1XH-west | 2026-09-01 12:12:45 | 49.78302 | 8.26211 | 6° | 5km/h | 25636m | 5.9m/s | -49.5°C | 0.8% | 24.4hPa | 2.6V | 03:38:15 | 01:35:29 | 00:00:00 | |
| BIOWL1-15 | 2026-09-01 12:12:38 | 49.78288 | 8.26189 | 33° | 11km/h | 25600m | 5.3m/s | -49.4°C | 0.7% | 24.6hPa | 2.6V | 03:38:15 | 01:35:23 | 00:00:00 | |
| DL1XH-west | 2026-09-01 12:12:34 | 49.78269 | 8.26196 | 336° | 20km/h | 25572m | 5.3m/s | -49.6°C | 0.7% | 24.6hPa | 2.7V | 03:38:15 | 01:35:18 | 00:00:00 | |
| BIOWL1-15 | 2026-09-01 12:12:28 | 49.78255 | 8.26204 | 3° | 11km/h | 25545m | 6.2m/s | -49.7°C | 0.7% | 24.7hPa | 2.7V | 03:38:15 | 01:35:13 | 00:00:00 | |
| DL1XH-west | 2026-09-01 12:12:22 | 49.78233 | 8.26215 | 307° | 16km/h | 25509m | 5.1m/s | -50.1°C | 0.8% | 24.9hPa | 2.7V | 03:39:06 | 01:35:07 | 00:00:00 | |
| DL1XH-west | 2026-09-01 12:12:12 | 49.78204 | 8.26244 | 3° | 18km/h | 25450m | 5.9m/s | -50.4°C | 0.8% | 25.1hPa | 2.7V | 03:39:06 | 01:34:57 | 00:00:00 | |
| BIOWL1-15 | 2026-09-01 12:12:05 | 49.78188 | 8.26253 | 294° | 7km/h | 25413m | 5.6m/s | -50.6°C | 0.9% | 25.2hPa | 2.7V | 03:39:06 | 01:34:50 | 00:00:00 | |
| DL1XH-west | 2026-09-01 12:12:02 | 49.78181 | 8.26262 | 329° | 16km/h | 25396m | 5.1m/s | -50.8°C | 0.8% | 25.3hPa | 2.6V | 03:39:06 | 01:34:47 | 00:00:00 | |
| DL1XH1-15 | 2026-09-01 12:12:01 | 49.78171 | 8.26274 | 315° | 15km/h | 25378m | 5.4m/s | -50.6°C | 3.6% | 25.4hPa | 2.6V | 03:38:43 | 01:34:44 | 00:00:00 | |
| AA1-15 | 2026-09-01 12:11:58 | 49.78166 | 8.26279 | 337° | 9km/h | 25367m | 6.2m/s | 0°C | 0% | 0hPa | 2.7V | 18:12:15 | 01:34:42 | 00:00:00 | |
| BIOWL1-15 | 2026-09-01 12:11:54 | 49.78163 | 8.26278 | 210° | 7km/h | 25339m | 5.9m/s | -50.5°C | 0.9% | 25.5hPa | 2.7V | 03:39:06 | 01:34:37 | 00:00:00 | |
| DL1XH-west | 2026-09-01 12:11:52 | 49.78164 | 8.26289 | 316° | 7km/h | 25302m | 6.6m/s | -50.8°C | 0.8% | 25.7hPa | 2.7V | 03:39:06 | 01:34:30 | 00:00:00 | |
| DL8DAS-14 | 2026-09-01 12:11:51 | 49.78165 | 8.26280 | 220° | 7km/h | 25334m | 4.5m/s | -50.6°C | 1.2% | 25.6hPa | 2.6V | 00:00:00 | 00:00:00 | 00:00:00 | |
| DL1XH1-15 | 2026-09-01 12:11:50 | 49.78167 | 8.26286 | 298° | 2km/h | 25319m | 6m/s | -50.8°C | 3.7% | 25.6hPa | 2.6V | 03:38:54 | 01:34:33 | 00:00:00 | |
| BIOWL1-15 | 2026-09-01 12:11:41 | 49.78159 | 8.26299 | 334° | 5km/h | 25280m | 6.6m/s | -50.6°C | 0.8% | 25.8hPa | 2.7V | 03:39:06 | 01:34:26 | 00:00:00 | |
| DL1XH-west | 2026-09-01 12:11:39 | 49.78157 | 8.26297 | 139° | 2km/h | 25264m | 4.8m/s | -50.7°C | 0.9% | 25.8hPa | 2.6V | 03:39:06 | 01:34:23 | 00:00:00 | |
| DL1XH1-15 | 2026-09-01 12:11:38 | 49.78160 | 8.26298 | 192° | 9km/h | 25252m | 5.6m/s | -50.7°C | 3.8% | 25.9hPa | 2.7V | 03:39:06 | 01:34:21 | 00:00:00 | |
| DL1XH-west | 2026-09-01 12:11:29 | 49.78155 | 8.26301 | 334° | 5km/h | 25200m | 5m/s | -50.7°C | 0.9% | 26.1hPa | 2.7V | 03:39:57 | 01:34:11 | 00:00:00 | |
| BIOWL1-15 | 2026-09-01 12:11:19 | 49.78165 | 8.26285 | 308° | 4km/h | 25123m | 5.2m/s | -51°C | 0.9% | 26.4hPa | 2.7V | 03:39:57 | 01:33:57 | 00:00:00 | |
| DL1XH-west | 2026-09-01 12:11:18 | 49.78166 | 8.26284 | 78° | 2km/h | 25134m | 4.9m/s | -51°C | 0.9% | 26.4hPa | 2.6V | 03:39:57 | 01:33:59 | 00:00:00 | |
| DL1XH-west | 2026-09-01 12:11:08 | 49.78160 | 8.26269 | 70° | 5km/h | 25046m | 5.8m/s | -51°C | 0.9% | 26.7hPa | 2.6V | 03:39:57 | 01:33:43 | 00:00:00 | |
| BIOWL1-15 | 2026-09-01 12:11:03 | 49.78158 | 8.26263 | 64° | 11km/h | 25036m | 5.7m/s | -51.1°C | 0.9% | 26.8hPa | 2.7V | 03:39:57 | 01:33:41 | 00:00:00 | |
| DL1XH-west | 2026-09-01 12:11:02 | 49.78157 | 8.26259 | 67° | 13km/h | 25030m | 7.1m/s | -51.1°C | 0.9% | 26.8hPa | 2.6V | 03:39:57 | 01:33:40 | 00:00:00 | |
| BIOWL1-15 | 2026-09-01 12:10:47 | 49.78158 | 8.26233 | 97° | 4km/h | 24984m | 4.7m/s | -50.8°C | 0.9% | 27hPa | 2.6V | 03:39:57 | 01:33:32 | 00:00:00 | |
| DL1XH-west | 2026-09-01 12:10:46 | 49.78157 | 8.26232 | 24° | 4km/h | 24963m | 5.1m/s | -50.7°C | 0.8% | 27.1hPa | 2.6V | 03:40:48 | 01:33:28 | 00:00:00 | |
| BIOWL1-15 | 2026-09-01 12:10:37 | 49.78152 | 8.26218 | 184° | 4km/h | 24930m | 5.6m/s | -50.9°C | 0.9% | 27.2hPa | 2.7V | 03:40:48 | 01:33:22 | 00:00:00 | |
| DL1XH-west | 2026-09-01 12:10:35 | 49.78152 | 8.26223 | 338° | 9km/h | 24894m | 6m/s | -50.9°C | 0.9% | 27.3hPa | 2.7V | 03:40:48 | 01:33:15 | 00:00:00 | |
| BIOWL1-15 | 2026-09-01 12:10:26 | 49.78140 | 8.26244 | 280° | 9km/h | 24856m | 5.2m/s | -51°C | 0.9% | 27.5hPa | 2.6V | 03:40:48 | 01:33:08 | 00:00:00 | |
| AA1-15 | 2026-09-01 12:10:26 | 49.78144 | 8.26236 | 314° | 11km/h | 24872m | 6.2m/s | 0°C | 0% | 0hPa | 2.7V | 18:12:15 | 01:33:11 | 00:00:00 | |
| DL1XH-west | 2026-09-01 12:10:22 | 49.78140 | 8.26259 | 267° | 16km/h | 24839m | 4.2m/s | -50.9°C | 0.9% | 27.6hPa | 2.7V | 03:40:48 | 01:33:05 | 00:00:00 | |
| BIOWL1-15 | 2026-09-01 12:10:13 | 49.78137 | 8.26297 | 292° | 13km/h | 24753m | 4.9m/s | -51.1°C | 0.9% | 28hPa | 2.6V | 03:40:48 | 01:32:48 | 00:00:00 | |
| DL1XH-west | 2026-09-01 12:10:11 | 49.78138 | 8.26293 | 286° | 11km/h | 24758m | 5.2m/s | -51°C | 0.9% | 27.9hPa | 2.6V | 03:40:48 | 01:32:49 | 00:00:00 | |
| DL1XH-west | 2026-09-01 12:09:59 | 49.78131 | 8.26306 | 331° | 5km/h | 24732m | 5m/s | -51.2°C | 0.9% | 28.1hPa | 2.6V | 03:40:48 | 01:32:44 | 00:00:00 | |
| BIOWL1-15 | 2026-09-01 12:09:56 | 49.78126 | 8.26313 | 344° | 7km/h | 24705m | 5.5m/s | -51.2°C | 0.9% | 28.2hPa | 2.6V | 03:40:48 | 01:32:39 | 00:00:00 | |
| DL1XH-west | 2026-09-01 12:09:48 | 49.78116 | 8.26352 | 278° | 16km/h | 24668m | 5.7m/s | -51.4°C | 0.9% | 28.3hPa | 2.6V | 03:42:30 | 01:32:32 | 00:00:00 | |
| DL8DAS-14 | 2026-09-01 12:09:47 | 49.78116 | 8.26352 | 277° | 16km/h | 24669m | 5.7m/s | -51.4°C | 1.2% | 28.3hPa | 2.7V | 00:00:00 | 00:00:00 | 00:00:00 | |
| BIOWL1-15 | 2026-09-01 12:09:43 | 49.78120 | 8.26379 | 266° | 11km/h | 24636m | 5.8m/s | -51.5°C | 0.9% | 28.5hPa | 2.7V | 03:41:39 | 01:32:26 | 00:00:00 | |
| BIOWL1-15 | 2026-09-01 12:09:33 | 49.78105 | 8.26472 | 280° | 27km/h | 24582m | 4.2m/s | -51.8°C | 1% | 28.7hPa | 2.7V | 03:41:39 | 01:32:16 | 00:00:00 | |
| BIOWL1-15 | 2026-09-01 12:09:24 | 49.78109 | 8.26532 | 264° | 18km/h | 24534m | 6.1m/s | -51.6°C | 0.9% | 28.9hPa | 2.7V | 03:41:39 | 01:32:07 | 00:00:00 | |
| DL1XH-west | 2026-09-01 12:09:24 | 49.78109 | 8.26525 | 270° | 15km/h | 24539m | 4m/s | -51.6°C | 0.9% | 28.9hPa | 2.6V | 03:42:30 | 01:32:08 | 00:00:00 | |
| DL1XH-west | 2026-09-01 12:09:13 | 49.78127 | 8.26614 | 207° | 13km/h | 24474m | 5.2m/s | -51.5°C | 0.9% | 29.2hPa | 2.7V | 03:42:30 | 01:31:56 | 00:00:00 | |
| BIOWL1-15 | 2026-09-01 12:09:12 | 49.78124 | 8.26611 | 214° | 15km/h | 24479m | 5.3m/s | -51.5°C | 0.9% | 29.2hPa | 2.7V | 03:41:39 | 01:31:57 | 00:00:00 | |
| BIOWL1-15 | 2026-09-01 12:09:02 | 49.78151 | 8.26656 | 245° | 22km/h | 24423m | 6m/s | -51.8°C | 1% | 29.4hPa | 2.6V | 03:42:30 | 01:31:47 | 00:00:00 | |
| DL1XH-west | 2026-09-01 12:08:52 | 49.78177 | 8.26657 | 152° | 15km/h | 24369m | 6.2m/s | -52.2°C | 1% | 29.7hPa | 2.7V | 03:42:30 | 01:31:37 | 00:00:00 | |
| BIOWL1-15 | 2026-09-01 12:08:52 | 49.78184 | 8.26652 | 161° | 18km/h | 24357m | 5.1m/s | -52.3°C | 1% | 29.8hPa | 2.7V | 03:42:30 | 01:31:35 | 00:00:00 | |
| DL3AQ-11 | 2026-09-01 12:08:51 | 49.78184 | 8.26652 | 160° | 16km/h | 24357m | 5.1m/s | -52.3°C | 1.3% | 29.8hPa | 2.7V | 00:00:00 | 00:00:00 | 00:00:00 | |
| DD1CC8 | 2026-09-01 12:08:47 | 49.78195 | 8.26647 | 164° | 11km/h | 24339m | 5.6m/s | -52.3°C | 1.3% | 29.8hPa | 2.7V | 00:00:00 | 00:00:00 | 00:00:00 | |
| DL8DAS-14 | 2026-09-01 12:08:45 | 49.78202 | 8.26644 | 161° | 13km/h | 24328m | 6.7m/s | -52.3°C | 1.3% | 29.9hPa | 2.7V | 00:00:00 | 00:00:00 | 00:00:00 | |
| BIOWL1-15 | 2026-09-01 12:08:41 | 49.78212 | 8.26638 | 156° | 5km/h | 24305m | 6.4m/s | -52.4°C | 1.1% | 30hPa | 2.7V | 03:42:30 | 01:31:26 | 00:00:00 | |
| DL1XH-west | 2026-09-01 12:08:41 | 49.78215 | 8.26636 | 150° | 7km/h | 24294m | 5.9m/s | -52.4°C | 1% | 30hPa | 2.6V | 03:42:30 | 01:31:24 | 00:00:00 | |
| BIOWL1-15 | 2026-09-01 12:08:30 | 49.78238 | 8.26652 | 219° | 18km/h | 24243m | 5.1m/s | -52.1°C | 1% | 30.3hPa | 2.7V | 03:42:30 | 01:31:15 | 00:00:00 | |
| DL1XH-west | 2026-09-01 12:08:21 | 49.78259 | 8.26689 | 252° | 15km/h | 24176m | 6.7m/s | -52.5°C | 1.1% | 30.6hPa | 2.6V | 03:42:30 | 01:31:03 | 00:00:00 | |
| BIOWL1-15 | 2026-09-01 12:08:20 | 49.78268 | 8.26721 | 250° | 27km/h | 24152m | 6m/s | -52.6°C | 0.9% | 30.7hPa | 2.6V | 03:42:30 | 01:30:59 | 00:00:00 | |
| BIOWL1-15 | 2026-09-01 12:08:10 | 49.78289 | 8.26770 | 222° | 9km/h | 24105m | 4.1m/s | -52.5°C | 1.1% | 30.9hPa | 2.7V | 03:43:21 | 01:30:50 | 00:00:00 | |
| DL1XH-west | 2026-09-01 12:08:09 | 49.78285 | 8.26762 | 228° | 11km/h | 24120m | 6.4m/s | -52.3°C | 1% | 30.9hPa | 2.6V | 03:43:21 | 01:30:53 | 00:00:00 | |
| DJ2DS-15 | 2026-09-01 12:08:09 | 49.78282 | 8.26758 | 224° | 15km/h | 24126m | 5.0m/s | -52.2°C | 4.1% | 30.8hPa | 2.7V | 00:00:00 | 01:30:54 | 00:00:00 | |
| DL1XH1-15 | 2026-09-01 12:08:07 | 49.78302 | 8.26784 | 221° | 22km/h | 24083m | 5.4m/s | -52.7°C | 4.1% | 31hPa | 2.7V | 03:42:41 | 01:30:46 | 00:00:00 | |
| DL1XH-west | 2026-09-01 12:07:58 | 49.78316 | 8.26808 | 223° | 15km/h | 24062m | 5.6m/s | -52.6°C | 1.1% | 31.1hPa | 2.7V | 03:43:21 | 01:30:42 | 00:00:00 | |
| DB0UT-9 | 2026-09-01 12:07:57 | 49.78313 | 8.26803 | 234° | 18km/h | 24067m | 4.3m/s | -52.7°C | 1.3% | 31.1hPa | 2.7V | 03:43:00 | 00:00:00 | 00:00:00 | |
| DL1XH1-15 | 2026-09-01 12:07:56 | 49.78337 | 8.26806 | 177° | 15km/h | 24023m | 4.3m/s | -52.4°C | 4.1% | 31.4hPa | 2.7V | 03:42:52 | 01:30:35 | 00:00:00 | |
| BIOWL1-15 | 2026-09-01 12:07:54 | 49.78329 | 8.26809 | 156° | 13km/h | 24039m | 5.9m/s | -52.4°C | 1.1% | 31.2hPa | 2.6V | 03:43:21 | 01:30:38 | 00:00:00 | |
| DL1XH-west | 2026-09-01 12:07:48 | 49.78359 | 8.26809 | 194° | 24km/h | 24001m | 5.4m/s | -52.3°C | 1% | 31.4hPa | 2.7V | 03:43:21 | 01:30:31 | 00:00:00 | |
| DL1XH1-15 | 2026-09-01 12:07:45 | 49.78388 | 8.26824 | 179° | 13km/h | 23961m | 6.3m/s | -52.5°C | 4% | 31.6hPa | 2.6V | 03:43:03 | 01:30:24 | 00:00:00 | |
| BIOWL1-15 | 2026-09-01 12:07:44 | 49.78391 | 8.26824 | 174° | 11km/h | 23955m | 5.8m/s | -52.3°C | 1% | 31.6hPa | 2.6V | 03:43:21 | 01:30:23 | 00:00:00 | |
| DL1XH-west | 2026-09-01 12:07:37 | 49.78426 | 8.26819 | 188° | 18km/h | 23918m | 5m/s | -52.3°C | 1.1% | 31.8hPa | 2.7V | 03:43:21 | 01:30:16 | 00:00:00 | |
| DL1XH-west | 2026-09-01 12:07:27 | 49.78442 | 8.26816 | 148° | 16km/h | 23897m | 5.4m/s | -52.4°C | 1% | 31.9hPa | 2.7V | 03:43:21 | 01:30:12 | 00:00:00 | |
| DL1XH-west | 2026-09-01 12:07:17 | 49.78485 | 8.26785 | 162° | 26km/h | 23846m | 4.7m/s | -52.1°C | 1% | 32.2hPa | 2.6V | 03:44:12 | 01:30:02 | 00:00:00 | |
| BIOWL1-15 | 2026-09-01 12:07:16 | 49.78495 | 8.26774 | 112° | 15km/h | 23830m | 4.5m/s | -52.3°C | 1.1% | 32.3hPa | 2.6V | 03:44:12 | 01:29:59 | 00:00:00 | |
| DD1CC8 | 2026-09-01 12:07:14 | 49.78495 | 8.26774 | 111° | 13km/h | 23830m | 4.5m/s | -52.3°C | 1.3% | 32.3hPa | 2.6V | 00:00:00 | 00:00:00 | 00:00:00 | |
| DB0UT-7 | 2026-09-01 12:07:13 | 49.78496 | 8.26769 | 99° | 18km/h | 23826m | 5.8m/s | -52.3°C | 4.1% | 32.3hPa | 2.6V | 00:00:00 | 00:00:00 | 00:00:00 | |
| DL1XH1-15 | 2026-09-01 12:07:12 | 49.78498 | 8.26747 | 103° | 16km/h | 23810m | 4.8m/s | -52°C | 4.1% | 32.4hPa | 2.6V | 03:43:32 | 01:29:55 | 00:00:00 | |
| DL1XH-west | 2026-09-01 12:07:08 | 49.78525 | 8.26719 | 147° | 26km/h | 23773m | 3.8m/s | -52°C | 1% | 32.6hPa | 2.6V | 03:44:12 | 01:29:48 | 00:00:00 | |
| BIOWL1-15 | 2026-09-01 12:07:05 | 49.78520 | 8.26724 | 151° | 26km/h | 23777m | 4.4m/s | -52°C | 1% | 32.5hPa | 2.6V | 03:44:12 | 01:29:49 | 00:00:00 | |
| DL1ZP-14 | 2026-09-01 12:07:03 | 49.78525 | 8.26719 | 146° | 24km/h | 23773m | 3.8m/s | -52.0°C | 1.3% | 32.6hPa | 2.6V | 00:00:00 | 00:00:00 | 00:00:00 | |
| AU51GT2 | 2026-09-01 12:07:02 | 49.78530 | 8.26714 | 145° | 22km/h | 23769m | 5.3m/s | -52.0°C | 1.2% | 32.6hPa | 2.7V | 00:00:00 | 00:00:00 | 00:00:00 | |
| DL1XH1-15 | 2026-09-01 12:07:01 | 49.78537 | 8.26705 | 132° | 13km/h | 23758m | 5.3m/s | -52°C | 4% | 32.6hPa | 2.7V | 03:43:42 | 01:29:45 | 00:00:00 | |
| DL9SK-14 | 2026-09-01 12:07:01 | 49.78537 | 8.26705 | 132° | 13km/h | 23758m | 5.3m/s | -52.0°C | 1.3% | 32.6hPa | 2.7V | 00:00:00 | 00:00:00 | 00:00:00 | |
| BIOWL1-15 | 2026-09-01 12:06:54 | 49.78565 | 8.26592 | 79° | 18km/h | 23663m | 4.6m/s | -51.8°C | 1% | 33.1hPa | 2.7V | 03:44:12 | 01:29:27 | 00:00:00 | |
| DL1XH-west | 2026-09-01 12:06:53 | 49.78550 | 8.26657 | 137° | 18km/h | 23716m | 4.4m/s | -52°C | 1% | 32.8hPa | 2.7V | 03:44:12 | 01:29:37 | 00:00:00 | |
| DL1XH1-15 | 2026-09-01 12:06:51 | 49.78558 | 8.26646 | 134° | 24km/h | 23705m | 5.7m/s | -52°C | 4% | 32.9hPa | 2.7V | 03:43:52 | 01:29:35 | 00:00:00 | |
| DL3AQ-11 | 2026-09-01 12:06:51 | 49.78558 | 8.26646 | 134° | 22km/h | 23705m | 5.7m/s | -52.0°C | 1.2% | 32.9hPa | 2.6V | 00:00:00 | 00:00:00 | 00:00:00 | |
| DO1YAY-16 | 2026-09-01 12:06:50 | 49.78562 | 8.26639 | 127° | 22km/h | 23700m | 3.9m/s | -51.9°C | 1.2% | 33.0hPa | 2.6V | 00:00:00 | 00:00:00 | 00:00:00 | |
| DJ2DS-15 | 2026-09-01 12:06:49 | 49.78562 | 8.26639 | 128° | 18km/h | 23700m | 3.9m/s | -51.9°C | 3.9% | 32.9hPa | 2.6V | 00:00:00 | 01:29:34 | 00:00:00 | |
| DL1XH1-15 | 2026-09-01 12:06:45 | 49.78562 | 8.26573 | 82° | 15km/h | 23646m | 5.1m/s | -51.9°C | 3.9% | 33.2hPa | 2.6V | 03:44:03 | 01:29:24 | 00:00:00 | |
| BIOWL1-15 | 2026-09-01 12:06:43 | 49.78564 | 8.26585 | 77° | 18km/h | 23658m | 5.2m/s | -51.9°C | 0.9% | 33.2hPa | 2.7V | 03:44:12 | 01:29:26 | 00:00:00 | |
| DL1XH-west | 2026-09-01 12:06:43 | 49.78563 | 8.26563 | 111° | 16km/h | 23636m | 6.2m/s | -52.1°C | 1% | 33.3hPa | 2.7V | 03:44:12 | 01:29:22 | 00:00:00 | |
| DB0UT-7 | 2026-09-01 12:06:43 | 49.78566 | 8.26600 | 83° | 20km/h | 23667m | 5.0m/s | -51.8°C | 3.9% | 33.1hPa | 2.7V | 03:43:00 | 01:29:28 | 00:00:00 | |
| DL8DAS-14 | 2026-09-01 12:06:41 | 49.78563 | 8.26579 | 75° | 15km/h | 23652m | 6.0m/s | -51.9°C | 1.2% | 33.2hPa | 2.7V | 00:00:00 | 00:00:00 | 00:00:00 | |
| DL3AQ-11 | 2026-09-01 12:06:40 | 49.78562 | 8.26574 | 82° | 13km/h | 23646m | 5.1m/s | -51.9°C | 1.2% | 33.2hPa | 2.7V | 00:00:00 | 00:00:00 | 00:00:00 | |
| DJ2KF-10 | 2026-09-01 12:06:36 | 49.78565 | 8.26556 | 120° | 20km/h | 23631m | 4.7m/s | -52.0°C | 4.0% | 33.3hPa | 2.7V | 00:00:00 | 01:29:21 | 00:00:00 | |
| DB0UT-9 | 2026-09-01 12:06:35 | 49.78565 | 8.26556 | 121° | 18km/h | 23631m | 4.7m/s | -52.1°C | 1.3% | 33.3hPa | 2.7V | 03:44:00 | 00:00:00 | 00:00:00 | |
| DL1XH1-15 | 2026-09-01 12:06:34 | 49.78562 | 8.26522 | 50° | 24km/h | 23601m | 5.2m/s | -52.1°C | 4.1% | 33.5hPa | 2.7V | 03:44:12 | 01:29:15 | 00:00:00 | |
| DL1XH-west | 2026-09-01 12:06:33 | 49.78568 | 8.26534 | 58° | 16km/h | 23610m | 5.1m/s | -52.2°C | 1.1% | 33.4hPa | 2.6V | 03:44:12 | 01:29:17 | 00:00:00 | |
| BIOWL1-15 | 2026-09-01 12:06:30 | 49.78562 | 8.26522 | 50° | 24km/h | 23601m | 5.2m/s | -52.1°C | 1.1% | 33.5hPa | 2.7V | 03:44:12 | 01:29:15 | 00:00:00 | |
| DL1XH-west | 2026-09-01 12:06:23 | 49.78536 | 8.26458 | 68° | 27km/h | 23561m | 6.2m/s | -52°C | 1% | 33.6hPa | 2.7V | 03:45:03 | 01:29:07 | 00:00:00 | |
| DL1XH1-15 | 2026-09-01 12:06:21 | 49.78531 | 8.26438 | 68° | 26km/h | 23551m | 4.1m/s | -51.8°C | 3.9% | 33.7hPa | 2.7V | 03:44:22 | 01:29:05 | 00:00:00 | |
| BIOWL1-15 | 2026-09-01 12:06:19 | 49.78528 | 8.26429 | 63° | 24km/h | 23546m | 6.1m/s | -51.9°C | 1% | 33.7hPa | 2.6V | 03:45:03 | 01:29:04 | 00:00:00 | |
| DL1XH-west | 2026-09-01 12:06:12 | 49.78501 | 8.26386 | 47° | 15km/h | 23494m | 5.5m/s | -52°C | 1% | 34hPa | 2.6V | 03:45:03 | 01:28:54 | 00:00:00 | |
| DL1XH1-15 | 2026-09-01 12:06:11 | 49.78494 | 8.26364 | 57° | 15km/h | 23474m | 6.2m/s | -52.1°C | 4% | 34.1hPa | 2.7V | 03:44:37 | 01:28:50 | 00:00:00 | |
| BIOWL1-15 | 2026-09-01 12:06:09 | 49.78494 | 8.26364 | 58° | 15km/h | 23474m | 6.2m/s | -52.1°C | 1.1% | 34.1hPa | 2.7V | 03:45:03 | 01:28:50 | 00:00:00 | |
| DJ2KF-10 | 2026-09-01 12:06:06 | 49.78496 | 8.26370 | 67° | 9km/h | 23479m | 4.1m/s | -52.1°C | 4.0% | 34.1hPa | 2.7V | 00:00:00 | 01:28:51 | 00:00:00 | |
| DL1ZP-14 | 2026-09-01 12:06:01 | 49.78484 | 8.26344 | 57° | 18km/h | 23453m | 5.5m/s | -52.0°C | 1.2% | 34.2hPa | 2.7V | 00:00:00 | 00:00:00 | 00:00:00 | |
| DL1XH1-15 | 2026-09-01 12:06:00 | 49.78474 | 8.26321 | 92° | 4km/h | 23422m | 5.8m/s | -51.8°C | 4% | 34.4hPa | 2.6V | 03:44:47 | 01:28:40 | 00:00:00 | |
| DL1XH-west | 2026-09-01 12:05:58 | 49.78477 | 8.26327 | 53° | 11km/h | 23438m | 6.1m/s | -52°C | 1.1% | 34.4hPa | 2.6V | 03:45:03 | 01:28:43 | 00:00:00 | |
| BIOWL1-15 | 2026-09-01 12:05:57 | 49.78474 | 8.26321 | 92° | 4km/h | 23422m | 5.8m/s | -51.8°C | 1% | 34.4hPa | 2.6V | 03:45:03 | 01:28:40 | 00:00:00 | |
| DL8DAS-15 | 2026-09-01 12:05:56 | 49.78475 | 8.26324 | 48° | 7km/h | 23432m | 5.2m/s | -51.9°C | 1.3% | 34.3hPa | 2.7V | 00:00:00 | 00:00:00 | 00:00:00 | |
| HEMX73-11 | 2026-09-01 12:05:51 | 49.78475 | 8.26319 | 0° | 0km/h | 23408m | 5.7m/s | -52.0°C | 1.3% | 34.5hPa | 2.7V | 03:45:00 | 00:00:00 | 00:00:00 | |
| DL1XH1-15 | 2026-09-01 12:05:50 | 49.78469 | 8.26308 | 65° | 11km/h | 23372m | 5.1m/s | -52.1°C | 3.9% | 34.6hPa | 2.7V | 03:44:57 | 01:28:30 | 00:00:00 | |
| BIOWL1-15 | 2026-09-01 12:05:46 | 49.78470 | 8.26312 | 74° | 11km/h | 23377m | 4.2m/s | -52.1°C | 1% | 34.6hPa | 2.7V | 03:45:03 | 01:28:31 | 00:00:00 | |
| DL1XH-west | 2026-09-01 12:05:37 | 49.78469 | 8.26300 | 169° | 4km/h | 23326m | 3.7m/s | -52.1°C | 1.1% | 34.9hPa | 2.7V | 03:45:54 | 01:28:21 | 00:00:00 | |
| DL1XH1-15 | 2026-09-01 12:05:37 | 49.78471 | 8.26297 | 124° | 9km/h | 23316m | 5.9m/s | -52.1°C | 4% | 35hPa | 2.6V | 03:45:08 | 01:28:19 | 00:00:00 | |
| BIOWL1-15 | 2026-09-01 12:05:35 | 49.78470 | 8.26299 | 137° | 5km/h | 23322m | 5.3m/s | -52.1°C | 1.1% | 34.9hPa | 2.7V | 03:45:54 | 01:28:20 | 00:00:00 | |
| DL1XH-west | 2026-09-01 12:05:27 | 49.78479 | 8.26278 | 152° | 5km/h | 23280m | 6m/s | -52.2°C | 1.1% | 35.2hPa | 2.7V | 03:45:54 | 01:28:12 | 00:00:00 | |
| BIOWL1-15 | 2026-09-01 12:05:25 | 49.78482 | 8.26276 | 161° | 5km/h | 23271m | 4.1m/s | -52.2°C | 1% | 35.2hPa | 2.6V | 03:45:54 | 01:28:10 | 00:00:00 | |
| DL1XH-west | 2026-09-01 12:05:17 | 49.78492 | 8.26263 | 123° | 18km/h | 23231m | 3.7m/s | -52.1°C | 1% | 35.5hPa | 2.6V | 03:45:54 | 01:28:02 | 00:00:00 | |
| BIOWL1-15 | 2026-09-01 12:05:15 | 49.78496 | 8.26253 | 124° | 11km/h | 23221m | 5.6m/s | -52.2°C | 1% | 35.5hPa | 2.7V | 03:45:54 | 01:28:00 | 00:00:00 | |
| DL1XH-west | 2026-09-01 12:05:07 | 49.78497 | 8.26232 | 67° | 9km/h | 23180m | 4.5m/s | -52.1°C | 1.1% | 35.7hPa | 2.7V | 03:45:54 | 01:27:52 | 00:00:00 | |
| BIOWL1-15 | 2026-09-01 12:05:05 | 49.78496 | 8.26223 | 87° | 16km/h | 23171m | 5.9m/s | -52.1°C | 1% | 35.8hPa | 2.7V | 03:45:54 | 01:27:50 | 00:00:00 | |
| DL1XH-west | 2026-09-01 12:04:56 | 49.78497 | 8.26169 | 86° | 9km/h | 23125m | 4.9m/s | -52.1°C | 1% | 36hPa | 2.7V | 03:45:54 | 01:27:41 | 00:00:00 | |
| BIOWL1-15 | 2026-09-01 12:04:55 | 49.78493 | 8.26155 | 49° | 15km/h | 23104m | 4.5m/s | -52.1°C | 1% | 36.1hPa | 2.6V | 03:45:54 | 01:27:37 | 00:00:00 | |
| DL1XH-west | 2026-09-01 12:04:46 | 49.78472 | 8.26102 | 42° | 16km/h | 23063m | 4.7m/s | -52.3°C | 1% | 36.4hPa | 2.6V | 03:46:45 | 01:27:29 | 00:00:00 | |
| DO1YAY-16 | 2026-09-01 12:04:45 | 49.78472 | 8.26102 | 41° | 16km/h | 23063m | 4.7m/s | -52.3°C | 1.3% | 36.4hPa | 2.6V | 00:00:00 | 00:00:00 | 00:00:00 | |
| BIOWL1-15 | 2026-09-01 12:04:44 | 49.78466 | 8.26093 | 51° | 16km/h | 23052m | 6.2m/s | -52.5°C | 1% | 36.4hPa | 2.6V | 03:46:45 | 01:27:27 | 00:00:00 | |
| DL1XH-west | 2026-09-01 12:04:35 | 49.78443 | 8.26056 | 51° | 26km/h | 23015m | 5.4m/s | -52.5°C | 1.1% | 36.6hPa | 2.7V | 03:46:45 | 01:27:20 | 00:00:00 | |
| BIOWL1-15 | 2026-09-01 12:04:34 | 49.78439 | 8.26048 | 49° | 27km/h | 23010m | 4.5m/s | -52.6°C | 1.1% | 36.6hPa | 2.7V | 03:46:45 | 01:27:19 | 00:00:00 | |
| BIOWL1-15 | 2026-09-01 12:04:24 | 49.78380 | 8.26000 | 12° | 26km/h | 22956m | 5.3m/s | -52.5°C | 1.1% | 37hPa | 2.7V | 03:46:45 | 01:27:09 | 00:00:00 | |
| DL1XH-west | 2026-09-01 12:04:24 | 49.78360 | 8.25989 | 27° | 29km/h | 22940m | 5.1m/s | -52.6°C | 1.2% | 37.1hPa | 2.6V | 03:46:45 | 01:27:06 | 00:00:00 | |
| BIOWL1-15 | 2026-09-01 12:04:13 | 49.78302 | 8.25955 | 15° | 29km/h | 22899m | 4m/s | -52.3°C | 1.1% | 37.3hPa | 2.7V | 03:46:45 | 01:26:58 | 00:00:00 | |
| BIOWL1-15 | 2026-09-01 12:04:02 | 49.78207 | 8.25923 | 359° | 24km/h | 22816m | 5.6m/s | -51.8°C | 1% | 37.8hPa | 2.6V | 03:46:45 | 01:26:43 | 00:00:00 | |
| DL1XH-west | 2026-09-01 12:04:02 | 49.78218 | 8.25925 | 16° | 18km/h | 22827m | 4.5m/s | -51.9°C | 1% | 37.7hPa | 2.7V | 03:46:45 | 01:26:45 | 00:00:00 | |
| DL3AQ-11 | 2026-09-01 12:04:00 | 49.78213 | 8.25924 | 7° | 20km/h | 22822m | 5.9m/s | -51.9°C | 1.3% | 37.8hPa | 2.7V | 00:00:00 | 00:00:00 | 00:00:00 | |
| DL1XH1-15 | 2026-09-01 12:03:58 | 49.78183 | 8.25925 | 1° | 22km/h | 22794m | 5m/s | -51.8°C | 4% | 37.9hPa | 2.7V | 03:46:48 | 01:26:39 | 00:00:00 | |
| BIOWL1-15 | 2026-09-01 12:03:54 | 49.78172 | 8.25924 | 3° | 22km/h | 22783m | 6.1m/s | -51.8°C | 1% | 38hPa | 2.6V | 03:47:36 | 01:26:37 | 00:00:00 | |
| DL1XH-west | 2026-09-01 12:03:51 | 49.78166 | 8.25924 | 2° | 22km/h | 22778m | 5.7m/s | -51.9°C | 1% | 38hPa | 2.6V | 03:47:36 | 01:26:36 | 00:00:00 | |
| BIOWL9-15 | 2026-09-01 12:03:44 | 49.78138 | 8.25912 | 9° | 18km/h | 22740m | 6.0m/s | -51.7°C | 1.3% | 38.2hPa | 2.6V | 00:00:00 | 00:00:00 | 00:00:00 | |
| BIOWL1-15 | 2026-09-01 12:03:43 | 49.78129 | 8.25911 | 3° | 18km/h | 22729m | 6.3m/s | -51.7°C | 1% | 38.3hPa | 2.6V | 03:47:36 | 01:26:27 | 00:00:00 | |
| DL1XH-west | 2026-09-01 12:03:41 | 49.78121 | 8.25911 | 353° | 15km/h | 22718m | 4.2m/s | -51.6°C | 1% | 38.4hPa | 2.6V | 03:47:36 | 01:26:25 | 00:00:00 | |
| DL1XH1-15 | 2026-09-01 12:03:38 | 49.78106 | 8.25917 | 349° | 13km/h | 22696m | 4.8m/s | -51.8°C | 4% | 38.5hPa | 2.6V | 03:47:06 | 01:26:21 | 00:00:00 | |
| DL1XH-west | 2026-09-01 12:03:31 | 49.78092 | 8.25919 | 345° | 15km/h | 22667m | 5.3m/s | -51.8°C | 1.1% | 38.7hPa | 2.6V | 03:47:36 | 01:26:16 | 00:00:00 | |
| BIOWL1-15 | 2026-09-01 12:03:23 | 49.78053 | 8.25971 | 294° | 13km/h | 22602m | 4.5m/s | -51.5°C | 1% | 39.1hPa | 2.7V | 03:47:36 | 01:26:04 | 00:00:00 | |
| DL1XH-west | 2026-09-01 12:03:21 | 49.78056 | 8.25962 | 302° | 13km/h | 22613m | 5.9m/s | -51.6°C | 1% | 39hPa | 2.6V | 03:47:36 | 01:26:06 | 00:00:00 | |
| DL3AQ-11 | 2026-09-01 12:03:20 | 49.78053 | 8.25971 | 294° | 11km/h | 22603m | 4.5m/s | -51.5°C | 1.3% | 39.1hPa | 2.7V | 00:00:00 | 00:00:00 | 00:00:00 | |
| DL1XH1-15 | 2026-09-01 12:03:17 | 49.78042 | 8.25991 | 322° | 20km/h | 22581m | 5.3m/s | -51.4°C | 3.9% | 39.2hPa | 2.7V | 03:47:27 | 01:26:00 | 00:00:00 | |
| DL1XH-west | 2026-09-01 12:03:11 | 49.78020 | 8.26017 | 312° | 26km/h | 22552m | 5.2m/s | -51.4°C | 1% | 39.4hPa | 2.6V | 03:47:36 | 01:25:55 | 00:00:00 | |
| BIOWL1-15 | 2026-09-01 12:03:11 | 49.78010 | 8.26038 | 302° | 18km/h | 22535m | 5.4m/s | -51.4°C | 1% | 39.5hPa | 2.6V | 03:47:36 | 01:25:52 | 00:00:00 | |
| DL1XH-west | 2026-09-01 12:02:59 | 49.77970 | 8.26092 | 311° | 16km/h | 22469m | 6m/s | -51.1°C | 1% | 39.9hPa | 2.6V | 03:48:27 | 01:25:40 | 00:00:00 | |
| BIOWL1-15 | 2026-09-01 12:02:56 | 49.77973 | 8.26087 | 318° | 20km/h | 22475m | 4.7m/s | -51.1°C | 1% | 39.9hPa | 2.6V | 03:48:27 | 01:25:41 | 00:00:00 | |
| DL1XH-west | 2026-09-01 12:02:54 | 49.77960 | 8.26131 | 294° | 22km/h | 22436m | 5.1m/s | -50.9°C | 1% | 40.1hPa | 2.7V | 03:48:27 | 01:25:34 | 00:00:00 | |
| DL9SK-14 | 2026-09-01 12:02:52 | 49.77964 | 8.26115 | 287° | 20km/h | 22447m | 6.5m/s | -51.0°C | 1.3% | 40.0hPa | 2.6V | 00:00:00 | 00:00:00 | 00:00:00 | |
| DL3AQ-11 | 2026-09-01 12:02:51 | 49.77962 | 8.26123 | 291° | 22km/h | 22442m | 5.1m/s | -51.0°C | 1.2% | 40.1hPa | 2.6V | 00:00:00 | 00:00:00 | 00:00:00 | |
| BIOWL1-15 | 2026-09-01 12:02:46 | 49.77928 | 8.26175 | 312° | 11km/h | 22388m | 5m/s | -50.6°C | 0.9% | 40.4hPa | 2.6V | 03:48:27 | 01:25:25 | 00:00:00 | |
| DB0UT-9 | 2026-09-01 12:02:45 | 49.77952 | 8.26149 | 320° | 18km/h | 22420m | 4.8m/s | -50.8°C | 1.3% | 40.2hPa | 2.7V | 00:00:00 | 00:00:00 | 00:00:00 | |
| CB1BUN | 2026-09-01 12:02:44 | 49.77943 | 8.26158 | 328° | 22km/h | 22410m | 6.3m/s | -50.8°C | 1.2% | 40.3hPa | 2.7V | 00:00:00 | 00:00:00 | 00:00:00 | |
| BIOWL9-15 | 2026-09-01 12:02:42 | 49.77934 | 8.26167 | 325° | 18km/h | 22399m | 4.7m/s | -50.7°C | 1.2% | 40.3hPa | 2.7V | 00:00:00 | 00:00:00 | 00:00:00 | |
| DL9PN | 2026-09-01 12:02:41 | 49.77928 | 8.26175 | 311° | 9km/h | 22388m | 5.0m/s | -50.6°C | 1.2% | 40.4hPa | 2.7V | 00:00:00 | 00:00:00 | 00:00:00 | |
| DL1XH1-15 | 2026-09-01 12:02:40 | 49.77926 | 8.26180 | 297° | 9km/h | 22378m | 5.8m/s | -50.6°C | 3.8% | 40.5hPa | 2.7V | 03:48:04 | 01:25:23 | 00:00:00 | |
| DL1XH-west | 2026-09-01 12:02:39 | 49.77927 | 8.26178 | 300° | 7km/h | 22383m | 3.9m/s | -50.6°C | 0.9% | 40.4hPa | 2.6V | 03:48:27 | 01:25:24 | 00:00:00 | |
| BIOWL1-15 | 2026-09-01 12:02:31 | 49.77916 | 8.26207 | 313° | 13km/h | 22341m | 5.2m/s | -50.4°C | 0.9% | 40.7hPa | 2.7V | 03:48:27 | 01:25:16 | 00:00:00 | |
| DL1XH1-15 | 2026-09-01 12:02:30 | 49.77898 | 8.26223 | 327° | 9km/h | 22309m | 4.3m/s | -50.3°C | 3.6% | 40.9hPa | 2.6V | 03:48:17 | 01:25:10 | 00:00:00 | |
| DL1XH-west | 2026-09-01 12:02:28 | 49.77906 | 8.26217 | 334° | 16km/h | 22324m | 5.3m/s | -50.2°C | 0.8% | 40.8hPa | 2.7V | 03:48:27 | 01:25:13 | 00:00:00 | |
| BIOWL1-15 | 2026-09-01 12:02:21 | 49.77891 | 8.26237 | 257° | 7km/h | 22283m | 6.4m/s | -50.3°C | 0.9% | 41.1hPa | 2.6V | 03:48:27 | 01:25:05 | 00:00:00 | |
| DL1XH-west | 2026-09-01 12:02:17 | 49.77894 | 8.26243 | 246° | 5km/h | 22267m | 5.2m/s | -50.4°C | 0.9% | 41.2hPa | 2.7V | 03:48:27 | 01:25:02 | 00:00:00 | |
| DJ2DS-15 | 2026-09-01 12:02:14 | 49.77891 | 8.26252 | 318° | 13km/h | 22251m | 4.7m/s | -50.4°C | 1.2% | 41.2hPa | 2.6V | 00:00:00 | 00:00:00 | 00:00:00 | |
| DL1XH1-15 | 2026-09-01 12:02:13 | 49.77877 | 8.26274 | 317° | 5km/h | 22214m | 4.9m/s | -50.3°C | 3.6% | 41.5hPa | 2.6V | 03:48:35 | 01:24:52 | 00:00:00 | |
| BIOWL1-15 | 2026-09-01 12:02:11 | 49.77872 | 8.26269 | 338° | 7km/h | 22167m | 5.1m/s | -50.1°C | 0.8% | 41.8hPa | 2.6V | 03:49:18 | 01:24:43 | 00:00:00 | |
| DL1XH-west | 2026-09-01 12:02:07 | 49.77877 | 8.26274 | 318° | 5km/h | 22214m | 4.9m/s | -50.3°C | 0.8% | 41.5hPa | 2.6V | 03:49:18 | 01:24:52 | 00:00:00 | |
| DJ2KF-10 | 2026-09-01 12:02:06 | 49.77876 | 8.26275 | 272° | 5km/h | 22208m | 6.5m/s | -50.2°C | 3.6% | 41.5hPa | 2.6V | 00:00:00 | 01:24:51 | 00:00:00 | |
| DD1CC8 | 2026-09-01 12:02:05 | 49.77879 | 8.26272 | 118° | 4km/h | 22193m | 4.6m/s | -50.3°C | 1.2% | 41.6hPa | 2.6V | 00:00:00 | 00:00:00 | 00:00:00 | |
| CB1BUN | 2026-09-01 12:02:02 | 49.77879 | 8.26271 | 72° | 4km/h | 22188m | 6.0m/s | -50.2°C | 1.2% | 41.7hPa | 2.6V | 03:49:00 | 00:00:00 | 00:00:00 | |
| DL1XH1-15 | 2026-09-01 12:02:01 | 49.77872 | 8.26269 | 337° | 7km/h | 22167m | 5.1m/s | -50.1°C | 3.7% | 41.8hPa | 2.6V | 03:48:44 | 01:24:43 | 00:00:00 | |
| DL1XH-west | 2026-09-01 12:01:57 | 49.77870 | 8.26272 | 310° | 5km/h | 22158m | 4.7m/s | -50.2°C | 0.8% | 41.9hPa | 2.7V | 03:49:18 | 01:24:41 | 00:00:00 | |
| BIOWL1-15 | 2026-09-01 12:01:54 | 49.77868 | 8.26274 | 342° | 5km/h | 22148m | 6.1m/s | -50.3°C | 0.7% | 41.9hPa | 2.6V | 03:49:18 | 01:24:39 | 00:00:00 | |
| SSTOLZ84 | 2026-09-01 12:01:53 | 49.77865 | 8.26274 | 36° | 4km/h | 22138m | 3.7m/s | -50.2°C | 1.2% | 42.0hPa | 2.6V | 00:00:00 | 00:00:00 | 00:00:00 | |
| AU51GT2 | 2026-09-01 12:01:52 | 49.77865 | 8.26274 | 36° | 4km/h | 22138m | 3.7m/s | -50.2°C | 1.2% | 42.0hPa | 2.6V | 00:00:00 | 00:00:00 | 00:00:00 | |
| DL1XH1-15 | 2026-09-01 12:01:50 | 49.77868 | 8.26266 | 145° | 7km/h | 22118m | 4.7m/s | -50.3°C | 3.7% | 42.1hPa | 2.6V | 03:48:54 | 01:24:33 | 00:00:00 | |
| DL1XH-west | 2026-09-01 12:01:45 | 49.77870 | 8.26263 | 61° | 2km/h | 22102m | 4.7m/s | -50.4°C | 0.8% | 42.2hPa | 2.7V | 03:49:18 | 01:24:30 | 00:00:00 | |
| BIOWL1-15 | 2026-09-01 12:01:43 | 49.77867 | 8.26263 | 356° | 7km/h | 22076m | 5.7m/s | -50.8°C | 0.9% | 42.4hPa | 2.7V | 03:49:18 | 01:24:25 | 00:00:00 | |
| HEMX73-11 | 2026-09-01 12:01:42 | 49.77870 | 8.26262 | 0° | 0km/h | 22092m | 5.4m/s | -50.6°C | 1.2% | 42.3hPa | 2.6V | 03:49:00 | 00:00:00 | 00:00:00 | |
| DH7VM-15 | 2026-09-01 12:01:41 | 49.77869 | 8.26263 | 345° | 5km/h | 22082m | 4.9m/s | -50.7°C | 1.2% | 42.4hPa | 2.6V | 00:00:00 | 00:00:00 | 00:00:00 | |
| CB1BUN | 2026-09-01 12:01:40 | 49.77869 | 8.26263 | 345° | 5km/h | 22082m | 4.9m/s | -50.7°C | 1.2% | 42.4hPa | 2.6V | 03:49:00 | 00:00:00 | 00:00:00 | |
| DL1XH1-15 | 2026-09-01 12:01:39 | 49.77863 | 8.26263 | 6° | 5km/h | 22067m | 4.2m/s | -51°C | 3.8% | 42.5hPa | 2.6V | 03:49:04 | 01:24:23 | 00:00:00 | |
| DJ2DS-15 | 2026-09-01 12:01:38 | 49.77863 | 8.26263 | 6° | 5km/h | 22068m | 4.2m/s | -51.0°C | 1.2% | 42.5hPa | 2.6V | 00:00:00 | 00:00:00 | 00:00:00 | |
| DJ2KF-10 | 2026-09-01 12:01:36 | 49.77862 | 8.26263 | 153° | 13km/h | 22057m | 5.0m/s | -50.8°C | 3.8% | 42.5hPa | 2.6V | 03:49:00 | 01:24:21 | 00:00:00 | |
| DF3TZ-5 | 2026-09-01 12:01:35 | 49.77864 | 8.26261 | 126° | 5km/h | 22048m | 4.5m/s | -51.0°C | -1.0% | -1.0hPa | 2.6V | 00:00:00 | 00:00:00 | 00:00:00 | |
| DL1XH1-15 | 2026-09-01 12:01:34 | 49.77860 | 8.26242 | 69° | 13km/h | 22018m | 4.1m/s | -51.1°C | 3.8% | 42.8hPa | 2.6V | 03:49:14 | 01:24:13 | 00:00:00 | |
| DL1XH-west | 2026-09-01 12:01:34 | 49.77864 | 8.26261 | 126° | 5km/h | 22048m | 4.5m/s | -51°C | 1% | 42.5hPa | 2.6V | 03:49:18 | 01:24:19 | 00:00:00 | |
| BIOWL1-15 | 2026-09-01 12:01:32 | 49.77863 | 8.26253 | 60° | 9km/h | 22033m | 4.8m/s | -51.1°C | 0.9% | 42.7hPa | 2.7V | 03:49:18 | 01:24:16 | 00:00:00 | |
| DL1XH-west | 2026-09-01 12:01:24 | 49.77853 | 8.26215 | 68° | 20km/h | 21998m | 4.1m/s | -51°C | 0.9% | 42.9hPa | 2.7V | 03:49:18 | 01:24:09 | 00:00:00 | |
| DL1XH1-15 | 2026-09-01 12:01:22 | 49.77838 | 8.26195 | 10° | 15km/h | 21964m | 4.8m/s | -50.9°C | 3.7% | 43.1hPa | 2.6V | 03:49:25 | 01:24:02 | 00:00:00 | |
| BIOWL1-15 | 2026-09-01 12:01:20 | 49.77842 | 8.26196 | 9° | 15km/h | 21969m | 4.9m/s | -51°C | 0.9% | 43.1hPa | 2.7V | 03:50:09 | 01:24:03 | 00:00:00 | |
| DL1XH-west | 2026-09-01 12:01:13 | 49.77824 | 8.26187 | 33° | 18km/h | 21944m | 6.1m/s | -50.9°C | 0.8% | 43.2hPa | 2.7V | 03:50:09 | 01:23:58 | 00:00:00 | |
| DL1XH1-15 | 2026-09-01 12:01:11 | 49.77804 | 8.26148 | 40° | 16km/h | 21911m | 5m/s | -51.3°C | 3.6% | 43.5hPa | 2.6V | 03:49:36 | 01:23:51 | 00:00:00 | |
| BIOWL1-15 | 2026-09-01 12:01:07 | 49.77806 | 8.26153 | 56° | 15km/h | 21916m | 4.2m/s | -51.2°C | 0.8% | 43.5hPa | 2.6V | 03:50:09 | 01:23:52 | 00:00:00 | |
| DL1XH-west | 2026-09-01 12:01:03 | 49.77792 | 8.26144 | 352° | 16km/h | 21896m | 5.9m/s | -51.5°C | 0.9% | 43.6hPa | 2.7V | 03:50:09 | 01:23:48 | 00:00:00 | |
| DM3KS-11 | 2026-09-01 12:01:02 | 49.77783 | 8.26148 | 343° | 20km/h | 21887m | 3.4m/s | -51.7°C | 1.3% | 43.6hPa | 2.6V | 00:00:00 | 00:00:00 | 00:00:00 | |
| DL1XH1-15 | 2026-09-01 12:01:01 | 49.77753 | 8.26149 | 7° | 20km/h | 21864m | 5.3m/s | -52.3°C | 4.1% | 43.8hPa | 2.6V | 03:49:46 | 01:23:41 | 00:00:00 | |
| BIOWL1-15 | 2026-09-01 12:00:56 | 49.77753 | 8.26149 | 8° | 20km/h | 21864m | 5.3m/s | -52.3°C | 1.1% | 43.8hPa | 2.6V | 03:50:09 | 01:23:41 | 00:00:00 | |
| DL1XH-west | 2026-09-01 12:00:53 | 49.77735 | 8.26145 | 9° | 22km/h | 21844m | 5.1m/s | -52.3°C | 1% | 43.9hPa | 2.6V | 03:50:09 | 01:23:37 | 00:00:00 | |
| BIOWL1-15 | 2026-09-01 12:00:45 | 49.77703 | 8.26153 | 343° | 18km/h | 21810m | 4m/s | -52.1°C | 1.1% | 44.2hPa | 2.6V | 03:50:09 | 01:23:30 | 00:00:00 | |
| DL1XH-west | 2026-09-01 12:00:41 | 49.77689 | 8.26164 | 332° | 13km/h | 21791m | 4.3m/s | -52.1°C | 1% | 44.3hPa | 2.6V | 03:50:09 | 01:23:26 | 00:00:00 | |
| DL3AQ-11 | 2026-09-01 12:00:40 | 49.77682 | 8.26167 | 358° | 15km/h | 21780m | 4.7m/s | -52.2°C | 1.3% | 44.4hPa | 2.6V | 00:00:00 | 00:00:00 | 00:00:00 | |
| DL1XH1-15 | 2026-09-01 12:00:39 | 49.77669 | 8.26167 | 349° | 18km/h | 21766m | 5.3m/s | -52.3°C | 4% | 44.5hPa | 2.6V | 03:50:06 | 01:23:21 | 00:00:00 | |
| BIOWL1-15 | 2026-09-01 12:00:35 | 49.77638 | 8.26185 | 338° | 18km/h | 21733m | 5.4m/s | -52.4°C | 1.1% | 44.7hPa | 2.7V | 03:51:00 | 01:23:14 | 00:00:00 | |
| DL1XH-west | 2026-09-01 12:00:30 | 49.77642 | 8.26183 | 345° | 20km/h | 21738m | 4.3m/s | -52.4°C | 1.1% | 44.6hPa | 2.6V | 03:51:00 | 01:23:15 | 00:00:00 | |
| DJ2DS-15 | 2026-09-01 12:00:29 | 49.77638 | 8.26185 | 338° | 9km/h | 21734m | 5.4m/s | -52.3°C | 4.1% | 44.6hPa | 2.6V | 00:00:00 | 01:23:14 | 00:00:00 | |
| DL1XH1-15 | 2026-09-01 12:00:28 | 49.77628 | 8.26193 | 338° | 11km/h | 21719m | 4.6m/s | -52.2°C | 4% | 44.8hPa | 2.6V | 03:50:16 | 01:23:11 | 00:00:00 | |
| DL1XH-west | 2026-09-01 12:00:19 | 49.77612 | 8.26192 | 30° | 7km/h | 21673m | 4.3m/s | -52.4°C | 1% | 45.1hPa | 2.7V | 03:51:00 | 01:23:02 | 00:00:00 | |
| BIOWL1-15 | 2026-09-01 12:00:19 | 49.77609 | 8.26189 | 25° | 4km/h | 21658m | 3.9m/s | -52.4°C | 1.1% | 45.2hPa | 2.6V | 03:51:00 | 01:22:59 | 00:00:00 | |
| DL1XH-west | 2026-09-01 12:00:09 | 49.77600 | 8.26174 | 48° | 15km/h | 21634m | 4.5m/s | -52.7°C | 1.1% | 45.4hPa | 2.6V | 03:51:00 | 01:22:54 | 00:00:00 | |
| DJ2DS-15 | 2026-09-01 12:00:09 | 49.77599 | 8.26174 | 48° | 15km/h | 21634m | 4.5m/s | -52.6°C | 4.1% | 45.3hPa | 2.7V | 00:00:00 | 01:22:54 | 00:00:00 | |
| DL1XH1-15 | 2026-09-01 12:00:07 | 49.77583 | 8.26156 | 33° | 15km/h | 21599m | 4.1m/s | -53.2°C | 4.1% | 45.6hPa | 2.7V | 03:50:40 | 01:22:47 | 00:00:00 | |
| BIOWL1-15 | 2026-09-01 12:00:07 | 49.77568 | 8.26141 | 55° | 16km/h | 21576m | 6.1m/s | -53.3°C | 1.2% | 45.8hPa | 2.7V | 03:51:00 | 01:22:42 | 00:00:00 | |
| DL1XH-west | 2026-09-01 11:59:58 | 49.77571 | 8.26146 | 44° | 15km/h | 21581m | 4.2m/s | -53.3°C | 1.1% | 45.8hPa | 2.7V | 03:51:00 | 01:22:43 | 00:00:00 | |
| DL1XH1-15 | 2026-09-01 11:59:57 | 49.77561 | 8.26111 | 88° | 13km/h | 21551m | 4.5m/s | -53.2°C | 4.3% | 46hPa | 2.7V | 03:50:50 | 01:22:37 | 00:00:00 | |
| BIOWL1-15 | 2026-09-01 11:59:53 | 49.77561 | 8.26116 | 75° | 15km/h | 21556m | 4.6m/s | -53.2°C | 1.1% | 45.9hPa | 2.6V | 03:51:00 | 01:22:38 | 00:00:00 | |
| DL1XH-west | 2026-09-01 11:59:48 | 49.77564 | 8.26090 | 106° | 11km/h | 21531m | 5.8m/s | -53.1°C | 1.2% | 46.1hPa | 2.6V | 03:51:00 | 01:22:33 | 00:00:00 | |
| DL9SK-14 | 2026-09-01 11:59:46 | 49.77563 | 8.26082 | 61° | 7km/h | 21516m | 5.4m/s | -53.2°C | 1.4% | 46.2hPa | 2.7V | 00:00:00 | 00:00:00 | 00:00:00 | |
| BIOWL1-15 | 2026-09-01 11:59:43 | 49.77556 | 8.26066 | 50° | 7km/h | 21491m | 4.5m/s | -53.1°C | 1.1% | 46.4hPa | 2.7V | 03:51:51 | 01:22:25 | 00:00:00 | |
| DL1XH-west | 2026-09-01 11:59:37 | 49.77556 | 8.26057 | 118° | 11km/h | 21477m | 4.7m/s | -52.9°C | 1.1% | 46.5hPa | 2.7V | 03:51:51 | 01:22:22 | 00:00:00 | |
| BIOWL1-15 | 2026-09-01 11:59:30 | 49.77560 | 8.26030 | 72° | 11km/h | 21428m | 4.4m/s | -53.1°C | 1.2% | 46.9hPa | 2.6V | 03:51:51 | 01:22:12 | 00:00:00 | |
| DD1CC8 | 2026-09-01 11:59:29 | 49.77561 | 8.26034 | 70° | 7km/h | 21433m | 5.2m/s | -53.1°C | 1.4% | 46.8hPa | 2.6V | 00:00:00 | 00:00:00 | 00:00:00 | |
| DL1XH1-15 | 2026-09-01 11:59:27 | 49.77565 | 8.25999 | 126° | 20km/h | 21405m | 4.2m/s | -52.9°C | 4.2% | 47hPa | 2.6V | 03:51:20 | 01:22:07 | 00:00:00 | |
| DL1XH-west | 2026-09-01 11:59:26 | 49.77559 | 8.26026 | 83° | 13km/h | 21424m | 4.1m/s | -53°C | 1.2% | 46.9hPa | 2.7V | 03:51:51 | 01:22:11 | 00:00:00 | |
| BIOWL1-15 | 2026-09-01 11:59:18 | 49.77584 | 8.25976 | 127° | 7km/h | 21366m | 6.3m/s | -52.6°C | 1.1% | 47.3hPa | 2.7V | 03:51:51 | 01:21:59 | 00:00:00 | |
| DL1XH1-15 | 2026-09-01 11:59:17 | 49.77585 | 8.25968 | 85° | 11km/h | 21351m | 5.2m/s | -52.5°C | 4.1% | 47.4hPa | 2.7V | 03:51:31 | 01:21:56 | 00:00:00 | |
| DL1XH-west | 2026-09-01 11:59:16 | 49.77581 | 8.25981 | 137° | 11km/h | 21377m | 4.9m/s | -52.7°C | 1.1% | 47.2hPa | 2.6V | 03:51:51 | 01:22:01 | 00:00:00 | |
| DJ2DS-15 | 2026-09-01 11:59:15 | 49.77584 | 8.25976 | 126° | 5km/h | 21366m | 6.3m/s | -52.6°C | 1.4% | 47.3hPa | 2.7V | 00:00:00 | 00:00:00 | 00:00:00 | |
| DJ2DS-15 | 2026-09-01 11:59:09 | 49.77584 | 8.25958 | 77° | 7km/h | 21341m | 3.8m/s | -52.4°C | 4.0% | 47.5hPa | 2.7V | 00:00:00 | 01:21:54 | 00:00:00 | |
| DL1XH1-15 | 2026-09-01 11:59:06 | 49.77587 | 8.25932 | 135° | 5km/h | 21298m | 5.9m/s | -52.2°C | 3.9% | 47.8hPa | 2.7V | 03:51:42 | 01:21:45 | 00:00:00 | |
| BIOWL1-15 | 2026-09-01 11:59:06 | 49.77583 | 8.25939 | 127° | 9km/h | 21313m | 5.3m/s | -52.2°C | 1% | 47.7hPa | 2.6V | 03:51:51 | 01:21:48 | 00:00:00 | |
| DL1XH-west | 2026-09-01 11:59:05 | 49.77581 | 8.25943 | 96° | 5km/h | 21323m | 4m/s | -52.3°C | 1% | 47.6hPa | 2.7V | 03:51:51 | 01:21:50 | 00:00:00 | |
| DL1XH-west | 2026-09-01 11:58:55 | 49.77587 | 8.25922 | 77° | 9km/h | 21273m | 4.1m/s | -52.3°C | 1.1% | 48hPa | 2.7V | 03:51:51 | 01:21:40 | 00:00:00 | |
| BIOWL1-15 | 2026-09-01 11:58:55 | 49.77586 | 8.25919 | 73° | 9km/h | 21269m | 4.8m/s | -52.3°C | 1.1% | 48.1hPa | 2.7V | 03:51:51 | 01:21:39 | 00:00:00 | |
| DL1XH1-15 | 2026-09-01 11:58:55 | 49.77584 | 8.25911 | 78° | 7km/h | 21254m | 4.3m/s | -52.5°C | 4.1% | 48.2hPa | 2.6V | 03:51:51 | 01:21:36 | 00:00:00 | |
| DL3AQ-11 | 2026-09-01 11:58:50 | 49.77584 | 8.25905 | 106° | 9km/h | 21244m | 4.8m/s | -52.5°C | 1.4% | 48.2hPa | 2.6V | 00:00:00 | 00:00:00 | 00:00:00 | |
| AU51GT2 | 2026-09-01 11:58:46 | 49.77585 | 8.25894 | 65° | 5km/h | 21224m | 4.3m/s | -52.5°C | 1.4% | 48.4hPa | 2.6V | 00:00:00 | 00:00:00 | 00:00:00 | |
| DL1XH1-15 | 2026-09-01 11:58:44 | 49.77581 | 8.25877 | 62° | 15km/h | 21203m | 5.4m/s | -52.3°C | 4% | 48.5hPa | 2.6V | 03:52:01 | 01:21:26 | 00:00:00 | |
| DL1XH-west | 2026-09-01 11:58:44 | 49.77585 | 8.25891 | 66° | 9km/h | 21219m | 5.1m/s | -52.5°C | 1.1% | 48.4hPa | 2.7V | 03:52:42 | 01:21:29 | 00:00:00 | |
| BIOWL1-15 | 2026-09-01 11:58:43 | 49.77578 | 8.25834 | 63° | 9km/h | 21159m | 3.9m/s | -52.3°C | 1.1% | 48.9hPa | 2.6V | 03:52:42 | 01:21:17 | 00:00:00 | |
| BIOWL7-15 | 2026-09-01 11:58:41 | 49.77582 | 8.25882 | 68° | 15km/h | 21209m | 5.0m/s | -52.4°C | 1.3% | 48.5hPa | 2.6V | 00:00:00 | 00:00:00 | 00:00:00 | |
| DH7VM-15 | 2026-09-01 11:58:40 | 49.77580 | 8.25877 | 63° | 15km/h | 21203m | 5.4m/s | -52.3°C | 1.3% | 48.5hPa | 2.6V | 00:00:00 | 00:00:00 | 00:00:00 | |
| DJ2DS-15 | 2026-09-01 11:58:39 | 49.77576 | 8.25862 | 77° | 13km/h | 21188m | 4.9m/s | -52.4°C | 1.3% | 48.6hPa | 2.6V | 00:00:00 | 00:00:00 | 00:00:00 | |
| DL2OL | 2026-09-01 11:58:37 | 49.77576 | 8.25857 | 93° | 15km/h | 21183m | 6.0m/s | -52.3°C | 1.3% | 48.7hPa | 2.6V | 00:00:00 | 00:00:00 | 00:00:00 | |
| DJ2KF-10 | 2026-09-01 11:58:36 | 49.77576 | 8.25851 | 104° | 15km/h | 21178m | 4.5m/s | -52.2°C | 4.0% | 48.7hPa | 2.6V | 00:00:00 | 01:21:21 | 00:00:00 | |
| CB1BUN | 2026-09-01 11:58:35 | 49.77576 | 8.25851 | 105° | 15km/h | 21178m | 4.6m/s | -52.2°C | 1.3% | 48.8hPa | 2.6V | 03:52:00 | 00:00:00 | 00:00:00 | |
| DL1XH1-15 | 2026-09-01 11:58:34 | 49.77577 | 8.25831 | 56° | 11km/h | 21155m | 4.1m/s | -52.2°C | 4.1% | 48.9hPa | 2.6V | 03:52:11 | 01:21:16 | 00:00:00 | |
| DL1XH-west | 2026-09-01 11:58:34 | 49.77578 | 8.25841 | 107° | 11km/h | 21168m | 5.3m/s | -52.2°C | 1% | 48.8hPa | 2.7V | 03:52:42 | 01:21:19 | 00:00:00 | |
| BIOWL1-15 | 2026-09-01 11:58:24 | 49.77567 | 8.25787 | 77° | 13km/h | 21120m | 4.3m/s | -52°C | 1% | 49.2hPa | 2.6V | 03:52:42 | 01:21:09 | 00:00:00 | |
| DL1XH-west | 2026-09-01 11:58:23 | 49.77567 | 8.25782 | 82° | 13km/h | 21116m | 4.5m/s | -52°C | 1% | 49.2hPa | 2.7V | 03:52:42 | 01:21:08 | 00:00:00 | |
| BIOWL1-15 | 2026-09-01 11:58:14 | 49.77574 | 8.25729 | 99° | 18km/h | 21072m | 4.3m/s | -52.2°C | 1% | 49.5hPa | 2.7V | 03:52:42 | 01:20:59 | 00:00:00 | |
| DL1XH1-15 | 2026-09-01 11:58:13 | 49.77575 | 8.25717 | 88° | 15km/h | 21062m | 5.9m/s | -52.1°C | 4% | 49.6hPa | 2.6V | 03:52:30 | 01:20:57 | 00:00:00 | |
| DL1XH-west | 2026-09-01 11:58:12 | 49.77575 | 8.25717 | 89° | 15km/h | 21062m | 5.9m/s | -52.1°C | 1.1% | 49.6hPa | 2.6V | 03:52:42 | 01:20:57 | 00:00:00 | |
| DJ2DS-15 | 2026-09-01 11:58:09 | 49.77573 | 8.25701 | 76° | 15km/h | 21047m | 5.7m/s | -52.3°C | 3.9% | 49.7hPa | 2.7V | 03:52:00 | 01:20:54 | 00:00:00 | |
| DL1XH1-15 | 2026-09-01 11:58:06 | 49.77564 | 8.25667 | 58° | 15km/h | 21012m | 5.8m/s | -52.2°C | 3.9% | 50hPa | 2.7V | 03:52:40 | 01:20:47 | 00:00:00 | |
| BIOWL1-15 | 2026-09-01 11:58:06 | 49.77567 | 8.25676 | 59° | 11km/h | 21021m | 4.2m/s | -52.1°C | 1% | 49.9hPa | 2.6V | 03:52:42 | 01:20:49 | 00:00:00 | |
| DL1XH-west | 2026-09-01 11:58:01 | 49.77562 | 8.25662 | 58° | 16km/h | 21007m | 4.5m/s | -52.2°C | 1% | 50hPa | 2.7V | 03:52:42 | 01:20:46 | 00:00:00 | |
| BIOWL1-15 | 2026-09-01 11:57:55 | 49.77546 | 8.25619 | 60° | 11km/h | 20967m | 6.6m/s | -52.4°C | 1% | 50.3hPa | 2.6V | 03:53:33 | 01:20:38 | 00:00:00 | |
| DB0ND-19 | 2026-09-01 11:57:55 | 49.77546 | 8.25619 | 60° | 11km/h | 20967m | 6.6m/s | -52.4°C | 1.3% | 50.3hPa | 2.6V | 00:00:00 | 00:00:00 | 00:00:00 | |
| DL1XH1-15 | 2026-09-01 11:57:53 | 49.77545 | 8.25616 | 50° | 9km/h | 20961m | 5m/s | -52.4°C | 4% | 50.4hPa | 2.6V | 03:52:50 | 01:20:37 | 00:00:00 | |
| DL1XH-west | 2026-09-01 11:57:50 | 49.77540 | 8.25606 | 51° | 13km/h | 20946m | 4.4m/s | -52.4°C | 1% | 50.5hPa | 2.7V | 03:53:33 | 01:20:34 | 00:00:00 | |
| DL3AQ-11 | 2026-09-01 11:57:48 | 49.77534 | 8.25598 | 36° | 16km/h | 20937m | 6.2m/s | -52.5°C | 1.3% | 50.6hPa | 2.7V | 00:00:00 | 00:00:00 | 00:00:00 | |
| DL1XH1-15 | 2026-09-01 11:57:46 | 49.77514 | 8.25571 | 49° | 24km/h | 20910m | 4.9m/s | -52.4°C | 3.9% | 50.8hPa | 2.7V | 03:53:00 | 01:20:27 | 00:00:00 | |
| DL1ZP-14 | 2026-09-01 11:57:45 | 49.77522 | 8.25584 | 43° | 22km/h | 20921m | 6.4m/s | -52.4°C | 1.3% | 50.7hPa | 2.7V | 00:00:00 | 00:00:00 | 00:00:00 | |
| BIOWL1-15 | 2026-09-01 11:57:43 | 49.77518 | 8.25578 | 49° | 24km/h | 20915m | 5.1m/s | -52.5°C | 1% | 50.8hPa | 2.7V | 03:53:33 | 01:20:28 | 00:00:00 | |
| DL1XH-west | 2026-09-01 11:57:40 | 49.77503 | 8.25552 | 46° | 20km/h | 20895m | 4.7m/s | -52.5°C | 1% | 50.9hPa | 2.6V | 03:53:33 | 01:20:24 | 00:00:00 | |
| DB0UT-9 | 2026-09-01 11:57:37 | 49.77499 | 8.25546 | 52° | 20km/h | 20889m | 6.3m/s | -52.7°C | 1.3% | 51.0hPa | 2.6V | 03:53:00 | 00:00:00 | 00:00:00 | |
| DJ2KF-10 | 2026-09-01 11:57:36 | 49.77494 | 8.25535 | 55° | 15km/h | 20879m | 4.7m/s | -52.9°C | 4.0% | 51.0hPa | 2.6V | 03:53:00 | 01:20:21 | 00:00:00 | |
| DL1XH1-15 | 2026-09-01 11:57:34 | 49.77485 | 8.25520 | 55° | 13km/h | 20858m | 4.8m/s | -53.1°C | 4.1% | 51.2hPa | 2.6V | 03:53:10 | 01:20:17 | 00:00:00 | |
| BIOWL1-15 | 2026-09-01 11:57:33 | 49.77487 | 8.25524 | 43° | 11km/h | 20863m | 4m/s | -53.1°C | 1.1% | 51.2hPa | 2.6V | 03:53:33 | 01:20:18 | 00:00:00 | |
| DL1XH-west | 2026-09-01 11:57:28 | 49.77480 | 8.25497 | 73° | 16km/h | 20838m | 5.7m/s | -53.3°C | 1.1% | 51.4hPa | 2.6V | 03:53:33 | 01:20:13 | 00:00:00 | |
| BIOWL1-15 | 2026-09-01 11:57:23 | 49.77476 | 8.25471 | 93° | 13km/h | 20812m | 4.4m/s | -53.3°C | 1.2% | 51.6hPa | 2.6V | 03:53:33 | 01:20:08 | 00:00:00 | |
| DL1XH-west | 2026-09-01 11:57:17 | 49.77472 | 8.25445 | 68° | 15km/h | 20781m | 4.4m/s | -53.4°C | 1.2% | 51.8hPa | 2.6V | 03:53:33 | 01:20:02 | 00:00:00 | |
| BIOWL1-15 | 2026-09-01 11:57:16 | 49.77459 | 8.25417 | 56° | 20km/h | 20756m | 4.8m/s | -53.5°C | 1.2% | 52hPa | 2.6V | 03:53:33 | 01:19:57 | 00:00:00 | |
| DL1XH1-15 | 2026-09-01 11:57:14 | 49.77459 | 8.25417 | 55° | 20km/h | 20756m | 4.8m/s | -53.5°C | 4.2% | 52hPa | 2.6V | 03:53:30 | 01:19:57 | 00:00:00 | |
| DL1XH-west | 2026-09-01 11:57:06 | 49.77446 | 8.25384 | 34° | 13km/h | 20728m | 4.2m/s | -53.4°C | 1.1% | 52.2hPa | 2.6V | 03:54:24 | 01:19:51 | 00:00:00 | |
| DJ2KF-10 | 2026-09-01 11:57:06 | 49.77445 | 8.25384 | 34° | 13km/h | 20728m | 4.2m/s | -53.4°C | 4.1% | 52.2hPa | 2.6V | 00:00:00 | 01:19:51 | 00:00:00 | |
| DL1XH1-15 | 2026-09-01 11:57:03 | 49.77437 | 8.25377 | 27° | 11km/h | 20708m | 4.5m/s | -53.8°C | 4.3% | 52.4hPa | 2.6V | 03:53:40 | 01:19:47 | 00:00:00 | |
| BIOWL1-15 | 2026-09-01 11:57:02 | 49.77437 | 8.25377 | 28° | 11km/h | 20708m | 4.5m/s | -53.8°C | 1.2% | 52.4hPa | 2.6V | 03:54:24 | 01:19:47 | 00:00:00 | |
| DL1XH-west | 2026-09-01 11:56:56 | 49.77418 | 8.25350 | 54° | 13km/h | 20672m | 5.3m/s | -53.8°C | 1.2% | 52.7hPa | 2.6V | 03:54:24 | 01:19:40 | 00:00:00 | |
| BIOWL1-15 | 2026-09-01 11:56:51 | 49.77412 | 8.25338 | 71° | 7km/h | 20651m | 6.2m/s | -53.7°C | 1.2% | 52.9hPa | 2.6V | 03:54:24 | 01:19:36 | 00:00:00 | |
| DJ2DS-15 | 2026-09-01 11:56:50 | 49.77412 | 8.25334 | 76° | 5km/h | 20641m | 5.2m/s | -53.8°C | 1.4% | 53.0hPa | 2.6V | 00:00:00 | 00:00:00 | 00:00:00 | |
| HTAHTA | 2026-09-01 11:56:46 | 49.77409 | 8.25326 | 64° | 9km/h | 20625m | 4.1m/s | 0°C | -1.0% | -1.0hPa | 2.6V | 00:00:00 | 00:00:00 | 00:00:00 | |
| DL1XH1-15 | 2026-09-01 11:56:45 | 49.77407 | 8.25301 | 88° | 20km/h | 20604m | 5.2m/s | -53.7°C | 4.4% | 53.3hPa | 2.6V | 03:54:00 | 01:19:27 | 00:00:00 | |
| DL1XH-west | 2026-09-01 11:56:44 | 49.77407 | 8.25316 | 88° | 18km/h | 20614m | 5.5m/s | -53.7°C | 1.3% | 53.2hPa | 2.7V | 03:54:24 | 01:19:29 | 00:00:00 | |
| BIOWL1-15 | 2026-09-01 11:56:41 | 49.77408 | 8.25269 | 103° | 9km/h | 20573m | 3.5m/s | -53.5°C | 1.1% | 53.5hPa | 2.6V | 03:54:24 | 01:19:21 | 00:00:00 | |
| DL9SK-14 | 2026-09-01 11:56:40 | 49.77406 | 8.25282 | 90° | 11km/h | 20588m | 5.5m/s | -53.7°C | 1.4% | 53.4hPa | 2.6V | 00:00:00 | 00:00:00 | 00:00:00 | |
| DL3AQ-11 | 2026-09-01 11:56:39 | 49.77407 | 8.25277 | 103° | 11km/h | 20582m | 6.3m/s | -53.6°C | 1.4% | 53.5hPa | 2.6V | 00:00:00 | 00:00:00 | 00:00:00 | |
| DJ2KF-10 | 2026-09-01 11:56:36 | 49.77408 | 8.25269 | 104° | 24km/h | 20573m | 3.4m/s | -53.5°C | 4.1% | 53.5hPa | 2.6V | 00:00:00 | 01:19:21 | 00:00:00 | |
| DL1XH1-15 | 2026-09-01 11:56:34 | 49.77406 | 8.25249 | 76° | 20km/h | 20553m | 5.7m/s | -53.5°C | 4.2% | 53.7hPa | 2.7V | 03:54:10 | 01:19:17 | 00:00:00 | |
| DL1XH-west | 2026-09-01 11:56:33 | 49.77407 | 8.25256 | 72° | 16km/h | 20558m | 4.7m/s | -53.4°C | 1.1% | 53.6hPa | 2.7V | 03:54:24 | 01:19:18 | 00:00:00 | |
| BIOWL1-15 | 2026-09-01 11:56:30 | 49.77400 | 8.25210 | 70° | 27km/h | 20533m | 6m/s | -53.5°C | 1.2% | 53.9hPa | 2.7V | 03:54:24 | 01:19:13 | 00:00:00 | |
| DL9PN | 2026-09-01 11:56:29 | 49.77397 | 8.25200 | 63° | 26km/h | 20527m | 4.9m/s | -53.4°C | 1.5% | 53.9hPa | 2.7V | 00:00:00 | 00:00:00 | 00:00:00 | |
| DL1XH1-15 | 2026-09-01 11:56:28 | 49.77389 | 8.25161 | 86° | 20km/h | 20504m | 4.1m/s | -53.5°C | 4.2% | 54.1hPa | 2.7V | 03:54:20 | 01:19:07 | 00:00:00 | |
| DL1XH-west | 2026-09-01 11:56:23 | 49.77389 | 8.25168 | 86° | 20km/h | 20508m | 4.4m/s | -53.4°C | 1.1% | 54.1hPa | 2.6V | 03:54:24 | 01:19:08 | 00:00:00 | |
| BIOWL1-15 | 2026-09-01 11:56:18 | 49.77379 | 8.25119 | 63° | 26km/h | 20479m | 5.7m/s | -53.4°C | 1.1% | 54.3hPa | 2.6V | 03:55:15 | 01:19:02 | 00:00:00 | |
| HTAHTA | 2026-09-01 11:56:15 | 49.77373 | 8.25101 | 64° | 26km/h | 20469m | 4.5m/s | 0°C | -1.0% | -1.0hPa | 2.6V | 00:00:00 | 00:00:00 | 00:00:00 | |
| DB0UT-9 | 2026-09-01 11:56:14 | 49.77373 | 8.25101 | 66° | 26km/h | 20469m | 4.5m/s | -53.5°C | 1.4% | 54.4hPa | 2.6V | 03:55:00 | 00:00:00 | 00:00:00 | |
| DL1XH1-15 | 2026-09-01 11:56:13 | 49.77363 | 8.25070 | 63° | 31km/h | 20453m | 4.8m/s | -53.4°C | 4% | 54.5hPa | 2.6V | 03:54:30 | 01:18:57 | 00:00:00 | |
| DL1XH-west | 2026-09-01 11:56:12 | 49.77355 | 8.25037 | 76° | 27km/h | 20437m | 4m/s | -53.6°C | 1.1% | 54.7hPa | 2.7V | 03:55:15 | 01:18:54 | 00:00:00 | |
| SSTOLZ84 | 2026-09-01 11:56:12 | 49.77360 | 8.25059 | 68° | 31km/h | 20448m | 5.7m/s | -53.5°C | 1.3% | 54.6hPa | 2.7V | 00:00:00 | 00:00:00 | 00:00:00 | |
| HEMX73-11 | 2026-09-01 11:56:10 | 49.77360 | 8.25059 | 69° | 31km/h | 20448m | 5.7m/s | -53.5°C | 1.3% | 54.6hPa | 2.7V | 03:55:00 | 00:00:00 | 00:00:00 | |
| DJ2DS-15 | 2026-09-01 11:56:09 | 49.77355 | 8.25037 | 77° | 26km/h | 20437m | 3.9m/s | -53.5°C | 4.1% | 54.6hPa | 2.7V | 00:00:00 | 01:18:54 | 00:00:00 | |
| DL9SK-14 | 2026-09-01 11:56:08 | 49.77354 | 8.25026 | 75° | 26km/h | 20433m | 4.7m/s | -53.6°C | 1.4% | 54.7hPa | 2.7V | 00:00:00 | 00:00:00 | 00:00:00 | |
| DL1XH1-15 | 2026-09-01 11:56:07 | 49.77343 | 8.24977 | 74° | 18km/h | 20403m | 4m/s | -54°C | 4.3% | 55hPa | 2.7V | 03:54:40 | 01:18:47 | 00:00:00 | |
| BIOWL1-15 | 2026-09-01 11:56:06 | 49.77343 | 8.24977 | 75° | 18km/h | 20403m | 4m/s | -54.1°C | 1.2% | 55hPa | 2.7V | 03:55:15 | 01:18:47 | 00:00:00 | |
| DL1XH-west | 2026-09-01 11:56:00 | 49.77339 | 8.24963 | 61° | 22km/h | 20393m | 5.9m/s | -54.2°C | 1.2% | 55.1hPa | 2.6V | 03:55:15 | 01:18:45 | 00:00:00 | |
| BIOWL1-15 | 2026-09-01 11:55:56 | 49.77296 | 8.24866 | 46° | 18km/h | 20339m | 5.8m/s | -54.6°C | 1.2% | 55.5hPa | 2.6V | 03:55:15 | 01:18:34 | 00:00:00 | |
| DL4BBY-15 | 2026-09-01 11:55:55 | 49.77322 | 8.24916 | 64° | 24km/h | 20369m | 4.6m/s | -54.9°C | 0% | 0hPa | 2.7V | 00:00:00 | 00:00:00 | 00:00:00 | |
| DL1XH1-15 | 2026-09-01 11:55:54 | 49.77309 | 8.24887 | 49° | 29km/h | 20354m | 4.5m/s | -54.3°C | 4.3% | 55.4hPa | 2.7V | 03:54:50 | 01:18:37 | 00:00:00 | |
| DM3KS-11 | 2026-09-01 11:55:51 | 49.77305 | 8.24879 | 45° | 26km/h | 20350m | 4.1m/s | -54.4°C | 1.4% | 55.4hPa | 2.7V | 00:00:00 | 00:00:00 | 00:00:00 | |
| DB0ND-19 | 2026-09-01 11:55:50 | 49.77296 | 8.24866 | 45° | 18km/h | 20339m | 5.8m/s | -54.6°C | 1.5% | 55.5hPa | 2.7V | 00:00:00 | 00:00:00 | 00:00:00 | |
| DL1XH-west | 2026-09-01 11:55:50 | 49.77300 | 8.24872 | 45° | 24km/h | 20345m | 5.8m/s | -54.5°C | 1.2% | 55.5hPa | 2.6V | 03:55:15 | 01:18:35 | 00:00:00 | |
| DL8DAS-14 | 2026-09-01 11:55:49 | 49.77296 | 8.24866 | 45° | 18km/h | 20339m | 5.8m/s | -54.6°C | 1.5% | 55.5hPa | 2.7V | 00:00:00 | 00:00:00 | 00:00:00 | |
| DL3AQ-11 | 2026-09-01 11:55:48 | 49.77291 | 8.24858 | 39° | 13km/h | 20329m | 4.9m/s | -54.6°C | 1.5% | 55.6hPa | 2.7V | 00:00:00 | 00:00:00 | 00:00:00 | |
| DL1XH1-15 | 2026-09-01 11:55:47 | 49.77272 | 8.24834 | 49° | 22km/h | 20303m | 5.5m/s | -54.8°C | 4.6% | 55.9hPa | 2.7V | 03:55:00 | 01:18:27 | 00:00:00 | |
| BIOWL1-15 | 2026-09-01 11:55:43 | 49.77276 | 8.24840 | 43° | 22km/h | 20309m | 5.5m/s | -54.8°C | 1.4% | 55.8hPa | 2.7V | 03:55:15 | 01:18:28 | 00:00:00 | |
| DL1XH-west | 2026-09-01 11:55:39 | 49.77259 | 8.24813 | 42° | 27km/h | 20289m | 5.9m/s | -54.6°C | 1.3% | 56hPa | 2.6V | 03:55:15 | 01:18:24 | 00:00:00 | |
| DJ2DS-15 | 2026-09-01 11:55:38 | 49.77247 | 8.24800 | 30° | 27km/h | 20279m | 4.4m/s | -54.6°C | 1.5% | 56.0hPa | 2.7V | 00:00:00 | 00:00:00 | 00:00:00 | |
| DL9SK-14 | 2026-09-01 11:55:37 | 49.77247 | 8.24800 | 30° | 27km/h | 20279m | 4.4m/s | -54.6°C | 1.5% | 56.0hPa | 2.7V | 00:00:00 | 00:00:00 | 00:00:00 | |
| DJ2KF-10 | 2026-09-01 11:55:36 | 49.77241 | 8.24795 | 31° | 24km/h | 20274m | 5.3m/s | -54.4°C | 4.4% | 56.0hPa | 2.7V | 03:55:00 | 01:18:21 | 00:00:00 | |
| DB0UT-9 | 2026-09-01 11:55:34 | 49.77231 | 8.24784 | 38° | 22km/h | 20263m | 4.6m/s | -54.4°C | 1.5% | 56.2hPa | 2.7V | 03:55:00 | 00:00:00 | 00:00:00 | |
| DL1XH1-15 | 2026-09-01 11:55:33 | 49.77222 | 8.24773 | 33° | 26km/h | 20253m | 6.4m/s | -54.5°C | 4.4% | 56.3hPa | 2.7V | 03:55:10 | 01:18:17 | 00:00:00 | |
| DL1XH-west | 2026-09-01 11:55:28 | 49.77201 | 8.24750 | 42° | 24km/h | 20232m | 4.8m/s | -54.3°C | 1.3% | 56.5hPa | 2.7V | 03:55:15 | 01:18:13 | 00:00:00 | |
| DL1XH1-15 | 2026-09-01 11:55:27 | 49.77172 | 8.24719 | 37° | 22km/h | 20201m | 4.5m/s | -54.3°C | 4.4% | 56.7hPa | 2.7V | 03:55:20 | 01:18:07 | 00:00:00 | |
| DL1XH-west | 2026-09-01 11:55:18 | 49.77152 | 8.24699 | 31° | 27km/h | 20181m | 4.5m/s | -54.4°C | 1.3% | 56.9hPa | 2.6V | 03:56:06 | 01:18:03 | 00:00:00 | |
| BIOWL1-15 | 2026-09-01 11:55:17 | 49.77146 | 8.24693 | 33° | 26km/h | 20177m | 4.8m/s | -54.3°C | 1.3% | 56.9hPa | 2.7V | 03:56:06 | 01:18:02 | 00:00:00 | |
| DB0UT-9 | 2026-09-01 11:55:12 | 49.77126 | 8.24673 | 26° | 24km/h | 20158m | 5.6m/s | -54.2°C | 1.6% | 57.2hPa | 2.7V | 03:56:00 | 00:00:00 | 00:00:00 | |
| DJ2DS-15 | 2026-09-01 11:55:09 | 49.77103 | 8.24658 | 31° | 26km/h | 20138m | 5.3m/s | -54.3°C | 4.5% | 57.3hPa | 2.7V | 00:00:00 | 01:17:54 | 00:00:00 | |
| HEMX73-11 | 2026-09-01 11:55:08 | 49.77103 | 8.24658 | 32° | 26km/h | 20138m | 5.3m/s | -54.3°C | 1.5% | 57.3hPa | 2.7V | 03:56:00 | 00:00:00 | 00:00:00 | |
| DL1XH1-15 | 2026-09-01 11:55:07 | 49.77058 | 8.24632 | 10° | 24km/h | 20102m | 4.4m/s | -54.2°C | 4.3% | 57.6hPa | 2.7V | 03:55:40 | 01:17:47 | 00:00:00 | |
| DL1XH-west | 2026-09-01 11:55:07 | 49.77091 | 8.24647 | 27° | 27km/h | 20128m | 4.9m/s | -54.4°C | 1.4% | 57.4hPa | 2.6V | 03:56:06 | 01:17:52 | 00:00:00 | |
| BIOWL1-15 | 2026-09-01 11:55:06 | 49.77078 | 8.24639 | 16° | 29km/h | 20117m | 4.4m/s | -54.4°C | 1.3% | 57.5hPa | 2.6V | 03:56:06 | 01:17:50 | 00:00:00 | |
| DL1XH-west | 2026-09-01 11:54:56 | 49.77025 | 8.24626 | 19° | 24km/h | 20071m | 4.2m/s | -54°C | 1.3% | 57.9hPa | 2.7V | 03:56:06 | 01:17:41 | 00:00:00 | |
| BIOWL1-15 | 2026-09-01 11:54:55 | 49.77019 | 8.24623 | 16° | 26km/h | 20067m | 5.5m/s | -54°C | 1.4% | 58hPa | 2.6V | 03:56:06 | 01:17:40 | 00:00:00 | |
| DL9PN | 2026-09-01 11:54:55 | 49.77012 | 8.24621 | 13° | 27km/h | 20061m | 5.8m/s | -53.9°C | 1.5% | 58.0hPa | 2.7V | 00:00:00 | 00:00:00 | 00:00:00 | |
| DL1XH1-15 | 2026-09-01 11:54:53 | 49.76998 | 8.24615 | 13° | 31km/h | 20051m | 5.6m/s | -53.9°C | 4.4% | 58.1hPa | 2.7V | 03:55:50 | 01:17:37 | 00:00:00 | |
| DL3AQ-11 | 2026-09-01 11:54:51 | 49.76990 | 8.24612 | 12° | 29km/h | 20046m | 4.7m/s | -53.9°C | 1.5% | 58.1hPa | 2.6V | 00:00:00 | 00:00:00 | 00:00:00 | |
| DD1CC8 | 2026-09-01 11:54:49 | 49.76976 | 8.24610 | 0° | 26km/h | 20037m | 5.7m/s | -54.0°C | 1.5% | 58.2hPa | 2.6V | 00:00:00 | 00:00:00 | 00:00:00 | |
| DB0ND-19 | 2026-09-01 11:54:48 | 49.76964 | 8.24612 | 347° | 22km/h | 20026m | 4.4m/s | -53.9°C | 1.4% | 58.3hPa | 2.6V | 00:00:00 | 00:00:00 | 00:00:00 | |
| DL1XH1-15 | 2026-09-01 11:54:47 | 49.76938 | 8.24612 | 2° | 24km/h | 20000m | 5.7m/s | -53.8°C | 4.5% | 58.5hPa | 2.6V | 03:56:00 | 01:17:27 | 00:00:00 | |
| DL1XH-west | 2026-09-01 11:54:45 | 49.76949 | 8.24614 | 6° | 18km/h | 20011m | 4.7m/s | -53.9°C | 1.3% | 58.5hPa | 2.6V | 03:56:06 | 01:17:29 | 00:00:00 | |
| BIOWL1-15 | 2026-09-01 11:54:45 | 49.76932 | 8.24612 | 6° | 26km/h | 19995m | 4.9m/s | -53.7°C | 1.3% | 58.6hPa | 2.7V | 03:56:06 | 01:17:26 | 00:00:00 | |
| DL1XH-west | 2026-09-01 11:54:35 | 49.76889 | 8.24612 | 344° | 27km/h | 19964m | 4.5m/s | -53.6°C | 1.2% | 58.9hPa | 2.6V | 03:56:57 | 01:17:20 | 00:00:00 | |
| DL1XH1-15 | 2026-09-01 11:54:33 | 49.76872 | 8.24618 | 353° | 22km/h | 19948m | 4.6m/s | -53.4°C | 4.3% | 59hPa | 2.7V | 03:56:10 | 01:17:17 | 00:00:00 | |
| BIOWL1-15 | 2026-09-01 11:54:30 | 49.76861 | 8.24619 | 356° | 24km/h | 19938m | 5.8m/s | -53.4°C | 1.2% | 59.1hPa | 2.7V | 03:56:57 | 01:17:15 | 00:00:00 | |
| DJ2DS-15 | 2026-09-01 11:54:29 | 49.76855 | 8.24620 | 1° | 26km/h | 19933m | 4.8m/s | -53.3°C | 4.3% | 59.1hPa | 2.7V | 00:00:00 | 01:17:14 | 00:00:00 | |
| HEMX73-11 | 2026-09-01 11:54:28 | 49.76848 | 8.24619 | 8° | 26km/h | 19928m | 5.3m/s | -53.3°C | 1.5% | 59.2hPa | 2.7V | 03:56:00 | 00:00:00 | 00:00:00 | |
| DL1XH1-15 | 2026-09-01 11:54:27 | 49.76805 | 8.24613 | 344° | 27km/h | 19898m | 3.9m/s | -53.1°C | 4.3% | 59.5hPa | 2.7V | 03:56:20 | 01:17:07 | 00:00:00 | |
| DL1XH-west | 2026-09-01 11:54:25 | 49.76812 | 8.24611 | 352° | 31km/h | 19903m | 5.3m/s | -53.2°C | 1.3% | 59.4hPa | 2.6V | 03:56:57 | 01:17:08 | 00:00:00 | |
| BIOWL1-15 | 2026-09-01 11:54:19 | 49.76782 | 8.24624 | 350° | 22km/h | 19878m | 5.4m/s | -53°C | 1.1% | 59.7hPa | 2.6V | 03:56:57 | 01:17:03 | 00:00:00 | |
| DL1XH-west | 2026-09-01 11:54:14 | 49.76760 | 8.24628 | 358° | 20km/h | 19857m | 5.6m/s | -52.8°C | 1.2% | 59.9hPa | 2.6V | 03:56:57 | 01:16:59 | 00:00:00 | |
| DL1XH1-15 | 2026-09-01 11:54:13 | 49.76749 | 8.24629 | 350° | 24km/h | 19848m | 4.1m/s | -52.6°C | 4.2% | 59.9hPa | 2.6V | 03:56:30 | 01:16:57 | 00:00:00 | |
| BIOWL1-15 | 2026-09-01 11:54:09 | 49.76729 | 8.24637 | 345° | 31km/h | 19832m | 3.5m/s | -52.5°C | 1.1% | 60.1hPa | 2.6V | 03:56:57 | 01:16:54 | 00:00:00 | |
| DL1XH-west | 2026-09-01 11:54:04 | 49.76704 | 8.24644 | 9° | 11km/h | 19807m | 4.6m/s | -52.5°C | 1.1% | 60.3hPa | 2.7V | 03:56:57 | 01:16:49 | 00:00:00 | |
| BIOWL1-15 | 2026-09-01 11:53:58 | 49.76677 | 8.24648 | 352° | 24km/h | 19777m | 4.3m/s | -52.3°C | 1.1% | 60.6hPa | 2.7V | 03:56:57 | 01:16:43 | 00:00:00 | |
| DL1XH-west | 2026-09-01 11:53:54 | 49.76658 | 8.24642 | 30° | 16km/h | 19756m | 4.7m/s | -52.2°C | 1.1% | 60.8hPa | 2.6V | 03:56:57 | 01:16:39 | 00:00:00 | |
| DL1XH1-15 | 2026-09-01 11:53:53 | 49.76650 | 8.24637 | 17° | 18km/h | 19745m | 5.2m/s | -52.2°C | 4.2% | 60.9hPa | 2.7V | 03:56:50 | 01:16:37 | 00:00:00 | |
| BIOWL1-15 | 2026-09-01 11:53:48 | 49.76629 | 8.24631 | 356° | 15km/h | 19716m | 6.1m/s | -52°C | 1% | 61.2hPa | 2.7V | 03:56:57 | 01:16:31 | 00:00:00 | |
| DL3AQ-11 | 2026-09-01 11:53:48 | 49.76633 | 8.24631 | 1° | 11km/h | 19721m | 4.8m/s | -52.0°C | 1.3% | 61.1hPa | 2.6V | 00:00:00 | 00:00:00 | 00:00:00 | |
| DL1XH1-15 | 2026-09-01 11:53:47 | 49.76612 | 8.24631 | 13° | 15km/h | 19695m | 5.1m/s | -51.9°C | 3.9% | 61.4hPa | 2.6V | 03:57:00 | 01:16:27 | 00:00:00 | |
| DL1XH-west | 2026-09-01 11:53:44 | 49.76621 | 8.24632 | 360° | 18km/h | 19705m | 4.6m/s | -51.9°C | 1% | 61.3hPa | 2.6V | 03:57:48 | 01:16:29 | 00:00:00 | |
| BIOWL1-15 | 2026-09-01 11:53:40 | 49.76599 | 8.24628 | 3° | 9km/h | 19675m | 4.2m/s | -51.7°C | 1% | 61.6hPa | 2.6V | 03:57:48 | 01:16:23 | 00:00:00 | |
| DL8DAS-15 | 2026-09-01 11:53:39 | 49.76605 | 8.24629 | 8° | 13km/h | 19685m | 5.9m/s | -51.8°C | 1.4% | 61.5hPa | 2.7V | 00:00:00 | 00:00:00 | 00:00:00 | |
| AU51GT2 | 2026-09-01 11:53:36 | 49.76594 | 8.24626 | 13° | 5km/h | 19660m | 4.0m/s | -51.6°C | 1.3% | 61.7hPa | 2.7V | 00:00:00 | 00:00:00 | 00:00:00 | |
| DJ2KF-10 | 2026-09-01 11:53:35 | 49.76594 | 8.24626 | 14° | 7km/h | 19660m | 3.9m/s | -51.6°C | 3.9% | 61.7hPa | 2.7V | 03:57:00 | 01:16:20 | 00:00:00 | |
| DL1XH1-15 | 2026-09-01 11:53:34 | 49.76587 | 8.24628 | 340° | 15km/h | 19644m | 4.5m/s | -51.6°C | 3.9% | 61.9hPa | 2.6V | 03:57:10 | 01:16:17 | 00:00:00 | |
| DL1XH-west | 2026-09-01 11:53:33 | 49.76590 | 8.24627 | 344° | 11km/h | 19650m | 6.5m/s | -51.6°C | 1% | 61.8hPa | 2.6V | 03:57:48 | 01:16:18 | 00:00:00 | |
| DH7VM-15 | 2026-09-01 11:53:33 | 49.76590 | 8.24627 | 345° | 11km/h | 19650m | 6.5m/s | -51.6°C | 1.3% | 61.8hPa | 2.6V | 00:00:00 | 00:00:00 | 00:00:00 | |
| DL3AQ-11 | 2026-09-01 11:53:32 | 49.76583 | 8.24630 | 341° | 13km/h | 19640m | 4.2m/s | -51.6°C | 1.3% | 61.9hPa | 2.6V | 00:00:00 | 00:00:00 | 00:00:00 | |
| DK5PH-5 | 2026-09-01 11:53:31 | 49.76583 | 8.24630 | 342° | 7km/h | 19640m | 4.2m/s | -51.6°C | 3.9% | 61.9hPa | 2.6V | 00:00:00 | 01:16:16 | 00:00:00 | |
| DB0UT-9 | 2026-09-01 11:53:30 | 49.76583 | 8.24630 | 343° | 15km/h | 19640m | 4.2m/s | -51.6°C | 1.4% | 61.9hPa | 2.6V | 03:57:00 | 00:00:00 | 00:00:00 | |
| DJ2DS-15 | 2026-09-01 11:53:29 | 49.76577 | 8.24632 | 356° | 5km/h | 19629m | 4.4m/s | -51.6°C | 3.9% | 62.0hPa | 2.6V | 00:00:00 | 01:16:14 | 00:00:00 | |
| DL1XH1-15 | 2026-09-01 11:53:27 | 49.76571 | 8.24632 | 94° | 4km/h | 19594m | 4m/s | -51.9°C | 4% | 62.3hPa | 2.6V | 03:57:20 | 01:16:07 | 00:00:00 | |
| BIOWL1-15 | 2026-09-01 11:53:27 | 49.76573 | 8.24633 | 349° | 7km/h | 19619m | 6.4m/s | -51.7°C | 1% | 62.1hPa | 2.6V | 03:57:48 | 01:16:12 | 00:00:00 | |
| DL1XH-west | 2026-09-01 11:53:23 | 49.76571 | 8.24632 | 94° | 4km/h | 19594m | 4m/s | -51.9°C | 1% | 62.4hPa | 2.6V | 03:57:48 | 01:16:07 | 00:00:00 | |
| BIOWL1-15 | 2026-09-01 11:53:17 | 49.76564 | 8.24633 | 350° | 7km/h | 19572m | 5.3m/s | -51.8°C | 0.9% | 62.6hPa | 2.6V | 03:57:48 | 01:16:02 | 00:00:00 | |
| DL1XH-west | 2026-09-01 11:53:13 | 49.76557 | 8.24626 | 42° | 7km/h | 19548m | 4.8m/s | -51.7°C | 0.9% | 62.8hPa | 2.6V | 03:57:48 | 01:15:57 | 00:00:00 | |
| BIOWL1-15 | 2026-09-01 11:53:08 | 49.76546 | 8.24598 | 37° | 15km/h | 19512m | 4m/s | -51.8°C | 1% | 63.1hPa | 2.7V | 03:57:48 | 01:15:49 | 00:00:00 | |
| DL1XH-west | 2026-09-01 11:53:02 | 49.76538 | 8.24586 | 49° | 16km/h | 19498m | 3.7m/s | -51.7°C | 0.9% | 63.3hPa | 2.6V | 03:57:48 | 01:15:46 | 00:00:00 | |
| BIOWL1-15 | 2026-09-01 11:52:56 | 49.76521 | 8.24557 | 58° | 20km/h | 19473m | 4.8m/s | -51.8°C | 0.9% | 63.5hPa | 2.6V | 03:57:48 | 01:15:41 | 00:00:00 | |
| DL1XH-west | 2026-09-01 11:52:52 | 49.76511 | 8.24534 | 50° | 16km/h | 19455m | 4.3m/s | -52.3°C | 1% | 63.7hPa | 2.6V | 03:58:39 | 01:15:37 | 00:00:00 | |
| DO1YAY-16 | 2026-09-01 11:52:51 | 49.76506 | 8.24524 | 57° | 16km/h | 19446m | 5.3m/s | -52.3°C | 1.4% | 63.8hPa | 2.7V | 00:00:00 | 00:00:00 | 00:00:00 | |
| DL9PN | 2026-09-01 11:52:50 | 49.76506 | 8.24524 | 57° | 16km/h | 19446m | 5.3m/s | -52.3°C | 1.4% | 63.8hPa | 2.7V | 00:00:00 | 00:00:00 | 00:00:00 | |
| DJ2DS-15 | 2026-09-01 11:52:49 | 49.76503 | 8.24518 | 59° | 27km/h | 19442m | 4.0m/s | -52.2°C | 4.0% | 63.8hPa | 2.7V | 03:57:00 | 01:15:34 | 00:00:00 | |
| DL1XH1-15 | 2026-09-01 11:52:47 | 49.76474 | 8.24460 | 59° | 31km/h | 19409m | 3.2m/s | -52.5°C | 4% | 64.2hPa | 2.6V | 03:58:00 | 01:15:27 | 00:00:00 | |
| BIOWL1-15 | 2026-09-01 11:52:46 | 49.76493 | 8.24498 | 45° | 27km/h | 19428m | 5.2m/s | -52.5°C | 1.1% | 64hPa | 2.6V | 03:58:39 | 01:15:31 | 00:00:00 | |
| DM3KS-11 | 2026-09-01 11:52:45 | 49.76488 | 8.24490 | 47° | 29km/h | 19424m | 4.4m/s | -52.5°C | 1.4% | 64.0hPa | 2.6V | 00:00:00 | 00:00:00 | 00:00:00 | |
| DL1XH-west | 2026-09-01 11:52:42 | 49.76474 | 8.24460 | 60° | 31km/h | 19409m | 3.2m/s | -52.5°C | 1.1% | 64.2hPa | 2.6V | 03:58:39 | 01:15:27 | 00:00:00 | |
| BIOWL1-15 | 2026-09-01 11:52:36 | 49.76453 | 8.24404 | 62° | 26km/h | 19383m | 3.5m/s | -52.7°C | 1.2% | 64.4hPa | 2.6V | 03:58:39 | 01:15:21 | 00:00:00 | |
| DJ2KF-10 | 2026-09-01 11:52:35 | 49.76450 | 8.24396 | 54° | 27km/h | 19379m | 4.5m/s | -52.6°C | 4.1% | 64.4hPa | 2.6V | 00:00:00 | 01:15:20 | 00:00:00 | |
| DL1XH1-15 | 2026-09-01 11:52:33 | 49.76435 | 8.24375 | 34° | 27km/h | 19364m | 4.7m/s | -52.6°C | 4.2% | 64.6hPa | 2.6V | 03:58:10 | 01:15:17 | 00:00:00 | |
| DL1XH-west | 2026-09-01 11:52:31 | 49.76430 | 8.24369 | 37° | 27km/h | 19359m | 5.5m/s | -52.6°C | 1.1% | 64.7hPa | 2.6V | 03:58:39 | 01:15:16 | 00:00:00 | |
| DL9SK-14 | 2026-09-01 11:52:30 | 49.76425 | 8.24363 | 39° | 26km/h | 19354m | 4.2m/s | -52.5°C | 1.4% | 64.7hPa | 2.7V | 00:00:00 | 00:00:00 | 00:00:00 | |
| DJ2DS-15 | 2026-09-01 11:52:29 | 49.76419 | 8.24356 | 39° | 27km/h | 19350m | 4.4m/s | -52.5°C | 4.1% | 64.7hPa | 2.7V | 00:00:00 | 01:15:14 | 00:00:00 | |
| DL3AQ-11 | 2026-09-01 11:52:28 | 49.76410 | 8.24344 | 41° | 24km/h | 19339m | 4.6m/s | -52.5°C | 1.4% | 64.9hPa | 2.7V | 00:00:00 | 00:00:00 | 00:00:00 | |
| DL1XH1-15 | 2026-09-01 11:52:27 | 49.76390 | 8.24303 | 49° | 29km/h | 19317m | 4.3m/s | -52.5°C | 4.1% | 65.1hPa | 2.7V | 03:58:20 | 01:15:07 | 00:00:00 | |
| BIOWL1-15 | 2026-09-01 11:52:26 | 49.76397 | 8.24321 | 60° | 27km/h | 19324m | 3.8m/s | -52.5°C | 1.1% | 65hPa | 2.6V | 03:58:39 | 01:15:09 | 00:00:00 | |
| DL1XH-west | 2026-09-01 11:52:21 | 49.76384 | 8.24295 | 42° | 29km/h | 19312m | 5.2m/s | -52.5°C | 1.1% | 65.2hPa | 2.6V | 03:58:39 | 01:15:06 | 00:00:00 | |
| DL9PN | 2026-09-01 11:52:20 | 49.76371 | 8.24281 | 30° | 33km/h | 19304m | 3.5m/s | -52.5°C | 1.4% | 65.2hPa | 2.7V | 00:00:00 | 00:00:00 | 00:00:00 | |
| DL1XH1-15 | 2026-09-01 11:52:13 | 49.76325 | 8.24237 | 29° | 24km/h | 19273m | 4m/s | -52.5°C | 4.1% | 65.5hPa | 2.7V | 03:58:30 | 01:14:57 | 00:00:00 | |
| BIOWL1-15 | 2026-09-01 11:52:13 | 49.76330 | 8.24241 | 27° | 26km/h | 19277m | 4.7m/s | -52.5°C | 1.2% | 65.5hPa | 2.7V | 03:58:39 | 01:14:58 | 00:00:00 | |
| DL1XH-west | 2026-09-01 11:52:11 | 49.76315 | 8.24226 | 43° | 24km/h | 19262m | 5.2m/s | -52.5°C | 1.1% | 65.6hPa | 2.6V | 03:58:39 | 01:14:55 | 00:00:00 | |
| DJ2DS-15 | 2026-09-01 11:52:09 | 49.76311 | 8.24219 | 44° | 20km/h | 19258m | 3.9m/s | -52.3°C | 4.1% | 65.7hPa | 2.6V | 00:00:00 | 01:14:54 | 00:00:00 | |
| DL1XH1-15 | 2026-09-01 11:52:08 | 49.76270 | 8.24188 | 18° | 26km/h | 19224m | 3.6m/s | -52.2°C | 4.1% | 66hPa | 2.6V | 03:58:40 | 01:14:47 | 00:00:00 | |
| BIOWL1-15 | 2026-09-01 11:52:02 | 49.76251 | 8.24186 | 350° | 13km/h | 19206m | 3.2m/s | -52.1°C | 1.2% | 66.2hPa | 2.7V | 03:59:30 | 01:14:43 | 00:00:00 | |
| DL1XH-west | 2026-09-01 11:52:00 | 49.76259 | 8.24185 | 2° | 20km/h | 19215m | 6m/s | -52.2°C | 1.2% | 66.1hPa | 2.6V | 03:59:30 | 01:14:45 | 00:00:00 | |
| DL1XH-west | 2026-09-01 11:51:50 | 49.76227 | 8.24160 | 26° | 16km/h | 19168m | 4.7m/s | -51.8°C | 1% | 66.6hPa | 2.6V | 03:59:30 | 01:14:35 | 00:00:00 | |
| BIOWL1-15 | 2026-09-01 11:51:49 | 49.76217 | 8.24153 | 18° | 11km/h | 19152m | 4.8m/s | -51.7°C | 1.1% | 66.8hPa | 2.7V | 03:59:30 | 01:14:32 | 00:00:00 | |
| DL3AQ-11 | 2026-09-01 11:51:48 | 49.76217 | 8.24153 | 18° | 11km/h | 19152m | 4.8m/s | -51.7°C | 1.4% | 66.8hPa | 2.6V | 00:00:00 | 00:00:00 | 00:00:00 | |
| DL1XH-west | 2026-09-01 11:51:39 | 49.76200 | 8.24144 | 39° | 9km/h | 19112m | 6.1m/s | -51.4°C | 1% | 67.2hPa | 2.6V | 03:59:30 | 01:14:24 | 00:00:00 | |
| BIOWL1-15 | 2026-09-01 11:51:38 | 49.76192 | 8.24139 | 18° | 13km/h | 19097m | 4.2m/s | -51.2°C | 1% | 67.4hPa | 2.6V | 03:59:30 | 01:14:21 | 00:00:00 | |
| DJ2KF-10 | 2026-09-01 11:51:35 | 49.76189 | 8.24137 | 30° | 9km/h | 19093m | 5.4m/s | -51.1°C | 4.0% | 67.3hPa | 2.7V | 03:59:00 | 01:14:20 | 00:00:00 | |
| DL1XH1-15 | 2026-09-01 11:51:32 | 49.76183 | 8.24128 | 52° | 7km/h | 19079m | 4.5m/s | -51.2°C | 4% | 67.5hPa | 2.7V | 03:59:10 | 01:14:17 | 00:00:00 | |
| BIOWL1-15 | 2026-09-01 11:51:28 | 49.76179 | 8.24121 | 53° | 13km/h | 19050m | 4.6m/s | -51.1°C | 0.9% | 67.8hPa | 2.7V | 03:59:30 | 01:14:11 | 00:00:00 | |
| DL1XH1-15 | 2026-09-01 11:51:27 | 49.76169 | 8.24107 | 40° | 13km/h | 19032m | 3.9m/s | -50.9°C | 3.9% | 68hPa | 2.7V | 03:59:20 | 01:14:07 | 00:00:00 | |
| BIOWL1-15 | 2026-09-01 11:51:16 | 49.76168 | 8.24083 | 165° | 5km/h | 19000m | 5.4m/s | -50.6°C | 0.9% | 68.4hPa | 2.7V | 03:59:30 | 01:14:00 | 00:00:00 | |
| DL1XH1-15 | 2026-09-01 11:51:13 | 49.76169 | 8.24082 | 53° | 4km/h | 18986m | 5.6m/s | -50.7°C | 3.9% | 68.5hPa | 2.7V | 03:59:30 | 01:13:57 | 00:00:00 | |
| CB1BUN | 2026-09-01 11:51:12 | 49.76169 | 8.24082 | 54° | 4km/h | 18986m | 5.6m/s | -50.7°C | 1.4% | 68.5hPa | 2.6V | 03:59:00 | 00:00:00 | 00:00:00 | |
| DB0ND-19 | 2026-09-01 11:51:11 | 49.76168 | 8.24076 | 86° | 13km/h | 18976m | 5.1m/s | -50.5°C | 1.3% | 68.6hPa | 2.6V | 00:00:00 | 00:00:00 | 00:00:00 | |
| DL8DAS-14 | 2026-09-01 11:51:10 | 49.76168 | 8.24070 | 94° | 15km/h | 18971m | 5.0m/s | -50.4°C | 1.3% | 68.7hPa | 2.6V | 00:00:00 | 00:00:00 | 00:00:00 | |
| DJ2DS-15 | 2026-09-01 11:51:09 | 49.76168 | 8.24070 | 95° | 13km/h | 18971m | 4.9m/s | -50.3°C | 3.9% | 68.6hPa | 2.6V | 00:00:00 | 01:13:54 | 00:00:00 | |
| DL3AQ-11 | 2026-09-01 11:51:08 | 49.76170 | 8.24057 | 109° | 16km/h | 18959m | 5.8m/s | -50.3°C | 1.3% | 68.8hPa | 2.6V | 00:00:00 | 00:00:00 | 00:00:00 | |
| DL1XH1-15 | 2026-09-01 11:51:07 | 49.76176 | 8.24035 | 65° | 11km/h | 18931m | 7.1m/s | -50.3°C | 3.7% | 69.1hPa | 2.6V | 03:59:40 | 01:13:47 | 00:00:00 | |
| BIOWL1-15 | 2026-09-01 11:51:04 | 49.76175 | 8.24042 | 116° | 11km/h | 18944m | 4.5m/s | -50.3°C | 0.9% | 69hPa | 2.6V | 04:00:21 | 01:13:49 | 00:00:00 | |
| BIOWL1-15 | 2026-09-01 11:50:54 | 49.76172 | 8.24005 | 132° | 16km/h | 18891m | 5.2m/s | -50°C | 0.8% | 69.5hPa | 2.7V | 04:00:21 | 01:13:39 | 00:00:00 | |
| DL1XH1-15 | 2026-09-01 11:50:54 | 49.76179 | 8.23996 | 143° | 18km/h | 18880m | 4.6m/s | -50°C | 3.8% | 69.6hPa | 2.6V | 03:59:50 | 01:13:37 | 00:00:00 | |
| DL1XH-west | 2026-09-01 11:50:54 | 49.76176 | 8.24001 | 142° | 18km/h | 18885m | 5.8m/s | -50.1°C | 0.9% | 69.6hPa | 2.6V | 04:00:21 | 01:13:38 | 00:00:00 | |
| DL3AQ-11 | 2026-09-01 11:50:52 | 49.76183 | 8.23991 | 137° | 20km/h | 18877m | 3.2m/s | -50.0°C | 1.3% | 69.7hPa | 2.6V | 00:00:00 | 00:00:00 | 00:00:00 | |
| BIOWL9-15 | 2026-09-01 11:50:48 | 49.76188 | 8.23960 | 73° | 26km/h | 18853m | 5.6m/s | -49.9°C | 1.2% | 69.9hPa | 2.6V | 00:00:00 | 00:00:00 | 00:00:00 | |
| DL1XH1-15 | 2026-09-01 11:50:47 | 49.76187 | 8.23927 | 136° | 15km/h | 18825m | 7.3m/s | -50°C | 3.6% | 70.2hPa | 2.6V | 04:00:00 | 01:13:27 | 00:00:00 | |
| DL9PN | 2026-09-01 11:50:46 | 49.76186 | 8.23951 | 69° | 24km/h | 18848m | 4.5m/s | -50.0°C | 1.3% | 70.0hPa | 2.6V | 00:00:00 | 00:00:00 | 00:00:00 | |
| BIOWL1-15 | 2026-09-01 11:50:43 | 49.76184 | 8.23931 | 118° | 15km/h | 18832m | 5.7m/s | -50°C | 0.8% | 70.1hPa | 2.6V | 04:00:21 | 01:13:28 | 00:00:00 | |
| DL1XH-west | 2026-09-01 11:50:42 | 49.76187 | 8.23927 | 137° | 15km/h | 18825m | 7.3m/s | -50°C | 0.8% | 70.2hPa | 2.6V | 04:00:21 | 01:13:27 | 00:00:00 | |
| BIOWL1-15 | 2026-09-01 11:50:33 | 49.76222 | 8.23813 | 96° | 31km/h | 18748m | 6.1m/s | -50.3°C | 0.8% | 71.1hPa | 2.7V | 04:00:21 | 01:13:13 | 00:00:00 | |
| DL1XH-west | 2026-09-01 11:50:31 | 49.76218 | 8.23845 | 104° | 24km/h | 18764m | 5.9m/s | -50.2°C | 0.8% | 70.9hPa | 2.6V | 04:00:21 | 01:13:16 | 00:00:00 | |
| DJ2DS-15 | 2026-09-01 11:50:29 | 49.76221 | 8.23825 | 97° | 38km/h | 18753m | 4.8m/s | -50.2°C | 3.6% | 70.9hPa | 2.6V | 00:00:00 | 01:13:14 | 00:00:00 | |
| DL3AQ-11 | 2026-09-01 11:50:28 | 49.76222 | 8.23801 | 94° | 29km/h | 18741m | 8.7m/s | -50.3°C | 1.2% | 71.2hPa | 2.6V | 00:00:00 | 00:00:00 | 00:00:00 | |
| DL1XH1-15 | 2026-09-01 11:50:27 | 49.76229 | 8.23735 | 104° | 38km/h | 18712m | 6.4m/s | -50.6°C | 3.7% | 71.4hPa | 2.6V | 04:00:20 | 01:13:07 | 00:00:00 | |
| DL1XH-west | 2026-09-01 11:50:21 | 49.76232 | 8.23721 | 105° | 37km/h | 18706m | 4.7m/s | -50.7°C | 0.8% | 71.5hPa | 2.6V | 04:00:21 | 01:13:06 | 00:00:00 | |
| BIOWL1-15 | 2026-09-01 11:50:19 | 49.76242 | 8.23646 | 104° | 38km/h | 18680m | 5.8m/s | -50.9°C | 0.9% | 71.8hPa | 2.6V | 04:01:12 | 01:13:01 | 00:00:00 | |
| BIOWL9-15 | 2026-09-01 11:50:17 | 49.76242 | 8.23646 | 103° | 38km/h | 18680m | 5.8m/s | -50.9°C | 1.3% | 71.8hPa | 2.6V | 00:00:00 | 00:00:00 | 00:00:00 | |
| DL9PN | 2026-09-01 11:50:15 | 49.76245 | 8.23632 | 102° | 37km/h | 18675m | 3.7m/s | -50.9°C | 1.3% | 71.9hPa | 2.6V | 00:00:00 | 00:00:00 | 00:00:00 | |
| DL1XH1-15 | 2026-09-01 11:50:13 | 49.76250 | 8.23587 | 98° | 44km/h | 18659m | 4.1m/s | -50.9°C | 3.7% | 72hPa | 2.6V | 04:00:30 | 01:12:57 | 00:00:00 | |
| DL1XH-west | 2026-09-01 11:50:10 | 49.76254 | 8.23553 | 100° | 44km/h | 18649m | 4.5m/s | -50.9°C | 0.9% | 72.2hPa | 2.6V | 04:01:12 | 01:12:55 | 00:00:00 | |
| DM3KS-11 | 2026-09-01 11:50:10 | 49.76255 | 8.23536 | 100° | 42km/h | 18645m | 4.6m/s | -50.9°C | 1.3% | 72.2hPa | 2.7V | 00:00:00 | 00:00:00 | 00:00:00 | |
| DJ2DS-15 | 2026-09-01 11:50:09 | 49.76255 | 8.23536 | 101° | 44km/h | 18645m | 4.6m/s | -50.9°C | 3.7% | 72.1hPa | 2.7V | 00:00:00 | 01:12:54 | 00:00:00 | |
| BIOWL1-15 | 2026-09-01 11:50:08 | 49.76257 | 8.23473 | 82° | 37km/h | 18623m | 6.6m/s | -50.9°C | 0.8% | 72.4hPa | 2.6V | 04:01:12 | 01:12:50 | 00:00:00 | |
| DL8DAS-14 | 2026-09-01 11:50:08 | 49.76258 | 8.23504 | 92° | 40km/h | 18635m | 4.7m/s | -50.9°C | 1.3% | 72.3hPa | 2.7V | 00:00:00 | 00:00:00 | 00:00:00 | |
| DL1XH1-15 | 2026-09-01 11:50:07 | 49.76252 | 8.23434 | 76° | 37km/h | 18607m | 6.7m/s | -51.3°C | 3.7% | 72.6hPa | 2.7V | 04:00:40 | 01:12:47 | 00:00:00 | |
| DL1XH-west | 2026-09-01 11:50:00 | 49.76248 | 8.23404 | 83° | 40km/h | 18598m | 4.8m/s | -51.8°C | 1% | 72.7hPa | 2.6V | 04:01:12 | 01:12:45 | 00:00:00 | |
| BIOWL1-15 | 2026-09-01 11:49:57 | 49.76249 | 8.23314 | 90° | 55km/h | 18570m | 3.7m/s | -51.9°C | 1% | 73.1hPa | 2.6V | 04:01:12 | 01:12:40 | 00:00:00 | |
| DL9SK-14 | 2026-09-01 11:49:55 | 49.76249 | 8.23314 | 89° | 53km/h | 18570m | 3.7m/s | -51.9°C | 1.4% | 73.1hPa | 2.6V | 00:00:00 | 00:00:00 | 00:00:00 | |
| DL1XH1-15 | 2026-09-01 11:49:53 | 49.76246 | 8.23253 | 80° | 47km/h | 18556m | 4.7m/s | -51.9°C | 4% | 73.2hPa | 2.6V | 04:00:50 | 01:12:37 | 00:00:00 | |
| DL1XH-west | 2026-09-01 11:49:49 | 49.76238 | 8.23200 | 76° | 46km/h | 18543m | 4.6m/s | -51.9°C | 1% | 73.3hPa | 2.7V | 04:01:12 | 01:12:34 | 00:00:00 | |
| DL3AQ-11 | 2026-09-01 11:49:48 | 49.76234 | 8.23166 | 80° | 44km/h | 18531m | 4.3m/s | -51.9°C | 1.4% | 73.5hPa | 2.7V | 00:00:00 | 00:00:00 | 00:00:00 | |
| BIOWL9-15 | 2026-09-01 11:49:46 | 49.76230 | 8.23130 | 82° | 49km/h | 18521m | 5.9m/s | -51.9°C | 1.4% | 73.6hPa | 2.7V | 00:00:00 | 00:00:00 | 00:00:00 | |
| BIOWL1-15 | 2026-09-01 11:49:45 | 49.76226 | 8.23089 | 80° | 55km/h | 18511m | 5.7m/s | -52°C | 1% | 73.7hPa | 2.7V | 04:01:12 | 01:12:28 | 00:00:00 | |
| DL9PN | 2026-09-01 11:49:44 | 49.76228 | 8.23110 | 81° | 53km/h | 18516m | 4.3m/s | -52.0°C | 1.4% | 73.6hPa | 2.7V | 00:00:00 | 00:00:00 | 00:00:00 | |
| DL1XH-west | 2026-09-01 11:49:39 | 49.76215 | 8.22991 | 83° | 46km/h | 18485m | 4.2m/s | -52.1°C | 1% | 74hPa | 2.7V | 04:01:12 | 01:12:23 | 00:00:00 | |
| DL8DAS-14 | 2026-09-01 11:49:37 | 49.76213 | 8.22958 | 87° | 37km/h | 18475m | 4.7m/s | -52.1°C | 1.4% | 74.1hPa | 2.7V | 00:00:00 | 00:00:00 | 00:00:00 | |
| DJ2KF-10 | 2026-09-01 11:49:35 | 49.76213 | 8.22944 | 91° | 44km/h | 18470m | 4.6m/s | -52.1°C | 4.0% | 74.1hPa | 2.7V | 00:00:00 | 01:12:20 | 00:00:00 | |
| DB0UT-9 | 2026-09-01 11:49:34 | 49.76213 | 8.22944 | 91° | 37km/h | 18470m | 4.6m/s | -52.1°C | 1.5% | 74.2hPa | 2.7V | 04:01:00 | 00:00:00 | 00:00:00 | |
| DL1XH1-15 | 2026-09-01 11:49:33 | 49.76215 | 8.22897 | 91° | 47km/h | 18455m | 4.2m/s | -52.2°C | 4% | 74.4hPa | 2.7V | 04:01:10 | 01:12:17 | 00:00:00 | |
| BIOWL1-15 | 2026-09-01 11:49:33 | 49.76214 | 8.22914 | 94° | 42km/h | 18459m | 4.6m/s | -52.2°C | 1.1% | 74.3hPa | 2.6V | 04:01:12 | 01:12:18 | 00:00:00 | |
| DL1XH-west | 2026-09-01 11:49:28 | 49.76201 | 8.22773 | 74° | 55km/h | 18425m | 5.3m/s | -52.6°C | 1% | 74.7hPa | 2.6V | 04:02:03 | 01:12:11 | 00:00:00 | |
| DL1XH1-15 | 2026-09-01 11:49:28 | 49.76189 | 8.22708 | 79° | 37km/h | 18403m | 7.1m/s | -52.4°C | 4% | 74.9hPa | 2.7V | 04:01:20 | 01:12:07 | 00:00:00 | |
| BIOWL1-15 | 2026-09-01 11:49:23 | 49.76191 | 8.22722 | 75° | 37km/h | 18410m | 5.6m/s | -52.4°C | 1% | 74.8hPa | 2.7V | 04:02:03 | 01:12:08 | 00:00:00 | |
| DL1XH-west | 2026-09-01 11:49:15 | 49.76157 | 8.22502 | 70° | 49km/h | 18344m | 2.4m/s | -52.5°C | 1% | 75.6hPa | 2.6V | 04:02:03 | 01:11:55 | 00:00:00 | |
| DB0UT-9 | 2026-09-01 11:49:14 | 49.76176 | 8.22601 | 79° | 53km/h | 18369m | 4.1m/s | -52.6°C | 1.5% | 75.4hPa | 2.7V | 04:02:00 | 00:00:00 | 00:00:00 | |
| DL1XH1-15 | 2026-09-01 11:49:12 | 49.76165 | 8.22540 | 72° | 53km/h | 18353m | 4.4m/s | -52.5°C | 4.1% | 75.5hPa | 2.7V | 04:01:30 | 01:11:57 | 00:00:00 | |
| BIOWL1-15 | 2026-09-01 11:49:12 | 49.76165 | 8.22540 | 73° | 53km/h | 18353m | 4.4m/s | -52.5°C | 1.1% | 75.5hPa | 2.7V | 04:02:03 | 01:11:57 | 00:00:00 | |
| DF3TZ-5 | 2026-09-01 11:49:10 | 49.76157 | 8.22502 | 70° | 47km/h | 18344m | 2.4m/s | -52.5°C | 1.4% | 75.6hPa | 2.7V | 00:00:00 | 00:00:00 | 00:00:00 | |
| DJ2DS-15 | 2026-09-01 11:49:09 | 49.76153 | 8.22485 | 70° | 38km/h | 18341m | 4.1m/s | -52.6°C | 4.0% | 75.6hPa | 2.7V | 00:00:00 | 01:11:54 | 00:00:00 | |
| DD1CC8 | 2026-09-01 11:49:08 | 49.76145 | 8.22453 | 66° | 40km/h | 18329m | 7.4m/s | -52.7°C | 1.4% | 75.8hPa | 2.7V | 00:00:00 | 00:00:00 | 00:00:00 | |
| DL1XH1-15 | 2026-09-01 11:49:07 | 49.76128 | 8.22387 | 66° | 37km/h | 18301m | 5.1m/s | -52.4°C | 4.1% | 76.1hPa | 2.7V | 04:01:40 | 01:11:47 | 00:00:00 | |
| DL1XH-west | 2026-09-01 11:49:04 | 49.76134 | 8.22413 | 70° | 35km/h | 18311m | 7m/s | -52.5°C | 1.1% | 76hPa | 2.6V | 04:02:03 | 01:11:49 | 00:00:00 | |
| BIOWL1-15 | 2026-09-01 11:49:01 | 49.76118 | 8.22362 | 54° | 38km/h | 18291m | 4.9m/s | -52.5°C | 1.1% | 76.3hPa | 2.6V | 04:02:03 | 01:11:45 | 00:00:00 | |
| DL1XH-west | 2026-09-01 11:48:53 | 49.76074 | 8.22265 | 51° | 37km/h | 18251m | 6.1m/s | -52.6°C | 1.1% | 76.7hPa | 2.6V | 04:02:03 | 01:11:38 | 00:00:00 | |
| DL1XH1-15 | 2026-09-01 11:48:52 | 49.76068 | 8.22255 | 52° | 33km/h | 18245m | 7m/s | -52.6°C | 4.2% | 76.8hPa | 2.6V | 04:01:50 | 01:11:37 | 00:00:00 | |
| BIOWL1-15 | 2026-09-01 11:48:50 | 49.76060 | 8.22236 | 59° | 27km/h | 18233m | 5.5m/s | -52.6°C | 1.2% | 76.9hPa | 2.7V | 04:02:03 | 01:11:35 | 00:00:00 | |
| CB1BUN | 2026-09-01 11:48:50 | 49.76060 | 8.22236 | 60° | 27km/h | 18233m | 5.5m/s | -52.6°C | 1.5% | 76.9hPa | 2.6V | 04:02:00 | 00:00:00 | 00:00:00 | |
| DJ2DS-15 | 2026-09-01 11:48:49 | 49.76056 | 8.22228 | 55° | 31km/h | 18227m | 7.0m/s | -52.6°C | 4.2% | 77.0hPa | 2.6V | 00:00:00 | 01:11:34 | 00:00:00 | |
| DL1XH1-15 | 2026-09-01 11:48:47 | 49.76021 | 8.22167 | 42° | 37km/h | 18188m | 4m/s | -52.6°C | 4% | 77.4hPa | 2.7V | 04:02:00 | 01:11:27 | 00:00:00 | |
| DL1XH-west | 2026-09-01 11:48:43 | 49.76027 | 8.22177 | 47° | 37km/h | 18194m | 6.6m/s | -52.6°C | 1% | 77.4hPa | 2.6V | 04:02:03 | 01:11:28 | 00:00:00 | |
| BIOWL1-15 | 2026-09-01 11:48:39 | 49.76001 | 8.22140 | 44° | 33km/h | 18174m | 3.7m/s | -52.6°C | 1.1% | 77.7hPa | 2.6V | 04:02:03 | 01:11:24 | 00:00:00 | |
| DL3AQ-11 | 2026-09-01 11:48:39 | 49.75995 | 8.22131 | 46° | 29km/h | 18169m | 5.3m/s | -52.5°C | -1.0% | 77.7hPa | 2.7V | 00:00:00 | 00:00:00 | 00:00:00 | |
| HEMX73-11 | 2026-09-01 11:48:38 | 49.75995 | 8.22131 | 48° | 29km/h | 18163m | 6.7m/s | -52.5°C | 1.4% | 77.7hPa | 2.7V | 04:02:00 | 00:00:00 | 00:00:00 | |
| DL1XH1-15 | 2026-09-01 11:48:37 | 49.75967 | 8.22079 | 62° | 31km/h | 18131m | 4.7m/s | -52.5°C | 4% | 78.2hPa | 2.7V | 04:02:10 | 01:11:17 | 00:00:00 | |
| DL1XH-west | 2026-09-01 11:48:32 | 49.75967 | 8.22079 | 63° | 31km/h | 18131m | 4.7m/s | -52.5°C | 1.1% | 78.2hPa | 2.7V | 04:02:54 | 01:11:17 | 00:00:00 | |
| BIOWL1-15 | 2026-09-01 11:48:28 | 49.75954 | 8.22041 | 61° | 26km/h | 18109m | 6m/s | -52.8°C | 1.1% | 78.5hPa | 2.6V | 04:02:54 | 01:11:13 | 00:00:00 | |
| DL3AQ-11 | 2026-09-01 11:48:28 | 49.75951 | 8.22032 | 61° | 24km/h | 18105m | 3.6m/s | -52.8°C | -1.0% | 78.5hPa | 2.6V | 00:00:00 | 00:00:00 | 00:00:00 | |
| DL1XH1-15 | 2026-09-01 11:48:27 | 49.75937 | 8.21992 | 72° | 26km/h | 18078m | 7m/s | -52.9°C | 4.1% | 78.8hPa | 2.6V | 04:02:20 | 01:11:07 | 00:00:00 | |
| DL1XH-west | 2026-09-01 11:48:22 | 49.75937 | 8.21992 | 73° | 26km/h | 18078m | 7m/s | -52.9°C | 1.1% | 78.8hPa | 2.6V | 04:02:54 | 01:11:07 | 00:00:00 | |
| BIOWL1-15 | 2026-09-01 11:48:18 | 49.75933 | 8.21948 | 85° | 27km/h | 18057m | 4.8m/s | -52.7°C | 1.1% | 79.1hPa | 2.6V | 04:02:54 | 01:11:03 | 00:00:00 | |
| DL8DAS-15 | 2026-09-01 11:48:18 | 49.75933 | 8.21948 | 86° | 27km/h | 18057m | 4.8m/s | -52.7°C | 1.5% | 79.1hPa | 2.6V | 00:00:00 | 00:00:00 | 00:00:00 | |
| DL1XH1-15 | 2026-09-01 11:48:17 | 49.75928 | 8.21891 | 64° | 24km/h | 18024m | 4.8m/s | -52.9°C | 4.1% | 79.5hPa | 2.6V | 04:02:30 | 01:10:57 | 00:00:00 | |
| DL1XH-west | 2026-09-01 11:48:12 | 49.75928 | 8.21891 | 65° | 24km/h | 18024m | 4.8m/s | -52.9°C | 1.1% | 79.5hPa | 2.6V | 04:02:54 | 01:10:57 | 00:00:00 | |
| BIOWL1-15 | 2026-09-01 11:48:07 | 49.75908 | 8.21834 | 75° | 20km/h | 17988m | 6.1m/s | -53.1°C | 1.2% | 80hPa | 2.6V | 04:02:54 | 01:10:50 | 00:00:00 | |
| DL1XH1-15 | 2026-09-01 11:48:07 | 49.75906 | 8.21810 | 82° | 20km/h | 17972m | 8.6m/s | -53.2°C | 4.2% | 80.1hPa | 2.7V | 04:02:40 | 01:10:47 | 00:00:00 | |
| DL1XH-west | 2026-09-01 11:48:01 | 49.75905 | 8.21802 | 79° | 22km/h | 17965m | 4.5m/s | -53.1°C | 1.1% | 80.2hPa | 2.7V | 04:02:54 | 01:10:46 | 00:00:00 | |
| BIOWL1-15 | 2026-09-01 11:47:55 | 49.75912 | 8.21727 | 130° | 18km/h | 17912m | 6.1m/s | -52.9°C | 1.2% | 80.9hPa | 2.7V | 04:02:54 | 01:10:36 | 00:00:00 | |
| DL1XH-west | 2026-09-01 11:47:51 | 49.75914 | 8.21722 | 123° | 16km/h | 17905m | 5.9m/s | -52.9°C | 1.2% | 81hPa | 2.7V | 04:02:54 | 01:10:35 | 00:00:00 | |
| DL1XH1-15 | 2026-09-01 11:47:51 | 49.75924 | 8.21691 | 110° | 20km/h | 17879m | 5.8m/s | -52.9°C | 4.2% | 81.3hPa | 2.7V | 04:02:57 | 01:10:30 | 00:00:00 | |
| BIOWL1-15 | 2026-09-01 11:47:46 | 49.75926 | 8.21684 | 110° | 20km/h | 17874m | 4.6m/s | -52.8°C | 1.1% | 81.4hPa | 2.7V | 04:03:45 | 01:10:29 | 00:00:00 | |
| DL1XH-west | 2026-09-01 11:47:40 | 49.75936 | 8.21655 | 122° | 22km/h | 17852m | 5.9m/s | -52.7°C | 1.1% | 81.6hPa | 2.7V | 04:03:45 | 01:10:25 | 00:00:00 | |
| DL1XH1-15 | 2026-09-01 11:47:40 | 49.75951 | 8.21616 | 119° | 26km/h | 17825m | 5.6m/s | -52.6°C | 4.2% | 82hPa | 2.7V | 04:03:07 | 01:10:20 | 00:00:00 | |
| BIOWL1-15 | 2026-09-01 11:47:33 | 49.75959 | 8.21588 | 114° | 27km/h | 17808m | 5.7m/s | -52.4°C | 1.1% | 82.2hPa | 2.6V | 04:03:45 | 01:10:17 | 00:00:00 | |
| DL3AQ-11 | 2026-09-01 11:47:33 | 49.75962 | 8.21579 | 117° | 27km/h | 17802m | 7.6m/s | 0°C | -1.0% | -1.0hPa | 2.7V | 00:00:00 | 00:00:00 | 00:00:00 | |
| DL1XH1-15 | 2026-09-01 11:47:31 | 49.75979 | 8.21521 | 112° | 26km/h | 17768m | 7m/s | -52.2°C | 4% | 82.7hPa | 2.7V | 04:03:17 | 01:10:10 | 00:00:00 | |
| DL1XH-west | 2026-09-01 11:47:30 | 49.75982 | 8.21512 | 114° | 27km/h | 17763m | 4.1m/s | -52.1°C | 1.1% | 82.8hPa | 2.7V | 04:03:45 | 01:10:09 | 00:00:00 | |
| BIOWL1-15 | 2026-09-01 11:47:23 | 49.75984 | 8.21502 | 113° | 27km/h | 17758m | 5.5m/s | -52°C | 1% | 82.8hPa | 2.6V | 04:03:45 | 01:10:08 | 00:00:00 | |
| DL1XH1-15 | 2026-09-01 11:47:20 | 49.76005 | 8.21410 | 108° | 33km/h | 17709m | 5.5m/s | -52.2°C | 3.9% | 83.5hPa | 2.7V | 04:03:27 | 01:10:00 | 00:00:00 | |
| DL1XH-west | 2026-09-01 11:47:19 | 49.75996 | 8.21446 | 112° | 33km/h | 17726m | 5.1m/s | -52.2°C | 1% | 83.3hPa | 2.6V | 04:03:45 | 01:10:03 | 00:00:00 | |
| BIOWL1-15 | 2026-09-01 11:47:13 | 49.76010 | 8.21386 | 109° | 31km/h | 17697m | 7.5m/s | -52.4°C | 1.1% | 83.6hPa | 2.6V | 04:03:45 | 01:09:58 | 00:00:00 | |
| DL2OL | 2026-09-01 11:47:13 | 49.76010 | 8.21386 | 110° | 31km/h | 17697m | 7.5m/s | 0°C | 0% | 0hPa | 2.7V | 00:00:00 | 00:00:00 | 00:00:00 | |
| DL1XH1-15 | 2026-09-01 11:47:10 | 49.76024 | 8.21286 | 96° | 37km/h | 17650m | 5.7m/s | -52.6°C | 4.1% | 84.2hPa | 2.7V | 04:03:37 | 01:09:50 | 00:00:00 | |
| DL1XH-west | 2026-09-01 11:47:07 | 49.76021 | 8.21313 | 100° | 35km/h | 17661m | 7.7m/s | -52.4°C | 1.1% | 84.1hPa | 2.6V | 04:03:45 | 01:09:52 | 00:00:00 | |
| BIOWL1-15 | 2026-09-01 11:47:03 | 49.76026 | 8.21225 | 94° | 40km/h | 17626m | 7.5m/s | -52.7°C | 1.1% | 84.5hPa | 2.6V | 04:03:45 | 01:09:46 | 00:00:00 | |
| DK5PH-5 | 2026-09-01 11:47:02 | 49.76025 | 8.21241 | 91° | 40km/h | 17633m | 6.5m/s | -52.6°C | 4.1% | 84.4hPa | 2.6V | 00:00:00 | 01:09:47 | 00:00:00 | |
| DL8DAS-15 | 2026-09-01 11:47:01 | 49.76025 | 8.21225 | 95° | 40km/h | 17626m | 7.5m/s | -52.7°C | 1.5% | 84.6hPa | 2.6V | 00:00:00 | 00:00:00 | 00:00:00 | |
| DL1XH1-15 | 2026-09-01 11:47:00 | 49.76028 | 8.21122 | 91° | 44km/h | 17591m | 6.2m/s | -52.5°C | 4.1% | 85hPa | 2.6V | 04:03:47 | 01:09:40 | 00:00:00 | |
| DL1XH-west | 2026-09-01 11:46:57 | 49.76028 | 8.21158 | 91° | 46km/h | 17603m | 5.7m/s | -52.6°C | 1.1% | 84.8hPa | 2.7V | 04:03:45 | 01:09:42 | 00:00:00 | |
| BIOWL1-15 | 2026-09-01 11:46:50 | 49.76026 | 8.21033 | 84° | 46km/h | 17562m | 6.7m/s | -52.4°C | 1.1% | 85.3hPa | 2.7V | 04:04:36 | 01:09:35 | 00:00:00 | |
| DL1XH1-15 | 2026-09-01 11:46:50 | 49.76021 | 8.20949 | 82° | 44km/h | 17535m | 5m/s | -52.3°C | 4.1% | 85.8hPa | 2.7V | 04:03:57 | 01:09:30 | 00:00:00 | |
| DL1XH-west | 2026-09-01 11:46:47 | 49.76023 | 8.20983 | 85° | 42km/h | 17545m | 6.9m/s | -52.4°C | 1.1% | 85.6hPa | 2.6V | 04:04:36 | 01:09:32 | 00:00:00 | |
| BIOWL1-15 | 2026-09-01 11:46:40 | 49.76006 | 8.20840 | 76° | 42km/h | 17494m | 4.9m/s | -52.2°C | 1% | 86.3hPa | 2.6V | 04:04:36 | 01:09:23 | 00:00:00 | |
| DL1XH-west | 2026-09-01 11:46:37 | 49.76003 | 8.20825 | 77° | 42km/h | 17489m | 5.8m/s | -52.2°C | 1% | 86.4hPa | 2.6V | 04:04:36 | 01:09:22 | 00:00:00 | |
| BIOWL1-15 | 2026-09-01 11:46:32 | 49.75984 | 8.20707 | 69° | 42km/h | 17448m | 5.3m/s | -52.1°C | 1.1% | 86.9hPa | 2.6V | 04:04:36 | 01:09:15 | 00:00:00 | |
| DB0ND-19 | 2026-09-01 11:46:32 | 49.75988 | 8.20722 | 71° | 40km/h | 17453m | 4.2m/s | -52.1°C | 1.5% | 86.8hPa | 2.7V | 00:00:00 | 00:00:00 | 00:00:00 | |
| DL1XH1-15 | 2026-09-01 11:46:31 | 49.75961 | 8.20629 | 65° | 44km/h | 17420m | 4.2m/s | -52.4°C | 4.1% | 87.3hPa | 2.7V | 04:04:17 | 01:09:10 | 00:00:00 | |
| DL1XH-west | 2026-09-01 11:46:27 | 49.75966 | 8.20644 | 64° | 44km/h | 17425m | 7.1m/s | -52.3°C | 1.1% | 87.2hPa | 2.6V | 04:04:36 | 01:09:11 | 00:00:00 | |
| BIOWL1-15 | 2026-09-01 11:46:21 | 49.75934 | 8.20520 | 69° | 51km/h | 17387m | 5.9m/s | -52.7°C | 1.2% | 87.7hPa | 2.7V | 04:04:36 | 01:09:04 | 00:00:00 | |
| DL1XH1-15 | 2026-09-01 11:46:20 | 49.75914 | 8.20453 | 61° | 42km/h | 17365m | 8.1m/s | -52.3°C | 4.1% | 88hPa | 2.6V | 04:04:27 | 01:09:00 | 00:00:00 | |
| DL1XH-west | 2026-09-01 11:46:16 | 49.75919 | 8.20468 | 63° | 46km/h | 17372m | 6.2m/s | -52.4°C | 1.1% | 87.9hPa | 2.6V | 04:04:36 | 01:09:01 | 00:00:00 | |
| BIOWL1-15 | 2026-09-01 11:46:12 | 49.75867 | 8.20324 | 64° | 42km/h | 17315m | 6.6m/s | -51.9°C | 1.2% | 88.7hPa | 2.6V | 04:04:36 | 01:08:51 | 00:00:00 | |
| DL1XH-west | 2026-09-01 11:46:05 | 49.75863 | 8.20309 | 67° | 42km/h | 17309m | 5.1m/s | -51.8°C | 1.1% | 88.8hPa | 2.7V | 04:05:27 | 01:08:50 | 00:00:00 | |
| CB1BUN | 2026-09-01 11:46:05 | 49.75862 | 8.20309 | 67° | 42km/h | 17309m | 5.1m/s | -51.8°C | 1.5% | 88.8hPa | 2.7V | 04:05:00 | 00:00:00 | 00:00:00 | |
| BIOWL7-15 | 2026-09-01 11:46:03 | 49.75855 | 8.20280 | 73° | 37km/h | 17298m | 5.9m/s | -51.8°C | 1.5% | 88.9hPa | 2.7V | 00:00:00 | 00:00:00 | 00:00:00 | |
| DM3KS-11 | 2026-09-01 11:46:01 | 49.75850 | 8.20255 | 72° | 29km/h | 17288m | 5.8m/s | -51.8°C | 1.5% | 89.0hPa | 2.7V | 00:00:00 | 00:00:00 | 00:00:00 | |
| DL1XH1-15 | 2026-09-01 11:46:00 | 49.75824 | 8.20183 | 59° | 40km/h | 17255m | 5.3m/s | -51.6°C | 3.9% | 89.5hPa | 2.7V | 04:04:47 | 01:08:40 | 00:00:00 | |
| BIOWL1-15 | 2026-09-01 11:45:58 | 49.75840 | 8.20222 | 58° | 37km/h | 17271m | 5.1m/s | -51.8°C | 1% | 89.3hPa | 2.7V | 04:05:27 | 01:08:43 | 00:00:00 | |
| DL1XH-west | 2026-09-01 11:45:54 | 49.75804 | 8.20095 | 83° | 31km/h | 17221m | 5.4m/s | -51.4°C | 1% | 90hPa | 2.7V | 04:05:27 | 01:08:34 | 00:00:00 | |
| BIOWL1-15 | 2026-09-01 11:45:47 | 49.75803 | 8.20072 | 83° | 29km/h | 17209m | 5m/s | -51.3°C | 1% | 90.2hPa | 2.6V | 04:05:27 | 01:08:32 | 00:00:00 | |
| DL1XH-west | 2026-09-01 11:45:43 | 49.75795 | 8.20028 | 67° | 33km/h | 17188m | 7.2m/s | -51.6°C | 0.9% | 90.5hPa | 2.7V | 04:05:27 | 01:08:28 | 00:00:00 | |
| DL1XH1-15 | 2026-09-01 11:45:40 | 49.75780 | 8.19912 | 90° | 37km/h | 17144m | 5.6m/s | -51.8°C | 3.9% | 91.1hPa | 2.8V | 04:05:07 | 01:08:20 | 00:00:00 | |
| BIOWL1-15 | 2026-09-01 11:45:37 | 49.75777 | 8.19828 | 83° | 38km/h | 17115m | 6.1m/s | -52°C | 1% | 91.5hPa | 2.7V | 04:05:27 | 01:08:14 | 00:00:00 | |
| DL1XH-west | 2026-09-01 11:45:32 | 49.75779 | 8.19871 | 88° | 35km/h | 17129m | 6.4m/s | -51.9°C | 1.1% | 91.3hPa | 2.6V | 04:05:27 | 01:08:17 | 00:00:00 | |
| DL3AQ-11 | 2026-09-01 11:45:32 | 49.75778 | 8.19843 | 86° | 37km/h | 17120m | 4.8m/s | 0°C | -1.0% | -1.0hPa | 2.7V | 00:00:00 | 00:00:00 | 00:00:00 | |
| DL1XH1-15 | 2026-09-01 11:45:30 | 49.75772 | 8.19759 | 86° | 51km/h | 17095m | 3.6m/s | -51.9°C | 3.9% | 91.8hPa | 2.7V | 04:05:17 | 01:08:10 | 00:00:00 | |
| BIOWL1-15 | 2026-09-01 11:45:26 | 49.75771 | 8.19739 | 88° | 51km/h | 17091m | 4.7m/s | -51.9°C | 1% | 91.9hPa | 2.7V | 04:05:27 | 01:08:09 | 00:00:00 | |
| DL1XH-west | 2026-09-01 11:45:21 | 49.75764 | 8.19611 | 80° | 44km/h | 17058m | 3.6m/s | -52.2°C | 1.1% | 92.3hPa | 2.6V | 04:05:27 | 01:08:02 | 00:00:00 | |
| DL1XH1-15 | 2026-09-01 11:45:20 | 49.75760 | 8.19576 | 80° | 47km/h | 17049m | 4.7m/s | -52.3°C | 4.1% | 92.5hPa | 2.6V | 04:05:27 | 01:08:00 | 00:00:00 | |
| BIOWL1-15 | 2026-09-01 11:45:13 | 49.75756 | 8.19538 | 80° | 49km/h | 17040m | 5.5m/s | -52.4°C | 1.1% | 92.6hPa | 2.7V | 04:06:18 | 01:07:58 | 00:00:00 | |
| HEMX73-11 | 2026-09-01 11:45:12 | 49.75754 | 8.19520 | 80° | 47km/h | 17036m | 3.7m/s | -52.4°C | 1.5% | 92.6hPa | 2.7V | 04:06:00 | 00:00:00 | 00:00:00 | |
| DL1XH1-15 | 2026-09-01 11:45:10 | 49.75738 | 8.19389 | 76° | 49km/h | 17002m | 3.3m/s | -52.5°C | 4.1% | 93.1hPa | 2.7V | 04:05:37 | 01:07:50 | 00:00:00 | |
| DL1XH-west | 2026-09-01 11:45:08 | 49.75743 | 8.19426 | 81° | 51km/h | 17014m | 5.5m/s | -52.5°C | 1.1% | 93hPa | 2.6V | 04:06:18 | 01:07:52 | 00:00:00 | |
| BIOWL1-15 | 2026-09-01 11:45:06 | 49.75733 | 8.19351 | 79° | 51km/h | 16993m | 6.3m/s | -52.7°C | 1.1% | 93.2hPa | 2.7V | 04:06:18 | 01:07:48 | 00:00:00 | |
| CB1BUN | 2026-09-01 11:45:06 | 49.75735 | 8.19370 | 78° | 49km/h | 16999m | 4.8m/s | -52.6°C | 1.5% | 93.2hPa | 2.7V | 04:06:00 | 00:00:00 | 00:00:00 | |
| DL1XH1-15 | 2026-09-01 11:45:00 | 49.75706 | 8.19206 | 65° | 51km/h | 16957m | 5.5m/s | -52.6°C | 4.1% | 93.8hPa | 2.7V | 04:05:47 | 01:07:40 | 00:00:00 | |
| DL1XH-west | 2026-09-01 11:44:58 | 49.75721 | 8.19260 | 72° | 46km/h | 16972m | 5.9m/s | -52.7°C | 1.1% | 93.6hPa | 2.7V | 04:06:18 | 01:07:43 | 00:00:00 | |
| BIOWL1-15 | 2026-09-01 11:44:52 | 49.75692 | 8.19150 | 72° | 53km/h | 16943m | 5.7m/s | -52.5°C | 1.1% | 94hPa | 2.6V | 04:06:18 | 01:07:37 | 00:00:00 | |
| DL3AQ-11 | 2026-09-01 11:44:52 | 49.75688 | 8.19130 | 75° | 53km/h | 16939m | 3.8m/s | 0°C | -1.0% | -1.0hPa | 2.7V | 00:00:00 | 00:00:00 | 00:00:00 | |
| HEMX73-6 | 2026-09-01 11:44:51 | 49.75688 | 8.19130 | 76° | 75km/h | 16939m | 3.7m/s | -52.4°C | 4.1% | 94.0hPa | 2.7V | 00:00:00 | 01:07:36 | 00:00:00 | |
| DL1XH1-15 | 2026-09-01 11:44:50 | 49.75664 | 8.19010 | 65° | 57km/h | 16912m | 4.5m/s | -52.5°C | 4.1% | 94.4hPa | 2.7V | 04:05:57 | 01:07:30 | 00:00:00 | |
| DL1XH-west | 2026-09-01 11:44:48 | 49.75675 | 8.19050 | 72° | 53km/h | 16920m | 5.6m/s | -52.5°C | 1.1% | 94.3hPa | 2.6V | 04:06:18 | 01:07:32 | 00:00:00 | |
| DL1ZP-14 | 2026-09-01 11:44:47 | 49.75675 | 8.19050 | 71° | 53km/h | 16920m | 5.6m/s | -52.5°C | 1.5% | 94.3hPa | 2.6V | 00:00:00 | 00:00:00 | 00:00:00 | |
| BIOWL1-15 | 2026-09-01 11:44:46 | 49.75645 | 8.18954 | 61° | 53km/h | 16897m | 4.9m/s | -52.4°C | 1.1% | 94.6hPa | 2.6V | 04:06:18 | 01:07:27 | 00:00:00 | |
| DL9SK-14 | 2026-09-01 11:44:45 | 49.75658 | 8.18991 | 62° | 55km/h | 16907m | 6.6m/s | -52.5°C | 1.5% | 94.5hPa | 2.7V | 00:00:00 | 00:00:00 | 00:00:00 | |
| DL1XH-west | 2026-09-01 11:44:36 | 49.75606 | 8.18845 | 61° | 53km/h | 16868m | 5.8m/s | -52.2°C | 1.1% | 95.1hPa | 2.7V | 04:06:18 | 01:07:21 | 00:00:00 | |
| BIOWL1-15 | 2026-09-01 11:44:31 | 49.75578 | 8.18756 | 68° | 44km/h | 16845m | 5.2m/s | -52.2°C | 1.1% | 95.4hPa | 2.6V | 04:06:18 | 01:07:16 | 00:00:00 | |
| DL1XH-west | 2026-09-01 11:44:26 | 49.75556 | 8.18674 | 65° | 46km/h | 16819m | 6.9m/s | -52.3°C | 1.2% | 95.8hPa | 2.6V | 04:06:18 | 01:07:11 | 00:00:00 | |
| BIOWL1-15 | 2026-09-01 11:44:23 | 49.75517 | 8.18547 | 67° | 49km/h | 16783m | 4.4m/s | -52°C | 1% | 96.3hPa | 2.8V | 04:07:09 | 01:07:04 | 00:00:00 | |
| DL1XH-west | 2026-09-01 11:44:15 | 49.75503 | 8.18479 | 75° | 42km/h | 16763m | 6.7m/s | -51.9°C | 1% | 96.6hPa | 2.7V | 04:07:09 | 01:07:00 | 00:00:00 | |
| BIOWL1-15 | 2026-09-01 11:44:09 | 49.75488 | 8.18385 | 74° | 44km/h | 16732m | 6.5m/s | -51.8°C | 1% | 97hPa | 2.7V | 04:07:09 | 01:06:54 | 00:00:00 | |
| DL1XH-west | 2026-09-01 11:44:04 | 49.75474 | 8.18297 | 79° | 46km/h | 16708m | 6.4m/s | -52.2°C | 1.1% | 97.4hPa | 2.7V | 04:07:09 | 01:06:49 | 00:00:00 | |
| BIOWL1-15 | 2026-09-01 11:43:59 | 49.75467 | 8.18219 | 84° | 37km/h | 16683m | 6.4m/s | -52.5°C | 1.2% | 97.8hPa | 2.7V | 04:07:09 | 01:06:44 | 00:00:00 | |
| DL1XH-west | 2026-09-01 11:43:53 | 49.75450 | 8.18131 | 67° | 44km/h | 16653m | 4.5m/s | -52.7°C | 1.1% | 98.2hPa | 2.8V | 04:07:09 | 01:06:38 | 00:00:00 | |
| BIOWL1-15 | 2026-09-01 11:43:51 | 49.75434 | 8.18067 | 70° | 42km/h | 16634m | 5.3m/s | -52.8°C | 1.1% | 98.6hPa | 2.7V | 04:07:09 | 01:06:34 | 00:00:00 | |
| AU51GT2 | 2026-09-01 11:43:46 | 49.75424 | 8.18015 | 85° | 27km/h | 16612m | 4.2m/s | -52.7°C | 1.5% | 98.9hPa | 2.6V | 00:00:00 | 00:00:00 | 00:00:00 | |
| DL1ZP-14 | 2026-09-01 11:43:45 | 49.75424 | 8.18015 | 85° | 27km/h | 16612m | 4.2m/s | -52.7°C | 1.5% | 98.9hPa | 2.6V | 00:00:00 | 00:00:00 | 00:00:00 | |
| DL1XH-west | 2026-09-01 11:43:43 | 49.75424 | 8.17994 | 96° | 24km/h | 16602m | 7m/s | -52.7°C | 1.2% | 99.1hPa | 2.7V | 04:07:09 | 01:06:28 | 00:00:00 | |
| BIOWL1-15 | 2026-09-01 11:43:39 | 49.75421 | 8.17880 | 77° | 47km/h | 16563m | 7.4m/s | -53.1°C | 1.3% | 99.6hPa | 2.8V | 04:07:09 | 01:06:20 | 00:00:00 | |
| DL1XH-west | 2026-09-01 11:43:32 | 49.75416 | 8.17833 | 86° | 37km/h | 16545m | 6.3m/s | -53.1°C | 1.2% | 100hPa | 2.6V | 04:08:00 | 01:06:17 | 00:00:00 | |
| DL1XH1-15 | 2026-09-01 11:43:32 | 49.75418 | 8.17775 | 96° | 42km/h | 16519m | 5m/s | -53.3°C | 4.1% | 100.3hPa | 2.7V | 04:07:14 | 01:06:13 | 00:00:00 | |
| BIOWL1-15 | 2026-09-01 11:43:29 | 49.75419 | 8.17758 | 96° | 44km/h | 16513m | 7.3m/s | -53.5°C | 1.2% | 100.4hPa | 2.6V | 04:08:00 | 01:06:12 | 00:00:00 | |
| DL1XH-west | 2026-09-01 11:43:22 | 49.75425 | 8.17664 | 96° | 51km/h | 16485m | 7m/s | -53.7°C | 1.3% | 100.8hPa | 2.7V | 04:08:00 | 01:06:07 | 00:00:00 | |
| CB1BUN | 2026-09-01 11:43:22 | 49.75425 | 8.17664 | 97° | 51km/h | 16486m | 7.0m/s | -53.7°C | 1.6% | 100.8hPa | 2.8V | 04:08:00 | 00:00:00 | 00:00:00 | |
| DL1XH1-15 | 2026-09-01 11:43:20 | 49.75431 | 8.17586 | 99° | 51km/h | 16465m | 4.6m/s | -53.6°C | 4.3% | 101.2hPa | 2.8V | 04:07:24 | 01:06:03 | 00:00:00 | |
| BIOWL1-15 | 2026-09-01 11:43:16 | 49.75435 | 8.17548 | 98° | 49km/h | 16454m | 6.7m/s | -53.7°C | 1.4% | 101.3hPa | 2.7V | 04:08:00 | 01:06:01 | 00:00:00 | |
| DL1XH-west | 2026-09-01 11:43:12 | 49.75445 | 8.17452 | 97° | 51km/h | 16427m | 6.3m/s | -54°C | 1.4% | 101.8hPa | 2.7V | 04:08:00 | 01:05:56 | 00:00:00 | |
| BIOWL1-15 | 2026-09-01 11:43:07 | 49.75450 | 8.17331 | 93° | 55km/h | 16395m | 6.2m/s | -54.1°C | 1.5% | 102.3hPa | 2.7V | 04:08:00 | 01:05:50 | 00:00:00 | |
| DL1XH-west | 2026-09-01 11:43:01 | 49.75456 | 8.17245 | 101° | 57km/h | 16374m | 5.1m/s | -54.1°C | 1.4% | 102.7hPa | 2.8V | 04:08:00 | 01:05:46 | 00:00:00 | |
| BIOWL1-15 | 2026-09-01 11:42:57 | 49.75486 | 8.17055 | 104° | 57km/h | 16324m | 6.4m/s | -54°C | 1.4% | 103.5hPa | 2.7V | 04:08:00 | 01:05:37 | 00:00:00 | |
| DM3KS-11 | 2026-09-01 11:42:56 | 49.75479 | 8.17098 | 104° | 57km/h | 16335m | 5.5m/s | -54.0°C | 1.8% | 103.3hPa | 2.7V | 00:00:00 | 00:00:00 | 00:00:00 | |
| DB0ND-19 | 2026-09-01 11:42:54 | 49.75482 | 8.17076 | 103° | 57km/h | 16329m | 5.1m/s | -54.0°C | 1.7% | 103.3hPa | 2.7V | 00:00:00 | 00:00:00 | 00:00:00 | |
| DL8DAS-14 | 2026-09-01 11:42:53 | 49.75482 | 8.17076 | 103° | 57km/h | 16329m | 5.1m/s | -54.0°C | 1.7% | 103.3hPa | 2.7V | 00:00:00 | 00:00:00 | 00:00:00 | |
| DL8DAS-15 | 2026-09-01 11:42:52 | 49.75482 | 8.17076 | 104° | 57km/h | 16330m | 5.1m/s | -54.0°C | 1.7% | 103.3hPa | 2.7V | 04:08:00 | 00:00:00 | 00:00:00 | |
| DL1XH1-15 | 2026-09-01 11:42:50 | 49.75499 | 8.16971 | 100° | 55km/h | 16302m | 4m/s | -54.2°C | 4.5% | 103.8hPa | 2.7V | 04:07:54 | 01:05:33 | 00:00:00 | |
| DL1XH-west | 2026-09-01 11:42:50 | 49.75493 | 8.17013 | 105° | 55km/h | 16314m | 5.6m/s | -54°C | 1.4% | 103.6hPa | 2.8V | 04:08:00 | 01:05:35 | 00:00:00 | |
| BIOWL1-15 | 2026-09-01 11:42:42 | 49.75516 | 8.16841 | 100° | 57km/h | 16269m | 4.1m/s | -54.1°C | 1.5% | 104.3hPa | 2.8V | 04:08:00 | 01:05:27 | 00:00:00 | |
| DB0UT-7 | 2026-09-01 11:42:42 | 49.75516 | 8.16841 | 100° | 57km/h | 16269m | 4.1m/s | -54.1°C | 4.6% | 104.3hPa | 2.8V | 00:00:00 | 00:00:00 | 00:00:00 | |
| CB1BUN | 2026-09-01 11:42:41 | 49.75516 | 8.16841 | 100° | 57km/h | 16269m | 4.1m/s | -54.1°C | 1.8% | 104.3hPa | 2.8V | 04:08:00 | 00:00:00 | 00:00:00 | |
| DL1XH1-15 | 2026-09-01 11:42:40 | 49.75526 | 8.16758 | 100° | 53km/h | 16247m | 6.2m/s | -54.1°C | 4.5% | 104.7hPa | 2.8V | 04:08:04 | 01:05:23 | 00:00:00 | |
| DL1XH-west | 2026-09-01 11:42:40 | 49.75521 | 8.16799 | 102° | 53km/h | 16258m | 4.8m/s | -54.1°C | 1.5% | 104.5hPa | 2.7V | 04:08:51 | 01:05:25 | 00:00:00 | |
| BIOWL1-15 | 2026-09-01 11:42:32 | 49.75540 | 8.16616 | 95° | 55km/h | 16208m | 6m/s | -54.2°C | 1.4% | 105.3hPa | 2.8V | 04:08:51 | 01:05:16 | 00:00:00 | |
| BIOWL9-15 | 2026-09-01 11:42:31 | 49.75540 | 8.16616 | 94° | 53km/h | 16208m | 6.0m/s | -54.2°C | 1.7% | 105.3hPa | 2.7V | 00:00:00 | 00:00:00 | 00:00:00 | |
| DL1XH1-15 | 2026-09-01 11:42:30 | 49.75543 | 8.16552 | 93° | 55km/h | 16192m | 6.9m/s | -54.5°C | 4.5% | 105.5hPa | 2.7V | 04:08:14 | 01:05:13 | 00:00:00 | |
| DL1XH-west | 2026-09-01 11:42:30 | 49.75542 | 8.16573 | 95° | 55km/h | 16198m | 5.6m/s | -54.4°C | 1.4% | 105.5hPa | 2.7V | 04:08:51 | 01:05:14 | 00:00:00 | |
| BIOWL1-15 | 2026-09-01 11:42:21 | 49.75557 | 8.16402 | 98° | 57km/h | 16154m | 5.4m/s | -54.6°C | 1.6% | 106.2hPa | 2.8V | 04:08:51 | 01:05:06 | 00:00:00 | |
| DL1XH-west | 2026-09-01 11:42:19 | 49.75564 | 8.16306 | 94° | 64km/h | 16132m | 7.1m/s | -54.7°C | 1.7% | 106.5hPa | 2.8V | 04:08:51 | 01:05:02 | 00:00:00 | |
| BIOWL1-15 | 2026-09-01 11:42:11 | 49.75572 | 8.16167 | 94° | 53km/h | 16100m | 4.4m/s | -54.9°C | 1.7% | 107.1hPa | 2.8V | 04:08:51 | 01:04:56 | 00:00:00 | |
| DL1XH-west | 2026-09-01 11:42:08 | 49.75571 | 8.16079 | 84° | 58km/h | 16079m | 5.8m/s | -55°C | 1.7% | 107.4hPa | 2.7V | 04:08:51 | 01:04:52 | 00:00:00 | |
| BIOWL1-15 | 2026-09-01 11:42:01 | 49.75584 | 8.15830 | 101° | 55km/h | 16020m | 6.4m/s | -55°C | 1.8% | 108.4hPa | 2.8V | 04:08:51 | 01:04:41 | 00:00:00 | |
| DL1XH-west | 2026-09-01 11:41:58 | 49.75577 | 8.15873 | 105° | 57km/h | 16031m | 4.5m/s | -54.9°C | 1.7% | 108.3hPa | 2.7V | 04:08:51 | 01:04:43 | 00:00:00 | |
| BIOWL1-15 | 2026-09-01 11:41:48 | 49.75591 | 8.15615 | 98° | 64km/h | 15974m | 4m/s | -54.8°C | 1.8% | 109.2hPa | 2.7V | 04:09:42 | 01:04:32 | 00:00:00 | |
| DL1XH-west | 2026-09-01 11:41:48 | 49.75594 | 8.15591 | 99° | 62km/h | 15969m | 5.9m/s | -54.9°C | 1.7% | 109.3hPa | 2.7V | 04:09:42 | 01:04:31 | 00:00:00 | |
| HEMX73-11 | 2026-09-01 11:41:46 | 49.75594 | 8.15590 | 100° | 62km/h | 15969m | 5.9m/s | -54.9°C | 1.9% | 109.3hPa | 2.7V | 04:09:00 | 00:00:00 | 00:00:00 | |
| DL1XH1-15 | 2026-09-01 11:41:45 | 49.75600 | 8.15523 | 95° | 57km/h | 15953m | 6.1m/s | 0°C | 0% | 0hPa | 2.7V | 00:00:00 | 01:04:28 | 00:00:00 | |
| BIOWL1-15 | 2026-09-01 11:41:38 | 49.75601 | 8.15409 | 89° | 62km/h | 15928m | 5.2m/s | -54.7°C | 1.7% | 110hPa | 2.8V | 04:09:42 | 01:04:23 | 00:00:00 | |
| DL1XH-west | 2026-09-01 11:41:37 | 49.75601 | 8.15384 | 91° | 64km/h | 15923m | 5.3m/s | -54.7°C | 1.7% | 0hPa | 2.7V | 04:09:42 | 01:04:22 | 00:00:00 | |
| BIOWL1-15 | 2026-09-01 11:41:29 | 49.75602 | 8.15045 | 91° | 60km/h | 15850m | 4.3m/s | -54.5°C | 1.8% | 111.4hPa | 2.7V | 04:09:42 | 01:04:07 | 00:00:00 | |
| DL1XH-west | 2026-09-01 11:41:28 | 49.75602 | 8.15134 | 91° | 55km/h | 15869m | 4.2m/s | -54.6°C | 1.8% | 0hPa | 2.7V | 04:09:42 | 01:04:11 | 00:00:00 | |
| DL9PN | 2026-09-01 11:41:27 | 49.75602 | 8.15155 | 90° | 53km/h | 15874m | 5.6m/s | -54.6°C | 2.0% | 111.0hPa | 2.7V | 00:00:00 | 00:00:00 | 00:00:00 | |
| DJ2KF-10 | 2026-09-01 11:41:26 | 49.75602 | 8.15134 | 91° | 60km/h | 15870m | 4.1m/s | -54.5°C | 4.8% | 111.0hPa | 2.7V | 00:00:00 | 01:04:11 | 00:00:00 | |
| DB0UT-9 | 2026-09-01 11:41:25 | 49.75602 | 8.15134 | 92° | 55km/h | 15870m | 4.2m/s | -54.6°C | 2.0% | 111.1hPa | 2.8V | 04:09:00 | 00:00:00 | 00:00:00 | |
| DL1XH1-15 | 2026-09-01 11:41:24 | 49.75602 | 8.15068 | 90° | 58km/h | 15854m | 4.4m/s | 0°C | 0% | 0hPa | 2.8V | 00:00:00 | 01:04:08 | 00:00:00 | |
| DF3TZ-5 | 2026-09-01 11:41:24 | 49.75602 | 8.15045 | 91° | 58km/h | 15850m | 4.3m/s | -54.5°C | 1.9% | 111.4hPa | 2.8V | 00:00:00 | 00:00:00 | 00:00:00 | |
| DM3KS-11 | 2026-09-01 11:41:22 | 49.75603 | 8.15021 | 92° | 60km/h | 15846m | 4.5m/s | -54.5°C | 1.9% | 111.5hPa | 2.8V | 00:00:00 | 00:00:00 | 00:00:00 | |
| DB0ND-19 | 2026-09-01 11:41:21 | 49.75603 | 8.14998 | 91° | 58km/h | 15840m | 6.1m/s | -54.6°C | 1.9% | 111.5hPa | 2.8V | 00:00:00 | 00:00:00 | 00:00:00 | |
| DL8DAS-14 | 2026-09-01 11:41:20 | 49.75603 | 8.14998 | 91° | 58km/h | 15840m | 6.1m/s | -54.6°C | 1.9% | 111.5hPa | 2.8V | 00:00:00 | 00:00:00 | 00:00:00 | |
| DL1XH1-15 | 2026-09-01 11:41:18 | 49.75604 | 8.14846 | 87° | 53km/h | 15806m | 4.7m/s | 0°C | 0% | 0hPa | 2.8V | 00:00:00 | 01:03:58 | 00:00:00 | |
| BIOWL1-15 | 2026-09-01 11:41:17 | 49.75604 | 8.14930 | 91° | 57km/h | 15826m | 5.4m/s | -54.6°C | 1.8% | 111.8hPa | 2.8V | 04:09:42 | 01:04:02 | 00:00:00 | |
| DL1XH-west | 2026-09-01 11:41:15 | 49.75604 | 8.14867 | 89° | 53km/h | 15810m | 4.3m/s | -54.6°C | 1.7% | 0hPa | 2.7V | 04:09:42 | 01:03:59 | 00:00:00 | |
| DM0DOS-11 | 2026-09-01 11:41:14 | 49.75601 | 8.14732 | 87° | 64km/h | 15782m | 5m/s | -54.4°C | 4.8% | 112.6hPa | 2.7V | 04:09:34 | 01:03:53 | 00:00:00 | |
| BIOWL1-15 | 2026-09-01 11:41:07 | 49.75600 | 8.14608 | 88° | 62km/h | 15756m | 4.6m/s | -54.4°C | 1.9% | 113hPa | 2.8V | 04:09:42 | 01:03:48 | 00:00:00 | |
| DB0UT-9 | 2026-09-01 11:41:05 | 49.75600 | 8.14682 | 91° | 64km/h | 15771m | 3.8m/s | -54.3°C | 2.0% | 112.8hPa | 2.8V | 04:09:00 | 00:00:00 | 00:00:00 | |
| DL1XH-west | 2026-09-01 11:41:05 | 49.75600 | 8.14657 | 90° | 64km/h | 15766m | 5.1m/s | 0°C | 0% | 0hPa | 2.7V | 04:09:42 | 01:03:50 | 00:00:00 | |
| HEMX73-11 | 2026-09-01 11:41:03 | 49.75600 | 8.14632 | 90° | 62km/h | 15761m | 5.3m/s | -54.3°C | 2.0% | 112.9hPa | 2.8V | 04:09:00 | 00:00:00 | 00:00:00 | |
| DM0DOS-11 | 2026-09-01 11:40:58 | 49.75600 | 8.14466 | 91° | 60km/h | 15726m | 6.5m/s | -54.6°C | 4.7% | 113.5hPa | 2.8V | 04:09:45 | 01:03:42 | 00:00:00 | |
| DL1XH-west | 2026-09-01 11:40:55 | 49.75603 | 8.14393 | 94° | 64km/h | 15711m | 6.3m/s | 0°C | 0% | 0hPa | 2.7V | 18:12:15 | 01:03:39 | 00:00:00 | |
| DM3KS-11 | 2026-09-01 11:40:51 | 49.75607 | 8.14285 | 93° | 73km/h | 15692m | 4.7m/s | -54.5°C | 2.0% | 114.2hPa | 2.7V | 00:00:00 | 00:00:00 | 00:00:00 | |
| DB0ND-19 | 2026-09-01 11:40:50 | 49.75608 | 8.14256 | 92° | 73km/h | 15687m | 5.7m/s | -54.5°C | 2.0% | 114.2hPa | 2.7V | 00:00:00 | 00:00:00 | 00:00:00 | |
| DJ2DS-15 | 2026-09-01 11:40:49 | 49.75608 | 8.14256 | 93° | 73km/h | 15687m | 5.7m/s | -54.4°C | 4.7% | 114.2hPa | 2.7V | 00:00:00 | 01:03:34 | 00:00:00 | |
| DM0DOS-11 | 2026-09-01 11:40:48 | 49.75608 | 8.14198 | 89° | 75km/h | 15677m | 4.5m/s | -54.4°C | 4.8% | 114.4hPa | 2.7V | 04:09:55 | 01:03:32 | 00:00:00 | |
| DL1XH-west | 2026-09-01 11:40:45 | 49.75609 | 8.14085 | 89° | 73km/h | 15658m | 6.4m/s | 0°C | 0% | 0hPa | 2.7V | 18:12:15 | 01:03:28 | 00:00:00 | |
| BIOWL1-15 | 2026-09-01 11:40:44 | 49.75609 | 8.14113 | 91° | 71km/h | 15664m | 4.8m/s | -54.4°C | 1.8% | 114.7hPa | 2.7V | 04:10:33 | 01:03:29 | 00:00:00 | |
| HEMX73-11 | 2026-09-01 11:40:42 | 49.75609 | 8.14085 | 90° | 73km/h | 15658m | 6.4m/s | -54.4°C | 1.9% | 114.8hPa | 2.8V | 04:10:00 | 00:00:00 | 00:00:00 | |
| DB0UT-7 | 2026-09-01 11:40:41 | 49.75608 | 8.14029 | 88° | 69km/h | 15648m | 5.6m/s | -54.4°C | 4.7% | 114.9hPa | 2.8V | 00:00:00 | 00:00:00 | 00:00:00 | |
| AU51GT2 | 2026-09-01 11:40:40 | 49.75606 | 8.13973 | 87° | 69km/h | 15640m | 4.3m/s | -54.6°C | 1.9% | 115.1hPa | 2.8V | 00:00:00 | 00:00:00 | 00:00:00 | |
| DM0DOS-11 | 2026-09-01 11:40:38 | 49.75603 | 8.13917 | 83° | 75km/h | 15630m | 5m/s | -54.7°C | 4.7% | 115.3hPa | 2.8V | 04:10:05 | 01:03:22 | 00:00:00 | |
| BIOWL1-15 | 2026-09-01 11:40:36 | 49.75597 | 8.13828 | 85° | 75km/h | 15614m | 3.1m/s | -54.8°C | 1.8% | 115.5hPa | 2.7V | 04:10:33 | 01:03:19 | 00:00:00 | |
| DJ2DS-15 | 2026-09-01 11:40:29 | 49.75586 | 8.13689 | 82° | 68km/h | 15591m | 3.2m/s | -54.9°C | 4.8% | 115.9hPa | 2.7V | 00:00:00 | 01:03:14 | 00:00:00 | |
| DM0DOS-11 | 2026-09-01 11:40:28 | 49.75563 | 8.13509 | 77° | 73km/h | 15558m | 5.8m/s | -55.1°C | 4.9% | 116.6hPa | 2.7V | 04:10:20 | 01:03:07 | 00:00:00 | |
| BIOWL1-15 | 2026-09-01 11:40:25 | 49.75567 | 8.13536 | 78° | 71km/h | 15563m | 4.4m/s | -55°C | 1.9% | 116.5hPa | 2.7V | 04:10:33 | 01:03:08 | 00:00:00 | |
| DB0UT-9 | 2026-09-01 11:40:25 | 49.75574 | 8.13590 | 78° | 68km/h | 15572m | 5.0m/s | -55.0°C | 2.1% | 116.3hPa | 2.7V | 00:00:00 | 00:00:00 | 00:00:00 | |
| BIOWL1-15 | 2026-09-01 11:40:13 | 49.75501 | 8.13125 | 73° | 68km/h | 15487m | 3.6m/s | -55.2°C | 2% | 117.9hPa | 2.7V | 04:12:15 | 01:02:52 | 00:00:00 | |
| DB0UT-7 | 2026-09-01 11:40:11 | 49.75520 | 8.13226 | 76° | 69km/h | 15506m | 5.4m/s | -55.1°C | 4.8% | 117.5hPa | 2.7V | 00:00:00 | 01:02:56 | 00:00:00 | |
| DJ2DS-15 | 2026-09-01 11:40:10 | 49.75510 | 8.13175 | 73° | 71km/h | 15497m | 5.6m/s | -55.2°C | 4.9% | 117.6hPa | 2.8V | 00:00:00 | 01:02:54 | 00:00:00 | |
| AU51GT2 | 2026-09-01 11:40:09 | 49.75505 | 8.13150 | 73° | 66km/h | 15491m | 4.9m/s | -55.3°C | 2.1% | 117.8hPa | 2.8V | 00:00:00 | 00:00:00 | 00:00:00 | |
| BIOWL1-15 | 2026-09-01 11:39:54 | 49.75424 | 8.12669 | 72° | 73km/h | 15408m | 3.5m/s | -54.8°C | 1.9% | 119.4hPa | 2.8V | 04:12:15 | 01:02:35 | 00:00:00 | |
| DL9PN | 2026-09-01 11:39:54 | 49.75441 | 8.12748 | 71° | 69km/h | 15422m | 5.0m/s | -55.0°C | 2.1% | 119.1hPa | 2.7V | 00:00:00 | 00:00:00 | 00:00:00 | |
| DF3TZ-5 | 2026-09-01 11:39:51 | 49.75430 | 8.12696 | 70° | 71km/h | 15412m | 5.8m/s | -54.8°C | 2.1% | 119.3hPa | 2.7V | 00:00:00 | 00:00:00 | 00:00:00 | |
| DM3KS-11 | 2026-09-01 11:39:49 | 49.75414 | 8.12616 | 75° | 68km/h | 15398m | 4.1m/s | -54.8°C | 2.1% | 119.6hPa | 2.7V | 00:00:00 | 00:00:00 | 00:00:00 | |
| DL8DAS-14 | 2026-09-01 11:39:47 | 49.75410 | 8.12591 | 77° | 66km/h | 15394m | 4.4m/s | -54.7°C | 2.0% | 119.6hPa | 2.7V | 00:00:00 | 00:00:00 | 00:00:00 | |
| BIOWL1-15 | 2026-09-01 11:39:44 | 49.75384 | 8.12466 | 64° | 64km/h | 15370m | 5m/s | -54.7°C | 1.8% | 120.1hPa | 2.7V | 04:12:15 | 01:02:27 | 00:00:00 | |
| BIOWL1-15 | 2026-09-01 11:39:33 | 49.75317 | 8.12198 | 68° | 62km/h | 15314m | 5.7m/s | -54.8°C | 1.8% | 121.1hPa | 2.8V | 04:12:15 | 01:02:16 | 00:00:00 | |
| BIOWL1-15 | 2026-09-01 11:39:19 | 49.75240 | 8.11791 | 77° | 49km/h | 15215m | 4.5m/s | -54.7°C | 1.8% | 123.1hPa | 2.7V | 04:12:15 | 01:01:57 | 00:00:00 | |
| BIOWL1-15 | 2026-09-01 11:39:08 | 49.75221 | 8.11676 | 76° | 51km/h | 15186m | 4.1m/s | -54.6°C | 1.8% | 123.6hPa | 2.8V | 04:12:15 | 01:01:51 | 00:00:00 | |
| DH7VM-15 | 2026-09-01 11:39:07 | 49.75228 | 8.11715 | 76° | 53km/h | 15196m | 5.0m/s | -54.7°C | 2.0% | 123.4hPa | 2.8V | 00:00:00 | 00:00:00 | 00:00:00 | |
| AU51GT2 | 2026-09-01 11:39:06 | 49.75221 | 8.11676 | 76° | 51km/h | 15186m | 4.1m/s | -54.6°C | 2.0% | -1.0hPa | 2.8V | 00:00:00 | 00:00:00 | 00:00:00 | |
| DL1ZP-14 | 2026-09-01 11:39:05 | 49.75219 | 8.11656 | 77° | 51km/h | 15181m | 5.6m/s | -54.5°C | 2.0% | 123.7hPa | 2.8V | 00:00:00 | 00:00:00 | 00:00:00 | |
| DJ2KF-10 | 2026-09-01 11:39:03 | 49.75214 | 8.11614 | 83° | 55km/h | 15170m | 4.4m/s | -54.3°C | 4.9% | 123.9hPa | 2.7V | 00:00:00 | 01:01:48 | 00:00:00 | |
| BIOWL1-15 | 2026-09-01 11:38:55 | 49.75170 | 8.11203 | 77° | 57km/h | 15074m | 5.4m/s | -53.8°C | 1.7% | 125.7hPa | 2.7V | 04:12:15 | 01:01:29 | 00:00:00 | |
| BIOWL9-15 | 2026-09-01 11:38:53 | 49.75197 | 8.11413 | 85° | 47km/h | 15119m | 4.0m/s | -54.2°C | 2.0% | 124.9hPa | 2.8V | 00:00:00 | 00:00:00 | 00:00:00 | |
| DO1YAY-16 | 2026-09-01 11:38:52 | 49.75196 | 8.11394 | 85° | 49km/h | 15114m | 5.7m/s | -54.2°C | 2.0% | 125.0hPa | 2.8V | 00:00:00 | 00:00:00 | 00:00:00 | |
| DL9PN | 2026-09-01 11:38:51 | 49.75194 | 8.11373 | 81° | 53km/h | 15109m | 4.8m/s | -54.1°C | 2.0% | 125.1hPa | 2.8V | 00:00:00 | 00:00:00 | 00:00:00 | |
| DF3TZ-5 | 2026-09-01 11:38:49 | 49.75185 | 8.11302 | 78° | 68km/h | 15094m | 5.4m/s | -54.0°C | 1.9% | 125.4hPa | 2.8V | 00:00:00 | 00:00:00 | 00:00:00 | |
| DM3KS-11 | 2026-09-01 11:38:46 | 49.75178 | 8.11250 | 76° | 68km/h | 15084m | 6.3m/s | -53.9°C | 2.0% | 125.6hPa | 2.8V | 00:00:00 | 00:00:00 | 00:00:00 | |
| BIOWL1-15 | 2026-09-01 11:38:45 | 49.75167 | 8.11182 | 79° | 51km/h | 15069m | 5.4m/s | -53.7°C | 1.8% | 125.8hPa | 2.8V | 04:12:15 | 01:01:28 | 00:00:00 | |
| BIOWL1-15 | 2026-09-01 11:38:34 | 49.75144 | 8.10962 | 85° | 62km/h | 15008m | 4.5m/s | -53.6°C | 1.7% | 127hPa | 2.7V | 04:12:15 | 01:01:17 | 00:00:00 | |
| BIOWL1-15 | 2026-09-01 11:38:24 | 49.75118 | 8.10750 | 80° | 57km/h | 14959m | 3.5m/s | -53.3°C | 1.7% | 128hPa | 2.8V | 04:13:06 | 01:01:07 | 00:00:00 | |
| BIOWL1-15 | 2026-09-01 11:38:12 | 49.75091 | 8.10385 | 82° | 64km/h | 14886m | 3.6m/s | -53.5°C | 1.8% | 129.5hPa | 2.8V | 04:13:06 | 01:00:52 | 00:00:00 | |
| BIOWL1-15 | 2026-09-01 11:37:59 | 49.75071 | 8.10131 | 73° | 66km/h | 14837m | 6.1m/s | -53.5°C | 1.7% | 130.4hPa | 2.8V | 04:13:06 | 01:00:42 | 00:00:00 | |
| BIOWL1-15 | 2026-09-01 11:37:48 | 49.75039 | 8.09897 | 84° | 71km/h | 14793m | 5.9m/s | -53.4°C | 1.8% | 131.3hPa | 2.7V | 04:13:06 | 01:00:33 | 00:00:00 | |
| DL3AQ-11 | 2026-09-01 11:37:48 | 49.75037 | 8.09869 | 83° | 69km/h | 14788m | 5.0m/s | 0°C | -1.0% | -1.0hPa | 2.7V | 00:00:00 | 00:00:00 | 00:00:00 | |
| DF3TZ-5 | 2026-09-01 11:37:47 | 49.75035 | 8.09842 | 82° | 71km/h | 14783m | 4.6m/s | -53.5°C | 2.0% | 131.6hPa | 2.7V | 00:00:00 | 00:00:00 | 00:00:00 | |
| DM3KS-11 | 2026-09-01 11:37:44 | 49.75030 | 8.09786 | 81° | 73km/h | 14775m | 4.8m/s | -53.5°C | 2.0% | 131.7hPa | 2.7V | 00:00:00 | 00:00:00 | 00:00:00 | |
| BIOWL1-15 | 2026-09-01 11:37:37 | 49.75010 | 8.09571 | 80° | 66km/h | 14736m | 4.9m/s | -53.6°C | 1.7% | 132.6hPa | 2.7V | 04:13:06 | 01:00:21 | 00:00:00 | |
| BIOWL1-15 | 2026-09-01 11:37:27 | 49.74991 | 8.09281 | 90° | 68km/h | 14680m | 5.4m/s | -53.4°C | 1.7% | 133.7hPa | 2.7V | 04:13:57 | 01:00:10 | 00:00:00 | |
| BIOWL1-15 | 2026-09-01 11:37:16 | 49.74991 | 8.08950 | 95° | 71km/h | 14621m | 4.9m/s | -53.4°C | 1.6% | 134.9hPa | 2.7V | 04:13:57 | 00:59:58 | 00:00:00 | |
| BIOWL1-15 | 2026-09-01 11:37:02 | 49.74996 | 8.08639 | 94° | 77km/h | 14566m | 6m/s | -53.3°C | 1.5% | 136hPa | 2.8V | 04:13:57 | 00:59:47 | 00:00:00 | |
| DL1ZP-14 | 2026-09-01 11:37:01 | 49.75001 | 8.08579 | 97° | 78km/h | 14554m | 4.1m/s | -53.2°C | 1.9% | 136.3hPa | 2.7V | 00:00:00 | 00:00:00 | 00:00:00 | |
| DK5PH-5 | 2026-09-01 11:36:59 | 49.75003 | 8.08548 | 97° | 86km/h | 14549m | 6.2m/s | -53.1°C | 4.5% | 136.3hPa | 2.7V | 00:00:00 | 00:59:44 | 00:00:00 | |
| DB0UT-9 | 2026-09-01 11:36:57 | 49.75005 | 8.08517 | 95° | 80km/h | 14543m | 4.9m/s | -53.0°C | 1.9% | 136.5hPa | 2.7V | 04:13:00 | 00:00:00 | 00:00:00 | |
| DM0DOS-11 | 2026-09-01 11:36:55 | 49.75005 | 8.08324 | 92° | 88km/h | 14512m | 6.4m/s | -53.1°C | 4.5% | 137.2hPa | 2.7V | 04:13:50 | 00:59:37 | 00:00:00 | |
| BIOWL1-15 | 2026-09-01 11:36:52 | 49.75005 | 8.08324 | 93° | 88km/h | 14512m | 6.4m/s | -53.1°C | 1.6% | 137.2hPa | 2.7V | 04:13:57 | 00:59:37 | 00:00:00 | |
| BIOWL9-15 | 2026-09-01 11:36:49 | 49.75011 | 8.08221 | 96° | 89km/h | 14496m | 6.5m/s | -53.1°C | 2.0% | 137.5hPa | 2.8V | 00:00:00 | 00:00:00 | 00:00:00 | |
| DO1YAY-16 | 2026-09-01 11:36:48 | 49.75013 | 8.08186 | 94° | 89km/h | 14491m | 3.9m/s | -53.0°C | 2.0% | 137.6hPa | 2.8V | 00:00:00 | 00:00:00 | 00:00:00 | |
| DL9PN | 2026-09-01 11:36:47 | 49.75015 | 8.08151 | 93° | 89km/h | 14486m | 5.3m/s | -53.0°C | 2.0% | 137.7hPa | 2.8V | 00:00:00 | 00:00:00 | 00:00:00 | |
| DF3TZ-5 | 2026-09-01 11:36:45 | 49.75017 | 8.08048 | 90° | 86km/h | 14473m | 6.6m/s | -52.9°C | 2.0% | 138.0hPa | 2.8V | 00:00:00 | 00:00:00 | 00:00:00 | |
| BIOWL1-15 | 2026-09-01 11:36:41 | 49.75016 | 8.07949 | 89° | 82km/h | 14458m | 3.7m/s | -52.9°C | 1.7% | 138.3hPa | 2.8V | 04:14:48 | 00:59:26 | 00:00:00 | |
| BIOWL1-15 | 2026-09-01 11:36:30 | 49.75004 | 8.07520 | 84° | 84km/h | 14395m | 5.2m/s | -52.7°C | 1.7% | 139.7hPa | 2.8V | 04:14:48 | 00:59:13 | 00:00:00 | |
| BIOWL1-15 | 2026-09-01 11:36:19 | 49.74988 | 8.07215 | 82° | 91km/h | 14349m | 5.5m/s | -52.8°C | 1.7% | 140.7hPa | 2.7V | 04:14:48 | 00:59:04 | 00:00:00 | |
| BIOWL9-15 | 2026-09-01 11:36:18 | 49.74985 | 8.07179 | 80° | 91km/h | 14344m | 4.0m/s | -52.7°C | 2.0% | 140.8hPa | 2.7V | 00:00:00 | 00:00:00 | 00:00:00 | |
| DO1YAY-16 | 2026-09-01 11:36:17 | 49.74977 | 8.07108 | 81° | 91km/h | 14334m | 7.0m/s | -52.9°C | 2.0% | 141.0hPa | 2.7V | 00:00:00 | 00:00:00 | 00:00:00 | |
| DL9PN | 2026-09-01 11:36:16 | 49.74977 | 8.07108 | 81° | 91km/h | 14334m | 7.0m/s | -52.9°C | 2.0% | 141.0hPa | 2.7V | 00:00:00 | 00:00:00 | 00:00:00 | |
| DM0DOS-11 | 2026-09-01 11:36:15 | 49.74968 | 8.07004 | 83° | 88km/h | 14318m | 4.7m/s | -52.8°C | 4.4% | 141.3hPa | 2.7V | 04:14:29 | 00:58:58 | 00:00:00 | |
| BIOWL1-15 | 2026-09-01 11:36:09 | 49.74933 | 8.06643 | 78° | 91km/h | 14261m | 7.8m/s | -53.1°C | 1.8% | 142.6hPa | 2.8V | 04:14:48 | 00:58:47 | 00:00:00 | |
| BIOWL1-15 | 2026-09-01 11:35:58 | 49.74914 | 8.06515 | 77° | 78km/h | 14241m | 6.4m/s | -53.5°C | 2% | 143hPa | 2.8V | 04:14:48 | 00:58:43 | 00:00:00 | |
| BIOWL1-15 | 2026-09-01 11:35:50 | 49.74852 | 8.06208 | 70° | 84km/h | 14190m | 6.4m/s | -53.9°C | 1.9% | 144.2hPa | 2.8V | 04:15:39 | 00:58:33 | 00:00:00 | |
| BIOWL9-15 | 2026-09-01 11:35:47 | 49.74845 | 8.06177 | 71° | 82km/h | 14184m | 3.7m/s | -53.8°C | 2.2% | 144.3hPa | 2.7V | 00:00:00 | 00:00:00 | 00:00:00 | |
| DO1YAY-16 | 2026-09-01 11:35:46 | 49.74832 | 8.06116 | 70° | 82km/h | 14174m | 6.8m/s | -53.9°C | 2.1% | 144.6hPa | 2.7V | 00:00:00 | 00:00:00 | 00:00:00 | |
| DL9PN | 2026-09-01 11:35:45 | 49.74832 | 8.06116 | 70° | 82km/h | 14174m | 6.8m/s | -53.9°C | 2.1% | 144.6hPa | 2.7V | 00:00:00 | 00:00:00 | 00:00:00 | |
| BIOWL1-15 | 2026-09-01 11:35:37 | 49.74778 | 8.05894 | 72° | 73km/h | 14134m | 6.3m/s | -54°C | 2.1% | 145.5hPa | 2.7V | 04:15:39 | 00:58:22 | 00:00:00 | |
| BIOWL1-15 | 2026-09-01 11:35:28 | 49.74714 | 8.05620 | 74° | 60km/h | 14079m | 5.9m/s | -54.5°C | 2.3% | 146.7hPa | 2.7V | 04:15:39 | 00:58:11 | 00:00:00 | |
| BIOWL1-15 | 2026-09-01 11:35:13 | 49.74653 | 8.05281 | 80° | 55km/h | 14004m | 5.1m/s | -54.3°C | 2.4% | 148.4hPa | 2.8V | 04:15:39 | 00:57:56 | 00:00:00 | |
| BIOWL1-15 | 2026-09-01 11:34:59 | 49.74618 | 8.05014 | 76° | 66km/h | 13939m | 4.2m/s | -54.1°C | 2.4% | 149.9hPa | 2.8V | 04:17:21 | 00:57:44 | 00:00:00 | |
| BIOWL1-15 | 2026-09-01 11:34:48 | 49.74604 | 8.04759 | 86° | 60km/h | 13878m | 7.1m/s | -54.1°C | 2.6% | 151.3hPa | 2.8V | 04:17:21 | 00:57:33 | 00:00:00 | |
| BIOWL9-15 | 2026-09-01 11:34:45 | 49.74600 | 8.04689 | 84° | 60km/h | 13862m | 4.7m/s | -54.3°C | 2.6% | 151.7hPa | 2.7V | 00:00:00 | 00:00:00 | 00:00:00 | |
| BIOWL1-15 | 2026-09-01 11:34:37 | 49.74587 | 8.04481 | 81° | 71km/h | 13821m | 5.2m/s | -54.4°C | 2.8% | 152.7hPa | 2.7V | 04:17:21 | 00:57:22 | 00:00:00 | |
| BIOWL1-15 | 2026-09-01 11:34:27 | 49.74552 | 8.04093 | 85° | 71km/h | 13749m | 4m/s | -54.4°C | 2.7% | 154.5hPa | 2.8V | 04:17:21 | 00:57:08 | 00:00:00 | |
| DL1ZP-14 | 2026-09-01 11:34:26 | 49.74556 | 8.04147 | 82° | 68km/h | 13758m | 4.1m/s | -54.4°C | 2.6% | 154.2hPa | 2.7V | 00:00:00 | 00:00:00 | 00:00:00 | |
| DO9LL-15 | 2026-09-01 11:34:25 | 49.74556 | 8.04147 | 83° | 78km/h | 13758m | 4.1m/s | -54.4°C | 5.3% | 154.1hPa | 2.7V | 04:16:00 | 00:57:10 | 00:00:00 | |
| BIOWL1-15 | 2026-09-01 11:34:13 | 49.74542 | 8.03486 | 89° | 91km/h | 13640m | 5.2m/s | -54.3°C | 2.8% | 157.1hPa | 2.7V | 04:17:21 | 00:56:48 | 00:00:00 | |
| DO1YAY-16 | 2026-09-01 11:34:13 | 49.74549 | 8.03778 | 90° | 77km/h | 13687m | 4.6m/s | -54.6°C | 2.7% | 155.9hPa | 2.7V | 00:00:00 | 00:00:00 | 00:00:00 | |
| DL9PN | 2026-09-01 11:34:12 | 49.74549 | 8.03778 | 90° | 77km/h | 13687m | 4.6m/s | -54.6°C | 2.7% | 155.9hPa | 2.7V | 00:00:00 | 00:00:00 | 00:00:00 | |
| DH7VM-15 | 2026-09-01 11:34:10 | 49.74549 | 8.03747 | 90° | 77km/h | 13682m | 5.1m/s | -54.6°C | 2.7% | 156.0hPa | 2.7V | 00:00:00 | 00:00:00 | 00:00:00 | |
| CB1BUN | 2026-09-01 11:34:09 | 49.74547 | 8.03688 | 87° | 77km/h | 13671m | 5.1m/s | -54.6°C | 2.7% | 156.3hPa | 2.7V | 04:17:00 | 00:00:00 | 00:00:00 | |
| DM3KS-11 | 2026-09-01 11:34:07 | 49.74544 | 8.03625 | 86° | 84km/h | 13661m | 5.9m/s | -54.5°C | 2.7% | 156.6hPa | 2.7V | 00:00:00 | 00:00:00 | 00:00:00 | |
| DB0UT-7 | 2026-09-01 11:34:06 | 49.74543 | 8.03591 | 89° | 86km/h | 13655m | 5.2m/s | -54.4°C | 5.5% | 156.7hPa | 2.7V | 00:00:00 | 00:56:51 | 00:00:00 | |
| DB0UT-9 | 2026-09-01 11:34:05 | 49.74543 | 8.03591 | 90° | 88km/h | 13655m | 5.2m/s | -54.4°C | 2.7% | 156.7hPa | 2.7V | 00:00:00 | 00:00:00 | 00:00:00 | |
| DJ2KF-10 | 2026-09-01 11:34:02 | 49.74542 | 8.03451 | 89° | 86km/h | 13636m | 3.6m/s | -54.2°C | 5.5% | 157.2hPa | 2.7V | 00:00:00 | 00:56:47 | 00:00:00 | |
| DM0DOS-11 | 2026-09-01 11:34:00 | 49.74538 | 8.03290 | 86° | 82km/h | 13612m | 5.6m/s | -54.1°C | 5.4% | 157.7hPa | 2.7V | 04:16:45 | 00:56:42 | 00:00:00 | |
| BIOWL1-15 | 2026-09-01 11:34:00 | 49.74541 | 8.03385 | 89° | 80km/h | 13626m | 4.4m/s | -54.2°C | 2.7% | 157.4hPa | 2.8V | 04:17:21 | 00:56:45 | 00:00:00 | |
| DJ2DS-15 | 2026-09-01 11:33:59 | 49.74540 | 8.03353 | 87° | 78km/h | 13622m | 4.8m/s | -54.2°C | 2.7% | 157.5hPa | 2.8V | 00:00:00 | 00:00:00 | 00:00:00 | |
| AU51GT2 | 2026-09-01 11:33:56 | 49.74537 | 8.03258 | 84° | 84km/h | 13608m | 3.8m/s | -54.1°C | 2.6% | 157.9hPa | 2.8V | 00:00:00 | 00:00:00 | 00:00:00 | |
| DL1ZP-14 | 2026-09-01 11:33:54 | 49.74530 | 8.03192 | 79° | 86km/h | 13598m | 5.6m/s | -54.2°C | 2.7% | 158.1hPa | 2.8V | 00:00:00 | 00:00:00 | 00:00:00 | |
| DM0DOS-11 | 2026-09-01 11:33:50 | 49.74503 | 8.02952 | 80° | 93km/h | 13566m | 6.2m/s | -53.9°C | 5.4% | 158.9hPa | 2.8V | 04:16:55 | 00:56:32 | 00:00:00 | |
| BIOWL1-15 | 2026-09-01 11:33:50 | 49.74514 | 8.03058 | 80° | 89km/h | 13580m | 4.9m/s | -53.9°C | 2.8% | 158.6hPa | 2.7V | 04:17:21 | 00:56:35 | 00:00:00 | |
| DJ2DS-15 | 2026-09-01 11:33:49 | 49.74510 | 8.03023 | 82° | 88km/h | 13576m | 3.9m/s | -53.8°C | 5.4% | 158.6hPa | 2.7V | 00:00:00 | 00:56:34 | 00:00:00 | |
| DL8DAS-15 | 2026-09-01 11:33:46 | 49.74503 | 8.02952 | 81° | 93km/h | 13567m | 6.2m/s | -53.9°C | 2.7% | 158.9hPa | 2.7V | 00:00:00 | 00:00:00 | 00:00:00 | |
| HEMX73-11 | 2026-09-01 11:33:45 | 49.74499 | 8.02917 | 81° | 91km/h | 13561m | 4.1m/s | -53.7°C | 2.7% | 159.0hPa | 2.7V | 04:17:00 | 00:00:00 | 00:00:00 | |
| DB0UT-9 | 2026-09-01 11:33:44 | 49.74495 | 8.02883 | 82° | 88km/h | 13558m | 3.3m/s | -53.7°C | 2.7% | 159.1hPa | 2.7V | 00:00:00 | 00:00:00 | 00:00:00 | |
| BIOWL9-15 | 2026-09-01 11:33:43 | 49.74489 | 8.02816 | 83° | 82km/h | 13548m | 5.0m/s | -53.7°C | 2.6% | 159.4hPa | 2.7V | 00:00:00 | 00:00:00 | 00:00:00 | |
| DL9PN | 2026-09-01 11:33:42 | 49.74484 | 8.02752 | 82° | 82km/h | 13540m | 4.7m/s | -53.6°C | 2.6% | 159.6hPa | 2.7V | 00:00:00 | 00:00:00 | 00:00:00 | |
| DM0DOS-11 | 2026-09-01 11:33:40 | 49.74468 | 8.02621 | 76° | 86km/h | 13521m | 5.3m/s | -53.5°C | 5.3% | 160hPa | 2.7V | 04:17:05 | 00:56:22 | 00:00:00 | |
| BIOWL1-15 | 2026-09-01 11:33:39 | 49.74473 | 8.02654 | 77° | 86km/h | 13526m | 4.6m/s | -53.6°C | 2.7% | 159.9hPa | 2.7V | 04:17:21 | 00:56:23 | 00:00:00 | |
| DF3TZ-5 | 2026-09-01 11:33:38 | 49.74473 | 8.02654 | 77° | 86km/h | 13526m | 4.6m/s | -53.6°C | 2.6% | 159.9hPa | 2.7V | 00:00:00 | 00:00:00 | 00:00:00 | |
| DB0UT-7 | 2026-09-01 11:33:36 | 49.74463 | 8.02589 | 76° | 88km/h | 13516m | 4.3m/s | -53.5°C | 5.3% | 160.1hPa | 2.7V | 04:17:00 | 00:00:00 | 00:00:00 | |
| DL8DAS-14 | 2026-09-01 11:33:35 | 49.74452 | 8.02523 | 75° | 88km/h | 13506m | 4.9m/s | -53.4°C | 2.6% | 160.4hPa | 2.7V | 00:00:00 | 00:00:00 | 00:00:00 | |
| DM0DOS-11 | 2026-09-01 11:33:30 | 49.74422 | 8.02285 | 79° | 91km/h | 13476m | 4.2m/s | -53.2°C | 5.3% | 161.1hPa | 2.7V | 04:17:15 | 00:56:12 | 00:00:00 | |
| BIOWL1-15 | 2026-09-01 11:33:29 | 49.74430 | 8.02354 | 81° | 88km/h | 13485m | 4m/s | -53.3°C | 2.6% | 160.8hPa | 2.8V | 04:17:21 | 00:56:14 | 00:00:00 | |
| CB1BUN | 2026-09-01 11:33:27 | 49.74426 | 8.02319 | 81° | 91km/h | 13481m | 4.7m/s | -53.2°C | 2.6% | 161.0hPa | 2.7V | 04:17:00 | 00:00:00 | 00:00:00 | |
| DO9LL-15 | 2026-09-01 11:33:25 | 49.74413 | 8.02216 | 78° | 86km/h | 13467m | 4.8m/s | 0°C | 0% | 0hPa | 2.7V | 00:00:00 | 00:56:10 | 00:00:00 | |
| DJ2DS-15 | 2026-09-01 11:33:23 | 49.74403 | 8.02148 | 75° | 89km/h | 13458m | 4.7m/s | -53.1°C | 2.7% | 161.6hPa | 2.7V | 00:00:00 | 00:00:00 | 00:00:00 | |
| DM0DOS-11 | 2026-09-01 11:33:20 | 49.74356 | 8.01887 | 75° | 82km/h | 13422m | 5.5m/s | -52.9°C | 5.2% | 162.5hPa | 2.7V | 04:17:27 | 00:56:00 | 00:00:00 | |
| BIOWL1-15 | 2026-09-01 11:33:18 | 49.74374 | 8.01982 | 74° | 84km/h | 13436m | 4.2m/s | -52.9°C | 2.6% | 162.2hPa | 2.8V | 04:18:12 | 00:56:03 | 00:00:00 | |
| BIOWL9-15 | 2026-09-01 11:33:12 | 49.74342 | 8.01793 | 76° | 84km/h | 13409m | 5.1m/s | -52.9°C | 2.7% | 162.8hPa | 2.8V | 00:00:00 | 00:00:00 | 00:00:00 | |
| DO1YAY-16 | 2026-09-01 11:33:11 | 49.74331 | 8.01726 | 77° | 89km/h | 13400m | 3.5m/s | -52.8°C | 2.7% | 163.1hPa | 2.8V | 00:00:00 | 00:00:00 | 00:00:00 | |
| DM0DOS-11 | 2026-09-01 11:33:10 | 49.74308 | 8.01559 | 77° | 86km/h | 13377m | 4.9m/s | -52.6°C | 5.2% | 163.6hPa | 2.8V | 04:17:37 | 00:55:50 | 00:00:00 | |
| BIOWL1-15 | 2026-09-01 11:33:10 | 49.74322 | 8.01658 | 78° | 88km/h | 13390m | 5.1m/s | -52.7°C | 2.8% | 163.3hPa | 2.7V | 04:18:12 | 00:55:53 | 00:00:00 | |
| DJ2DS-15 | 2026-09-01 11:33:09 | 49.74326 | 8.01691 | 78° | 86km/h | 13396m | 4.7m/s | -52.8°C | 5.2% | 163.1hPa | 2.7V | 04:17:00 | 00:55:54 | 00:00:00 | |
| DF3TZ-5 | 2026-09-01 11:33:07 | 49.74317 | 8.01625 | 77° | 86km/h | 13386m | 4.1m/s | -52.7°C | 2.7% | 163.4hPa | 2.7V | 00:00:00 | 00:00:00 | 00:00:00 | |
| DB0UT-7 | 2026-09-01 11:33:06 | 49.74312 | 8.01592 | 78° | 86km/h | 13382m | 4.2m/s | -52.7°C | 5.2% | 163.5hPa | 2.7V | 00:00:00 | 00:55:51 | 00:00:00 | |
| DM3KS-11 | 2026-09-01 11:33:05 | 49.74308 | 8.01559 | 77° | 86km/h | 13377m | 4.9m/s | -52.6°C | 2.7% | 163.6hPa | 2.7V | 00:00:00 | 00:00:00 | 00:00:00 | |
| DL8DAS-14 | 2026-09-01 11:33:04 | 49.74299 | 8.01494 | 77° | 82km/h | 13368m | 5.5m/s | -52.6°C | 2.7% | 163.9hPa | 2.7V | 00:00:00 | 00:00:00 | 00:00:00 | |
| DJ2KF-10 | 2026-09-01 11:33:02 | 49.74294 | 8.01463 | 78° | 86km/h | 13363m | 4.2m/s | -52.5°C | 5.3% | 163.9hPa | 2.7V | 04:17:00 | 00:55:47 | 00:00:00 | |
| DM0DOS-11 | 2026-09-01 11:33:00 | 49.74265 | 8.01232 | 79° | 88km/h | 13333m | 5.1m/s | -52.6°C | 5.3% | 164.8hPa | 2.7V | 04:17:47 | 00:55:40 | 00:00:00 | |
| BIOWL1-15 | 2026-09-01 11:32:58 | 49.74277 | 8.01333 | 80° | 88km/h | 13346m | 4.2m/s | -52.6°C | 3% | 164.4hPa | 2.8V | 04:18:12 | 00:55:43 | 00:00:00 | |
| AU51GT2 | 2026-09-01 11:32:54 | 49.74261 | 8.01198 | 78° | 88km/h | 13329m | 4.8m/s | -52.6°C | 2.8% | 164.8hPa | 2.8V | 00:00:00 | 00:00:00 | 00:00:00 | |
| DL1ZP-14 | 2026-09-01 11:32:52 | 49.74252 | 8.01132 | 78° | 84km/h | 13320m | 5.0m/s | -52.6°C | 2.8% | 165.1hPa | 2.8V | 00:00:00 | 00:00:00 | 00:00:00 | |
| DM0DOS-11 | 2026-09-01 11:32:50 | 49.74221 | 8.00909 | 78° | 84km/h | 13290m | 3.4m/s | -52.9°C | 5.5% | 165.9hPa | 2.7V | 04:17:57 | 00:55:30 | 00:00:00 | |
| BIOWL1-15 | 2026-09-01 11:32:48 | 49.74225 | 8.00941 | 79° | 84km/h | 13294m | 4.3m/s | -52.8°C | 3.4% | 165.8hPa | 2.8V | 04:18:12 | 00:55:31 | 00:00:00 | |
| DL8DAS-15 | 2026-09-01 11:32:46 | 49.74229 | 8.00973 | 78° | 82km/h | 13298m | 4.8m/s | -52.8°C | 0% | 165.6hPa | 2.8V | 00:00:00 | 00:00:00 | 00:00:00 | |
| HEMX73-11 | 2026-09-01 11:32:44 | 49.74221 | 8.00909 | 80° | 84km/h | 13290m | 3.4m/s | -52.9°C | 3.0% | 165.9hPa | 2.8V | 04:18:00 | 00:00:00 | 00:00:00 | |
| DB0UT-9 | 2026-09-01 11:32:42 | 49.74212 | 8.00843 | 80° | 88km/h | 13281m | 4.2m/s | -52.9°C | 3.1% | 166.1hPa | 2.8V | 04:18:00 | 00:00:00 | 00:00:00 | |
| BIOWL9-15 | 2026-09-01 11:32:41 | 49.74201 | 8.00739 | 81° | 89km/h | 13268m | 3.3m/s | -53.1°C | 3.2% | 166.5hPa | 2.8V | 00:00:00 | 00:00:00 | 00:00:00 | |
| DM0DOS-11 | 2026-09-01 11:32:39 | 49.74181 | 8.00571 | 79° | 86km/h | 13245m | 5m/s | -53.1°C | 6% | 167hPa | 2.8V | 04:18:07 | 00:55:20 | 00:00:00 | |
| BIOWL1-15 | 2026-09-01 11:32:37 | 49.74181 | 8.00571 | 79° | 86km/h | 13245m | 5m/s | -53.1°C | 4% | 167hPa | 2.8V | 04:18:12 | 00:55:20 | 00:00:00 | |
| DB0UT-7 | 2026-09-01 11:32:36 | 49.74185 | 8.00604 | 79° | 82km/h | 13251m | 5.0m/s | -53.1°C | 5.9% | 166.9hPa | 2.7V | 00:00:00 | 00:00:00 | 00:00:00 | |
| BIOWL1-15 | 2026-09-01 11:32:25 | 49.74104 | 8.00028 | 75° | 82km/h | 13173m | 5m/s | -53.8°C | 5.8% | 168.9hPa | 2.8V | 04:19:03 | 00:55:03 | 00:00:00 | |
| AU51GT2 | 2026-09-01 11:32:23 | 49.74127 | 8.00185 | 79° | 80km/h | 13196m | 5.4m/s | -53.4°C | 4.0% | 168.3hPa | 2.7V | 00:00:00 | 00:00:00 | 00:00:00 | |
| DB0UT-9 | 2026-09-01 11:32:22 | 49.74126 | 8.00185 | 80° | 82km/h | 13196m | 5.4m/s | -53.4°C | 4.1% | 168.3hPa | 2.7V | 00:00:00 | 00:00:00 | 00:00:00 | |
| DL1ZP-14 | 2026-09-01 11:32:21 | 49.74119 | 8.00122 | 78° | 82km/h | 13187m | 4.6m/s | -53.3°C | 4.1% | 168.6hPa | 2.7V | 00:00:00 | 00:00:00 | 00:00:00 | |
| DM0DOS-11 | 2026-09-01 11:32:19 | 49.74088 | 7.99937 | 73° | 80km/h | 13159m | 5.4m/s | -54°C | 7.7% | 169.3hPa | 2.8V | 04:18:27 | 00:55:00 | 00:00:00 | |
| DO9LL-15 | 2026-09-01 11:32:12 | 49.74072 | 7.99846 | 78° | 78km/h | 13147m | 4.9m/s | 0°C | 0% | 0hPa | 2.7V | 00:00:00 | 00:54:57 | 00:00:00 | |
| BIOWL9-15 | 2026-09-01 11:32:10 | 49.74059 | 7.99756 | 78° | 78km/h | 13132m | 4.2m/s | -54.0°C | 5.3% | 170.0hPa | 2.7V | 00:00:00 | 00:00:00 | 00:00:00 | |
| DM0DOS-11 | 2026-09-01 11:32:09 | 49.74045 | 7.99640 | 78° | 75km/h | 13117m | 4m/s | -54.2°C | 9% | 170.4hPa | 2.7V | 04:18:37 | 00:54:50 | 00:00:00 | |
| BIOWL1-15 | 2026-09-01 11:32:09 | 49.74059 | 7.99756 | 78° | 78km/h | 13132m | 4.2m/s | -54°C | 7% | 170hPa | 2.7V | 04:19:03 | 00:54:54 | 00:00:00 | |
| BIOWL1-15 | 2026-09-01 11:32:00 | 49.74001 | 7.99353 | 78° | 86km/h | 13077m | 4.9m/s | -54.5°C | 8.8% | 171.4hPa | 2.8V | 04:19:03 | 00:54:41 | 00:00:00 | |
| DM0DOS-11 | 2026-09-01 11:31:59 | 49.73997 | 7.99321 | 77° | 84km/h | 13073m | 3.5m/s | -54.5°C | 9.7% | 171.5hPa | 2.8V | 04:18:47 | 00:54:40 | 00:00:00 | |
| BIOWL1-15 | 2026-09-01 11:31:48 | 49.73953 | 7.99048 | 76° | 78km/h | 13036m | 4.9m/s | -54.9°C | 9.7% | 172.5hPa | 2.7V | 04:19:03 | 00:54:31 | 00:00:00 | |
| DM0DOS-11 | 2026-09-01 11:31:47 | 49.73948 | 7.99019 | 75° | 78km/h | 13031m | 3.7m/s | -54.9°C | 10.5% | 172.7hPa | 2.8V | 04:18:57 | 00:54:30 | 00:00:00 | |
| DL8DAS-15 | 2026-09-01 11:31:44 | 49.73948 | 7.99019 | 77° | 78km/h | 13031m | 3.7m/s | -54.9°C | 0% | 172.7hPa | 2.7V | 00:00:00 | 00:00:00 | 00:00:00 | |
| HEMX73-11 | 2026-09-01 11:31:42 | 49.73939 | 7.98960 | 77° | 77km/h | 13023m | 4.1m/s | -54.8°C | 7.3% | 172.9hPa | 2.7V | 04:19:00 | 00:00:00 | 00:00:00 | |
| DO9LL-15 | 2026-09-01 11:31:41 | 49.73929 | 7.98901 | 74° | 91km/h | 13015m | 4.2m/s | 0°C | 0% | 0hPa | 2.7V | 04:19:00 | 00:54:26 | 00:00:00 | |
| DM0DOS-11 | 2026-09-01 11:31:40 | 49.73899 | 7.98739 | 78° | 68km/h | 12991m | 4.4m/s | -54.9°C | 10.5% | 173.8hPa | 2.7V | 04:19:07 | 00:54:20 | 00:00:00 | |
| BIOWL1-15 | 2026-09-01 11:31:35 | 49.73899 | 7.98739 | 79° | 68km/h | 12991m | 4.4m/s | -54.9°C | 9.9% | 173.8hPa | 2.7V | 04:19:54 | 00:54:20 | 00:00:00 | |
| DF3TZ-5 | 2026-09-01 11:31:34 | 49.73895 | 7.98713 | 78° | 68km/h | 12986m | 4.8m/s | -54.9°C | 7.2% | 173.9hPa | 2.7V | 00:00:00 | 00:00:00 | 00:00:00 | |
| DJ2KF-10 | 2026-09-01 11:31:32 | 49.73889 | 7.98659 | 82° | 78km/h | 12977m | 4.9m/s | -55.0°C | 10.7% | 174.1hPa | 2.7V | 00:00:00 | 00:54:17 | 00:00:00 | |
| DL8DAS-14 | 2026-09-01 11:31:31 | 49.73884 | 7.98604 | 79° | 73km/h | 12970m | 3.8m/s | -55.3°C | 7.4% | 174.3hPa | 2.7V | 00:00:00 | 00:00:00 | 00:00:00 | |
| DK5PH-5 | 2026-09-01 11:31:29 | 49.73880 | 7.98575 | 78° | 80km/h | 12965m | 5.2m/s | -55.3°C | 10.9% | 174.5hPa | 2.7V | 00:00:00 | 00:54:14 | 00:00:00 | |
| DM0DOS-11 | 2026-09-01 11:31:27 | 49.73858 | 7.98458 | 73° | 77km/h | 12947m | 3.3m/s | -55.5°C | 11% | 175hPa | 2.7V | 04:19:17 | 00:54:10 | 00:00:00 | |
| BIOWL1-15 | 2026-09-01 11:31:25 | 49.73836 | 7.98315 | 81° | 73km/h | 12928m | 4.1m/s | -55.5°C | 9.4% | 175.5hPa | 2.8V | 04:19:54 | 00:54:05 | 00:00:00 | |
| CB1BUN | 2026-09-01 11:31:24 | 49.73858 | 7.98458 | 74° | 77km/h | 12948m | 3.3m/s | -55.5°C | 7.5% | 175.0hPa | 2.7V | 04:19:00 | 00:00:00 | 00:00:00 | |
| HEMX73-11 | 2026-09-01 11:31:22 | 49.73848 | 7.98401 | 76° | 77km/h | 12940m | 4.5m/s | -55.5°C | 7.4% | 175.2hPa | 2.7V | 04:19:00 | 00:00:00 | 00:00:00 | |
| AU51GT2 | 2026-09-01 11:31:21 | 49.73836 | 7.98315 | 81° | 73km/h | 12928m | 4.1m/s | -55.5°C | 6.9% | 175.5hPa | 2.7V | 00:00:00 | 00:00:00 | 00:00:00 | |
| DM0DOS-11 | 2026-09-01 11:31:20 | 49.73827 | 7.98167 | 84° | 78km/h | 12909m | 4.4m/s | -55.6°C | 10.1% | 176hPa | 2.7V | 04:19:27 | 00:54:00 | 00:00:00 | |
| BIOWL1-15 | 2026-09-01 11:31:13 | 49.73799 | 7.97917 | 75° | 82km/h | 12874m | 4.2m/s | -55.5°C | 9.3% | 177hPa | 2.8V | 04:19:54 | 00:53:52 | 00:00:00 | |
| DJ2DS-15 | 2026-09-01 11:31:09 | 49.73808 | 7.97980 | 79° | 86km/h | 12884m | 4.7m/s | -55.5°C | 10.3% | 176.7hPa | 2.7V | 00:00:00 | 00:53:54 | 00:00:00 | |
| BIOWL9-15 | 2026-09-01 11:31:08 | 49.73799 | 7.97917 | 75° | 80km/h | 12874m | 4.2m/s | -55.5°C | 7.1% | 177.0hPa | 2.7V | 00:00:00 | 00:00:00 | 00:00:00 | |
| DM0DOS-11 | 2026-09-01 11:31:07 | 49.73788 | 7.97854 | 76° | 84km/h | 12865m | 4.8m/s | -55.5°C | 10.6% | 177.2hPa | 2.7V | 04:19:37 | 00:53:50 | 00:00:00 | |
| BIOWL1-15 | 2026-09-01 11:31:01 | 49.73735 | 7.97530 | 77° | 84km/h | 12824m | 4.9m/s | -55.6°C | 9.7% | 178.4hPa | 2.7V | 04:19:54 | 00:53:40 | 00:00:00 | |
| DM3KS-11 | 2026-09-01 11:31:01 | 49.73762 | 7.97693 | 76° | 86km/h | 12844m | 4.5m/s | -55.5°C | 7.2% | 177.8hPa | 2.7V | 00:00:00 | 00:00:00 | 00:00:00 | |
| DM0DOS-11 | 2026-09-01 11:31:00 | 49.73735 | 7.97530 | 77° | 84km/h | 12823m | 4.9m/s | -55.6°C | 10.7% | 178.4hPa | 2.7V | 04:19:47 | 00:53:40 | 00:00:00 | |
| BIOWL1-15 | 2026-09-01 11:30:51 | 49.73718 | 7.97398 | 78° | 89km/h | 12807m | 3.8m/s | -55.6°C | 9.9% | 178.8hPa | 2.8V | 04:19:54 | 00:53:36 | 00:00:00 | |
| AU51GT2 | 2026-09-01 11:30:50 | 49.73709 | 7.97329 | 79° | 91km/h | 12798m | 4.2m/s | -55.5°C | 7.4% | 179.1hPa | 2.7V | 00:00:00 | 00:00:00 | 00:00:00 | |
| DL1ZP-14 | 2026-09-01 11:30:48 | 49.73705 | 7.97294 | 79° | 91km/h | 12794m | 3.8m/s | -55.5°C | 7.5% | 179.2hPa | 2.7V | 00:00:00 | 00:00:00 | 00:00:00 | |
| DM0DOS-11 | 2026-09-01 11:30:47 | 49.73690 | 7.97187 | 78° | 93km/h | 12782m | 3.4m/s | -55.5°C | 11.3% | 179.6hPa | 2.8V | 04:19:57 | 00:53:30 | 00:00:00 | |
| BIOWL1-15 | 2026-09-01 11:30:41 | 49.73668 | 7.97010 | 79° | 93km/h | 12762m | 3.9m/s | -55.5°C | 10.5% | 180.1hPa | 2.8V | 04:20:45 | 00:53:25 | 00:00:00 | |
| DM0DOS-11 | 2026-09-01 11:30:40 | 49.73640 | 7.96803 | 75° | 88km/h | 12737m | 3.9m/s | -55.5°C | 11.6% | 180.8hPa | 2.8V | 04:20:08 | 00:53:19 | 00:00:00 | |
| BIOWL1-15 | 2026-09-01 11:30:32 | 49.73596 | 7.96497 | 78° | 91km/h | 12700m | 3.4m/s | -55.3°C | 11.1% | 181.9hPa | 2.8V | 04:20:45 | 00:53:10 | 00:00:00 | |
| DJ2KF-10 | 2026-09-01 11:30:32 | 49.73629 | 7.96736 | 78° | 93km/h | 12729m | 3.9m/s | -55.4°C | 11.6% | 181.0hPa | 2.7V | 04:20:00 | 00:53:17 | 00:00:00 | |
| DM3KS-11 | 2026-09-01 11:30:30 | 49.73615 | 7.96634 | 78° | 89km/h | 12717m | 4.5m/s | -55.4°C | 7.9% | 181.4hPa | 2.8V | 00:00:00 | 00:00:00 | 00:00:00 | |
| DM0DOS-11 | 2026-09-01 11:30:29 | 49.73591 | 7.96462 | 78° | 91km/h | 12696m | 3.7m/s | -55.2°C | 11.7% | 182hPa | 2.8V | 04:20:18 | 00:53:09 | 00:00:00 | |
| BIOWL1-15 | 2026-09-01 11:30:20 | 49.73575 | 7.96324 | 81° | 91km/h | 12681m | 4.6m/s | -55.2°C | 11.4% | 182.4hPa | 2.8V | 04:20:45 | 00:53:05 | 00:00:00 | |
| DM0DOS-11 | 2026-09-01 11:30:19 | 49.73554 | 7.96108 | 81° | 95km/h | 12655m | 5m/s | -55.1°C | 12.2% | 183.1hPa | 2.8V | 04:20:28 | 00:52:59 | 00:00:00 | |
| BIOWL1-15 | 2026-09-01 11:30:09 | 49.73519 | 7.95776 | 81° | 95km/h | 12616m | 3.5m/s | -55.6°C | 12.7% | 184.3hPa | 2.8V | 04:20:45 | 00:52:50 | 00:00:00 | |
| DJ2DS-15 | 2026-09-01 11:30:09 | 49.73534 | 7.95925 | 81° | 99km/h | 12634m | 4.9m/s | -55.3°C | 12.8% | 183.6hPa | 2.8V | 00:00:00 | 00:52:54 | 00:00:00 | |
| DM0DOS-11 | 2026-09-01 11:30:07 | 49.73512 | 7.95702 | 81° | 99km/h | 12609m | 4.8m/s | -55.5°C | 13.7% | 184.4hPa | 2.8V | 04:20:39 | 00:52:48 | 00:00:00 | |
| BIOWL1-15 | 2026-09-01 11:30:00 | 49.73459 | 7.95281 | 79° | 99km/h | 12563m | 5.2m/s | -55.3°C | 13.7% | 185.8hPa | 2.8V | 04:21:36 | 00:52:37 | 00:00:00 | |
| DM3KS-11 | 2026-09-01 11:29:59 | 49.73488 | 7.95512 | 78° | 100km/h | 12588m | 4.3m/s | -55.4°C | 10.1% | 185.1hPa | 2.8V | 00:00:00 | 00:00:00 | 00:00:00 | |
| DL8DAS-14 | 2026-09-01 11:29:58 | 49.73483 | 7.95473 | 78° | 102km/h | 12584m | 4.2m/s | -55.4°C | 10.2% | 185.2hPa | 2.8V | 00:00:00 | 00:00:00 | 00:00:00 | |
| DK5PH-5 | 2026-09-01 11:29:56 | 49.73478 | 7.95433 | 80° | 95km/h | 12580m | 3.1m/s | -55.3°C | 13.9% | 185.2hPa | 2.8V | 04:20:00 | 00:52:41 | 00:00:00 | |
| DM0DOS-11 | 2026-09-01 11:29:55 | 49.73464 | 7.95319 | 79° | 99km/h | 12568m | 4.3m/s | -55.3°C | 14.1% | 185.7hPa | 2.8V | 04:20:49 | 00:52:38 | 00:00:00 | |
| AU51GT2 | 2026-09-01 11:29:48 | 49.73433 | 7.95096 | 77° | 97km/h | 12541m | 5.1m/s | -55.2°C | 10.5% | 186.5hPa | 2.7V | 00:00:00 | 00:00:00 | 00:00:00 | |
| DJ2DS-15 | 2026-09-01 11:29:47 | 49.73428 | 7.95058 | 77° | 97km/h | 12537m | 3.9m/s | -55.3°C | 10.6% | 186.6hPa | 2.7V | 00:00:00 | 00:00:00 | 00:00:00 | |
| DL1ZP-14 | 2026-09-01 11:29:46 | 49.73423 | 7.95021 | 77° | 95km/h | 12533m | 4.2m/s | -55.3°C | 10.7% | 186.7hPa | 2.7V | 00:00:00 | 00:00:00 | 00:00:00 | |
| BIOWL1-15 | 2026-09-01 11:29:44 | 49.73408 | 7.94911 | 79° | 97km/h | 12519m | 4.9m/s | -55.1°C | 14.9% | 187hPa | 2.8V | 04:21:36 | 00:52:27 | 00:00:00 | |
| DM0DOS-11 | 2026-09-01 11:29:44 | 49.73413 | 7.94948 | 78° | 95km/h | 12524m | 3.8m/s | -55.1°C | 14.6% | 186.9hPa | 2.7V | 04:20:59 | 00:52:28 | 00:00:00 | |
| BIOWL1-15 | 2026-09-01 11:29:35 | 49.73371 | 7.94582 | 80° | 91km/h | 12483m | 4m/s | -55.2°C | 16.4% | 188.1hPa | 2.7V | 04:21:36 | 00:52:18 | 00:00:00 | |
| BIOWL1-15 | 2026-09-01 11:29:23 | 49.73338 | 7.94231 | 79° | 89km/h | 12445m | 4.4m/s | -55.5°C | 18.5% | 189.2hPa | 2.7V | 04:21:36 | 00:52:08 | 00:00:00 | |
| BIOWL1-15 | 2026-09-01 11:29:14 | 49.73276 | 7.93774 | 80° | 93km/h | 12393m | 3.9m/s | -56.3°C | 21% | 190.8hPa | 2.8V | 04:21:36 | 00:51:55 | 00:00:00 | |
| BIOWL1-15 | 2026-09-01 11:29:02 | 49.73224 | 7.93412 | 74° | 97km/h | 12353m | 4.6m/s | -56.7°C | 22.6% | 192hPa | 2.8V | 04:22:27 | 00:51:45 | 00:00:00 | |
| BIOWL1-15 | 2026-09-01 11:28:52 | 49.73143 | 7.92908 | 78° | 93km/h | 12296m | 3.5m/s | -56.6°C | 23.4% | 193.7hPa | 2.8V | 04:22:27 | 00:51:31 | 00:00:00 | |
| AU51GT2 | 2026-09-01 11:28:46 | 49.73139 | 7.92872 | 78° | 93km/h | 12293m | 3.6m/s | -56.5°C | 18.1% | 193.8hPa | 2.7V | 00:00:00 | 00:00:00 | 00:00:00 | |
| DL1ZP-14 | 2026-09-01 11:28:44 | 49.73129 | 7.92800 | 79° | 95km/h | 12285m | 3.3m/s | -56.6°C | 18.4% | 194.1hPa | 2.7V | 00:00:00 | 00:00:00 | 00:00:00 | |
| DM0DOS-11 | 2026-09-01 11:28:40 | 49.73103 | 7.92502 | 81° | 97km/h | 12251m | 4m/s | -56.6°C | 23.7% | 195.1hPa | 2.8V | 04:22:07 | 00:51:20 | 00:00:00 | |
| BIOWL1-15 | 2026-09-01 11:28:38 | 49.73111 | 7.92576 | 82° | 95km/h | 12260m | 3.8m/s | -56.6°C | 24.6% | 194.8hPa | 2.7V | 04:22:27 | 00:51:22 | 00:00:00 | |
| BIOWL1-15 | 2026-09-01 11:28:27 | 49.73076 | 7.92202 | 89° | 97km/h | 12219m | 4.7m/s | -56.9°C | 25.4% | 196.1hPa | 2.8V | 04:22:27 | 00:51:12 | 00:00:00 | |
| BIOWL1-15 | 2026-09-01 11:28:16 | 49.73043 | 7.91685 | 87° | 108km/h | 12167m | 4.6m/s | -57°C | 26.5% | 197.7hPa | 2.7V | 04:23:18 | 00:50:59 | 00:00:00 | |
| BIOWL1-15 | 2026-09-01 11:28:06 | 49.73025 | 7.91341 | 83° | 113km/h | 12136m | 3.6m/s | -57°C | 26.5% | 198.7hPa | 2.8V | 04:23:18 | 00:50:51 | 00:00:00 | |
| BIOWL1-15 | 2026-09-01 11:27:59 | 49.72984 | 7.90869 | 82° | 115km/h | 12094m | 2.9m/s | -56.8°C | 27.4% | 200hPa | 2.8V | 04:23:18 | 00:50:40 | 00:00:00 | |
| BIOWL1-15 | 2026-09-01 11:27:45 | 49.72943 | 7.90439 | 80° | 110km/h | 12055m | 3.5m/s | -56.7°C | 27.5% | 201.3hPa | 2.8V | 04:23:18 | 00:50:30 | 00:00:00 | |
| BIOWL1-15 | 2026-09-01 11:27:37 | 49.72891 | 7.90027 | 79° | 108km/h | 12018m | 3.4m/s | -56.5°C | 28.2% | 202.5hPa | 2.7V | 04:23:18 | 00:50:20 | 00:00:00 | |
| DB0UT-7 | 2026-09-01 11:27:35 | 49.72891 | 7.90027 | 79° | 106km/h | 12018m | 3.4m/s | -56.5°C | 28.3% | 202.4hPa | 2.8V | 00:00:00 | 00:00:00 | 00:00:00 | |
| DM0DOS-11 | 2026-09-01 11:27:34 | 49.72868 | 7.89860 | 78° | 110km/h | 12003m | 4.8m/s | -56.5°C | 28.2% | 202.9hPa | 2.8V | 04:23:11 | 00:50:16 | 00:00:00 | |
| BIOWL1-15 | 2026-09-01 11:27:29 | 49.72838 | 7.89618 | 79° | 100km/h | 11978m | 3.5m/s | -56.4°C | 28.5% | 203.7hPa | 2.8V | 04:23:18 | 00:50:10 | 00:00:00 | |
| DJ2DS-15 | 2026-09-01 11:27:29 | 49.72858 | 7.89778 | 79° | 106km/h | 11994m | 4.5m/s | 0°C | 0% | 0hPa | 2.7V | 00:00:00 | 00:50:14 | 00:00:00 | |
| DJ2KF-10 | 2026-09-01 11:27:28 | 49.72852 | 7.89737 | 79° | 106km/h | 11990m | 4.3m/s | -56.5°C | 27.7% | 203.3hPa | 2.7V | 00:00:00 | 00:50:13 | 00:00:00 | |
| DF3TZ-5 | 2026-09-01 11:27:26 | 49.72838 | 7.89618 | 79° | 99km/h | 11978m | 3.5m/s | -56.4°C | 22.2% | 203.7hPa | 2.7V | 00:00:00 | 00:00:00 | 00:00:00 | |
| DM3KS-11 | 2026-09-01 11:27:24 | 49.72828 | 7.89541 | 78° | 100km/h | 11971m | 4.9m/s | -56.5°C | 22.7% | 204.0hPa | 2.7V | 00:00:00 | 00:00:00 | 00:00:00 | |
| DL8DAS-14 | 2026-09-01 11:27:23 | 49.72823 | 7.89502 | 77° | 102km/h | 11967m | 3.6m/s | -56.3°C | 23.1% | 204.1hPa | 2.7V | 00:00:00 | 00:00:00 | 00:00:00 | |
| HEMX73-11 | 2026-09-01 11:27:18 | 49.72806 | 7.89381 | 80° | 106km/h | 11956m | 3.5m/s | -56.2°C | 23.5% | 204.4hPa | 2.7V | 04:24:00 | 00:00:00 | 00:00:00 | |
| CB1BUN | 2026-09-01 11:27:16 | 49.72796 | 7.89299 | 80° | 110km/h | 11948m | 4.8m/s | -56.2°C | 23.9% | 204.7hPa | 2.7V | 04:24:00 | 00:00:00 | 00:00:00 | |
| DM0DOS-11 | 2026-09-01 11:27:15 | 49.72764 | 7.89056 | 77° | 104km/h | 11923m | 3.4m/s | -56.3°C | 29.8% | 205.5hPa | 2.7V | 04:23:31 | 00:49:56 | 00:00:00 | |
| BIOWL1-15 | 2026-09-01 11:27:14 | 49.72780 | 7.89176 | 79° | 104km/h | 11935m | 3.5m/s | -56.2°C | 29.8% | 205.1hPa | 2.8V | 04:24:09 | 00:49:59 | 00:00:00 | |
| BIOWL1-15 | 2026-09-01 11:27:03 | 49.72718 | 7.88737 | 78° | 106km/h | 11892m | 3.1m/s | -56.3°C | 30.3% | 206.5hPa | 2.7V | 04:24:09 | 00:49:48 | 00:00:00 | |
| BIOWL1-15 | 2026-09-01 11:26:52 | 49.72649 | 7.88277 | 78° | 113km/h | 11848m | 4.1m/s | -56.1°C | 30.4% | 208hPa | 2.8V | 04:24:09 | 00:49:37 | 00:00:00 | |
| DL8DAS-14 | 2026-09-01 11:26:52 | 49.72630 | 7.88149 | 76° | 113km/h | 11837m | 3.4m/s | -56.1°C | 24.7% | 208.4hPa | 2.7V | 00:00:00 | 00:00:00 | 00:00:00 | |
| BIOWL1-15 | 2026-09-01 11:26:41 | 49.72576 | 7.87711 | 80° | 113km/h | 11796m | 4.7m/s | -55.8°C | 30.3% | 209.7hPa | 2.7V | 04:24:09 | 00:49:24 | 00:00:00 | |
| DM0DOS-11 | 2026-09-01 11:26:40 | 49.72549 | 7.87496 | 77° | 111km/h | 11775m | 4.8m/s | -55.9°C | 30.2% | 210.3hPa | 2.8V | 04:24:08 | 00:49:19 | 00:00:00 | |
| BIOWL1-15 | 2026-09-01 11:26:30 | 49.72516 | 7.87246 | 79° | 108km/h | 11752m | 4.4m/s | -55.7°C | 30.5% | 211.2hPa | 2.8V | 04:25:00 | 00:49:13 | 00:00:00 | |
| BIOWL1-15 | 2026-09-01 11:26:19 | 49.72455 | 7.86783 | 78° | 111km/h | 11707m | 4.1m/s | -55.5°C | 30.5% | 212.6hPa | 2.7V | 04:25:00 | 00:49:02 | 00:00:00 | |
| BIOWL1-15 | 2026-09-01 11:26:08 | 49.72406 | 7.86417 | 80° | 104km/h | 11670m | 3.2m/s | -55.3°C | 30.5% | 213.9hPa | 2.8V | 04:25:00 | 00:48:53 | 00:00:00 | |
| BIOWL1-15 | 2026-09-01 11:25:57 | 49.72345 | 7.85923 | 79° | 110km/h | 11622m | 3.8m/s | -55°C | 30.3% | 215.4hPa | 2.7V | 04:25:00 | 00:48:41 | 00:00:00 | |
| BIOWL9-15 | 2026-09-01 11:25:57 | 49.72351 | 7.85965 | 78° | 108km/h | 11626m | 3.4m/s | -55.1°C | 25.0% | 215.5hPa | 2.8V | 00:00:00 | 00:00:00 | 00:00:00 | |
| DO1YAY-16 | 2026-09-01 11:25:56 | 49.72340 | 7.85881 | 77° | 108km/h | 11618m | 5.0m/s | -55.0°C | 24.8% | 215.6hPa | 2.8V | 00:00:00 | 00:00:00 | 00:00:00 | |
| DL9PN | 2026-09-01 11:25:55 | 49.72340 | 7.85881 | 77° | 108km/h | 11618m | 5.0m/s | -55.0°C | 24.8% | 215.6hPa | 2.8V | 00:00:00 | 00:00:00 | 00:00:00 | |
| DF3TZ-5 | 2026-09-01 11:25:53 | 49.72318 | 7.85716 | 79° | 106km/h | 11603m | 2.9m/s | -54.9°C | 24.7% | 216.2hPa | 2.8V | 00:00:00 | 00:00:00 | 00:00:00 | |
| DM0DOS-11 | 2026-09-01 11:25:50 | 49.72298 | 7.85557 | 78° | 102km/h | 11587m | 4.3m/s | -54.9°C | 29.6% | 216.8hPa | 2.8V | 04:24:55 | 00:48:32 | 00:00:00 | |
| BIOWL1-15 | 2026-09-01 11:25:46 | 49.72288 | 7.85478 | 80° | 104km/h | 11578m | 3.8m/s | -54.9°C | 30.8% | 217hPa | 2.8V | 04:25:00 | 00:48:30 | 00:00:00 | |
| BIOWL1-15 | 2026-09-01 11:25:35 | 49.72233 | 7.85033 | 80° | 102km/h | 11532m | 4.6m/s | -54.7°C | 31.5% | 218.7hPa | 2.8V | 04:25:51 | 00:48:19 | 00:00:00 | |
| BIOWL1-15 | 2026-09-01 11:25:27 | 49.72189 | 7.84664 | 76° | 108km/h | 11493m | 3.4m/s | -54.6°C | 31.5% | 219.9hPa | 2.7V | 04:25:51 | 00:48:10 | 00:00:00 | |
| BIOWL1-15 | 2026-09-01 11:25:16 | 49.72110 | 7.84094 | 77° | 106km/h | 11433m | 4.1m/s | -54.2°C | 32% | 222hPa | 2.8V | 04:25:51 | 00:47:56 | 00:00:00 | |
| DM0DOS-11 | 2026-09-01 11:25:14 | 49.72110 | 7.84094 | 76° | 106km/h | 11433m | 4m/s | -54.2°C | 31.1% | 222hPa | 2.8V | 04:25:31 | 00:47:56 | 00:00:00 | |
| CB1BUN | 2026-09-01 11:25:13 | 49.72128 | 7.84217 | 78° | 110km/h | 11446m | 4.1m/s | -54.4°C | 26.6% | 221.6hPa | 2.7V | 04:25:00 | 00:00:00 | 00:00:00 | |
| DK5PH-5 | 2026-09-01 11:25:08 | 49.72092 | 7.83973 | 78° | 102km/h | 11420m | 3.8m/s | -54.2°C | 30.3% | 222.4hPa | 2.7V | 00:00:00 | 00:47:53 | 00:00:00 | |
| DB0UT-9 | 2026-09-01 11:25:07 | 49.72092 | 7.83973 | 78° | 106km/h | 11420m | 3.8m/s | -54.2°C | 25.5% | 222.4hPa | 2.7V | 04:25:00 | 00:00:00 | 00:00:00 | |
| DL1ZP-14 | 2026-09-01 11:25:06 | 49.72081 | 7.83893 | 78° | 102km/h | 11410m | 4.7m/s | -54.3°C | 25.9% | 222.8hPa | 2.7V | 00:00:00 | 00:00:00 | 00:00:00 | |
| DB0UT-7 | 2026-09-01 11:25:05 | 49.72076 | 7.83853 | 80° | 102km/h | 11406m | 4.4m/s | -54.2°C | 31.1% | 222.8hPa | 2.7V | 00:00:00 | 00:47:50 | 00:00:00 | |
| DM0DOS-11 | 2026-09-01 11:25:04 | 49.72055 | 7.83693 | 78° | 102km/h | 11387m | 4.1m/s | -54.1°C | 31.2% | 223.5hPa | 2.7V | 04:25:41 | 00:47:46 | 00:00:00 | |
| BIOWL1-15 | 2026-09-01 11:25:03 | 49.72066 | 7.83773 | 79° | 106km/h | 11396m | 3.8m/s | -54.1°C | 32% | 223.2hPa | 2.8V | 04:25:51 | 00:47:48 | 00:00:00 | |
| DJ2DS-15 | 2026-09-01 11:24:58 | 49.72039 | 7.83575 | 76° | 102km/h | 11375m | 3.2m/s | -54.2°C | -1.0% | -1.0hPa | 2.7V | 00:00:00 | 00:00:00 | 00:00:00 | |
| BIOWL9-15 | 2026-09-01 11:24:55 | 49.72021 | 7.83459 | 77° | 100km/h | 11362m | 4.4m/s | -54.0°C | 27.1% | 224.5hPa | 2.7V | 00:00:00 | 00:00:00 | 00:00:00 | |
| DM0DOS-11 | 2026-09-01 11:24:54 | 49.71999 | 7.83304 | 77° | 99km/h | 11345m | 4m/s | -54.1°C | 31.5% | 225.1hPa | 2.7V | 04:25:51 | 00:47:36 | 00:00:00 | |
| BIOWL1-15 | 2026-09-01 11:24:53 | 49.71987 | 7.83228 | 75° | 100km/h | 11337m | 5.2m/s | -54.1°C | 32.1% | 225.3hPa | 2.8V | 04:26:42 | 00:47:34 | 00:00:00 | |
| DF3TZ-5 | 2026-09-01 11:24:51 | 49.71987 | 7.83228 | 75° | 100km/h | 11337m | 5.2m/s | -54.1°C | -1.0% | 225.3hPa | 2.7V | 00:00:00 | 00:00:00 | 00:00:00 | |
| DL8DAS-14 | 2026-09-01 11:24:48 | 49.71974 | 7.83152 | 74° | 100km/h | 11328m | 3.5m/s | -54.0°C | 26.8% | 225.7hPa | 2.7V | 00:00:00 | 00:00:00 | 00:00:00 | |
| DB0UT-9 | 2026-09-01 11:24:47 | 49.71981 | 7.83190 | 76° | 102km/h | 11332m | 4.0m/s | -54.0°C | 26.7% | 225.5hPa | 2.7V | 04:26:00 | 00:00:00 | 00:00:00 | |
| DM0DOS-11 | 2026-09-01 11:24:44 | 49.71941 | 7.82923 | 79° | 102km/h | 11303m | 4.4m/s | -53.8°C | 32.4% | 226.5hPa | 2.7V | 04:26:01 | 00:47:26 | 00:00:00 | |
| BIOWL1-15 | 2026-09-01 11:24:42 | 49.71946 | 7.82962 | 79° | 102km/h | 11307m | 4.5m/s | -53.9°C | 32.4% | 226.4hPa | 2.7V | 04:26:42 | 00:47:27 | 00:00:00 | |
| DJ2DS-15 | 2026-09-01 11:24:39 | 49.71932 | 7.82844 | 80° | 102km/h | 11294m | 4.3m/s | 0°C | 0% | 0hPa | 2.7V | 00:00:00 | 00:47:24 | 00:00:00 | |
| AU51GT2 | 2026-09-01 11:24:37 | 49.71922 | 7.82765 | 78° | 102km/h | 11284m | 4.2m/s | -53.6°C | -1.0% | 227.2hPa | 2.7V | 00:00:00 | 00:00:00 | 00:00:00 | |
| DM0DOS-11 | 2026-09-01 11:24:35 | 49.71888 | 7.82529 | 77° | 102km/h | 11257m | 4.3m/s | -53.5°C | 31.7% | 228.1hPa | 2.7V | 04:26:11 | 00:47:16 | 00:00:00 | |
| BIOWL1-15 | 2026-09-01 11:24:31 | 49.71847 | 7.82187 | 76° | 97km/h | 11219m | 4.2m/s | -53.3°C | 32.9% | 229.6hPa | 2.7V | 04:26:42 | 00:47:07 | 00:00:00 | |
| BIOWL1-15 | 2026-09-01 11:24:25 | 49.71834 | 7.82112 | 75° | 100km/h | 11209m | 5m/s | -53.2°C | 33.2% | 229.9hPa | 2.8V | 04:26:42 | 00:47:05 | 00:00:00 | |
| DM0DOS-11 | 2026-09-01 11:24:24 | 49.71841 | 7.82150 | 75° | 99km/h | 11215m | 5.1m/s | -53.3°C | 32% | 229.7hPa | 2.7V | 04:26:21 | 00:47:06 | 00:00:00 | |
| BIOWL9-15 | 2026-09-01 11:24:24 | 49.71852 | 7.82224 | 77° | 97km/h | 11224m | 4.8m/s | -53.4°C | 27.1% | 229.4hPa | 2.8V | 00:00:00 | 00:00:00 | 00:00:00 | |
| DO1YAY-16 | 2026-09-01 11:24:23 | 49.71847 | 7.82187 | 76° | 97km/h | 11219m | 4.2m/s | -53.3°C | 27.2% | 229.6hPa | 2.8V | 00:00:00 | 00:00:00 | 00:00:00 | |
| DL9PN | 2026-09-01 11:24:22 | 49.71841 | 7.82150 | 75° | 97km/h | 11215m | 5.1m/s | -53.3°C | 27.2% | 229.7hPa | 2.8V | 00:00:00 | 00:00:00 | 00:00:00 | |
| DJ2DS-15 | 2026-09-01 11:24:18 | 49.71821 | 7.82037 | 76° | 99km/h | 11201m | 4.3m/s | 0°C | 0% | 0hPa | 2.8V | 00:00:00 | 00:47:03 | 00:00:00 | |
| DB0ND-19 | 2026-09-01 11:24:17 | 49.71810 | 7.81963 | 77° | 95km/h | 11193m | 3.3m/s | -53.1°C | 27.7% | 230.5hPa | 2.8V | 00:00:00 | 00:00:00 | 00:00:00 | |
| DL8DAS-14 | 2026-09-01 11:24:16 | 49.71810 | 7.81963 | 77° | 95km/h | 11193m | 3.3m/s | -53.1°C | 27.7% | 230.5hPa | 2.8V | 00:00:00 | 00:00:00 | 00:00:00 | |
| DM0DOS-11 | 2026-09-01 11:24:15 | 49.71785 | 7.81778 | 77° | 95km/h | 11173m | 4.8m/s | -53.1°C | 32.1% | 231.3hPa | 2.8V | 04:26:31 | 00:46:56 | 00:00:00 | |
| BIOWL1-15 | 2026-09-01 11:24:10 | 49.71780 | 7.81742 | 77° | 95km/h | 11168m | 4m/s | -53.1°C | 33.4% | 231.3hPa | 2.8V | 04:26:42 | 00:46:55 | 00:00:00 | |
| DK5PH-5 | 2026-09-01 11:24:08 | 49.71768 | 7.81669 | 78° | 104km/h | 11161m | 4.5m/s | -53.1°C | 32.3% | 231.6hPa | 2.7V | 00:00:00 | 00:46:53 | 00:00:00 | |
| AU51GT2 | 2026-09-01 11:24:06 | 49.71758 | 7.81593 | 78° | 100km/h | 11153m | 3.3m/s | 0°C | -1.0% | 232.0hPa | 2.8V | 00:00:00 | 00:00:00 | 00:00:00 | |
| DB0UT-7 | 2026-09-01 11:24:05 | 49.71753 | 7.81554 | 79° | 104km/h | 11149m | 4.7m/s | -53.0°C | 33.4% | 232.0hPa | 2.8V | 00:00:00 | 00:46:50 | 00:00:00 | |
| DM0DOS-11 | 2026-09-01 11:24:04 | 49.71728 | 7.81364 | 79° | 100km/h | 11127m | 3.9m/s | -53.1°C | 34% | 232.9hPa | 2.8V | 04:26:42 | 00:46:45 | 00:00:00 | |
| BIOWL1-15 | 2026-09-01 11:24:00 | 49.71728 | 7.81364 | 79° | 100km/h | 11127m | 3.9m/s | -53.1°C | 34.3% | 232.9hPa | 2.8V | 04:26:42 | 00:46:45 | 00:00:00 | |
| BIOWL9-15 | 2026-09-01 11:23:53 | 49.71676 | 7.81017 | 77° | 102km/h | 11088m | 3.3m/s | -53.0°C | 28.0% | 234.3hPa | 2.9V | 00:00:00 | 00:00:00 | 00:00:00 | |
| DO1YAY-16 | 2026-09-01 11:23:52 | 49.71676 | 7.81017 | 77° | 102km/h | 11088m | 3.3m/s | -53.0°C | 28.0% | 234.3hPa | 2.9V | 00:00:00 | 00:00:00 | 00:00:00 | |
| DM0DOS-11 | 2026-09-01 11:23:51 | 49.71671 | 7.80977 | 77° | 106km/h | 11084m | 4.8m/s | -53°C | 32.5% | 234.4hPa | 2.9V | 04:26:52 | 00:46:35 | 00:00:00 | |
| BIOWL1-15 | 2026-09-01 11:23:49 | 49.71665 | 7.80936 | 79° | 106km/h | 11079m | 4.8m/s | -53°C | 33.4% | 234.6hPa | 2.8V | 04:27:33 | 00:46:34 | 00:00:00 | |
| DF3TZ-5 | 2026-09-01 11:23:49 | 49.71660 | 7.80896 | 79° | 106km/h | 11075m | 5.2m/s | -53.0°C | -1.0% | -1.0hPa | 2.8V | 00:00:00 | 00:00:00 | 00:00:00 | |
| DM3KS-11 | 2026-09-01 11:23:46 | 49.71650 | 7.80814 | 80° | 106km/h | 11065m | 4.4m/s | -52.8°C | 28.2% | 235.1hPa | 2.8V | 00:00:00 | 00:00:00 | 00:00:00 | |
| DL8DAS-14 | 2026-09-01 11:23:45 | 49.71646 | 7.80773 | 80° | 106km/h | 11061m | 4.8m/s | -52.7°C | 28.4% | 235.3hPa | 2.8V | 00:00:00 | 00:00:00 | 00:00:00 | |
| DM0DOS-11 | 2026-09-01 11:23:44 | 49.71620 | 7.80568 | 78° | 108km/h | 11039m | 4.9m/s | -52.6°C | 32.7% | 236.1hPa | 2.8V | 04:27:02 | 00:46:25 | 00:00:00 | |
| BIOWL1-15 | 2026-09-01 11:23:40 | 49.71610 | 7.80486 | 79° | 108km/h | 11030m | 3.5m/s | -52.5°C | 32.9% | 236.4hPa | 2.8V | 04:27:33 | 00:46:23 | 00:00:00 | |
| DK5PH-5 | 2026-09-01 11:23:38 | 49.71610 | 7.80486 | 80° | 102km/h | 11030m | 3.5m/s | -52.5°C | 32.1% | 236.4hPa | 2.7V | 00:00:00 | 00:46:23 | 00:00:00 | |
| DB0UT-7 | 2026-09-01 11:23:35 | 49.71595 | 7.80364 | 80° | 102km/h | 11017m | 4.0m/s | -52.5°C | 31.7% | 236.8hPa | 2.7V | 04:27:00 | 00:00:00 | 00:00:00 | |
| DM0DOS-11 | 2026-09-01 11:23:33 | 49.71574 | 7.80163 | 81° | 102km/h | 10994m | 4.6m/s | -52.4°C | 31.6% | 237.7hPa | 2.8V | 04:27:12 | 00:46:15 | 00:00:00 | |
| BIOWL1-15 | 2026-09-01 11:23:28 | 49.71564 | 7.80043 | 82° | 102km/h | 10980m | 4.7m/s | -52.3°C | 31.9% | 238.2hPa | 2.9V | 04:27:33 | 00:46:12 | 00:00:00 | |
| DJ2KF-10 | 2026-09-01 11:23:26 | 49.71560 | 7.80004 | 81° | 99km/h | 10976m | 4.3m/s | 0°C | 0% | 0hPa | 2.8V | 00:00:00 | 00:46:11 | 00:00:00 | |
| DB0UT-9 | 2026-09-01 11:23:24 | 49.71555 | 7.79964 | 82° | 102km/h | 10972m | 3.9m/s | -52.2°C | 26.7% | 238.5hPa | 2.8V | 04:27:00 | 00:00:00 | 00:00:00 | |
| DM0DOS-11 | 2026-09-01 11:23:22 | 49.71537 | 7.79768 | 82° | 100km/h | 10951m | 4m/s | -52.1°C | 30.7% | 239.3hPa | 2.8V | 04:27:22 | 00:46:05 | 00:00:00 | |
| BIOWL1-15 | 2026-09-01 11:23:16 | 49.71512 | 7.79451 | 83° | 102km/h | 10917m | 5.2m/s | -51.8°C | 30.9% | 240.6hPa | 2.9V | 04:27:33 | 00:45:57 | 00:00:00 | |
| DM3KS-11 | 2026-09-01 11:23:15 | 49.71521 | 7.79570 | 83° | 102km/h | 10930m | 3.9m/s | -51.9°C | 25.8% | 240.1hPa | 2.9V | 00:00:00 | 00:00:00 | 00:00:00 | |
| DM0DOS-11 | 2026-09-01 11:23:14 | 49.71505 | 7.79373 | 82° | 100km/h | 10909m | 4.2m/s | -51.7°C | 29.8% | 240.8hPa | 2.9V | 04:27:32 | 00:45:55 | 00:00:00 | |
| BIOWL1-15 | 2026-09-01 11:23:04 | 49.71480 | 7.79061 | 83° | 100km/h | 10877m | 3.8m/s | -51.5°C | 29.8% | 242hPa | 2.8V | 04:28:24 | 00:45:47 | 00:00:00 | |
| DB0UT-9 | 2026-09-01 11:23:04 | 49.71486 | 7.79139 | 84° | 102km/h | 10885m | 4.9m/s | -51.5°C | 24.2% | 241.8hPa | 2.9V | 04:28:00 | 00:00:00 | 00:00:00 | |
| DM0DOS-11 | 2026-09-01 11:23:02 | 49.71473 | 7.78984 | 81° | 99km/h | 10869m | 3.6m/s | -51.5°C | 29.4% | 242.4hPa | 2.9V | 04:27:42 | 00:45:45 | 00:00:00 | |
| DL1ZP-14 | 2026-09-01 11:23:02 | 49.71477 | 7.79022 | 82° | 99km/h | 10873m | 4.4m/s | -51.5°C | 24.5% | 242.2hPa | 2.9V | 00:00:00 | 00:00:00 | 00:00:00 | |
| DL8DAS-15 | 2026-09-01 11:22:56 | 49.71464 | 7.78869 | 84° | 99km/h | 10857m | 3.6m/s | 0°C | 0% | 242.8hPa | 2.9V | 00:00:00 | 00:00:00 | 00:00:00 | |
| DM0DOS-11 | 2026-09-01 11:22:54 | 49.71441 | 7.78606 | 82° | 100km/h | 10829m | 3.3m/s | -51.3°C | 29.8% | 243.9hPa | 2.9V | 04:27:52 | 00:45:35 | 00:00:00 | |
| BIOWL1-15 | 2026-09-01 11:22:51 | 49.71444 | 7.78644 | 82° | 99km/h | 10833m | 4.9m/s | -51.3°C | 31% | 243.7hPa | 2.9V | 04:28:24 | 00:45:36 | 00:00:00 | |
| BIOWL9-15 | 2026-09-01 11:22:51 | 49.71441 | 7.78606 | 82° | 99km/h | 10829m | 3.3m/s | -51.3°C | 25.5% | 243.9hPa | 2.9V | 00:00:00 | 00:00:00 | 00:00:00 | |
| DO1YAY-16 | 2026-09-01 11:22:50 | 49.71438 | 7.78567 | 83° | 100km/h | 10825m | 4.9m/s | -51.4°C | 25.3% | 244.1hPa | 2.9V | 00:00:00 | 00:00:00 | 00:00:00 | |
| DL9PN | 2026-09-01 11:22:49 | 49.71435 | 7.78527 | 83° | 102km/h | 10820m | 3.8m/s | -51.3°C | 25.2% | 244.2hPa | 2.9V | 00:00:00 | 00:00:00 | 00:00:00 | |
| DF3TZ-5 | 2026-09-01 11:22:46 | 49.71429 | 7.78446 | 82° | 102km/h | 10812m | 4.9m/s | -51.3°C | -1.0% | -1.0hPa | 2.9V | 00:00:00 | 00:00:00 | 00:00:00 | |
| DB0ND-19 | 2026-09-01 11:22:44 | 49.71419 | 7.78329 | 83° | 99km/h | 10800m | 4.4m/s | -51.2°C | 25.4% | 244.9hPa | 2.9V | 00:00:00 | 00:00:00 | 00:00:00 | |
| DL8DAS-14 | 2026-09-01 11:22:43 | 49.71419 | 7.78329 | 83° | 99km/h | 10800m | 4.4m/s | -51.2°C | 25.4% | 244.9hPa | 2.9V | 00:00:00 | 00:00:00 | 00:00:00 | |
| DM0DOS-11 | 2026-09-01 11:22:42 | 49.71412 | 7.78215 | 84° | 97km/h | 10788m | 3.4m/s | -51°C | 30.5% | 245.4hPa | 2.9V | 04:28:02 | 00:45:25 | 00:00:00 | |
| BIOWL1-15 | 2026-09-01 11:22:40 | 49.71412 | 7.78215 | 84° | 97km/h | 10788m | 3.4m/s | -51°C | 30.7% | 245.4hPa | 2.9V | 04:28:24 | 00:45:25 | 00:00:00 | |
| DK5PH-5 | 2026-09-01 11:22:38 | 49.71407 | 7.78141 | 84° | 95km/h | 10780m | 3.0m/s | -50.8°C | 30.6% | 245.6hPa | 2.7V | 00:00:00 | 00:45:23 | 00:00:00 | |
| DJ2KF-10 | 2026-09-01 11:22:36 | 49.71403 | 7.78068 | 87° | 95km/h | 10773m | 4.5m/s | 0°C | 0% | 0hPa | 2.8V | 00:00:00 | 00:45:21 | 00:00:00 | |
| DB0UT-7 | 2026-09-01 11:22:35 | 49.71402 | 7.78031 | 89° | 95km/h | 10769m | 3.8m/s | -50.8°C | 30.2% | 246.0hPa | 2.8V | 00:00:00 | 00:00:00 | 00:00:00 | |
| DM0DOS-11 | 2026-09-01 11:22:31 | 49.71397 | 7.77837 | 84° | 99km/h | 10750m | 4.2m/s | -50.8°C | 30.5% | 246.8hPa | 2.8V | 04:28:12 | 00:45:15 | 00:00:00 | |
| BIOWL1-15 | 2026-09-01 11:22:29 | 49.71392 | 7.77762 | 85° | 97km/h | 10741m | 4.3m/s | -50.7°C | 31.5% | 247.1hPa | 2.9V | 04:28:24 | 00:45:13 | 00:00:00 | |
| HEMX73-11 | 2026-09-01 11:22:28 | 49.71395 | 7.77799 | 85° | 97km/h | 10746m | 4.1m/s | -50.7°C | 26.3% | 247.1hPa | 2.8V | 04:28:00 | 00:00:00 | 00:00:00 | |
| DB0UT-9 | 2026-09-01 11:22:22 | 49.71383 | 7.77579 | 87° | 93km/h | 10722m | 4.3m/s | -50.6°C | 26.8% | 247.9hPa | 2.8V | 04:28:00 | 00:00:00 | 00:00:00 | |
| DM0DOS-11 | 2026-09-01 11:22:21 | 49.71380 | 7.77469 | 86° | 95km/h | 10709m | 3.2m/s | -50.4°C | 31.3% | 248.4hPa | 2.8V | 04:28:22 | 00:45:05 | 00:00:00 | |
| BIOWL1-15 | 2026-09-01 11:22:19 | 49.71378 | 7.77432 | 86° | 93km/h | 10705m | 4.6m/s | -50.4°C | 32.6% | 248.5hPa | 2.9V | 04:28:24 | 00:45:04 | 00:00:00 | |
| BIOWL1-15 | 2026-09-01 11:22:08 | 49.71353 | 7.77030 | 85° | 89km/h | 10663m | 4.1m/s | -50.1°C | 35.9% | 250.2hPa | 2.9V | 04:29:15 | 00:44:53 | 00:00:00 | |
| BIOWL1-15 | 2026-09-01 11:21:58 | 49.71332 | 7.76678 | 84° | 91km/h | 10624m | 3.9m/s | -50.1°C | 38.6% | 251.7hPa | 2.8V | 04:29:15 | 00:44:43 | 00:00:00 | |
| BIOWL1-15 | 2026-09-01 11:21:48 | 49.71304 | 7.76334 | 84° | 88km/h | 10584m | 3.4m/s | -49.9°C | 37.4% | 253.2hPa | 2.8V | 04:29:15 | 00:44:33 | 00:00:00 | |
| DL9PN | 2026-09-01 11:21:47 | 49.71292 | 7.76199 | 81° | 88km/h | 10569m | 3.6m/s | -49.8°C | 31.2% | 253.7hPa | 2.9V | 00:00:00 | 00:00:00 | 00:00:00 | |
| DF3TZ-5 | 2026-09-01 11:21:44 | 49.71292 | 7.76199 | 81° | 88km/h | 10569m | 3.6m/s | -49.8°C | -1.0% | -1.0hPa | 2.9V | 00:00:00 | 00:00:00 | 00:00:00 | |
| BIOWL1-15 | 2026-09-01 11:21:38 | 49.71272 | 7.75991 | 82° | 91km/h | 10548m | 3.7m/s | -49.6°C | 34.9% | 254.6hPa | 2.9V | 04:29:15 | 00:44:23 | 00:00:00 | |
| BIOWL1-15 | 2026-09-01 11:21:26 | 49.71227 | 7.75493 | 83° | 91km/h | 10497m | 3.2m/s | -49.1°C | 33.3% | 256.5hPa | 2.9V | 04:30:06 | 00:44:09 | 00:00:00 | |
| BIOWL1-15 | 2026-09-01 11:21:16 | 49.71187 | 7.75076 | 80° | 89km/h | 10453m | 4.4m/s | -48.7°C | 32% | 258.3hPa | 2.9V | 04:30:06 | 00:43:57 | 00:00:00 | |
| BIOWL1-15 | 2026-09-01 11:21:03 | 49.71154 | 7.74691 | 81° | 91km/h | 10410m | 3.8m/s | -48.7°C | 33% | 260hPa | 2.9V | 04:30:06 | 00:43:46 | 00:00:00 | |
| BIOWL1-15 | 2026-09-01 11:20:51 | 49.71100 | 7.74206 | 84° | 88km/h | 10358m | 4.5m/s | -48.2°C | 32.3% | 262.1hPa | 2.9V | 04:30:06 | 00:43:32 | 00:00:00 | |
| DO1YAY-16 | 2026-09-01 11:20:46 | 49.71097 | 7.74137 | 85° | 89km/h | 10350m | 4.5m/s | -48.1°C | 27.6% | 262.3hPa | 2.8V | 00:00:00 | 00:00:00 | 00:00:00 | |
| DL9PN | 2026-09-01 11:20:44 | 49.71095 | 7.74102 | 86° | 89km/h | 10346m | 3.5m/s | -48.1°C | 27.6% | 262.5hPa | 2.8V | 00:00:00 | 00:00:00 | 00:00:00 | |
| BIOWL1-15 | 2026-09-01 11:20:40 | 49.71089 | 7.73960 | 86° | 95km/h | 10330m | 3.4m/s | -48°C | 32.8% | 263.2hPa | 2.8V | 04:30:06 | 00:43:25 | 00:00:00 | |
| BIOWL1-15 | 2026-09-01 11:20:29 | 49.71045 | 7.73533 | 84° | 91km/h | 10279m | 6.2m/s | -47.7°C | 37.5% | 265.1hPa | 2.8V | 04:30:57 | 00:43:13 | 00:00:00 | |
| BIOWL1-15 | 2026-09-01 11:20:20 | 49.71005 | 7.73194 | 80° | 84km/h | 10221m | 5.1m/s | -47.3°C | 43.2% | 267.4hPa | 2.9V | 04:30:57 | 00:43:03 | 00:00:00 | |
| DB0UT-9 | 2026-09-01 11:20:19 | 49.71014 | 7.73260 | 78° | 88km/h | 10231m | 6.9m/s | -47.3°C | 35.9% | 267.1hPa | 2.9V | 04:30:00 | 00:00:00 | 00:00:00 | |
| BIOWL1-15 | 2026-09-01 11:20:08 | 49.70961 | 7.72664 | 85° | 91km/h | 10141m | 5.4m/s | -47.3°C | 50% | 270.7hPa | 2.9V | 04:30:57 | 00:42:47 | 00:00:00 | |
| BIOWL1-15 | 2026-09-01 11:19:55 | 49.70938 | 7.72421 | 83° | 89km/h | 10104m | 5.3m/s | -47.1°C | 50.6% | 272.3hPa | 2.9V | 04:30:57 | 00:42:40 | 00:00:00 | |
| BIOWL1-15 | 2026-09-01 11:19:44 | 49.70896 | 7.71768 | 83° | 82km/h | 9996m | 4.8m/s | -46.3°C | 48% | 276.7hPa | 2.9V | 04:31:48 | 00:42:20 | 00:00:00 | |
| BIOWL1-15 | 2026-09-01 11:19:33 | 49.70890 | 7.71704 | 84° | 84km/h | 9987m | 4.1m/s | -46.2°C | 47% | 277.2hPa | 2.8V | 04:31:48 | 00:42:18 | 00:00:00 | |
| BIOWL1-15 | 2026-09-01 11:19:22 | 49.70864 | 7.71325 | 79° | 91km/h | 9939m | 2.7m/s | -45.8°C | 43.1% | 279.2hPa | 2.9V | 04:31:48 | 00:42:07 | 00:00:00 | |
| BIOWL1-15 | 2026-09-01 11:19:14 | 49.70836 | 7.71020 | 84° | 88km/h | 9890m | 6.4m/s | -45.3°C | 40% | 281.3hPa | 2.9V | 04:31:48 | 00:41:57 | 00:00:00 | |
| BIOWL9-15 | 2026-09-01 11:19:13 | 49.70838 | 7.71054 | 84° | 82km/h | 9895m | 4.8m/s | -45.4°C | 36.4% | 281.2hPa | 2.9V | 00:00:00 | 00:00:00 | 00:00:00 | |
| DO1YAY-16 | 2026-09-01 11:19:12 | 49.70836 | 7.71020 | 84° | 88km/h | 9890m | 6.4m/s | -45.3°C | 35.9% | 281.3hPa | 2.9V | 00:00:00 | 00:00:00 | 00:00:00 | |
| DL9PN | 2026-09-01 11:19:11 | 49.70834 | 7.70985 | 85° | 91km/h | 9883m | 6.2m/s | -45.3°C | 35.8% | 281.5hPa | 2.9V | 00:00:00 | 00:00:00 | 00:00:00 | |
| DH7VM-15 | 2026-09-01 11:19:08 | 49.70827 | 7.70880 | 84° | 84km/h | 9869m | 5.1m/s | -45.1°C | 36.0% | 282.2hPa | 2.9V | 00:00:00 | 00:00:00 | 00:00:00 | |
| DM0DOS-11 | 2026-09-01 11:19:06 | 49.70821 | 7.70791 | 84° | 71km/h | 9854m | 6m/s | -45°C | 38.4% | 282.8hPa | 2.9V | 04:31:37 | 00:41:50 | 00:00:00 | |
| BIOWL1-15 | 2026-09-01 11:19:03 | 49.70815 | 7.70667 | 87° | 89km/h | 9833m | 6.5m/s | -44.8°C | 36.5% | 283.6hPa | 2.8V | 04:31:48 | 00:41:46 | 00:00:00 | |
| HEMX73-11 | 2026-09-01 11:19:00 | 49.70815 | 7.70667 | 88° | 89km/h | 9834m | 6.5m/s | -44.8°C | 32.3% | 283.6hPa | 2.8V | 04:31:00 | 00:00:00 | 00:00:00 | |
| DM0DOS-11 | 2026-09-01 11:18:56 | 49.70795 | 7.70418 | 78° | 82km/h | 9795m | 4.9m/s | -44.4°C | 36.2% | 285.2hPa | 2.8V | 04:31:48 | 00:41:39 | 00:00:00 | |
| BIOWL1-15 | 2026-09-01 11:18:51 | 49.70779 | 7.70298 | 80° | 80km/h | 9775m | 6.3m/s | -44.2°C | 34.8% | 286.1hPa | 2.9V | 04:32:39 | 00:41:35 | 00:00:00 | |
| BIOWL1-15 | 2026-09-01 11:18:39 | 49.70743 | 7.69817 | 82° | 80km/h | 9696m | 5.3m/s | -43.5°C | 29% | 289.4hPa | 2.8V | 04:32:39 | 00:41:20 | 00:00:00 | |
| DK5PH-5 | 2026-09-01 11:18:38 | 49.70756 | 7.69908 | 75° | 77km/h | 9712m | 6.9m/s | -43.6°C | 28.1% | 288.8hPa | 2.9V | 00:00:00 | 00:41:23 | 00:00:00 | |
| BIOWL1-15 | 2026-09-01 11:18:24 | 49.70709 | 7.69369 | 85° | 75km/h | 9610m | 4.8m/s | -43°C | 29.5% | 293.2hPa | 2.9V | 04:32:39 | 00:41:05 | 00:00:00 | |
| BIOWL1-15 | 2026-09-01 11:18:15 | 49.70689 | 7.69161 | 80° | 71km/h | 9573m | 5.1m/s | -42.8°C | 28.3% | 294.8hPa | 2.9V | 04:32:39 | 00:40:58 | 00:00:00 | |
| BIOWL1-15 | 2026-09-01 11:18:02 | 49.70664 | 7.68839 | 78° | 80km/h | 9514m | 6.1m/s | -42.4°C | 27.3% | 297.4hPa | 2.8V | 04:33:30 | 00:40:47 | 00:00:00 | |
| BIOWL1-15 | 2026-09-01 11:17:52 | 49.70650 | 7.68542 | 89° | 69km/h | 9456m | 4.2m/s | -42°C | 27.1% | 300hPa | 2.9V | 04:33:30 | 00:40:37 | 00:00:00 | |
| DL1ZP-14 | 2026-09-01 11:17:51 | 49.70649 | 7.68515 | 85° | 68km/h | 9452m | 5.2m/s | -42.0°C | 23.7% | 300.2hPa | 2.9V | 00:00:00 | 00:00:00 | 00:00:00 | |
| BIOWL1-15 | 2026-09-01 11:17:42 | 49.70624 | 7.68262 | 89° | 80km/h | 9398m | 5.9m/s | -41.5°C | 25.5% | 302.6hPa | 2.9V | 04:33:30 | 00:40:27 | 00:00:00 | |
| BIOWL1-15 | 2026-09-01 11:17:33 | 49.70612 | 7.67943 | 82° | 75km/h | 9342m | 4.2m/s | -41.2°C | 25.6% | 305.1hPa | 2.9V | 04:33:30 | 00:40:16 | 00:00:00 | |
| BIOWL1-15 | 2026-09-01 11:17:21 | 49.70594 | 7.67639 | 88° | 84km/h | 9282m | 4.9m/s | -40.7°C | 24.6% | 307.8hPa | 2.9V | 04:33:30 | 00:40:06 | 00:00:00 | |
| BIOWL1-15 | 2026-09-01 11:17:12 | 49.70569 | 7.67325 | 81° | 77km/h | 9225m | 5.7m/s | -40.2°C | 25.6% | 310.3hPa | 2.9V | 04:34:21 | 00:39:55 | 00:00:00 | |
| BIOWL9-15 | 2026-09-01 11:17:09 | 49.70566 | 7.67295 | 83° | 77km/h | 9219m | 6.0m/s | -40.2°C | 22.1% | 310.5hPa | 2.9V | 00:00:00 | 00:00:00 | 00:00:00 | |
| DK5PH-5 | 2026-09-01 11:17:08 | 49.70564 | 7.67265 | 86° | 75km/h | 9214m | 5.1m/s | -40.1°C | 24.5% | 310.7hPa | 2.9V | 04:33:00 | 00:39:53 | 00:00:00 | |
| DL9PN | 2026-09-01 11:17:07 | 49.70562 | 7.67205 | 90° | 77km/h | 9202m | 7.2m/s | -40.1°C | 21.7% | 311.3hPa | 2.9V | 00:00:00 | 00:00:00 | 00:00:00 | |
| DM0DOS-11 | 2026-09-01 11:17:02 | 49.70568 | 7.67051 | 92° | 77km/h | 9174m | 5.7m/s | -39.8°C | 24.8% | 312.5hPa | 2.9V | 04:33:41 | 00:39:46 | 00:00:00 | |
| BIOWL1-15 | 2026-09-01 11:17:01 | 49.70566 | 7.66994 | 84° | 71km/h | 9164m | 6.2m/s | -39.8°C | 25.1% | 313hPa | 2.8V | 04:34:21 | 00:39:44 | 00:00:00 | |
| BIOWL1-15 | 2026-09-01 11:16:50 | 49.70551 | 7.66676 | 94° | 82km/h | 9106m | 5.5m/s | -39.2°C | 24.1% | 315.8hPa | 2.9V | 04:34:21 | 00:39:33 | 00:00:00 | |
| DL1ZP-14 | 2026-09-01 11:16:49 | 49.70551 | 7.66676 | 93° | 80km/h | 9106m | 5.5m/s | -39.2°C | 21.3% | 315.8hPa | 2.9V | 00:00:00 | 00:00:00 | 00:00:00 | |
| BIOWL1-15 | 2026-09-01 11:16:37 | 49.70542 | 7.66304 | 95° | 78km/h | 9031m | 5.9m/s | -38.6°C | 25.5% | 319.2hPa | 2.8V | 04:34:21 | 00:39:20 | 00:00:00 | |
| DO1YAY-16 | 2026-09-01 11:16:37 | 49.70539 | 7.66365 | 92° | 77km/h | 9045m | 7.6m/s | -38.7°C | 21.6% | 318.6hPa | 2.8V | 00:00:00 | 00:00:00 | 00:00:00 | |
| DM0DOS-11 | 2026-09-01 11:16:36 | 49.70543 | 7.66186 | 85° | 73km/h | 9008m | 6.9m/s | -38.4°C | 24.2% | 320.4hPa | 2.8V | 04:34:11 | 00:39:16 | 00:00:00 | |
| BIOWL1-15 | 2026-09-01 11:16:25 | 49.70527 | 7.66013 | 85° | 75km/h | 8976m | 4.7m/s | -38.2°C | 25.6% | 321.8hPa | 2.8V | 04:34:21 | 00:39:10 | 00:00:00 | |
| DM0DOS-11 | 2026-09-01 11:16:22 | 49.70525 | 7.65899 | 91° | 75km/h | 8955m | 6.5m/s | -38°C | 24.8% | 322.8hPa | 2.9V | 04:34:21 | 00:39:06 | 00:00:00 | |
| CB1BUN | 2026-09-01 11:16:19 | 49.70525 | 7.65870 | 93° | 75km/h | 8949m | 6.4m/s | -38.0°C | 22.5% | 323.1hPa | 2.8V | 04:35:00 | 00:00:00 | 00:00:00 | |
| DL1ZP-14 | 2026-09-01 11:16:18 | 49.70530 | 7.65778 | 93° | 80km/h | 8932m | 4.6m/s | -37.8°C | 23.1% | 323.9hPa | 2.8V | 00:00:00 | 00:00:00 | 00:00:00 | |
| DM0DOS-11 | 2026-09-01 11:16:16 | 49.70522 | 7.65594 | 81° | 73km/h | 8897m | 6.9m/s | -37.6°C | 26% | 325.5hPa | 2.9V | 04:34:31 | 00:38:56 | 00:00:00 | |
| BIOWL1-15 | 2026-09-01 11:16:15 | 49.70529 | 7.65684 | 85° | 78km/h | 8916m | 5.7m/s | -37.7°C | 26.6% | 324.6hPa | 2.9V | 04:35:12 | 00:38:59 | 00:00:00 | |
| BIOWL1-15 | 2026-09-01 11:16:03 | 49.70516 | 7.65231 | 91° | 84km/h | 8831m | 5m/s | -37.1°C | 28.8% | 328.7hPa | 2.9V | 04:35:12 | 00:38:44 | 00:00:00 | |
| DM0DOS-11 | 2026-09-01 11:16:03 | 49.70515 | 7.65299 | 89° | 88km/h | 8841m | 4.6m/s | -37.2°C | 27.7% | 328.1hPa | 2.8V | 04:34:41 | 00:38:46 | 00:00:00 | |
| DL8DAS-14 | 2026-09-01 11:16:00 | 49.70516 | 7.65231 | 90° | 84km/h | 8831m | 5.0m/s | -37.1°C | 25.6% | 328.7hPa | 2.9V | 00:00:00 | 00:00:00 | 00:00:00 | |
| CB1BUN | 2026-09-01 11:15:59 | 49.70515 | 7.65265 | 92° | 89km/h | 8836m | 6.0m/s | -37.1°C | 25.6% | 328.4hPa | 2.9V | 04:35:00 | 00:00:00 | 00:00:00 | |
| DM0DOS-11 | 2026-09-01 11:15:57 | 49.70507 | 7.65001 | 89° | 78km/h | 8788m | 4.2m/s | -36.7°C | 27.4% | 330.7hPa | 2.9V | 04:34:51 | 00:38:36 | 00:00:00 | |
| BIOWL1-15 | 2026-09-01 11:15:49 | 49.70509 | 7.64843 | 91° | 78km/h | 8763m | 6.4m/s | -36.5°C | 28.5% | 332hPa | 2.8V | 04:35:12 | 00:38:31 | 00:00:00 | |
| DL1ZP-14 | 2026-09-01 11:15:47 | 49.70509 | 7.64843 | 90° | 77km/h | 8763m | 6.4m/s | -36.5°C | 25.3% | 332.0hPa | 2.8V | 00:00:00 | 00:00:00 | 00:00:00 | |
| DM0DOS-11 | 2026-09-01 11:15:43 | 49.70498 | 7.64694 | 78° | 80km/h | 8735m | 5.7m/s | -36.3°C | 27.7% | 333.2hPa | 2.9V | 04:35:01 | 00:38:26 | 00:00:00 | |
| BIOWL1-15 | 2026-09-01 11:15:39 | 49.70486 | 7.64567 | 87° | 82km/h | 8718m | 5.1m/s | -36.1°C | 29% | 334.1hPa | 2.8V | 04:35:12 | 00:38:22 | 00:00:00 | |
| DK5PH-5 | 2026-09-01 11:15:38 | 49.70488 | 7.64599 | 86° | 82km/h | 8722m | 3.3m/s | -36.1°C | 28.2% | 333.9hPa | 2.9V | 00:00:00 | 00:38:23 | 00:00:00 | |
| DM0DOS-11 | 2026-09-01 11:15:36 | 49.70481 | 7.64367 | 87° | 82km/h | 8683m | 5.9m/s | -35.8°C | 28.1% | 335.9hPa | 2.9V | 04:35:11 | 00:38:16 | 00:00:00 | |
| DO1YAY-16 | 2026-09-01 11:15:35 | 49.70485 | 7.64502 | 87° | 84km/h | 8706m | 5.7m/s | -36.0°C | 25.2% | 334.6hPa | 2.9V | 00:00:00 | 00:00:00 | 00:00:00 | |
| HEMX73-11 | 2026-09-01 11:15:33 | 49.70484 | 7.64468 | 88° | 86km/h | 8701m | 6.1m/s | -35.9°C | 25.1% | 335.0hPa | 2.9V | 04:35:00 | 00:00:00 | 00:00:00 | |
| DB0UT-7 | 2026-09-01 11:15:31 | 49.70481 | 7.64367 | 88° | 78km/h | 8683m | 5.8m/s | -35.7°C | 28.1% | 335.8hPa | 2.9V | 00:00:00 | 00:00:00 | 00:00:00 | |
| DL8DAS-14 | 2026-09-01 11:15:29 | 49.70478 | 7.64277 | 88° | 73km/h | 8667m | 4.0m/s | -35.6°C | 25.9% | 336.7hPa | 2.9V | 00:00:00 | 00:00:00 | 00:00:00 | |
| BIOWL1-15 | 2026-09-01 11:15:26 | 49.70446 | 7.63645 | 85° | 82km/h | 8556m | 4.8m/s | -34.6°C | 29.8% | 342.1hPa | 2.9V | 04:36:03 | 00:37:53 | 00:00:00 | |
| DH7VM-15 | 2026-09-01 11:15:25 | 49.70478 | 7.64217 | 90° | 78km/h | 8656m | 5.2m/s | -35.5°C | 26.0% | 337.2hPa | 2.8V | 00:00:00 | 00:00:00 | 00:00:00 | |
| DM0DOS-11 | 2026-09-01 11:15:22 | 49.70471 | 7.64054 | 86° | 82km/h | 8630m | 5.1m/s | -35.3°C | 29.8% | 338.5hPa | 2.8V | 04:35:21 | 00:38:06 | 00:00:00 | |
| DL8DAS-15 | 2026-09-01 11:15:19 | 49.70470 | 7.64023 | 89° | 82km/h | 8625m | 7.0m/s | 0°C | 0% | 0hPa | 2.9V | 00:00:00 | 00:00:00 | 00:00:00 | |
| CB1BUN | 2026-09-01 11:15:18 | 49.70469 | 7.63991 | 89° | 78km/h | 8618m | 7.0m/s | -35.2°C | 27.5% | 339.0hPa | 2.9V | 04:36:00 | 00:00:00 | 00:00:00 | |
| DM0DOS-11 | 2026-09-01 11:15:16 | 49.70449 | 7.63710 | 85° | 86km/h | 8566m | 6.4m/s | -34.7°C | 29.1% | 341.6hPa | 2.9V | 04:35:32 | 00:37:55 | 00:00:00 | |
| BIOWL1-15 | 2026-09-01 11:15:15 | 49.70444 | 7.63613 | 85° | 80km/h | 8550m | 7.3m/s | -34.6°C | 29.7% | 342.3hPa | 2.9V | 04:36:03 | 00:37:52 | 00:00:00 | |
| HEMX73-11 | 2026-09-01 11:15:13 | 49.70458 | 7.63839 | 82° | 80km/h | 8588m | 5.8m/s | -35.0°C | 27.1% | 340.5hPa | 2.9V | 04:36:00 | 00:00:00 | 00:00:00 | |
| DK5PH-5 | 2026-09-01 11:15:08 | 49.70446 | 7.63645 | 86° | 75km/h | 8556m | 4.8m/s | -34.6°C | 28.8% | 342.0hPa | 2.9V | 00:00:00 | 00:37:53 | 00:00:00 | |
| BIOWL9-15 | 2026-09-01 11:15:05 | 49.70439 | 7.63554 | 80° | 71km/h | 8536m | 5.8m/s | -34.4°C | 25.2% | 342.9hPa | 2.9V | 00:00:00 | 00:00:00 | 00:00:00 | |
| DO1YAY-16 | 2026-09-01 11:15:04 | 49.70433 | 7.63500 | 81° | 69km/h | 8524m | 5.0m/s | -34.4°C | 24.9% | 343.5hPa | 2.9V | 00:00:00 | 00:00:00 | 00:00:00 | |
| DM0DOS-11 | 2026-09-01 11:15:02 | 49.70429 | 7.63444 | 86° | 77km/h | 8515m | 5.3m/s | -34.2°C | 26.5% | 344.1hPa | 2.9V | 04:35:41 | 00:37:46 | 00:00:00 | |
| BIOWL1-15 | 2026-09-01 11:15:01 | 49.70429 | 7.63444 | 86° | 77km/h | 8515m | 5.3m/s | -34.2°C | 28% | 344.1hPa | 2.9V | 04:36:03 | 00:37:46 | 00:00:00 | |
| DL8DAS-14 | 2026-09-01 11:14:58 | 49.70429 | 7.63313 | 91° | 86km/h | 8494m | 6.4m/s | -34.1°C | 23.4% | 345.1hPa | 2.9V | 00:00:00 | 00:00:00 | 00:00:00 | |
| CB1BUN | 2026-09-01 11:14:57 | 49.70428 | 7.63347 | 91° | 86km/h | 8499m | 4.7m/s | -34.1°C | 23.4% | 344.9hPa | 2.9V | 04:36:00 | 00:00:00 | 00:00:00 | |
| DM0DOS-11 | 2026-09-01 11:14:56 | 49.70420 | 7.63093 | 82° | 82km/h | 8458m | 5.3m/s | -33.7°C | 24.4% | 346.9hPa | 2.9V | 04:35:52 | 00:37:35 | 00:00:00 | |
| BIOWL1-15 | 2026-09-01 11:14:51 | 49.70414 | 7.63028 | 82° | 88km/h | 8448m | 5.8m/s | -33.6°C | 25.8% | 347.4hPa | 2.9V | 04:36:03 | 00:37:33 | 00:00:00 | |
| DB0UT-9 | 2026-09-01 11:14:47 | 49.70414 | 7.63028 | 83° | 88km/h | 8448m | 5.8m/s | -33.6°C | 22.1% | 347.4hPa | 2.9V | 04:36:00 | 00:00:00 | 00:00:00 | |
| DM0DOS-11 | 2026-09-01 11:14:45 | 49.70406 | 7.62792 | 90° | 69km/h | 8404m | 3.1m/s | -33.2°C | 24% | 349.4hPa | 2.9V | 04:36:02 | 00:37:25 | 00:00:00 | |
| DL1ZP-14 | 2026-09-01 11:14:44 | 49.70406 | 7.62899 | 89° | 73km/h | 8425m | 4.5m/s | -33.4°C | 21.9% | 348.5hPa | 2.8V | 00:00:00 | 00:00:00 | 00:00:00 | |
| BIOWL1-15 | 2026-09-01 11:14:40 | 49.70406 | 7.62792 | 91° | 69km/h | 8404m | 3.1m/s | -33.2°C | 24.9% | 349.4hPa | 2.9V | 04:36:03 | 00:37:25 | 00:00:00 | |
| DK5PH-5 | 2026-09-01 11:14:38 | 49.70407 | 7.62735 | 93° | 75km/h | 8397m | 3.8m/s | -33.1°C | 24.4% | 349.9hPa | 2.8V | 04:36:00 | 00:37:23 | 00:00:00 | |
| CB1BUN | 2026-09-01 11:14:37 | 49.70407 | 7.62735 | 93° | 75km/h | 8397m | 3.9m/s | -33.2°C | 22.4% | 349.9hPa | 2.8V | 04:36:00 | 00:00:00 | 00:00:00 | |
| DM0DOS-11 | 2026-09-01 11:14:35 | 49.70396 | 7.62493 | 84° | 80km/h | 8354m | 5.9m/s | -32.9°C | 26% | 352.1hPa | 2.8V | 04:36:12 | 00:37:15 | 00:00:00 | |
| BIOWL1-15 | 2026-09-01 11:14:29 | 49.70397 | 7.62402 | 96° | 77km/h | 8339m | 5m/s | -32.8°C | 27.2% | 352.8hPa | 2.9V | 04:36:54 | 00:37:12 | 00:00:00 | |
| DM3KS-11 | 2026-09-01 11:14:27 | 49.70397 | 7.62402 | 95° | 75km/h | 8339m | 5.0m/s | -32.8°C | 23.5% | 352.8hPa | 2.9V | 00:00:00 | 00:00:00 | 00:00:00 | |
| DB0UT-9 | 2026-09-01 11:14:26 | 49.70397 | 7.62401 | 97° | 77km/h | 8339m | 5.0m/s | -32.8°C | 23.5% | 352.8hPa | 2.9V | 04:36:00 | 00:00:00 | 00:00:00 | |
| DM0DOS-11 | 2026-09-01 11:14:25 | 49.70401 | 7.62206 | 82° | 68km/h | 8307m | 6.2m/s | -32.5°C | 24.9% | 354.5hPa | 2.9V | 04:36:22 | 00:37:05 | 00:00:00 | |
| BIOWL1-15 | 2026-09-01 11:14:19 | 49.70395 | 7.62128 | 87° | 69km/h | 8293m | 4.2m/s | -32.3°C | 25.8% | 355.2hPa | 2.9V | 04:36:54 | 00:37:02 | 00:00:00 | |
| BIOWL1-15 | 2026-09-01 11:14:07 | 49.70394 | 7.61684 | 86° | 68km/h | 8208m | 6.4m/s | -31.6°C | 23.8% | 359.4hPa | 2.9V | 04:36:54 | 00:36:47 | 00:00:00 | |
| DB0UT-9 | 2026-09-01 11:14:06 | 49.70395 | 7.61826 | 93° | 82km/h | 8235m | 5.4m/s | -31.8°C | 21.4% | 358.0hPa | 2.9V | 04:36:00 | 00:00:00 | 00:00:00 | |
| BIOWL9-15 | 2026-09-01 11:14:03 | 49.70394 | 7.61684 | 86° | 66km/h | 8208m | 6.4m/s | -31.6°C | 20.5% | 359.4hPa | 2.9V | 00:00:00 | 00:00:00 | 00:00:00 | |
| DO1YAY-16 | 2026-09-01 11:14:02 | 49.70390 | 7.61602 | 84° | 71km/h | 8189m | 6.3m/s | -31.4°C | 20.3% | 360.4hPa | 2.9V | 00:00:00 | 00:00:00 | 00:00:00 | |
| DB0UT-7 | 2026-09-01 11:14:01 | 49.70393 | 7.61657 | 87° | 71km/h | 8202m | 6.4m/s | -31.5°C | 22.1% | 359.7hPa | 2.9V | 00:00:00 | 00:36:46 | 00:00:00 | |
| DM0DOS-11 | 2026-09-01 11:14:00 | 49.70390 | 7.61602 | 84° | 73km/h | 8189m | 6.3m/s | -31.4°C | 22% | 360.4hPa | 2.9V | 04:36:43 | 00:36:44 | 00:00:00 | |
| BIOWL1-15 | 2026-09-01 11:13:55 | 49.70375 | 7.61395 | 88° | 69km/h | 8151m | 5.9m/s | -31°C | 22.9% | 362.4hPa | 2.9V | 04:36:54 | 00:36:37 | 00:00:00 | |
| DM0DOS-11 | 2026-09-01 11:13:52 | 49.70373 | 7.61318 | 87° | 62km/h | 8135m | 6m/s | -30.9°C | 20.5% | 363.4hPa | 2.9V | 04:36:53 | 00:36:34 | 00:00:00 | |
| BIOWL1-15 | 2026-09-01 11:13:43 | 49.70366 | 7.61120 | 88° | 71km/h | 8098m | 6.6m/s | -30.5°C | 21% | 365.3hPa | 2.8V | 04:37:45 | 00:36:26 | 00:00:00 | |
| DL1ZP-14 | 2026-09-01 11:13:43 | 49.70367 | 7.61147 | 85° | 68km/h | 8102m | 4.0m/s | -30.5°C | 17.9% | 365.0hPa | 2.9V | 00:00:00 | 00:00:00 | 00:00:00 | |
| DM0DOS-11 | 2026-09-01 11:13:40 | 49.70366 | 7.60999 | 92° | 84km/h | 8071m | 5.2m/s | -30.3°C | 19.7% | 366.6hPa | 2.9V | 04:37:05 | 00:36:22 | 00:00:00 | |
| BIOWL1-15 | 2026-09-01 11:13:34 | 49.70366 | 7.60789 | 86° | 68km/h | 8035m | 6.6m/s | -30°C | 20.2% | 368.2hPa | 2.9V | 04:37:45 | 00:36:15 | 00:00:00 | |
| BIOWL9-15 | 2026-09-01 11:13:32 | 49.70367 | 7.60816 | 87° | 69km/h | 8041m | 5.9m/s | -30.0°C | 17.4% | 368.1hPa | 2.9V | 00:00:00 | 00:00:00 | 00:00:00 | |
| DB0UT-7 | 2026-09-01 11:13:31 | 49.70367 | 7.60816 | 88° | 69km/h | 8041m | 5.8m/s | -30.0°C | 18.8% | 368.1hPa | 2.9V | 04:37:00 | 00:00:00 | 00:00:00 | |
| DL9PN | 2026-09-01 11:13:29 | 49.70365 | 7.60763 | 86° | 68km/h | 8029m | 5.1m/s | -29.9°C | 17.2% | 368.6hPa | 2.9V | 00:00:00 | 00:00:00 | 00:00:00 | |
| DM0DOS-11 | 2026-09-01 11:13:26 | 49.70360 | 7.60632 | 90° | 62km/h | 8006m | 5m/s | -29.7°C | 18.2% | 369.8hPa | 2.9V | 04:37:18 | 00:36:09 | 00:00:00 | |
| BIOWL1-15 | 2026-09-01 11:13:22 | 49.70362 | 7.60584 | 94° | 62km/h | 7998m | 4.5m/s | -29.6°C | 19.6% | 370.2hPa | 2.8V | 04:37:45 | 00:36:07 | 00:00:00 | |
| DM0DOS-11 | 2026-09-01 11:13:19 | 49.70362 | 7.60354 | 85° | 80km/h | 7960m | 4.8m/s | -29.3°C | 18.7% | 372.2hPa | 2.9V | 04:37:28 | 00:35:59 | 00:00:00 | |
| BIOWL1-15 | 2026-09-01 11:13:12 | 49.70360 | 7.60212 | 92° | 68km/h | 7935m | 5m/s | -29.1°C | 19.3% | 373.6hPa | 2.9V | 04:37:45 | 00:35:54 | 00:00:00 | |
| BIOWL1-15 | 2026-09-01 11:13:02 | 49.70361 | 7.59987 | 91° | 86km/h | 7895m | 4.2m/s | -28.7°C | 16.2% | 375.6hPa | 2.9V | 04:37:45 | 00:35:46 | 00:00:00 | |
| BIOWL9-15 | 2026-09-01 11:13:01 | 49.70361 | 7.59954 | 89° | 84km/h | 7890m | 5.8m/s | -28.7°C | 13.0% | 375.9hPa | 2.9V | 00:00:00 | 00:00:00 | 00:00:00 | |
| DH7VM-15 | 2026-09-01 11:13:00 | 49.70361 | 7.59987 | 92° | 86km/h | 7895m | 4.2m/s | -28.7°C | 13.9% | 375.6hPa | 2.9V | 00:00:00 | 00:00:00 | 00:00:00 | |
| DM0DOS-11 | 2026-09-01 11:12:59 | 49.70359 | 7.59781 | 84° | 68km/h | 7856m | 5.7m/s | -28.4°C | 10.6% | 377.8hPa | 2.9V | 04:37:48 | 00:35:39 | 00:00:00 | |
| BIOWL1-15 | 2026-09-01 11:12:50 | 49.70361 | 7.59609 | 94° | 82km/h | 7822m | 7.5m/s | -28.2°C | 19.7% | 379.5hPa | 2.9V | 04:38:36 | 00:35:33 | 00:00:00 | |
| HEMX73-11 | 2026-09-01 11:12:48 | 49.70360 | 7.59640 | 96° | 78km/h | 7829m | 5.4m/s | -28.2°C | 15.1% | 379.2hPa | 2.8V | 04:38:00 | 00:00:00 | 00:00:00 | |
| DM0DOS-11 | 2026-09-01 11:12:46 | 49.70367 | 7.59482 | 92° | 80km/h | 7801m | 4m/s | -28°C | 17.5% | 380.6hPa | 2.8V | 04:37:58 | 00:35:29 | 00:00:00 | |
| BIOWL1-15 | 2026-09-01 11:12:40 | 49.70372 | 7.59362 | 94° | 73km/h | 7778m | 7.3m/s | -27.8°C | 17.5% | 381.8hPa | 2.9V | 04:38:36 | 00:35:25 | 00:00:00 | |
| DK5PH-5 | 2026-09-01 11:12:38 | 49.70373 | 7.59306 | 90° | 75km/h | 7768m | 5.3m/s | -27.7°C | 15.6% | 382.4hPa | 2.8V | 00:00:00 | 00:35:23 | 00:00:00 | |
| DM0DOS-11 | 2026-09-01 11:12:35 | 49.70369 | 7.59196 | 85° | 73km/h | 7746m | 4.8m/s | -27.6°C | 14.7% | 383.4hPa | 2.8V | 04:38:08 | 00:35:19 | 00:00:00 | |
| BIOWL1-15 | 2026-09-01 11:12:29 | 49.70371 | 7.59047 | 96° | 78km/h | 7724m | 5.2m/s | -27.4°C | 16.1% | 384.7hPa | 2.9V | 04:38:36 | 00:35:14 | 00:00:00 | |
| HEMX73-11 | 2026-09-01 11:12:28 | 49.70373 | 7.59017 | 97° | 77km/h | 7719m | 5.0m/s | -27.3°C | 14.1% | 385.0hPa | 2.8V | 04:38:00 | 00:00:00 | 00:00:00 | |
| DL9PN | 2026-09-01 11:12:27 | 49.70375 | 7.58987 | 94° | 75km/h | 7714m | 5.1m/s | -27.3°C | 13.8% | 385.2hPa | 2.8V | 00:00:00 | 00:00:00 | 00:00:00 | |
| DM0DOS-11 | 2026-09-01 11:12:25 | 49.70377 | 7.58898 | 88° | 78km/h | 7696m | 6.9m/s | -27.1°C | 12.2% | 386.1hPa | 2.8V | 04:38:18 | 00:35:09 | 00:00:00 | |
| BIOWL1-15 | 2026-09-01 11:12:18 | 49.70375 | 7.58605 | 98° | 73km/h | 7640m | 5.1m/s | -26.6°C | 11.5% | 389.2hPa | 2.8V | 04:38:36 | 00:34:59 | 00:00:00 | |
| DM0DOS-11 | 2026-09-01 11:12:15 | 49.70375 | 7.58605 | 98° | 73km/h | 7640m | 5m/s | -26.6°C | 10.7% | 389.2hPa | 2.8V | 04:38:28 | 00:34:59 | 00:00:00 | |
| CB1BUN | 2026-09-01 11:12:12 | 49.70377 | 7.58576 | 97° | 73km/h | 7635m | 5.4m/s | -26.6°C | 9.6% | 389.4hPa | 2.9V | 04:38:00 | 00:00:00 | 00:00:00 | |
| DM0DOS-11 | 2026-09-01 11:12:10 | 49.70375 | 7.58316 | 92° | 78km/h | 7587m | 5.8m/s | -26.5°C | 10.4% | 392hPa | 2.9V | 04:38:38 | 00:34:49 | 00:00:00 | |
| BIOWL1-15 | 2026-09-01 11:12:04 | 49.70375 | 7.58192 | 85° | 78km/h | 7569m | 4.4m/s | -26.5°C | 11.8% | 393.1hPa | 2.9V | 04:39:27 | 00:34:45 | 00:00:00 | |
| BIOWL7-15 | 2026-09-01 11:12:03 | 49.70375 | 7.58316 | 93° | 78km/h | 7587m | 5.8m/s | -26.5°C | 9.4% | 392.0hPa | 2.9V | 00:00:00 | 00:00:00 | 00:00:00 | |
| DB0UT-9 | 2026-09-01 11:12:02 | 49.70376 | 7.58285 | 93° | 80km/h | 7582m | 4.5m/s | -26.5°C | 9.5% | 392.3hPa | 2.9V | 00:00:00 | 00:00:00 | 00:00:00 | |
| DB0UT-7 | 2026-09-01 11:12:01 | 49.70376 | 7.58223 | 88° | 71km/h | 7574m | 5.7m/s | -26.4°C | 10.7% | 392.6hPa | 2.9V | 00:00:00 | 00:34:46 | 00:00:00 | |
| DM0DOS-11 | 2026-09-01 11:11:59 | 49.70369 | 7.58026 | 94° | 68km/h | 7542m | 4.4m/s | -26.3°C | 13% | 394.5hPa | 2.9V | 04:38:48 | 00:34:39 | 00:00:00 | |
| BIOWL1-15 | 2026-09-01 11:11:50 | 49.70373 | 7.57830 | 87° | 75km/h | 7502m | 7.2m/s | -26.2°C | 14.2% | 396.4hPa | 2.9V | 04:39:27 | 00:34:32 | 00:00:00 | |
| BIOWL1-15 | 2026-09-01 11:11:39 | 49.70373 | 7.57571 | 90° | 66km/h | 7445m | 6.3m/s | -25.8°C | 14.1% | 399.7hPa | 2.8V | 04:39:27 | 00:34:22 | 00:00:00 | |
| DK5PH-5 | 2026-09-01 11:11:38 | 49.70373 | 7.57596 | 90° | 71km/h | 7450m | 4.2m/s | -25.8°C | 12.7% | 399.4hPa | 2.9V | 00:00:00 | 00:34:23 | 00:00:00 | |
| DM0DOS-11 | 2026-09-01 11:11:34 | 49.70367 | 7.57338 | 86° | 73km/h | 7396m | 5.8m/s | -25.6°C | 11.7% | 402.2hPa | 2.9V | 04:39:13 | 00:34:14 | 00:00:00 | |
| BIOWL1-15 | 2026-09-01 11:11:28 | 49.70367 | 7.57183 | 93° | 66km/h | 7364m | 4.6m/s | -25.6°C | 15.1% | 404.1hPa | 2.9V | 04:39:27 | 00:34:08 | 00:00:00 | |
| BIOWL9-15 | 2026-09-01 11:11:28 | 49.70365 | 7.57285 | 86° | 66km/h | 7385m | 5.6m/s | -25.7°C | 11.4% | 402.9hPa | 2.8V | 00:00:00 | 00:00:00 | 00:00:00 | |
| HEMX73-11 | 2026-09-01 11:11:26 | 49.70365 | 7.57259 | 91° | 66km/h | 7380m | 6.4m/s | -25.6°C | 11.6% | 403.3hPa | 2.8V | 04:39:00 | 00:00:00 | 00:00:00 | |
| DL9PN | 2026-09-01 11:11:25 | 49.70365 | 7.57233 | 92° | 64km/h | 7374m | 3.9m/s | -25.6°C | 12.1% | 403.6hPa | 2.8V | 00:00:00 | 00:00:00 | 00:00:00 | |
| DM0DOS-11 | 2026-09-01 11:11:24 | 49.70363 | 7.57069 | 83° | 78km/h | 7344m | 4.4m/s | -25.6°C | 15.2% | 405.2hPa | 2.8V | 04:39:23 | 00:34:04 | 00:00:00 | |
| BIOWL1-15 | 2026-09-01 11:11:16 | 49.70357 | 7.56980 | 83° | 73km/h | 7330m | 4.4m/s | -25.5°C | 17.8% | 406hPa | 2.9V | 04:39:27 | 00:34:01 | 00:00:00 | |
| BIOWL1-15 | 2026-09-01 11:11:05 | 49.70348 | 7.56693 | 85° | 58km/h | 7263m | 4.8m/s | -25.1°C | 25.1% | 410.1hPa | 2.9V | 04:40:18 | 00:33:50 | 00:00:00 | |
| HEMX73-11 | 2026-09-01 11:11:04 | 49.70347 | 7.56693 | 86° | 58km/h | 7263m | 4.8m/s | -25.0°C | 22.0% | 410.1hPa | 2.9V | 04:40:00 | 00:00:00 | 00:00:00 | |
| DM0DOS-11 | 2026-09-01 11:11:03 | 49.70343 | 7.56531 | 85° | 77km/h | 7231m | 5m/s | -24.8°C | 26.2% | 411.8hPa | 2.9V | 04:39:43 | 00:33:44 | 00:00:00 | |
| BIOWL1-15 | 2026-09-01 11:10:54 | 49.70341 | 7.56360 | 93° | 68km/h | 7200m | 5.3m/s | -24.6°C | 34.3% | 413.6hPa | 2.9V | 04:40:18 | 00:33:38 | 00:00:00 | |
| DL9PN | 2026-09-01 11:10:54 | 49.70341 | 7.56360 | 93° | 68km/h | 7199m | 5.3m/s | -24.6°C | 31.0% | 413.6hPa | 2.8V | 00:00:00 | 00:00:00 | 00:00:00 | |
| DM0DOS-11 | 2026-09-01 11:10:50 | 49.70343 | 7.56251 | 90° | 71km/h | 7177m | 6.5m/s | -24.5°C | 38.2% | 414.7hPa | 2.8V | 04:39:53 | 00:33:34 | 00:00:00 | |
| BIOWL1-15 | 2026-09-01 11:10:44 | 49.70340 | 7.56118 | 87° | 66km/h | 7153m | 4.4m/s | -24.4°C | 43.4% | 416.2hPa | 2.9V | 04:40:18 | 00:33:29 | 00:00:00 | |
| HEMX73-11 | 2026-09-01 11:10:43 | 49.70340 | 7.56118 | 88° | 66km/h | 7153m | 4.4m/s | -24.4°C | 40.5% | 416.2hPa | 2.9V | 04:40:00 | 00:00:00 | 00:00:00 | |
| DM0DOS-11 | 2026-09-01 11:10:42 | 49.70336 | 7.55985 | 85° | 68km/h | 7129m | 5.9m/s | -24.3°C | 44.2% | 417.5hPa | 2.9V | 04:40:03 | 00:33:24 | 00:00:00 | |
| BIOWL1-15 | 2026-09-01 11:10:34 | 49.70332 | 7.55845 | 87° | 77km/h | 7105m | 5.1m/s | -24.2°C | 46.3% | 418.9hPa | 2.9V | 04:40:18 | 00:33:19 | 00:00:00 | |
| DH7VM-15 | 2026-09-01 11:10:31 | 49.70329 | 7.55785 | 87° | 78km/h | 7098m | 3.6m/s | -24.1°C | 0% | 0hPa | 2.9V | 00:00:00 | 00:00:00 | 00:00:00 | |
| DM0DOS-11 | 2026-09-01 11:10:30 | 49.70325 | 7.55696 | 87° | 73km/h | 7084m | 4.1m/s | -24°C | 52% | 420.3hPa | 2.9V | 04:40:13 | 00:33:14 | 00:00:00 | |
| BIOWL1-15 | 2026-09-01 11:10:23 | 49.70318 | 7.55406 | 88° | 77km/h | 7037m | 5.2m/s | -23.9°C | 64.3% | 422.8hPa | 2.9V | 04:41:09 | 00:33:04 | 00:00:00 | |
| DL9PN | 2026-09-01 11:10:23 | 49.70320 | 7.55466 | 86° | 77km/h | 7045m | 4.1m/s | -23.9°C | 61.7% | 422.3hPa | 2.9V | 00:00:00 | 00:00:00 | 00:00:00 | |
| DM0DOS-11 | 2026-09-01 11:10:22 | 49.70318 | 7.55406 | 88° | 77km/h | 7037m | 5.2m/s | -23.9°C | 65.1% | 422.8hPa | 2.9V | 04:40:23 | 00:33:04 | 00:00:00 | |
| DB0UT-9 | 2026-09-01 11:10:18 | 49.70318 | 7.55406 | 89° | 77km/h | 7037m | 5.2m/s | -23.9°C | 63.0% | 422.8hPa | 2.8V | 00:00:00 | 00:00:00 | 00:00:00 | |
| DM0DOS-11 | 2026-09-01 11:10:12 | 49.70315 | 7.55106 | 89° | 82km/h | 6992m | 4m/s | -23.6°C | 68.6% | 425.5hPa | 2.8V | 04:40:33 | 00:32:54 | 00:00:00 | |
| BIOWL1-15 | 2026-09-01 11:10:11 | 49.70315 | 7.55075 | 91° | 82km/h | 6987m | 5.1m/s | -23.7°C | 66.9% | 425.7hPa | 2.8V | 04:41:09 | 00:32:53 | 00:00:00 | |
| BIOWL1-15 | 2026-09-01 11:09:57 | 49.70316 | 7.54754 | 87° | 69km/h | 6938m | 5.1m/s | -23.9°C | 82.9% | 428.5hPa | 2.9V | 04:41:09 | 00:32:42 | 00:00:00 | |
| DM0DOS-11 | 2026-09-01 11:09:57 | 49.70315 | 7.54651 | 88° | 60km/h | 6909m | 6.8m/s | -23.8°C | 88.9% | 430.1hPa | 2.9V | 04:40:49 | 00:32:38 | 00:00:00 | |
| BIOWL1-15 | 2026-09-01 11:09:46 | 49.70301 | 7.54466 | 80° | 73km/h | 6867m | 4.1m/s | -23.4°C | 82.5% | 432.7hPa | 2.9V | 04:41:09 | 00:32:31 | 00:00:00 | |
| BIOWL1-15 | 2026-09-01 11:09:35 | 49.70277 | 7.54171 | 80° | 64km/h | 6812m | 3.6m/s | -22.9°C | 80.2% | 436hPa | 2.9V | 04:41:09 | 00:32:20 | 00:00:00 | |
| BIOWL1-15 | 2026-09-01 11:09:24 | 49.70248 | 7.53881 | 80° | 69km/h | 6766m | 4.2m/s | -22.4°C | 79% | 438.7hPa | 2.9V | 04:42:00 | 00:32:09 | 00:00:00 | |
| BIOWL9-15 | 2026-09-01 11:09:23 | 49.70246 | 7.53854 | 83° | 68km/h | 6761m | 4.8m/s | -22.4°C | 81.5% | 439.0hPa | 2.9V | 00:00:00 | 00:00:00 | 00:00:00 | |
| DL9PN | 2026-09-01 11:09:21 | 49.70241 | 7.53777 | 84° | 64km/h | 6749m | 5.1m/s | -22.3°C | 81.2% | 439.7hPa | 2.9V | 00:00:00 | 00:00:00 | 00:00:00 | |
| DB0UT-9 | 2026-09-01 11:09:16 | 49.70236 | 7.53703 | 83° | 66km/h | 6736m | 3.9m/s | -22.1°C | 81.1% | 440.5hPa | 2.9V | 04:42:00 | 00:00:00 | 00:00:00 | |
| DM0DOS-11 | 2026-09-01 11:09:14 | 49.70218 | 7.53547 | 81° | 69km/h | 6714m | 3.5m/s | -21.9°C | 83.9% | 442hPa | 2.9V | 04:41:31 | 00:31:56 | 00:00:00 | |
| BIOWL1-15 | 2026-09-01 11:09:13 | 49.70223 | 7.53600 | 80° | 69km/h | 6722m | 3.7m/s | -22°C | 78.6% | 441.5hPa | 2.8V | 04:42:00 | 00:31:58 | 00:00:00 | |
| BIOWL1-15 | 2026-09-01 11:09:04 | 49.70200 | 7.53259 | 84° | 66km/h | 6669m | 3.5m/s | -21.6°C | 76.7% | 444.7hPa | 2.9V | 04:42:00 | 00:31:45 | 00:00:00 | |
| DM0DOS-11 | 2026-09-01 11:09:04 | 49.70200 | 7.53259 | 84° | 66km/h | 6669m | 3.5m/s | -21.6°C | 84.4% | 444.7hPa | 2.9V | 04:41:42 | 00:31:45 | 00:00:00 | |
| DL1ZP-14 | 2026-09-01 11:09:03 | 49.70203 | 7.53312 | 87° | 68km/h | 6676m | 4.5m/s | -21.7°C | 81.4% | 444.2hPa | 2.9V | 00:00:00 | 00:00:00 | 00:00:00 | |
| HEMX73-11 | 2026-09-01 11:09:01 | 49.70203 | 7.53312 | 88° | 68km/h | 6676m | 4.5m/s | -21.7°C | 81.4% | 444.2hPa | 2.9V | 04:42:00 | 00:00:00 | 00:00:00 | |
| DB0UT-7 | 2026-09-01 11:09:00 | 49.70200 | 7.53259 | 85° | 62km/h | 6669m | 3.5m/s | -21.6°C | 84.4% | 444.6hPa | 2.9V | 00:00:00 | 00:31:45 | 00:00:00 | |
| DK5PH-5 | 2026-09-01 11:08:58 | 49.70194 | 7.53208 | 76° | 64km/h | 6661m | 3.7m/s | -21.5°C | 84.8% | 445.2hPa | 2.9V | 00:00:00 | 00:31:43 | 00:00:00 | |
| DB0UT-9 | 2026-09-01 11:08:55 | 49.70184 | 7.53158 | 73° | 68km/h | 6653m | 3.7m/s | -21.5°C | 82.7% | 445.6hPa | 2.9V | 04:42:00 | 00:00:00 | 00:00:00 | |
| DM0DOS-11 | 2026-09-01 11:08:54 | 49.70165 | 7.53000 | 85° | 64km/h | 6622m | 6.5m/s | -21.3°C | 83.6% | 447.5hPa | 2.9V | 04:41:52 | 00:31:35 | 00:00:00 | |
| BIOWL1-15 | 2026-09-01 11:08:50 | 49.70162 | 7.52952 | 83° | 58km/h | 6610m | 5.7m/s | -21.2°C | 78.6% | 448.3hPa | 2.9V | 04:42:00 | 00:31:33 | 00:00:00 | |
| DL9PN | 2026-09-01 11:08:50 | 49.70164 | 7.52975 | 85° | 60km/h | 6616m | 6.6m/s | -21.3°C | 81.3% | 447.9hPa | 2.9V | 00:00:00 | 00:00:00 | 00:00:00 | |
| DB0ND-19 | 2026-09-01 11:08:46 | 49.70153 | 7.52885 | 76° | 58km/h | 6594m | 5.8m/s | -21.1°C | 80.6% | 449.4hPa | 2.9V | 00:00:00 | 00:00:00 | 00:00:00 | |
| DM0DOS-11 | 2026-09-01 11:08:44 | 49.70137 | 7.52767 | 82° | 60km/h | 6572m | 4.4m/s | -20.9°C | 81.5% | 450.7hPa | 2.9V | 04:42:02 | 00:31:25 | 00:00:00 | |
| BIOWL1-15 | 2026-09-01 11:08:38 | 49.70133 | 7.52721 | 83° | 57km/h | 6562m | 5m/s | -20.8°C | 76.7% | 451.3hPa | 2.9V | 04:42:51 | 00:31:23 | 00:00:00 | |
| DB0UT-9 | 2026-09-01 11:08:35 | 49.70130 | 7.52677 | 86° | 58km/h | 6554m | 4.2m/s | -20.7°C | 78.4% | 451.8hPa | 2.9V | 04:42:00 | 00:00:00 | 00:00:00 | |
| DM0DOS-11 | 2026-09-01 11:08:33 | 49.70119 | 7.52532 | 80° | 64km/h | 6532m | 4m/s | -20.5°C | 79.6% | 453.1hPa | 2.9V | 04:42:12 | 00:31:15 | 00:00:00 | |
| BIOWL1-15 | 2026-09-01 11:08:30 | 49.70114 | 7.52484 | 81° | 62km/h | 6524m | 4.2m/s | -20.5°C | 72.5% | 453.6hPa | 2.9V | 04:42:51 | 00:31:13 | 00:00:00 | |
| DB0UT-7 | 2026-09-01 11:08:30 | 49.70119 | 7.52532 | 81° | 58km/h | 6532m | 4.0m/s | -20.5°C | 79.6% | 453.1hPa | 2.9V | 04:42:00 | 00:00:00 | 00:00:00 | |
| DK5PH-5 | 2026-09-01 11:08:28 | 49.70114 | 7.52484 | 81° | 57km/h | 6524m | 4.1m/s | -20.4°C | 79.7% | 453.6hPa | 2.9V | 00:00:00 | 00:31:13 | 00:00:00 | |
| DM0DOS-11 | 2026-09-01 11:08:23 | 49.70100 | 7.52288 | 83° | 53km/h | 6493m | 4.9m/s | -20.2°C | 78.5% | 455.5hPa | 2.9V | 04:42:22 | 00:31:05 | 00:00:00 | |
| BIOWL1-15 | 2026-09-01 11:08:17 | 49.70094 | 7.52229 | 79° | 49km/h | 6473m | 5.9m/s | -20.1°C | 73.2% | 456.7hPa | 2.9V | 04:42:51 | 00:31:02 | 00:00:00 | |
| DM3KS-11 | 2026-09-01 11:08:15 | 49.70087 | 7.52166 | 82° | 58km/h | 6454m | 6.8m/s | -19.9°C | 75.0% | 457.8hPa | 2.9V | 00:00:00 | 00:00:00 | 00:00:00 | |
| DB0ND-19 | 2026-09-01 11:08:14 | 49.70087 | 7.52166 | 82° | 58km/h | 6454m | 6.8m/s | -19.9°C | 75.0% | 457.8hPa | 2.9V | 00:00:00 | 00:00:00 | 00:00:00 | |
| DM0DOS-11 | 2026-09-01 11:08:13 | 49.70081 | 7.52072 | 86° | 58km/h | 6429m | 6.5m/s | -19.8°C | 77.1% | 459.2hPa | 2.9V | 04:42:32 | 00:30:55 | 00:00:00 | |
| BIOWL1-15 | 2026-09-01 11:08:06 | 49.70077 | 7.51990 | 80° | 47km/h | 6408m | 3.8m/s | -19.6°C | 71.2% | 460.6hPa | 2.9V | 04:42:51 | 00:30:51 | 00:00:00 | |
| DM0DOS-11 | 2026-09-01 11:08:03 | 49.70065 | 7.51865 | 83° | 58km/h | 6382m | 7.4m/s | -19.4°C | 76.3% | 462.2hPa | 2.9V | 04:42:42 | 00:30:45 | 00:00:00 | |
| BIOWL1-15 | 2026-09-01 11:07:55 | 49.70055 | 7.51760 | 83° | 49km/h | 6350m | 4.6m/s | -19.1°C | 71.1% | 464.4hPa | 2.9V | 04:42:51 | 00:30:40 | 00:00:00 | |
| BIOWL9-15 | 2026-09-01 11:07:50 | 49.70045 | 7.51657 | 75° | 60km/h | 6323m | 4.8m/s | -18.9°C | 76.4% | 465.8hPa | 2.9V | 00:00:00 | 00:00:00 | 00:00:00 | |
| DO1YAY-16 | 2026-09-01 11:07:49 | 49.70032 | 7.51566 | 82° | 53km/h | 6302m | 5.7m/s | 0°C | -1.0% | 467.3hPa | 2.9V | 00:00:00 | 00:00:00 | 00:00:00 | |
| BIOWL1-15 | 2026-09-01 11:07:45 | 49.70033 | 7.51468 | 93° | 49km/h | 6271m | 5.2m/s | -18.6°C | 75.8% | 469.2hPa | 2.9V | 04:43:42 | 00:30:26 | 00:00:00 | |
| DM3KS-11 | 2026-09-01 11:07:44 | 49.70031 | 7.51506 | 94° | 47km/h | 6282m | 6.1m/s | -18.7°C | 78.1% | 468.4hPa | 2.8V | 00:00:00 | 00:00:00 | 00:00:00 | |
| DB0ND-19 | 2026-09-01 11:07:43 | 49.70031 | 7.51506 | 94° | 47km/h | 6282m | 6.1m/s | -18.7°C | 78.1% | 468.4hPa | 2.8V | 00:00:00 | 00:00:00 | 00:00:00 | |
| DM0DOS-11 | 2026-09-01 11:07:42 | 49.70033 | 7.51449 | 90° | 49km/h | 6266m | 5.7m/s | -18.6°C | 81.2% | 469.4hPa | 2.8V | 04:43:02 | 00:30:25 | 00:00:00 | |
| BIOWL1-15 | 2026-09-01 11:07:36 | 49.70022 | 7.51321 | 83° | 53km/h | 6238m | 4.8m/s | -18.4°C | 76.8% | 471.3hPa | 2.9V | 04:43:42 | 00:30:19 | 00:00:00 | |
| DM0DOS-11 | 2026-09-01 11:07:34 | 49.70022 | 7.51245 | 96° | 49km/h | 6219m | 4.9m/s | -18.2°C | 81.4% | 472.3hPa | 2.9V | 04:43:12 | 00:30:15 | 00:00:00 | |
| BIOWL1-15 | 2026-09-01 11:07:23 | 49.70029 | 7.51106 | 83° | 53km/h | 6187m | 5.1m/s | -18°C | 77.5% | 474.3hPa | 2.8V | 04:43:42 | 00:30:08 | 00:00:00 | |
| DM0DOS-11 | 2026-09-01 11:07:21 | 49.70025 | 7.51039 | 89° | 58km/h | 6169m | 6.6m/s | -17.9°C | 79.6% | 475.5hPa | 2.9V | 04:43:22 | 00:30:05 | 00:00:00 | |
| BIOWL1-15 | 2026-09-01 11:07:13 | 49.70018 | 7.50782 | 83° | 57km/h | 6117m | 3.6m/s | -17.7°C | 80.4% | 478.8hPa | 2.9V | 04:43:42 | 00:29:53 | 00:00:00 | |
| CB1BUN | 2026-09-01 11:07:13 | 49.70030 | 7.50884 | 84° | 53km/h | 6140m | 4.8m/s | -17.7°C | 77.6% | 477.3hPa | 2.9V | 04:43:00 | 00:00:00 | 00:00:00 | |
| DB0ND-19 | 2026-09-01 11:07:12 | 49.70028 | 7.50864 | 79° | 49km/h | 6135m | 5.1m/s | -17.7°C | 77.9% | 477.7hPa | 2.9V | 00:00:00 | 00:00:00 | 00:00:00 | |
| DM0DOS-11 | 2026-09-01 11:07:05 | 49.69996 | 7.50616 | 82° | 55km/h | 6083m | 4m/s | -17.6°C | 84.4% | 481hPa | 2.9V | 04:43:42 | 00:29:45 | 00:00:00 | |
| BIOWL1-15 | 2026-09-01 11:07:00 | 49.69987 | 7.50488 | 84° | 47km/h | 6059m | 3.6m/s | -17.6°C | 79.1% | 482.4hPa | 2.9V | 04:44:33 | 00:29:39 | 00:00:00 | |
| DL1ZP-14 | 2026-09-01 11:06:58 | 49.69993 | 7.50572 | 85° | 57km/h | 6075m | 4.2m/s | -17.6°C | 83.3% | 481.5hPa | 2.9V | 00:00:00 | 00:00:00 | 00:00:00 | |
| HEMX73-11 | 2026-09-01 11:06:57 | 49.69992 | 7.50572 | 86° | 58km/h | 6075m | 4.2m/s | -17.6°C | 83.3% | 481.5hPa | 2.9V | 04:44:00 | 00:00:00 | 00:00:00 | |
| DM0DOS-11 | 2026-09-01 11:06:54 | 49.69982 | 7.50415 | 79° | 53km/h | 6045m | 3m/s | -17.5°C | 85.9% | 483.4hPa | 2.9V | 04:43:52 | 00:29:35 | 00:00:00 | |
| BIOWL1-15 | 2026-09-01 11:06:48 | 49.69976 | 7.50373 | 76° | 58km/h | 6037m | 5.1m/s | -17.5°C | 81.4% | 483.9hPa | 2.9V | 04:44:33 | 00:29:33 | 00:00:00 | |
| DL9PN | 2026-09-01 11:06:45 | 49.69965 | 7.50305 | 76° | 57km/h | 6019m | 6.9m/s | -17.4°C | 83.7% | 485.0hPa | 2.9V | 00:00:00 | 00:00:00 | 00:00:00 | |
| DM0DOS-11 | 2026-09-01 11:06:43 | 49.69962 | 7.50178 | 92° | 53km/h | 5987m | 4.7m/s | -17.2°C | 84.4% | 487hPa | 2.9V | 04:44:03 | 00:29:24 | 00:00:00 | |
| BIOWL1-15 | 2026-09-01 11:06:40 | 49.69963 | 7.50157 | 93° | 55km/h | 5982m | 5.1m/s | -17.2°C | 81.3% | 487.3hPa | 2.9V | 04:44:33 | 00:29:23 | 00:00:00 | |
| HEMX73-11 | 2026-09-01 11:06:38 | 49.69963 | 7.50157 | 94° | 55km/h | 5982m | 5.1m/s | -17.2°C | 82.6% | 487.3hPa | 2.9V | 04:44:00 | 00:00:00 | 00:00:00 | |
| DM0DOS-11 | 2026-09-01 11:06:32 | 49.69947 | 7.49950 | 83° | 64km/h | 5946m | 3.3m/s | -17°C | 84.4% | 489.8hPa | 2.9V | 04:44:13 | 00:29:14 | 00:00:00 | |
| BIOWL1-15 | 2026-09-01 11:06:27 | 49.69946 | 7.49901 | 92° | 68km/h | 5938m | 3.6m/s | -16.9°C | 78.9% | 490.3hPa | 2.9V | 04:44:33 | 00:29:12 | 00:00:00 | |
| DM0DOS-11 | 2026-09-01 11:06:24 | 49.69948 | 7.49663 | 83° | 69km/h | 5898m | 5.8m/s | -16.7°C | 76.6% | 492.9hPa | 2.9V | 04:44:24 | 00:29:03 | 00:00:00 | |
| BIOWL1-15 | 2026-09-01 11:06:18 | 49.69944 | 7.49611 | 82° | 68km/h | 5887m | 6.3m/s | -16.8°C | 76% | 493.6hPa | 2.8V | 04:44:33 | 00:29:01 | 00:00:00 | |
| DK5PH-5 | 2026-09-01 11:06:17 | 49.69946 | 7.49637 | 84° | 68km/h | 5893m | 5.3m/s | -16.7°C | 77.2% | 493.2hPa | 2.9V | 00:00:00 | 00:29:02 | 00:00:00 | |
| DO1YAY-16 | 2026-09-01 11:06:16 | 49.69937 | 7.49477 | 89° | 69km/h | 5865m | 4.0m/s | 0°C | -1.0% | 495.1hPa | 2.9V | 00:00:00 | 00:00:00 | 00:00:00 | |
| DM0DOS-11 | 2026-09-01 11:06:12 | 49.69937 | 7.49394 | 89° | 77km/h | 5855m | 3.7m/s | -16.6°C | 81.2% | 495.9hPa | 2.9V | 04:44:34 | 00:28:53 | 00:00:00 | |
| BIOWL1-15 | 2026-09-01 11:06:07 | 49.69938 | 7.49300 | 86° | 80km/h | 5847m | 3.2m/s | -16.6°C | 76.6% | 496.5hPa | 2.8V | 04:45:24 | 00:28:50 | 00:00:00 | |
| DM0DOS-11 | 2026-09-01 11:06:03 | 49.69918 | 7.49082 | 87° | 69km/h | 5804m | 8.7m/s | -16.3°C | 80.3% | 499.2hPa | 2.9V | 04:44:45 | 00:28:42 | 00:00:00 | |
| BIOWL1-15 | 2026-09-01 11:05:54 | 49.69918 | 7.48997 | 89° | 77km/h | 5784m | 4.2m/s | -16.1°C | 77% | 500.5hPa | 2.8V | 04:45:24 | 00:28:39 | 00:00:00 | |
| DM0DOS-11 | 2026-09-01 11:05:52 | 49.69915 | 7.48843 | 89° | 53km/h | 5757m | 4.8m/s | -15.9°C | 77.4% | 502.3hPa | 2.9V | 04:44:54 | 00:28:33 | 00:00:00 | |
| BIOWL1-15 | 2026-09-01 11:05:44 | 49.69915 | 7.48747 | 90° | 69km/h | 5740m | 5m/s | -15.8°C | 74.6% | 503.5hPa | 2.9V | 04:45:24 | 00:28:29 | 00:00:00 | |
| DL9PN | 2026-09-01 11:05:43 | 49.69914 | 7.48660 | 90° | 73km/h | 5728m | 4.2m/s | -15.7°C | 74.9% | 504.2hPa | 2.9V | 00:00:00 | 00:00:00 | 00:00:00 | |
| DM0DOS-11 | 2026-09-01 11:05:42 | 49.69913 | 7.48581 | 87° | 60km/h | 5716m | 4.9m/s | -15.7°C | 76.9% | 505.2hPa | 2.9V | 04:45:04 | 00:28:23 | 00:00:00 | |
| BIOWL1-15 | 2026-09-01 11:05:34 | 49.69908 | 7.48493 | 81° | 58km/h | 5692m | 4.6m/s | -15.5°C | 74.9% | 506.7hPa | 2.9V | 04:45:24 | 00:28:19 | 00:00:00 | |
| BIOWL1-15 | 2026-09-01 11:05:25 | 49.69892 | 7.48223 | 90° | 51km/h | 5646m | 4.1m/s | -15.3°C | 64.4% | 509.8hPa | 2.9V | 04:45:24 | 00:28:08 | 00:00:00 | |
| DM0DOS-11 | 2026-09-01 11:05:22 | 49.69884 | 7.48119 | 80° | 58km/h | 5627m | 3.9m/s | -15.1°C | 60.8% | 511hPa | 2.9V | 04:45:24 | 00:28:03 | 00:00:00 | |
| BIOWL1-15 | 2026-09-01 11:05:16 | 49.69874 | 7.47977 | 89° | 55km/h | 5597m | 4.8m/s | -14.9°C | 56% | 513.3hPa | 2.9V | 04:46:15 | 00:27:57 | 00:00:00 | |
| BIOWL9-15 | 2026-09-01 11:05:15 | 49.69877 | 7.48046 | 82° | 64km/h | 5614m | 5.9m/s | -15.1°C | 56.8% | 511.9hPa | 2.8V | 00:00:00 | 00:00:00 | 00:00:00 | |
| HEMX73-11 | 2026-09-01 11:05:14 | 49.69877 | 7.48046 | 84° | 66km/h | 5615m | 5.9m/s | -15.1°C | 56.8% | 511.9hPa | 2.8V | 04:46:00 | 00:00:00 | 00:00:00 | |
| DM0DOS-11 | 2026-09-01 11:05:12 | 49.69881 | 7.47864 | 94° | 57km/h | 5566m | 6.2m/s | -14.6°C | 54.3% | 515.4hPa | 2.8V | 04:45:35 | 00:27:52 | 00:00:00 | |
| BIOWL1-15 | 2026-09-01 11:05:03 | 49.69867 | 7.47622 | 97° | 58km/h | 5508m | 5.5m/s | -14°C | 51% | 519.3hPa | 2.9V | 04:46:15 | 00:27:40 | 00:00:00 | |
| DM0DOS-11 | 2026-09-01 11:05:02 | 49.69865 | 7.47665 | 92° | 51km/h | 5519m | 5.4m/s | -14.1°C | 51.4% | 518.5hPa | 2.9V | 04:45:45 | 00:27:42 | 00:00:00 | |
| BIOWL1-15 | 2026-09-01 11:04:44 | 49.69851 | 7.47367 | 90° | 57km/h | 5462m | 6.1m/s | -13.6°C | 44.2% | 522.6hPa | 2.9V | 04:46:15 | 00:27:29 | 00:00:00 | |
| BIOWL9-15 | 2026-09-01 11:04:44 | 49.69851 | 7.47367 | 90° | 57km/h | 5462m | 6.1m/s | -13.6°C | -1.0% | -1.0hPa | 2.8V | 00:00:00 | 00:00:00 | 00:00:00 | |
| BIOWL1-15 | 2026-09-01 11:04:34 | 49.69844 | 7.46965 | 89° | 51km/h | 5372m | 4.8m/s | -12.8°C | 51.2% | 529hPa | 2.8V | 04:47:06 | 00:27:11 | 00:00:00 | |
| HEMX73-11 | 2026-09-01 11:04:32 | 49.69850 | 7.47110 | 80° | 64km/h | 5408m | 5.1m/s | -13.1°C | 47.2% | 526.4hPa | 2.9V | 04:46:00 | 00:00:00 | 00:00:00 | |
| CB1BUN | 2026-09-01 11:04:29 | 49.69844 | 7.47023 | 90° | 51km/h | 5389m | 7.2m/s | -13.0°C | 47.6% | 527.8hPa | 2.9V | 04:46:00 | 00:00:00 | 00:00:00 | |
| DB0UT-7 | 2026-09-01 11:04:28 | 49.69844 | 7.47004 | 91° | 53km/h | 5382m | 6.0m/s | -12.9°C | 50.2% | 528.1hPa | 2.9V | 00:00:00 | 00:00:00 | 00:00:00 | |
| DM0DOS-11 | 2026-09-01 11:04:27 | 49.69844 | 7.46924 | 90° | 55km/h | 5363m | 4m/s | -12.8°C | 52.8% | 529.6hPa | 2.9V | 04:46:18 | 00:27:09 | 00:00:00 | |
| BIOWL1-15 | 2026-09-01 11:04:23 | 49.69846 | 7.46861 | 93° | 47km/h | 5350m | 4m/s | -12.7°C | 53.2% | 530.5hPa | 2.9V | 04:47:06 | 00:27:06 | 00:00:00 | |
| BIOWL1-15 | 2026-09-01 11:04:10 | 49.69825 | 7.46645 | 91° | 53km/h | 5293m | 7.3m/s | -12.2°C | 44.3% | 534.2hPa | 2.9V | 04:47:06 | 00:26:55 | 00:00:00 | |
| BIOWL1-15 | 2026-09-01 11:04:01 | 49.69831 | 7.46415 | 82° | 51km/h | 5236m | 5.8m/s | -11.8°C | 43.6% | 538.1hPa | 2.9V | 04:47:06 | 00:26:44 | 00:00:00 | |
| BIOWL1-15 | 2026-09-01 11:03:48 | 49.69852 | 7.46193 | 97° | 55km/h | 5179m | 6.9m/s | -11.2°C | 38.7% | 542.2hPa | 2.9V | 04:47:06 | 00:26:33 | 00:00:00 | |
| CB1BUN | 2026-09-01 11:03:48 | 49.69852 | 7.46193 | 98° | 55km/h | 5179m | 6.9m/s | -11.2°C | 35.0% | 542.2hPa | 2.9V | 04:47:00 | 00:00:00 | 00:00:00 | |
| DB0UT-9 | 2026-09-01 11:03:47 | 49.69852 | 7.46193 | 98° | 55km/h | 5179m | 6.9m/s | -11.2°C | 35.0% | 542.2hPa | 2.9V | 04:47:00 | 00:00:00 | 00:00:00 | |
| DM0DOS-11 | 2026-09-01 11:03:39 | 49.69859 | 7.45919 | 94° | 47km/h | 5112m | 4.1m/s | -10.8°C | 38.2% | 546.6hPa | 2.9V | 04:47:08 | 00:26:19 | 00:00:00 | |
| BIOWL1-15 | 2026-09-01 11:03:37 | 49.69863 | 7.45864 | 97° | 44km/h | 5101m | 3m/s | -10.7°C | 39.8% | 547.4hPa | 2.9V | 04:47:57 | 00:26:16 | 00:00:00 | |
| DB0ND-19 | 2026-09-01 11:03:35 | 49.69859 | 7.45937 | 92° | 46km/h | 5116m | 2.9m/s | -10.8°C | 36.1% | 546.4hPa | 2.9V | 00:00:00 | 00:00:00 | 00:00:00 | |
| HEMX73-11 | 2026-09-01 11:03:30 | 49.69863 | 7.45864 | 98° | 44km/h | 5101m | 3.0m/s | -10.7°C | 38.0% | 547.4hPa | 2.9V | 04:47:00 | 00:00:00 | 00:00:00 | |
| DM0DOS-11 | 2026-09-01 11:03:28 | 49.69857 | 7.45732 | 77° | 49km/h | 5071m | 5.8m/s | -10.5°C | 39.3% | 549.6hPa | 2.9V | 04:47:19 | 00:26:08 | 00:00:00 | |
| BIOWL1-15 | 2026-09-01 11:03:20 | 49.69851 | 7.45679 | 84° | 44km/h | 5053m | 5.7m/s | -10.4°C | 41% | 550.9hPa | 2.8V | 04:47:57 | 00:26:05 | 00:00:00 | |
| DM0DOS-11 | 2026-09-01 11:03:17 | 49.69859 | 7.45548 | 106° | 49km/h | 5018m | 4.2m/s | -10.1°C | 42.5% | 553.6hPa | 2.9V | 04:47:29 | 00:25:58 | 00:00:00 | |
| BIOWL1-15 | 2026-09-01 11:03:09 | 49.69873 | 7.45483 | 107° | 40km/h | 5005m | 2.9m/s | -10°C | 45.4% | 554.4hPa | 2.9V | 04:47:57 | 00:25:54 | 00:00:00 | |
| DL9PN | 2026-09-01 11:03:08 | 49.69877 | 7.45452 | 94° | 40km/h | 4995m | 5.6m/s | -9.9°C | 42.7% | 555.1hPa | 2.9V | 00:00:00 | 00:00:00 | 00:00:00 | |
| DM0DOS-11 | 2026-09-01 11:03:07 | 49.69878 | 7.45378 | 84° | 55km/h | 4972m | 5.8m/s | -9.8°C | 43% | 556.9hPa | 2.9V | 04:47:39 | 00:25:48 | 00:00:00 | |
| DH7VM-15 | 2026-09-01 11:03:07 | 49.69877 | 7.45452 | 96° | 42km/h | 4995m | 5.6m/s | -9.9°C | 0% | 0hPa | 2.9V | 00:00:00 | 00:00:00 | 00:00:00 | |
| DB0UT-9 | 2026-09-01 11:03:06 | 49.69877 | 7.45452 | 96° | 42km/h | 4995m | 5.6m/s | -9.9°C | 42.7% | 555.1hPa | 2.9V | 04:47:00 | 00:00:00 | 00:00:00 | |
| DB0ND-19 | 2026-09-01 11:03:04 | 49.69878 | 7.45399 | 90° | 49km/h | 4977m | 5.2m/s | -9.8°C | 42.5% | 556.5hPa | 2.9V | 00:00:00 | 00:00:00 | 00:00:00 | |
| DM0DOS-11 | 2026-09-01 11:03:02 | 49.69869 | 7.45282 | 81° | 40km/h | 4950m | 3.8m/s | -9.7°C | 44.6% | 558.4hPa | 2.9V | 04:47:44 | 00:25:43 | 00:00:00 | |
| BIOWL1-15 | 2026-09-01 11:02:58 | 49.69869 | 7.45282 | 81° | 40km/h | 4950m | 3.8m/s | -9.7°C | 46.1% | 558.4hPa | 2.9V | 04:47:57 | 00:25:43 | 00:00:00 | |
| DM0DOS-11 | 2026-09-01 11:02:57 | 49.69883 | 7.45189 | 106° | 46km/h | 4922m | 5.3m/s | -9.5°C | 47.4% | 560.3hPa | 2.9V | 04:47:50 | 00:25:37 | 00:00:00 | |
| DK5PH-5 | 2026-09-01 11:02:54 | 49.69875 | 7.45222 | 110° | 49km/h | 4932m | 4.3m/s | -9.5°C | 46.5% | 559.6hPa | 2.9V | 00:00:00 | 00:25:39 | 00:00:00 | |
| DM0DOS-11 | 2026-09-01 11:02:52 | 49.69875 | 7.45096 | 74° | 55km/h | 4892m | 7.9m/s | -9.3°C | 46.9% | 562.6hPa | 2.9V | 04:47:55 | 00:25:32 | 00:00:00 | |
| BIOWL1-15 | 2026-09-01 11:02:48 | 49.69879 | 7.45116 | 73° | 53km/h | 4900m | 8.1m/s | -9.3°C | 50.1% | 561.9hPa | 2.9V | 04:47:57 | 00:25:33 | 00:00:00 | |
| DM0DOS-11 | 2026-09-01 11:02:47 | 49.69867 | 7.44981 | 96° | 47km/h | 4853m | 5.2m/s | -9°C | 41.8% | 565.3hPa | 2.9V | 04:48:01 | 00:25:26 | 00:00:00 | |
| CB1BUN | 2026-09-01 11:02:46 | 49.69875 | 7.45095 | 75° | 55km/h | 4892m | 7.9m/s | -9.3°C | 46.2% | 562.6hPa | 2.9V | 04:47:00 | 00:00:00 | 00:00:00 | |
| DB0UT-9 | 2026-09-01 11:02:45 | 49.69872 | 7.45075 | 77° | 53km/h | 4884m | 7.5m/s | -9.2°C | 46.8% | 563.0hPa | 2.9V | 04:47:00 | 00:00:00 | 00:00:00 | |
| DM0DOS-11 | 2026-09-01 11:02:41 | 49.69871 | 7.44884 | 90° | 51km/h | 4828m | 5m/s | -8.8°C | 37.1% | 567.3hPa | 2.9V | 04:48:06 | 00:25:21 | 00:00:00 | |
| BIOWL1-15 | 2026-09-01 11:02:37 | 49.69871 | 7.44904 | 92° | 51km/h | 4832m | 3.9m/s | -8.8°C | 40.8% | 567hPa | 2.9V | 04:48:48 | 00:25:22 | 00:00:00 | |
| DL9PN | 2026-09-01 11:02:37 | 49.69871 | 7.44864 | 89° | 51km/h | 4823m | 5.3m/s | -8.8°C | 36.0% | 567.6hPa | 2.9V | 00:00:00 | 00:00:00 | 00:00:00 | |
| DM0DOS-11 | 2026-09-01 11:02:36 | 49.69867 | 7.44763 | 83° | 53km/h | 4803m | 2.9m/s | -8.5°C | 35.4% | 569.1hPa | 2.9V | 04:48:12 | 00:25:15 | 00:00:00 | |
| DB0ND-19 | 2026-09-01 11:02:33 | 49.69870 | 7.44824 | 86° | 49km/h | 4813m | 3.0m/s | -8.7°C | 35.2% | 568.3hPa | 2.9V | 00:00:00 | 00:00:00 | 00:00:00 | |
| DM0DOS-11 | 2026-09-01 11:02:30 | 49.69867 | 7.44687 | 93° | 46km/h | 4787m | 3.5m/s | -8.4°C | 34.9% | 570.3hPa | 2.9V | 04:48:16 | 00:25:11 | 00:00:00 | |
| BIOWL1-15 | 2026-09-01 11:02:26 | 49.69867 | 7.44687 | 93° | 46km/h | 4787m | 3.5m/s | -8.5°C | 37.9% | 570.3hPa | 2.9V | 04:48:48 | 00:25:11 | 00:00:00 | |
| CB1BUN | 2026-09-01 11:02:25 | 49.69867 | 7.44686 | 94° | 46km/h | 4787m | 3.5m/s | -8.5°C | 34.4% | 570.3hPa | 2.9V | 04:48:00 | 00:00:00 | 00:00:00 | |
| DK5PH-5 | 2026-09-01 11:02:24 | 49.69867 | 7.44650 | 89° | 51km/h | 4779m | 3.5m/s | -8.3°C | 34.8% | 570.8hPa | 2.9V | 00:00:00 | 00:25:09 | 00:00:00 | |
| DM0DOS-11 | 2026-09-01 11:02:20 | 49.69860 | 7.44494 | 81° | 51km/h | 4754m | 3.8m/s | -8.3°C | 36.8% | 572.8hPa | 2.8V | 04:48:26 | 00:25:01 | 00:00:00 | |
| BIOWL1-15 | 2026-09-01 11:02:15 | 49.69856 | 7.44402 | 91° | 47km/h | 4737m | 3.9m/s | -8.2°C | 45.1% | 574.1hPa | 2.9V | 04:48:48 | 00:24:56 | 00:00:00 | |
| DM0DOS-11 | 2026-09-01 11:02:14 | 49.69856 | 7.44402 | 91° | 47km/h | 4737m | 3.9m/s | -8.2°C | 43.5% | 574.1hPa | 2.9V | 04:48:31 | 00:24:56 | 00:00:00 | |
| DM0DOS-11 | 2026-09-01 11:02:09 | 49.69863 | 7.44305 | 99° | 57km/h | 4720m | 3.2m/s | -8.1°C | 44.3% | 575.4hPa | 2.9V | 04:48:36 | 00:24:51 | 00:00:00 | |
| BIOWL1-15 | 2026-09-01 11:02:07 | 49.69865 | 7.44283 | 94° | 55km/h | 4717m | 2.6m/s | -8.1°C | 45.7% | 575.5hPa | 2.9V | 04:48:48 | 00:24:50 | 00:00:00 | |
| DL9PN | 2026-09-01 11:02:06 | 49.69865 | 7.44261 | 88° | 55km/h | 4714m | 3.3m/s | -8.0°C | 44.2% | 575.8hPa | 2.9V | 00:00:00 | 00:00:00 | 00:00:00 | |
| DM0DOS-11 | 2026-09-01 11:02:04 | 49.69857 | 7.44199 | 71° | 55km/h | 4701m | 5.2m/s | -8°C | 44.8% | 576.7hPa | 2.9V | 04:48:41 | 00:24:46 | 00:00:00 | |
| DB0ND-19 | 2026-09-01 11:02:02 | 49.69861 | 7.44219 | 74° | 51km/h | 4706m | 4.2m/s | -8.0°C | 44.2% | 576.3hPa | 2.9V | 00:00:00 | 00:00:00 | 00:00:00 | |
| DM0DOS-11 | 2026-09-01 11:01:59 | 49.69841 | 7.44095 | 88° | 55km/h | 4677m | 4.8m/s | -7.8°C | 44.8% | 578.4hPa | 2.9V | 04:48:46 | 00:24:41 | 00:00:00 | |
| BIOWL1-15 | 2026-09-01 11:01:56 | 49.69842 | 7.44054 | 95° | 49km/h | 4667m | 5.1m/s | -7.8°C | 46.1% | 579.1hPa | 2.9V | 04:48:48 | 00:24:39 | 00:00:00 | |
| DM0DOS-11 | 2026-09-01 11:01:54 | 49.69843 | 7.44003 | 87° | 38km/h | 4654m | 4.8m/s | -7.7°C | 42.9% | 580.3hPa | 2.9V | 04:48:51 | 00:24:36 | 00:00:00 | |
| DK5PH-5 | 2026-09-01 11:01:54 | 49.69842 | 7.44054 | 95° | 44km/h | 4667m | 5.1m/s | -7.7°C | 42.9% | 579.1hPa | 2.9V | 00:00:00 | 00:24:39 | 00:00:00 | |
| DM0DOS-11 | 2026-09-01 11:01:49 | 49.69840 | 7.43927 | 89° | 49km/h | 4631m | 3.5m/s | -7.5°C | 43.6% | 581.9hPa | 2.9V | 04:48:56 | 00:24:31 | 00:00:00 | |
| DL1ZP-14 | 2026-09-01 11:01:48 | 49.69841 | 7.43944 | 83° | 40km/h | 4634m | 3.4m/s | -7.6°C | 43.0% | 581.7hPa | 2.9V | 00:00:00 | 00:00:00 | 00:00:00 | |
| DH7VM-15 | 2026-09-01 11:01:47 | 49.69841 | 7.43959 | 86° | 37km/h | 4639m | 5.3m/s | -7.6°C | 0% | 0hPa | 2.9V | 00:00:00 | 00:00:00 | 00:00:00 | |
| DM0DOS-11 | 2026-09-01 11:01:44 | 49.69847 | 7.43830 | 96° | 46km/h | 4610m | 2.8m/s | -7.4°C | 43.6% | 583.6hPa | 2.9V | 04:49:01 | 00:24:26 | 00:00:00 | |
| BIOWL1-15 | 2026-09-01 11:01:43 | 49.69847 | 7.43830 | 97° | 46km/h | 4610m | 2.8m/s | -7.4°C | 44.8% | 583.6hPa | 2.9V | 04:49:39 | 00:24:26 | 00:00:00 | |
| DM0DOS-11 | 2026-09-01 11:01:39 | 49.69828 | 7.43714 | 72° | 38km/h | 4575m | 5.5m/s | -7.2°C | 44.1% | 0hPa | 2.9V | 04:49:08 | 00:24:19 | 00:00:00 | |
| BIOWL1-15 | 2026-09-01 11:01:36 | 49.69825 | 7.43687 | 91° | 35km/h | 4567m | 4.3m/s | -7.1°C | 47.6% | 586.7hPa | 2.9V | 04:49:39 | 00:24:17 | 00:00:00 | |
| DL9PN | 2026-09-01 11:01:34 | 49.69828 | 7.43714 | 72° | 38km/h | 4575m | 5.6m/s | -7.2°C | 43.6% | 586.0hPa | 2.9V | 00:00:00 | 00:00:00 | 00:00:00 | |
| DB0ND-19 | 2026-09-01 11:01:31 | 49.69826 | 7.43674 | 99° | 35km/h | 4562m | 5.1m/s | -7.1°C | 43.3% | 587.1hPa | 2.9V | 00:00:00 | 00:00:00 | 00:00:00 | |
| DM0DOS-11 | 2026-09-01 11:01:28 | 49.69816 | 7.43525 | 87° | 47km/h | 4516m | 4.1m/s | -6.8°C | 0% | 0hPa | 2.9V | 04:49:20 | 00:24:07 | 00:00:00 | |
| BIOWL1-15 | 2026-09-01 11:01:22 | 49.69816 | 7.43525 | 87° | 47km/h | 4516m | 4.1m/s | -6.8°C | 44.4% | 590.8hPa | 2.9V | 04:49:39 | 00:24:07 | 00:00:00 | |
| DM0DOS-11 | 2026-09-01 11:01:17 | 49.69826 | 7.43315 | 95° | 55km/h | 4483m | 4.9m/s | -6.6°C | 0% | 0hPa | 2.9V | 04:49:30 | 00:23:57 | 00:00:00 | |
| BIOWL1-15 | 2026-09-01 11:01:14 | 49.69826 | 7.43315 | 95° | 55km/h | 4483m | 4.9m/s | -6.6°C | 42.2% | 593.3hPa | 2.9V | 04:49:39 | 00:23:57 | 00:00:00 | |
| DM0DOS-11 | 2026-09-01 11:01:11 | 49.69828 | 7.43232 | 72° | 37km/h | 4459m | 4.6m/s | -6.5°C | 0% | 0hPa | 2.9V | 04:49:35 | 00:23:52 | 00:00:00 | |
| HEMX73-11 | 2026-09-01 11:01:07 | 49.69830 | 7.43246 | 86° | 35km/h | 4464m | 5.0m/s | -6.5°C | 39.0% | 594.8hPa | 2.9V | 04:49:00 | 00:00:00 | 00:00:00 | |
| DM0DOS-11 | 2026-09-01 11:01:06 | 49.69809 | 7.43143 | 78° | 57km/h | 4436m | 4.4m/s | -6.3°C | 0% | 0hPa | 2.9V | 04:49:40 | 00:23:47 | 00:00:00 | |
| BIOWL1-15 | 2026-09-01 11:01:02 | 49.69807 | 7.43121 | 80° | 60km/h | 4431m | 6m/s | -6.3°C | 43.2% | 597.3hPa | 2.9V | 18:12:15 | 00:23:46 | 00:00:00 | |
| DM0DOS-11 | 2026-09-01 11:01:01 | 49.69802 | 7.43035 | 86° | 53km/h | 4413m | 4.9m/s | -6.2°C | 0% | 0hPa | 2.9V | 04:49:45 | 00:23:42 | 00:00:00 | |
| DB0ND-19 | 2026-09-01 11:01:00 | 49.69805 | 7.43099 | 84° | 57km/h | 4425m | 5.3m/s | -6.3°C | 39.6% | 597.7hPa | 2.9V | 00:00:00 | 00:00:00 | 00:00:00 | |
| DB0UT-7 | 2026-09-01 11:00:58 | 49.69803 | 7.43055 | 87° | 49km/h | 4417m | 3.3m/s | -6.2°C | 40.5% | 598.2hPa | 2.9V | 04:49:00 | 00:23:43 | 00:00:00 | |
| DM0DOS-11 | 2026-09-01 11:00:56 | 49.69793 | 7.42920 | 83° | 49km/h | 4376m | 4.1m/s | -6°C | 0% | 0hPa | 2.9V | 04:49:51 | 00:23:36 | 00:00:00 | |
| BIOWL1-15 | 2026-09-01 11:00:51 | 49.69792 | 7.42844 | 90° | 51km/h | 4358m | 3.6m/s | -6°C | 44.3% | 0hPa | 2.9V | 18:12:15 | 00:23:32 | 00:00:00 | |
| DM0DOS-11 | 2026-09-01 11:00:51 | 49.69791 | 7.42781 | 84° | 57km/h | 4346m | 2.7m/s | -5.9°C | 0% | 0hPa | 2.9V | 04:49:58 | 00:23:29 | 00:00:00 | |
| DL1ZP-14 | 2026-09-01 11:00:46 | 49.69792 | 7.42802 | 88° | 53km/h | 4349m | 4.1m/s | -5.9°C | 41.4% | 603.4hPa | 2.9V | 00:00:00 | 00:00:00 | 00:00:00 | |
| DM0DOS-11 | 2026-09-01 11:00:45 | 49.69786 | 7.42679 | 88° | 51km/h | 4324m | 5.9m/s | -5.7°C | 0% | 0hPa | 2.9V | 04:50:03 | 00:23:24 | 00:00:00 | |
| CB1BUN | 2026-09-01 11:00:43 | 49.69791 | 7.42781 | 86° | 57km/h | 4346m | 2.7m/s | -5.9°C | 41.9% | 603.6hPa | 3V | 04:50:00 | 00:00:00 | 00:00:00 | |
| DB0UT-9 | 2026-09-01 11:00:42 | 49.69790 | 7.42759 | 85° | 55km/h | 4343m | 3.3m/s | -5.9°C | 41.9% | 603.9hPa | 3V | 04:50:00 | 00:00:00 | 00:00:00 | |
| DM0DOS-11 | 2026-09-01 11:00:39 | 49.69779 | 7.42568 | 82° | 38km/h | 4296m | 3.2m/s | -5.5°C | 0% | 0hPa | 3V | 04:50:09 | 00:23:18 | 00:00:00 | |
| BIOWL1-15 | 2026-09-01 11:00:38 | 49.69785 | 7.42639 | 86° | 51km/h | 4313m | 5m/s | -5.6°C | 45.1% | 0hPa | 3V | 18:12:15 | 00:23:22 | 00:00:00 | |
| DH7VM-15 | 2026-09-01 11:00:34 | 49.69782 | 7.42601 | 81° | 46km/h | 4304m | 4.7m/s | -5.6°C | 0% | 0hPa | 3V | 00:00:00 | 00:00:00 | 00:00:00 | |
| DM0DOS-11 | 2026-09-01 11:00:33 | 49.69780 | 7.42485 | 97° | 46km/h | 4278m | 2.6m/s | -5.3°C | 0% | 0hPa | 3V | 04:50:14 | 00:23:13 | 00:00:00 | |
| BIOWL1-15 | 2026-09-01 11:00:29 | 49.69782 | 7.42467 | 102° | 47km/h | 4275m | 3.6m/s | -5.3°C | 41.7% | 0hPa | 2.9V | 18:12:15 | 00:23:12 | 00:00:00 | |
| DM0DOS-11 | 2026-09-01 11:00:28 | 49.69789 | 7.42389 | 88° | 53km/h | 4264m | 3m/s | -5.2°C | 0% | 0hPa | 2.9V | 04:50:19 | 00:23:08 | 00:00:00 | |
| DB0UT-7 | 2026-09-01 11:00:28 | 49.69779 | 7.42485 | 98° | 44km/h | 4278m | 2.5m/s | -5.3°C | 39.6% | 608.8hPa | 2.9V | 00:00:00 | 00:00:00 | 00:00:00 | |
| HEMX73-11 | 2026-09-01 11:00:25 | 49.69784 | 7.42448 | 102° | 49km/h | 4272m | 2.2m/s | -5.3°C | 39.7% | 609.3hPa | 2.9V | 04:50:00 | 00:00:00 | 00:00:00 | |
| DM0DOS-11 | 2026-09-01 11:00:23 | 49.69778 | 7.42298 | 83° | 40km/h | 4240m | 4.8m/s | 0°C | 0% | 0hPa | 2.9V | 04:50:24 | 00:23:03 | 00:00:00 | |
| BIOWL1-15 | 2026-09-01 11:00:18 | 49.69775 | 7.42240 | 82° | 37km/h | 4211m | 7.9m/s | 0°C | 0% | 0hPa | 2.9V | 18:12:15 | 00:22:59 | 00:00:00 | |
| DM0DOS-11 | 2026-09-01 11:00:18 | 49.69773 | 7.42213 | 82° | 35km/h | 4196m | 7.4m/s | 0°C | 0% | 0hPa | 2.9V | 04:50:30 | 00:22:57 | 00:00:00 | |
| DL1ZP-14 | 2026-09-01 11:00:16 | 49.69775 | 7.42240 | 82° | 35km/h | 4211m | 7.9m/s | -4.9°C | 39.3% | 614.0hPa | 2.9V | 00:00:00 | 00:00:00 | 00:00:00 | |
| DM0DOS-11 | 2026-09-01 11:00:12 | 49.69768 | 7.42131 | 86° | 46km/h | 4168m | 4.2m/s | 0°C | 0% | 0hPa | 3V | 00:00:00 | 00:22:52 | 00:00:00 | |
| DM0DOS-11 | 2026-09-01 11:00:07 | 49.69769 | 7.42029 | 89° | 44km/h | 4146m | 3.3m/s | 0°C | 0% | 0hPa | 3V | 00:00:00 | 00:22:46 | 00:00:00 | |
| HEMX73-11 | 2026-09-01 11:00:04 | 49.69767 | 7.42096 | 91° | 44km/h | 4159m | 4.2m/s | -4.5°C | 38.9% | 618.2hPa | 3V | 04:51:00 | 00:00:00 | 00:00:00 | |
| DM0DOS-11 | 2026-09-01 11:00:02 | 49.69769 | 7.41957 | 90° | 46km/h | 4134m | 2.5m/s | 0°C | 0% | 0hPa | 3V | 00:00:00 | 00:22:42 | 00:00:00 | |
| DL9PN | 2026-09-01 11:00:01 | 49.69769 | 7.42029 | 89° | 44km/h | 4146m | 3.3m/s | -4.4°C | 38.9% | 619.2hPa | 2.9V | 00:00:00 | 00:00:00 | 00:00:00 | |
| DB0UT-7 | 2026-09-01 10:59:58 | 49.69769 | 7.41975 | 92° | 44km/h | 4137m | 4.0m/s | -4.3°C | 39.2% | 620.0hPa | 2.9V | 00:00:00 | 00:22:43 | 00:00:00 | |
| DM0DOS-11 | 2026-09-01 10:59:56 | 49.69767 | 7.41874 | 91° | 42km/h | 4118m | 4.2m/s | 0°C | 0% | 0hPa | 2.9V | 00:00:00 | 00:22:37 | 00:00:00 | |
| DK5PH-5 | 2026-09-01 10:59:56 | 49.69769 | 7.41940 | 88° | 44km/h | 4131m | 3.5m/s | -4.3°C | 40.5% | 620.4hPa | 2.9V | 00:00:00 | 00:22:41 | 00:00:00 | |
| DM0DOS-11 | 2026-09-01 10:59:51 | 49.69765 | 7.41790 | 85° | 47km/h | 4104m | 4.8m/s | 0°C | 0% | 0hPa | 2.9V | 00:00:00 | 00:22:32 | 00:00:00 | |
| HEMX73-11 | 2026-09-01 10:59:43 | 49.69760 | 7.41728 | 85° | 57km/h | 4093m | 4.1m/s | -4.0°C | 40.2% | 623.5hPa | 2.9V | 04:51:00 | 00:00:00 | 00:00:00 | |
| CB1BUN | 2026-09-01 10:59:42 | 49.69757 | 7.41686 | 83° | 51km/h | 4086m | 3.5m/s | -4.0°C | 40.5% | 624.1hPa | 2.9V | 04:51:00 | 00:00:00 | 00:00:00 | |
| DB0UT-9 | 2026-09-01 10:59:41 | 49.69757 | 7.41686 | 83° | 51km/h | 4086m | 3.5m/s | -4.0°C | 40.5% | 624.1hPa | 2.9V | 04:51:00 | 00:00:00 | 00:00:00 | |
| DL9PN | 2026-09-01 10:59:30 | 49.69731 | 7.41493 | 85° | 40km/h | 4017m | 3.9m/s | -3.5°C | 39.3% | 629.5hPa | 2.9V | 00:00:00 | 00:00:00 | 00:00:00 | |
| DB0UT-7 | 2026-09-01 10:59:28 | 49.69730 | 7.41476 | 85° | 38km/h | 4013m | 3.7m/s | -3.4°C | 40.3% | 629.8hPa | 2.9V | 00:00:00 | 00:00:00 | 00:00:00 | |
| DM3KS-11 | 2026-09-01 10:59:27 | 49.69729 | 7.41458 | 86° | 47km/h | 4010m | 4.3m/s | -3.4°C | 40.1% | 630.1hPa | 2.9V | 00:00:00 | 00:00:00 | 00:00:00 | |
| HEMX73-6 | 2026-09-01 10:59:23 | 49.69725 | 7.41378 | 90° | 33km/h | 3993m | 3.7m/s | 0°C | 0% | 0hPa | 2.9V | 04:51:00 | 00:22:08 | 00:00:00 | |
| HEMX73-11 | 2026-09-01 10:59:22 | 49.69725 | 7.41378 | 90° | 49km/h | 3993m | 3.7m/s | -3.3°C | 40.2% | 631.5hPa | 2.9V | 04:51:00 | 00:00:00 | 00:00:00 | |
| DB0UT-9 | 2026-09-01 10:59:21 | 49.69725 | 7.41359 | 89° | 46km/h | 3989m | 3.0m/s | -3.2°C | 40.5% | 631.7hPa | 2.9V | 04:51:00 | 00:00:00 | 00:00:00 | |
| CB1BUN | 2026-09-01 10:59:20 | 49.69725 | 7.41342 | 93° | 44km/h | 3986m | 3.3m/s | -3.2°C | 40.6% | 632.0hPa | 2.9V | 04:51:00 | 00:00:00 | 00:00:00 | |
| DH7VM-15 | 2026-09-01 10:59:19 | 49.69726 | 7.41326 | 95° | 38km/h | 3982m | 4.8m/s | 0°C | 0% | 0hPa | 2.9V | 00:00:00 | 00:00:00 | 00:00:00 | |
| DL1ZP-14 | 2026-09-01 10:59:12 | 49.69720 | 7.41206 | 89° | 37km/h | 3939m | 4.2m/s | -2.9°C | 40.6% | 635.6hPa | 2.9V | 00:00:00 | 00:00:00 | 00:00:00 | |
| DB0UT-9 | 2026-09-01 10:59:01 | 49.69718 | 7.41081 | 90° | 46km/h | 3899m | 4.1m/s | -2.7°C | 40.8% | 638.8hPa | 2.9V | 04:52:00 | 00:00:00 | 00:00:00 | |
| DL9PN | 2026-09-01 10:58:59 | 49.69715 | 7.41034 | 77° | 31km/h | 3880m | 5.5m/s | -2.6°C | 42.2% | 640.3hPa | 2.9V | 00:00:00 | 00:00:00 | 00:00:00 | |
| DB0ND-19 | 2026-09-01 10:58:56 | 49.69710 | 7.40995 | 83° | 24km/h | 3859m | 3.9m/s | -2.5°C | 43.1% | 642.1hPa | 2.9V | 00:00:00 | 00:00:00 | 00:00:00 | |
| DK5PH-5 | 2026-09-01 10:58:55 | 49.69710 | 7.40995 | 84° | 37km/h | 3859m | 3.9m/s | -2.4°C | 43.4% | 642.1hPa | 2.9V | 00:00:00 | 00:21:40 | 00:00:00 | |
| DL1ZP-14 | 2026-09-01 10:58:41 | 49.69717 | 7.40791 | 102° | 44km/h | 3796m | 2.7m/s | -1.9°C | 42.7% | 647.4hPa | 2.9V | 00:00:00 | 00:00:00 | 00:00:00 | |
| DB0UT-9 | 2026-09-01 10:58:40 | 49.69717 | 7.40790 | 104° | 44km/h | 3796m | 2.7m/s | -1.9°C | 42.7% | 647.4hPa | 2.9V | 04:52:00 | 00:00:00 | 00:00:00 | |
| DB0UT-7 | 2026-09-01 10:58:28 | 49.69722 | 7.40628 | 68° | 37km/h | 3735m | 2.9m/s | -1.4°C | 42.2% | 652.4hPa | 2.9V | 04:52:00 | 00:00:00 | 00:00:00 | |
| DB0ND-19 | 2026-09-01 10:58:25 | 49.69711 | 7.40563 | 81° | 46km/h | 3723m | 4.0m/s | -1.4°C | 40.8% | 653.5hPa | 2.9V | 00:00:00 | 00:00:00 | 00:00:00 | |
| DB0UT-9 | 2026-09-01 10:58:21 | 49.69709 | 7.40513 | 89° | 40km/h | 3709m | 5.2m/s | -1.3°C | 39.1% | 654.6hPa | 2.9V | 04:53:00 | 00:00:00 | 00:00:00 | |
| CB1BUN | 2026-09-01 10:58:19 | 49.69708 | 7.40498 | 90° | 38km/h | 3702m | 7.6m/s | -1.3°C | 37.9% | 655.1hPa | 2.9V | 04:53:00 | 00:00:00 | 00:00:00 | |
| DL1ZP-14 | 2026-09-01 10:58:10 | 49.69698 | 7.40365 | 79° | 33km/h | 3654m | 3.8m/s | -0.9°C | 21.4% | 659.3hPa | 2.9V | 00:00:00 | 00:00:00 | 00:00:00 | |
| DL9PN | 2026-09-01 10:57:57 | 49.69668 | 7.40163 | 54° | 35km/h | 3591m | 5.8m/s | -0.5°C | 22.2% | 664.5hPa | 2.9V | 00:00:00 | 00:00:00 | 00:00:00 | |
| DB0ND-19 | 2026-09-01 10:57:54 | 49.69659 | 7.40142 | 56° | 26km/h | 3580m | 5.3m/s | -0.5°C | 23.9% | 665.2hPa | 2.9V | 00:00:00 | 00:00:00 | 00:00:00 | |
| DL1ZP-14 | 2026-09-01 10:57:39 | 49.69634 | 7.39936 | 60° | 38km/h | 3504m | 5.9m/s | -0.1°C | 25.6% | 671.8hPa | 2.9V | 00:00:00 | 00:00:00 | 00:00:00 | |
| HEMX73-11 | 2026-09-01 10:57:38 | 49.69634 | 7.39936 | 61° | 40km/h | 3505m | 5.9m/s | -0.1°C | 25.6% | 671.8hPa | 2.9V | 04:53:00 | 00:00:00 | 00:00:00 | |
| CB1BUN | 2026-09-01 10:57:37 | 49.69629 | 7.39923 | 62° | 38km/h | 3498m | 6.6m/s | -0.0°C | 25.7% | 672.4hPa | 2.9V | 04:53:00 | 00:00:00 | 00:00:00 | |
| DB0UT-7 | 2026-09-01 10:57:28 | 49.69623 | 7.39787 | 71° | 35km/h | 3444m | 5.0m/s | 0.2°C | 25.2% | 676.6hPa | 2.9V | 00:00:00 | 00:00:00 | 00:00:00 | |
| DL9PN | 2026-09-01 10:57:26 | 49.69615 | 7.39750 | 73° | 27km/h | 3429m | 3.5m/s | 0.3°C | 24.5% | 677.9hPa | 2.9V | 00:00:00 | 00:00:00 | 00:00:00 | |
| DB0ND-19 | 2026-09-01 10:57:23 | 49.69614 | 7.39719 | 103° | 27km/h | 3415m | 5.0m/s | 0.3°C | 24.8% | 679.1hPa | 2.9V | 00:00:00 | 00:00:00 | 00:00:00 | |
| DB0UT-9 | 2026-09-01 10:57:19 | 49.69620 | 7.39697 | 114° | 33km/h | 3405m | 4.8m/s | 0.3°C | 25.4% | 680.0hPa | 2.9V | 04:53:00 | 00:00:00 | 00:00:00 | |
| HEMX73-11 | 2026-09-01 10:57:18 | 49.69623 | 7.39684 | 114° | 33km/h | 3400m | 4.7m/s | 0.3°C | 25.6% | 680.4hPa | 2.9V | 04:53:00 | 00:00:00 | 00:00:00 | |
| CB1BUN | 2026-09-01 10:57:16 | 49.69628 | 7.39662 | 99° | 27km/h | 3391m | 4.6m/s | 0.4°C | 25.3% | 681.0hPa | 2.9V | 04:53:00 | 00:00:00 | 00:00:00 | |
| DK5PH-5 | 2026-09-01 10:57:09 | 49.69639 | 7.39557 | 107° | 38km/h | 3348m | 6.5m/s | 0.4°C | 27.2% | 684.7hPa | 2.9V | 00:00:00 | 00:19:54 | 00:00:00 | |
| DL1ZP-14 | 2026-09-01 10:57:08 | 49.69643 | 7.39541 | 110° | 40km/h | 3342m | 5.1m/s | 0.5°C | 27.5% | 685.3hPa | 2.9V | 00:00:00 | 00:00:00 | 00:00:00 | |
| DL9PN | 2026-09-01 10:56:55 | 49.69669 | 7.39326 | 118° | 42km/h | 3280m | 4.2m/s | 1.0°C | 27.1% | 690.8hPa | 3.0V | 00:00:00 | 00:00:00 | 00:00:00 | |
| DB0ND-19 | 2026-09-01 10:56:52 | 49.69681 | 7.39289 | 105° | 29km/h | 3267m | 5.2m/s | 1.0°C | 27.3% | 691.9hPa | 3.0V | 00:00:00 | 00:00:00 | 00:00:00 | |
| DK5PH-5 | 2026-09-01 10:56:39 | 49.69673 | 7.39114 | 91° | 29km/h | 3211m | 4.4m/s | 1.2°C | 27.1% | 696.6hPa | 3.0V | 00:00:00 | 00:19:24 | 00:00:00 | |
| DB0UT-9 | 2026-09-01 10:56:38 | 49.69673 | 7.39114 | 92° | 44km/h | 3211m | 4.5m/s | 1.2°C | 27.0% | 696.6hPa | 3.0V | 04:54:00 | 00:00:00 | 00:00:00 | |
| HEMX73-11 | 2026-09-01 10:56:37 | 49.69672 | 7.39080 | 85° | 37km/h | 3198m | 6.3m/s | 1.2°C | 27.0% | 697.8hPa | 3.0V | 04:54:00 | 00:00:00 | 00:00:00 | |
| CB1BUN | 2026-09-01 10:56:35 | 49.69671 | 7.39068 | 84° | 29km/h | 3192m | 4.6m/s | 1.2°C | 27.7% | 698.4hPa | 3.0V | 04:54:00 | 00:00:00 | 00:00:00 | |
| DB0UT-7 | 2026-09-01 10:56:28 | 49.69690 | 7.38991 | 116° | 31km/h | 3151m | 6.5m/s | 1.4°C | 30.1% | 702.0hPa | 3.0V | 00:00:00 | 00:00:00 | 00:00:00 | |
| DL9PN | 2026-09-01 10:56:24 | 49.69694 | 7.38919 | 77° | 27km/h | 3114m | 5.4m/s | 1.7°C | 30.8% | 705.2hPa | 2.9V | 00:00:00 | 00:00:00 | 00:00:00 | |
| DM3KS-11 | 2026-09-01 10:56:22 | 49.69690 | 7.38898 | 74° | 26km/h | 3106m | 4.0m/s | 1.8°C | 30.7% | 705.8hPa | 2.9V | 00:00:00 | 00:00:00 | 00:00:00 | |
| DB0ND-19 | 2026-09-01 10:56:21 | 49.69690 | 7.38898 | 74° | 26km/h | 3106m | 4.0m/s | 1.8°C | 30.7% | 705.8hPa | 2.9V | 00:00:00 | 00:00:00 | 00:00:00 | |
| DB0UT-9 | 2026-09-01 10:56:17 | 49.69686 | 7.38877 | 79° | 27km/h | 3098m | 5.2m/s | 1.9°C | 30.6% | 706.6hPa | 2.9V | 04:54:00 | 00:00:00 | 00:00:00 | |
| HEMX73-11 | 2026-09-01 10:56:16 | 49.69685 | 7.38858 | 89° | 22km/h | 3088m | 5.5m/s | 1.9°C | 30.1% | 707.5hPa | 2.9V | 04:54:00 | 00:00:00 | 00:00:00 | |
| CB1BUN | 2026-09-01 10:56:15 | 49.69685 | 7.38858 | 89° | 22km/h | 3088m | 5.5m/s | 1.9°C | 30.1% | 707.5hPa | 2.9V | 04:54:00 | 00:00:00 | 00:00:00 | |
| DK5PH-5 | 2026-09-01 10:56:09 | 49.69704 | 7.38799 | 123° | 33km/h | 3058m | 4.5m/s | 0°C | 0% | 0hPa | 2.9V | 00:00:00 | 00:18:54 | 00:00:00 | |
| DL1ZP-14 | 2026-09-01 10:56:06 | 49.69711 | 7.38763 | 92° | 35km/h | 3040m | 6.7m/s | 2.2°C | 28.2% | 711.5hPa | 2.9V | 00:00:00 | 00:00:00 | 00:00:00 | |
| DL9PN | 2026-09-01 10:55:53 | 49.69725 | 7.38547 | 79° | 29km/h | 2954m | 5.1m/s | 2.7°C | 28.6% | 719.1hPa | 2.9V | 00:00:00 | 00:00:00 | 00:00:00 | |
| DM3KS-11 | 2026-09-01 10:55:51 | 49.69724 | 7.38534 | 77° | 33km/h | 2948m | 5.8m/s | 2.7°C | 28.7% | 719.6hPa | 2.9V | 00:00:00 | 00:00:00 | 00:00:00 | |
| DB0ND-19 | 2026-09-01 10:55:50 | 49.69724 | 7.38534 | 77° | 33km/h | 2948m | 5.8m/s | 2.7°C | 28.7% | 719.6hPa | 2.9V | 00:00:00 | 00:00:00 | 00:00:00 | |
| DK5PH-5 | 2026-09-01 10:55:39 | 49.69731 | 7.38420 | 100° | 44km/h | 2900m | 4.6m/s | 0°C | 0% | 0hPa | 2.9V | 00:00:00 | 00:18:24 | 00:00:00 | |
| DB0UT-9 | 2026-09-01 10:55:36 | 49.69733 | 7.38386 | 91° | 46km/h | 2890m | 5.9m/s | 2.3°C | 46.2% | 724.9hPa | 2.9V | 04:55:00 | 00:00:00 | 00:00:00 | |
| DL1ZP-14 | 2026-09-01 10:55:35 | 49.69731 | 7.38351 | 81° | 40km/h | 2880m | 4.9m/s | 2.4°C | 45.6% | 725.9hPa | 2.9V | 00:00:00 | 00:00:00 | 00:00:00 | |
| HEMX73-11 | 2026-09-01 10:55:34 | 49.69731 | 7.38351 | 83° | 42km/h | 2880m | 4.9m/s | 2.4°C | 45.5% | 725.9hPa | 2.9V | 04:55:00 | 00:00:00 | 00:00:00 | |
| CB1BUN | 2026-09-01 10:55:33 | 49.69730 | 7.38336 | 81° | 38km/h | 2875m | 5.2m/s | 2.4°C | 45.8% | 726.3hPa | 2.9V | 04:55:00 | 00:00:00 | 00:00:00 | |
| DB0UT-7 | 2026-09-01 10:55:28 | 49.69727 | 7.38261 | 81° | 29km/h | 2837m | 6.5m/s | 2.7°C | 45.7% | 729.7hPa | 2.9V | 00:00:00 | 00:00:00 | 00:00:00 | |
| DL9PN | 2026-09-01 10:55:22 | 49.69700 | 7.38198 | 56° | 35km/h | 2797m | 3.5m/s | 2.7°C | 49.0% | 733.2hPa | 2.9V | 00:00:00 | 00:00:00 | 00:00:00 | |
| DB0ND-19 | 2026-09-01 10:55:19 | 49.69685 | 7.38162 | 57° | 33km/h | 2785m | 3.9m/s | 2.8°C | 48.6% | 734.5hPa | 2.9V | 00:00:00 | 00:00:00 | 00:00:00 | |
| DB0UT-9 | 2026-09-01 10:55:16 | 49.69680 | 7.38151 | 55° | 31km/h | 2781m | 3.3m/s | 2.8°C | 48.7% | 734.9hPa | 2.9V | 04:55:00 | 00:00:00 | 00:00:00 | |
| CB1BUN | 2026-09-01 10:55:15 | 49.69671 | 7.38130 | 65° | 13km/h | 2768m | 4.7m/s | 2.9°C | 48.4% | 736.2hPa | 2.9V | 04:55:00 | 00:00:00 | 00:00:00 | |
| DL1ZP-14 | 2026-09-01 10:55:04 | 49.69590 | 7.37971 | 98° | 5km/h | 2676m | 5.3m/s | 3.6°C | 45.2% | 744.5hPa | 2.9V | 00:00:00 | 00:00:00 | 00:00:00 | |
| DL9PN | 2026-09-01 10:54:51 | 49.69590 | 7.37959 | 65° | 13km/h | 2662m | 4.5m/s | 3.7°C | 44.5% | 746.0hPa | 2.9V | 00:00:00 | 00:00:00 | 00:00:00 | |
| DM3KS-11 | 2026-09-01 10:54:47 | 49.69582 | 7.37946 | 40° | 20km/h | 2644m | 6.3m/s | 0°C | -1.0% | -1.0hPa | 2.9V | 00:00:00 | 00:00:00 | 00:00:00 | |
| DB0UT-9 | 2026-09-01 10:54:36 | 49.69575 | 7.37871 | 107° | 29km/h | 2577m | 5.1m/s | 4.2°C | 42.6% | 753.6hPa | 2.9V | 04:56:00 | 00:00:00 | 00:00:00 | |
| HEMX73-11 | 2026-09-01 10:54:34 | 49.69577 | 7.37860 | 112° | 27km/h | 2572m | 6.0m/s | 4.3°C | 0% | 754.2hPa | 2.9V | 04:56:00 | 00:00:00 | 00:00:00 | |
| CB1BUN | 2026-09-01 10:54:32 | 49.69582 | 7.37844 | 124° | 18km/h | 2559m | 5.3m/s | 4.4°C | 41.7% | 755.2hPa | 2.9V | 04:56:00 | 00:00:00 | 00:00:00 | |
| DB0UT-7 | 2026-09-01 10:54:28 | 49.69581 | 7.37819 | 59° | 26km/h | 2536m | 5.7m/s | 4.5°C | 42.1% | 757.3hPa | 2.9V | 00:00:00 | 00:00:00 | 00:00:00 | |
| DL9PN | 2026-09-01 10:54:19 | 49.69598 | 7.37735 | 97° | 15km/h | 2472m | 4.8m/s | 4.8°C | 43.1% | 763.3hPa | 2.9V | 00:00:00 | 00:00:00 | 00:00:00 | |
| DB0ND-19 | 2026-09-01 10:54:16 | 49.69598 | 7.37729 | 79° | 16km/h | 2467m | 5.8m/s | 4.9°C | 42.6% | 763.8hPa | 2.9V | 00:00:00 | 00:00:00 | 00:00:00 | |
| DB0UT-9 | 2026-09-01 10:54:15 | 49.69598 | 7.37729 | 80° | 18km/h | 2467m | 5.8m/s | 4.9°C | 42.6% | 763.8hPa | 2.9V | 04:56:00 | 00:00:00 | 00:00:00 | |
| HEMX73-11 | 2026-09-01 10:54:13 | 49.69594 | 7.37712 | 64° | 29km/h | 2454m | 8.1m/s | 5.0°C | 0% | 765.0hPa | 2.9V | 04:57:00 | 00:00:00 | 00:00:00 | |
| CB1BUN | 2026-09-01 10:54:12 | 49.69591 | 7.37701 | 72° | 33km/h | 2447m | 7.8m/s | 5.3°C | 40.8% | 765.9hPa | 2.9V | 04:57:00 | 00:00:00 | 00:00:00 | |
| DL9PN | 2026-09-01 10:53:48 | 49.69599 | 7.37377 | 99° | 42km/h | 2298m | 5.4m/s | 4.3°C | 49.5% | 779.7hPa | 2.9V | 00:00:00 | 00:00:00 | 00:00:00 | |
| DB0ND-19 | 2026-09-01 10:53:46 | 49.69603 | 7.37333 | 94° | 33km/h | 2282m | 5.1m/s | 4.2°C | 50.8% | 781.1hPa | 2.9V | 00:00:00 | 00:00:00 | 00:00:00 | |
| DB0UT-9 | 2026-09-01 10:53:34 | 49.69592 | 7.37169 | 79° | 42km/h | 2227m | 5.9m/s | 4.5°C | 62.1% | 786.6hPa | 2.9V | 04:57:00 | 00:00:00 | 00:00:00 | |
| HEMX73-11 | 2026-09-01 10:53:32 | 49.69590 | 7.37136 | 88° | 46km/h | 2218m | 4.6m/s | 4.4°C | 0% | 0hPa | 2.9V | 04:57:00 | 00:00:00 | 00:00:00 | |
| DL1ZP-14 | 2026-09-01 10:53:31 | 49.69588 | 7.37076 | 89° | 51km/h | 2198m | 7.7m/s | 4.0°C | 81.4% | 789.2hPa | 2.9V | 00:00:00 | 00:00:00 | 00:00:00 | |
| DB0UT-7 | 2026-09-01 10:53:28 | 49.69589 | 7.37037 | 96° | 46km/h | 2181m | 7.4m/s | 3.9°C | 86.6% | 790.7hPa | 2.9V | 04:57:00 | 00:00:00 | 00:00:00 | |
| DL9PN | 2026-09-01 10:53:17 | 49.69554 | 7.36825 | 84° | 42km/h | 2102m | 9.1m/s | 4.6°C | 81.0% | 798.5hPa | 2.9V | 00:00:00 | 00:00:00 | 00:00:00 | |
| DB0UT-9 | 2026-09-01 10:53:14 | 49.69554 | 7.36809 | 88° | 37km/h | 2094m | 7.6m/s | 4.7°C | 82.8% | 799.4hPa | 2.9V | 04:58:00 | 00:00:00 | 00:00:00 | |
| CB1BUN | 2026-09-01 10:53:12 | 49.69549 | 7.36772 | 68° | 33km/h | 2075m | 5.2m/s | 4.8°C | 85.7% | 801.4hPa | 2.9V | 04:58:00 | 00:00:00 | 00:00:00 | |
| DL1ZP-14 | 2026-09-01 10:53:00 | 49.69516 | 7.36539 | 71° | 46km/h | 1983m | 5.4m/s | 5.5°C | 85.5% | 810.7hPa | 2.9V | 00:00:00 | 00:00:00 | 00:00:00 | |
| DL9PN | 2026-09-01 10:52:46 | 49.69496 | 7.36294 | 79° | 60km/h | 1887m | 6.6m/s | 6.0°C | 89.1% | 820.2hPa | 2.9V | 00:00:00 | 00:00:00 | 00:00:00 | |
| DB0ND-19 | 2026-09-01 10:52:43 | 49.69494 | 7.36223 | 94° | 58km/h | 1868m | 6.7m/s | 6.1°C | 89.5% | 821.9hPa | 2.9V | 00:00:00 | 00:00:00 | 00:00:00 | |
| DB0UT-9 | 2026-09-01 10:52:32 | 49.69488 | 7.36046 | 87° | 55km/h | 1799m | 7.6m/s | 6.8°C | 86.2% | 829.1hPa | 2.9V | 04:58:00 | 00:00:00 | 00:00:00 | |
| HEMX73-11 | 2026-09-01 10:52:31 | 49.69487 | 7.36023 | 86° | 60km/h | 1791m | 9.3m/s | 0°C | 0% | 0hPa | 2.9V | 04:59:00 | 00:00:00 | 00:00:00 | |
| CB1BUN | 2026-09-01 10:52:29 | 49.69483 | 7.35977 | 81° | 58km/h | 1774m | 7.7m/s | 7.1°C | 83.8% | 831.4hPa | 2.9V | 04:59:00 | 00:00:00 | 00:00:00 | |
| DL1ZP-14 | 2026-09-01 10:52:29 | 49.69476 | 7.35934 | 73° | 55km/h | 1761m | 8.2m/s | 7.2°C | 83.5% | 832.8hPa | 2.9V | 00:00:00 | 00:00:00 | 00:00:00 | |
| DB0UT-7 | 2026-09-01 10:52:28 | 49.69476 | 7.35934 | 74° | 46km/h | 1761m | 8.2m/s | 7.1°C | 83.4% | 832.8hPa | 2.9V | 00:00:00 | 00:00:00 | 00:00:00 | |
| DL9PN | 2026-09-01 10:52:15 | 49.69459 | 7.35665 | 95° | 47km/h | 1672m | 5.0m/s | 8.0°C | -1.0% | 842.2hPa | 2.9V | 00:00:00 | 00:00:00 | 00:00:00 | |
| DB0ND-19 | 2026-09-01 10:52:12 | 49.69462 | 7.35632 | 96° | 38km/h | 1661m | 6.5m/s | 8.1°C | 80.1% | 843.2hPa | 2.9V | 00:00:00 | 00:00:00 | 00:00:00 | |
| DB0UT-9 | 2026-09-01 10:52:11 | 49.69461 | 7.35632 | 98° | 40km/h | 1661m | 6.5m/s | 8.1°C | 80.1% | 843.2hPa | 2.9V | 04:59:00 | 00:00:00 | 00:00:00 | |
| CB1BUN | 2026-09-01 10:52:09 | 49.69462 | 7.35604 | 83° | 35km/h | 1648m | 6.4m/s | 8.2°C | 79.4% | 844.6hPa | 2.9V | 04:59:00 | 00:00:00 | 00:00:00 | |
| HEMX73-11 | 2026-09-01 10:52:06 | 49.69454 | 7.35562 | 74° | 44km/h | 1629m | 6.5m/s | 0°C | 0% | 0hPa | 2.9V | 04:59:00 | 00:00:00 | 00:00:00 | |
| DL1ZP-14 | 2026-09-01 10:51:57 | 49.69434 | 7.35396 | 85° | 51km/h | 1564m | 6.1m/s | 8.9°C | -1.0% | -1.0hPa | 2.9V | 00:00:00 | 00:00:00 | 00:00:00 | |
| DB0UT-9 | 2026-09-01 10:51:51 | 49.69441 | 7.35286 | 101° | 60km/h | 1533m | 5.2m/s | 9.2°C | 74.3% | 856.2hPa | 2.9V | 04:59:00 | 00:00:00 | 00:00:00 | |
| CB1BUN | 2026-09-01 10:51:49 | 49.69446 | 7.35241 | 99° | 57km/h | 1524m | 5.5m/s | 9.4°C | 71.5% | 857.3hPa | 2.9V | 04:59:00 | 00:00:00 | 00:00:00 | |
| DL9PN | 2026-09-01 10:51:44 | 49.69445 | 7.35114 | 77° | 42km/h | 1481m | 7.4m/s | 9.6°C | -1.0% | 861.5hPa | 2.9V | 00:00:00 | 00:00:00 | 00:00:00 | |
| DB0ND-19 | 2026-09-01 10:51:41 | 49.69441 | 7.35079 | 88° | 49km/h | 1469m | 4.2m/s | 9.9°C | 69.6% | 862.9hPa | 2.9V | 00:00:00 | 00:00:00 | 00:00:00 | |
| HEMX73-11 | 2026-09-01 10:51:31 | 49.69462 | 7.34902 | 91° | 46km/h | 1411m | 6.2m/s | 0°C | 0% | 0hPa | 2.9V | 00:00:00 | 00:00:00 | 00:00:00 | |
| DB0UT-9 | 2026-09-01 10:51:31 | 49.69462 | 7.34902 | 91° | 46km/h | 1411m | 6.2m/s | 10.1°C | 74.9% | 868.9hPa | 2.9V | 04:59:00 | 00:00:00 | 00:00:00 | |
| CB1BUN | 2026-09-01 10:51:30 | 49.69462 | 7.34884 | 87° | 47km/h | 1406m | 4.8m/s | 10.2°C | 0% | 0hPa | 2.9V | 04:59:00 | 00:00:00 | 00:00:00 | |
| DB0UT-7 | 2026-09-01 10:51:28 | 49.69459 | 7.34849 | 78° | 38km/h | 1391m | 7.8m/s | 10.3°C | 71.2% | 870.6hPa | 2.9V | 00:00:00 | 00:00:00 | 00:00:00 | |
| DL9PN | 2026-09-01 10:51:13 | 49.69453 | 7.34616 | 80° | 38km/h | 1297m | 5.4m/s | 11.1°C | -1.0% | -1.0hPa | 2.9V | 00:00:00 | 00:00:00 | 00:00:00 | |
| DB0ND-19 | 2026-09-01 10:51:10 | 49.69451 | 7.34578 | 95° | 27km/h | 1280m | 5.8m/s | 11.3°C | 71.1% | 882.6hPa | 2.9V | 00:00:00 | 00:00:00 | 00:00:00 | |
| DB0UT-9 | 2026-09-01 10:51:09 | 49.69451 | 7.34578 | 96° | 29km/h | 1280m | 5.8m/s | 11.3°C | 71.1% | 882.6hPa | 2.9V | 04:59:00 | 00:00:00 | 00:00:00 | |
| CB1BUN | 2026-09-01 10:51:08 | 49.69451 | 7.34567 | 97° | 33km/h | 1275m | 5.6m/s | 11.3°C | 0% | 0hPa | 2.9V | 04:59:00 | 00:00:00 | 00:00:00 | |
| DB0UT-7 | 2026-09-01 10:50:58 | 49.69448 | 7.34390 | 91° | 38km/h | 1213m | 4.3m/s | 11.8°C | 69.7% | 889.7hPa | 2.9V | 04:59:00 | 00:13:43 | 00:00:00 | |
| DB0UT-9 | 2026-09-01 10:50:48 | 49.69448 | 7.34214 | 105° | 35km/h | 1171m | 4.1m/s | 12.2°C | 69.5% | 894.3hPa | 2.9V | 05:00:00 | 00:00:00 | 00:00:00 | |
| CB1BUN | 2026-09-01 10:50:47 | 49.69449 | 7.34202 | 101° | 29km/h | 1167m | 4.1m/s | 0°C | 0% | 0hPa | 2.9V | 00:00:00 | 00:00:00 | 00:00:00 | |
| DL9PN | 2026-09-01 10:50:42 | 49.69437 | 7.34112 | 80° | 46km/h | 1138m | 5.8m/s | 0°C | -1.0% | -1.0hPa | 2.9V | 00:00:00 | 00:00:00 | 00:00:00 | |
| DB0ND-19 | 2026-09-01 10:50:39 | 49.69436 | 7.34076 | 91° | 44km/h | 1130m | 3.8m/s | 12.6°C | 68.2% | 898.7hPa | 2.9V | 00:00:00 | 00:00:00 | 00:00:00 | |
| DB0UT-9 | 2026-09-01 10:50:28 | 49.69436 | 7.33966 | 73° | 24km/h | 1078m | 4.9m/s | 13.0°C | 69.2% | 904.3hPa | 2.9V | 05:00:00 | 00:00:00 | 00:00:00 | |
| DB0UT-7 | 2026-09-01 10:50:28 | 49.69435 | 7.33957 | 73° | 35km/h | 1074m | 3.8m/s | 13.0°C | 68.3% | 904.5hPa | 2.9V | 00:00:00 | 00:00:00 | 00:00:00 | |
| DL9PN | 2026-09-01 10:50:11 | 49.69407 | 7.33739 | 74° | 37km/h | 981m | 4.7m/s | 0°C | -1.0% | -1.0hPa | 2.9V | 00:00:00 | 00:00:00 | 00:00:00 | |
| DB0ND-19 | 2026-09-01 10:50:08 | 49.69401 | 7.33705 | 88° | 26km/h | 965m | 6.4m/s | 14.2°C | -1.0% | 916.9hPa | 2.9V | 00:00:00 | 00:00:00 | 00:00:00 | |
| DB0UT-9 | 2026-09-01 10:50:08 | 49.69401 | 7.33705 | 89° | 27km/h | 965m | 6.4m/s | 14.2°C | 64.2% | 916.9hPa | 2.9V | 05:00:00 | 00:00:00 | 00:00:00 | |
| DB0UT-7 | 2026-09-01 10:49:58 | 49.69420 | 7.33552 | 93° | 33km/h | 904m | 8.2m/s | 14.5°C | 67.3% | 923.2hPa | 2.9V | 00:00:00 | 00:12:43 | 00:00:00 | |
| DB0UT-9 | 2026-09-01 10:49:46 | 49.69424 | 7.33393 | 80° | 26km/h | 837m | 5.2m/s | 15.2°C | 64.9% | 930.8hPa | 2.9V | 05:00:00 | 00:00:00 | 00:00:00 | |
| DB0ND-19 | 2026-09-01 10:49:37 | 49.69416 | 7.33278 | 90° | 16km/h | 785m | 6.3m/s | 0°C | -1.0% | -1.0hPa | 2.9V | 00:00:00 | 00:00:00 | 00:00:00 | |
| DB0UT-7 | 2026-09-01 10:49:29 | 49.69407 | 7.33169 | 86° | 29km/h | 737m | 5.3m/s | 16.0°C | 64.5% | 941.9hPa | 2.9V | 00:00:00 | 00:00:00 | 00:00:00 | |
| DB0UT-9 | 2026-09-01 10:49:26 | 49.69407 | 7.33161 | 87° | 20km/h | 731m | 6.3m/s | 16.1°C | 63.8% | 942.5hPa | 2.9V | 05:00:00 | 00:00:00 | 00:00:00 | |
| DB0UT-9 | 2026-09-01 10:49:05 | 49.69335 | 7.32979 | 49° | 26km/h | 631m | 3.9m/s | 0°C | 0% | 953.8hPa | 2.9V | 00:00:00 | 00:00:00 | 00:00:00 | |
| DB0UT-7 | 2026-09-01 10:48:58 | 49.69317 | 7.32880 | 88° | 27km/h | 590m | 6.2m/s | 17.4°C | 64.4% | 958.3hPa | 2.9V | 00:00:00 | 00:11:43 | 00:00:00 | |
| DB0UT-9 | 2026-09-01 10:48:45 | 49.69287 | 7.32788 | 96° | 31km/h | 522m | 5.2m/s | 0°C | 0% | 965.4hPa | 0V | 00:00:00 | 00:00:00 | 00:00:00 | |
| DB0UT-7 | 2026-09-01 10:48:28 | 49.69279 | 7.32611 | 59° | 4km/h | 453m | 6.3m/s | 0°C | 0% | 0hPa | 0V | 04:58:00 | 00:00:00 | 00:00:00 | |
| DB0UT-9 | 2026-09-01 10:48:25 | 49.69273 | 7.32603 | 12° | 18km/h | 439m | 6.8m/s | 0°C | 0% | 974.4hPa | 0V | 00:00:00 | 00:00:00 | 00:00:00 | |
| DB0UT-9 | 2026-09-01 10:48:04 | 49.69264 | 7.32592 | 0° | 0km/h | 428m | -0.0m/s | 0°C | 0% | 976.1hPa | 0V | 00:00:00 | 00:00:00 | 00:00:00 | |
| DB0UT-7 | 2026-09-01 10:47:58 | 49.69264 | 7.32592 | 0° | 0km/h | 428m | -0.0m/s | 0°C | 0% | 0hPa | 0V | 00:00:00 | 00:10:43 | 00:00:00 | |
| DB0UT-9 | 2026-09-01 10:47:44 | 49.69264 | 7.32592 | 0° | 0km/h | 428m | -0.0m/s | 0°C | 0% | 0hPa | 0V | 00:00:00 | 00:00:00 | 00:00:00 | |
| DB0UT-7 | 2026-09-01 10:47:28 | 49.69264 | 7.32592 | 0° | 0km/h | 429m | -0.1m/s | 0°C | 0% | 0hPa | 0V | 00:00:00 | 00:00:00 | 00:00:00 | |
| DB0UT-9 | 2026-09-01 10:47:23 | 49.69264 | 7.32591 | 0° | 0km/h | 429m | 0.1m/s | 0°C | 0% | 0hPa | 0V | 00:00:00 | 00:00:00 | 00:00:00 | |
| DB0UT-9 | 2026-09-01 10:46:13 | 49.69263 | 7.32592 | 0° | 0km/h | 432m | 0.1m/s | 0°C | 0% | 0hPa | 0V | 00:00:00 | 00:00:00 | 00:00:00 | |
| DB0UT-7 | 2026-09-01 10:45:57 | 49.69263 | 7.32592 | 0° | 0km/h | 434m | -0.0m/s | 0°C | 0% | 0hPa | 0V | 00:00:00 | 00:08:42 | 00:00:00 | |
| DB0UT-9 | 2026-09-01 10:45:06 | 49.69264 | 7.32592 | 0° | 0km/h | 434m | 0.0m/s | 0°C | 0% | 0hPa | 0V | 00:00:00 | 00:00:00 | 00:00:00 | |
| DB0UT-9 | 2026-09-01 10:44:40 | 49.69266 | 7.32597 | 0° | 0km/h | 436m | 0.2m/s | 0°C | 0% | 0hPa | 0V | 00:00:00 | 00:00:00 | 00:00:00 |